<?xml version='1.0' encoding='UTF-8'?><gpx version="1.1" creator="JPX - https://github.com/jenetics/jpx" xmlns="http://www.topografix.com/GPX/1/1"><trk><trkseg><trkpt lat="45.65184507675363" lon="9.945542539141911"><ele>237.0</ele><time>2026-04-23T09:54:40.825Z</time></trkpt><trkpt lat="45.65180671132948" lon="9.94583921766102"><ele>237.0</ele><time>2026-04-23T09:54:43.995Z</time></trkpt><trkpt lat="45.651841897444086" lon="9.945939642505342"><ele>237.0</ele><time>2026-04-23T09:54:46.995Z</time></trkpt><trkpt lat="45.65186013561869" lon="9.946034356600421"><ele>237.0</ele><time>2026-04-23T09:54:49Z</time></trkpt><trkpt lat="45.65189646876364" lon="9.94612572239238"><ele>237.0</ele><time>2026-04-23T09:54:53Z</time></trkpt><trkpt lat="45.65190939968285" lon="9.946218185582552"><ele>237.39999999999998</ele><time>2026-04-23T09:54:56Z</time></trkpt><trkpt lat="45.65196727297094" lon="9.946341690060903"><ele>237.79999999999998</ele><time>2026-04-23T09:55:01Z</time></trkpt><trkpt lat="45.65193558021008" lon="9.946486678719268"><ele>238.2</ele><time>2026-04-23T09:55:03Z</time></trkpt><trkpt lat="45.65190234699152" lon="9.946611659597362"><ele>238.6</ele><time>2026-04-23T09:55:05Z</time></trkpt><trkpt lat="45.65187860130641" lon="9.946706883824964"><ele>239.0</ele><time>2026-04-23T09:55:07Z</time></trkpt><trkpt lat="45.651833389210324" lon="9.946837514643079"><ele>240.6</ele><time>2026-04-23T09:55:09Z</time></trkpt><trkpt lat="45.651796810718196" lon="9.94695239106527"><ele>242.2</ele><time>2026-04-23T09:55:11Z</time></trkpt><trkpt lat="45.65182216199068" lon="9.947066490895011"><ele>243.79999999999998</ele><time>2026-04-23T09:55:14Z</time></trkpt><trkpt lat="45.65189429671285" lon="9.947137577554884"><ele>245.39999999999998</ele><time>2026-04-23T09:55:15.999Z</time></trkpt><trkpt lat="45.65196752442409" lon="9.947224774298318"><ele>247.0</ele><time>2026-04-23T09:55:17.999Z</time></trkpt><trkpt lat="45.65200852587894" lon="9.947364280821247"><ele>243.2</ele><time>2026-04-23T09:55:23.999Z</time></trkpt><trkpt lat="45.652048762764245" lon="9.947512348358584"><ele>239.39999999999998</ele><time>2026-04-23T09:55:24.999Z</time></trkpt><trkpt lat="45.65207494840059" lon="9.947625715887291"><ele>235.60000000000002</ele><time>2026-04-23T09:55:25.999Z</time></trkpt><trkpt lat="45.652095755042915" lon="9.94773531326788"><ele>231.8</ele><time>2026-04-23T09:55:26.999Z</time></trkpt><trkpt lat="45.65212095438918" lon="9.947921343161893"><ele>228.0</ele><time>2026-04-23T09:55:29.999Z</time></trkpt><trkpt lat="45.65215047068747" lon="9.948024706109745"><ele>228.0</ele><time>2026-04-23T09:55:30.999Z</time></trkpt><trkpt lat="45.65218630961633" lon="9.948140333189905"><ele>228.0</ele><time>2026-04-23T09:55:31.999Z</time></trkpt><trkpt lat="45.652219060435776" lon="9.948282361631643"><ele>228.0</ele><time>2026-04-23T09:55:32.999Z</time></trkpt><trkpt lat="45.65224663193436" lon="9.948396969734986"><ele>228.0</ele><time>2026-04-23T09:55:33.999Z</time></trkpt><trkpt lat="45.65228967324886" lon="9.948504170223538"><ele>228.0</ele><time>2026-04-23T09:55:34.999Z</time></trkpt><trkpt lat="45.65233429162025" lon="9.948610692758614"><ele>228.8</ele><time>2026-04-23T09:55:35.999Z</time></trkpt><trkpt lat="45.6523825707692" lon="9.948768265753671"><ele>229.60000000000002</ele><time>2026-04-23T09:55:36.999Z</time></trkpt><trkpt lat="45.652422132628956" lon="9.948947304290124"><ele>230.39999999999998</ele><time>2026-04-23T09:55:37.999Z</time></trkpt><trkpt lat="45.652473393716114" lon="9.949061772247575"><ele>231.2</ele><time>2026-04-23T09:55:38.999Z</time></trkpt><trkpt lat="45.65252498261014" lon="9.949183619713073"><ele>232.0</ele><time>2026-04-23T09:55:39.999Z</time></trkpt><trkpt lat="45.65257971801647" lon="9.949345412789445"><ele>232.0</ele><time>2026-04-23T09:55:40.999Z</time></trkpt><trkpt lat="45.6526359112504" lon="9.949483136677614"><ele>232.0</ele><time>2026-04-23T09:55:41.999Z</time></trkpt><trkpt lat="45.6526996696804" lon="9.949608823895788"><ele>232.0</ele><time>2026-04-23T09:55:42.999Z</time></trkpt><trkpt lat="45.652784124037375" lon="9.949705681038441"><ele>232.0</ele><time>2026-04-23T09:55:43.999Z</time></trkpt><trkpt lat="45.65284501861419" lon="9.94982878029621"><ele>232.0</ele><time>2026-04-23T09:55:44.999Z</time></trkpt><trkpt lat="45.652891408485694" lon="9.949975709053076"><ele>228.39999999999998</ele><time>2026-04-23T09:55:45.999Z</time></trkpt><trkpt lat="45.65296841956761" lon="9.950117462472262"><ele>224.79999999999998</ele><time>2026-04-23T09:55:46.999Z</time></trkpt><trkpt lat="45.65302878781436" lon="9.950256742190266"><ele>221.2</ele><time>2026-04-23T09:55:47.999Z</time></trkpt><trkpt lat="45.65307287787325" lon="9.950359020556373"><ele>217.6</ele><time>2026-04-23T09:55:48.999Z</time></trkpt><trkpt lat="45.65311276863481" lon="9.950435602814776"><ele>214.0</ele><time>2026-04-23T09:55:49.999Z</time></trkpt><trkpt lat="45.653177694558465" lon="9.950531249423161"><ele>214.0</ele><time>2026-04-23T09:55:50.999Z</time></trkpt><trkpt lat="45.6532191298968" lon="9.950621030323807"><ele>213.99999999999997</ele><time>2026-04-23T09:55:51.999Z</time></trkpt><trkpt lat="45.65327897765057" lon="9.950717099343617"><ele>213.99999999999997</ele><time>2026-04-23T09:55:52.999Z</time></trkpt><trkpt lat="45.65335000135365" lon="9.950876122932758"><ele>214.0</ele><time>2026-04-23T09:55:54.999Z</time></trkpt><trkpt lat="45.65338805946669" lon="9.950957000201852"><ele>214.0</ele><time>2026-04-23T09:55:55.999Z</time></trkpt><trkpt lat="45.65345390534359" lon="9.951114595335484"><ele>214.0</ele><time>2026-04-23T09:55:57.999Z</time></trkpt><trkpt lat="45.65349777867019" lon="9.951245737778262"><ele>213.99999999999997</ele><time>2026-04-23T09:55:58.999Z</time></trkpt><trkpt lat="45.653559041740145" lon="9.951367356571144"><ele>213.99999999999997</ele><time>2026-04-23T09:55:59.999Z</time></trkpt><trkpt lat="45.65360972994219" lon="9.951471284881562"><ele>214.0</ele><time>2026-04-23T09:56:00.999Z</time></trkpt><trkpt lat="45.65366089620316" lon="9.951572564778344"><ele>214.0</ele><time>2026-04-23T09:56:01.999Z</time></trkpt><trkpt lat="45.65369987455124" lon="9.951676199946334"><ele>212.83333333333331</ele><time>2026-04-23T09:56:02.999Z</time></trkpt><trkpt lat="45.6537416923185" lon="9.95177980442568"><ele>211.66666666666666</ele><time>2026-04-23T09:56:03.999Z</time></trkpt><trkpt lat="45.65378643391743" lon="9.951861608516625"><ele>210.5</ele><time>2026-04-23T09:56:04.999Z</time></trkpt><trkpt lat="45.65383631351556" lon="9.951946751838145"><ele>209.33333333333331</ele><time>2026-04-23T09:56:05.999Z</time></trkpt><trkpt lat="45.653869935213415" lon="9.952025498011283"><ele>208.16666666666666</ele><time>2026-04-23T09:56:06.999Z</time></trkpt><trkpt lat="45.65389258737758" lon="9.95217466975393"><ele>207.0</ele><time>2026-04-23T09:56:08.999Z</time></trkpt><trkpt lat="45.65390609386329" lon="9.952263337337866"><ele>207.0</ele><time>2026-04-23T09:56:09.999Z</time></trkpt><trkpt lat="45.65392228466323" lon="9.95235233804982"><ele>207.0</ele><time>2026-04-23T09:56:10.999Z</time></trkpt><trkpt lat="45.6539459238073" lon="9.95243849213228"><ele>207.0</ele><time>2026-04-23T09:56:11.999Z</time></trkpt><trkpt lat="45.653970106886774" lon="9.952528227951282"><ele>207.0</ele><time>2026-04-23T09:56:12.999Z</time></trkpt><trkpt lat="45.65401388694959" lon="9.95270748997475"><ele>207.0</ele><time>2026-04-23T09:56:14.999Z</time></trkpt><trkpt lat="45.65404595542352" lon="9.952807835641348"><ele>207.0</ele><time>2026-04-23T09:56:15.999Z</time></trkpt><trkpt lat="45.65407088126555" lon="9.952919481977526"><ele>206.33333333333334</ele><time>2026-04-23T09:56:16.999Z</time></trkpt><trkpt lat="45.65409286539476" lon="9.953033909778494"><ele>205.66666666666669</ele><time>2026-04-23T09:56:17.999Z</time></trkpt><trkpt lat="45.654110032646116" lon="9.953150669889855"><ele>205.0</ele><time>2026-04-23T09:56:18.999Z</time></trkpt><trkpt lat="45.65412748748154" lon="9.953275626468848"><ele>204.33333333333334</ele><time>2026-04-23T09:56:19.999Z</time></trkpt><trkpt lat="45.65415376969574" lon="9.953391253824778"><ele>203.66666666666669</ele><time>2026-04-23T09:56:20.999Z</time></trkpt><trkpt lat="45.654181467133625" lon="9.953497804245565"><ele>203.0</ele><time>2026-04-23T09:56:21.999Z</time></trkpt><trkpt lat="45.654207992874916" lon="9.9536025717144"><ele>203.00000000000003</ele><time>2026-04-23T09:56:22.999Z</time></trkpt><trkpt lat="45.65423480185912" lon="9.953717211106309"><ele>203.0</ele><time>2026-04-23T09:56:23.999Z</time></trkpt><trkpt lat="45.65426563970218" lon="9.953825511944544"><ele>203.0</ele><time>2026-04-23T09:56:24.999Z</time></trkpt><trkpt lat="45.65429025911871" lon="9.953935908168026"><ele>203.0</ele><time>2026-04-23T09:56:25.999Z</time></trkpt><trkpt lat="45.654314010072" lon="9.954033117378632"><ele>203.00000000000003</ele><time>2026-04-23T09:56:26.999Z</time></trkpt><trkpt lat="45.65434762631037" lon="9.954127811164573"><ele>203.0</ele><time>2026-04-23T09:56:27.999Z</time></trkpt><trkpt lat="45.654375545323354" lon="9.954256186604937"><ele>202.33333333333334</ele><time>2026-04-23T09:56:28.999Z</time></trkpt><trkpt lat="45.65440161462501" lon="9.954373157839623"><ele>201.66666666666669</ele><time>2026-04-23T09:56:29.999Z</time></trkpt><trkpt lat="45.654425434125464" lon="9.954495323076536"><ele>201.0</ele><time>2026-04-23T09:56:30.999Z</time></trkpt><trkpt lat="45.654453939509594" lon="9.954600638418128"><ele>200.33333333333331</ele><time>2026-04-23T09:56:31.999Z</time></trkpt><trkpt lat="45.65447810929048" lon="9.954696408425535"><ele>199.66666666666666</ele><time>2026-04-23T09:56:32.999Z</time></trkpt><trkpt lat="45.654494767919026" lon="9.954793959218515"><ele>199.0</ele><time>2026-04-23T09:56:33.999Z</time></trkpt><trkpt lat="45.65451703197285" lon="9.954888360170925"><ele>198.99999999999997</ele><time>2026-04-23T09:56:34.999Z</time></trkpt><trkpt lat="45.65453507758363" lon="9.95497818278224"><ele>199.0</ele><time>2026-04-23T09:56:35.999Z</time></trkpt><trkpt lat="45.654549856883165" lon="9.955080584184314"><ele>199.0</ele><time>2026-04-23T09:56:36.999Z</time></trkpt><trkpt lat="45.654567297324625" lon="9.955186636757558"><ele>199.0</ele><time>2026-04-23T09:56:37.999Z</time></trkpt><trkpt lat="45.65458545136614" lon="9.955298190386882"><ele>198.99999999999997</ele><time>2026-04-23T09:56:38.999Z</time></trkpt><trkpt lat="45.654604840701325" lon="9.95540363272776"><ele>199.0</ele><time>2026-04-23T09:56:39.999Z</time></trkpt><trkpt lat="45.654654541230826" lon="9.955576845139024"><ele>198.33333333333331</ele><time>2026-04-23T09:56:41.999Z</time></trkpt><trkpt lat="45.65467680095746" lon="9.955664859121068"><ele>197.66666666666666</ele><time>2026-04-23T09:56:42.999Z</time></trkpt><trkpt lat="45.65469524321456" lon="9.955796069372745"><ele>197.0</ele><time>2026-04-23T09:56:43.999Z</time></trkpt><trkpt lat="45.654713821311184" lon="9.955900324179416"><ele>196.33333333333331</ele><time>2026-04-23T09:56:44.999Z</time></trkpt><trkpt lat="45.65473061933797" lon="9.956000105054446"><ele>195.66666666666666</ele><time>2026-04-23T09:56:45.999Z</time></trkpt><trkpt lat="45.65475340683149" lon="9.956107894616611"><ele>195.0</ele><time>2026-04-23T09:56:46.999Z</time></trkpt><trkpt lat="45.65477538536258" lon="9.956221365089005"><ele>194.66666666666666</ele><time>2026-04-23T09:56:47.999Z</time></trkpt><trkpt lat="45.65479838074203" lon="9.956323024696067"><ele>194.33333333333331</ele><time>2026-04-23T09:56:48.999Z</time></trkpt><trkpt lat="45.65481796205695" lon="9.956410766258497"><ele>194.0</ele><time>2026-04-23T09:56:49.999Z</time></trkpt><trkpt lat="45.6548487483308" lon="9.956571409329037"><ele>193.66666666666666</ele><time>2026-04-23T09:56:51.999Z</time></trkpt><trkpt lat="45.6548767621089" lon="9.956675106302523"><ele>193.33333333333331</ele><time>2026-04-23T09:56:54.998Z</time></trkpt><trkpt lat="45.65485473933498" lon="9.956791355056515"><ele>193.0</ele><time>2026-04-23T09:56:57.999Z</time></trkpt><trkpt lat="45.65479171679671" lon="9.956882613804025"><ele>192.99999999999997</ele><time>2026-04-23T09:56:59.999Z</time></trkpt><trkpt lat="45.65470070910259" lon="9.956960970221958"><ele>193.0</ele><time>2026-04-23T09:57:01.999Z</time></trkpt><trkpt lat="45.65462252047669" lon="9.95701760961561"><ele>193.0</ele><time>2026-04-23T09:57:03.999Z</time></trkpt><trkpt lat="45.65454396585752" lon="9.957052127920553"><ele>193.0</ele><time>2026-04-23T09:57:05.999Z</time></trkpt><trkpt lat="45.654485170937335" lon="9.957097614144141"><ele>192.99999999999997</ele><time>2026-04-23T09:57:06.999Z</time></trkpt><trkpt lat="45.6544016140359" lon="9.95718340178995"><ele>193.0</ele><time>2026-04-23T09:57:08.999Z</time></trkpt><trkpt lat="45.65434858691286" lon="9.957245956575576"><ele>193.0</ele><time>2026-04-23T09:57:10.999Z</time></trkpt><trkpt lat="45.654291608917205" lon="9.957308179246159"><ele>193.0</ele><time>2026-04-23T09:57:12.999Z</time></trkpt><trkpt lat="45.654250751380545" lon="9.957409944912342"><ele>193.0</ele><time>2026-04-23T09:57:16.999Z</time></trkpt><trkpt lat="45.654215434770606" lon="9.957528580948665"><ele>193.0</ele><time>2026-04-23T09:57:18.999Z</time></trkpt><trkpt lat="45.654205477527746" lon="9.957635415157132"><ele>193.0</ele><time>2026-04-23T09:57:19.999Z</time></trkpt><trkpt lat="45.65419603612453" lon="9.957824310996283"><ele>192.8</ele><time>2026-04-23T09:57:21.999Z</time></trkpt><trkpt lat="45.65420815490945" lon="9.957970747969014"><ele>192.60000000000002</ele><time>2026-04-23T09:57:23.999Z</time></trkpt><trkpt lat="45.654238804388676" lon="9.958140169799478"><ele>192.39999999999998</ele><time>2026-04-23T09:57:26Z</time></trkpt><trkpt lat="45.65423922904725" lon="9.958238600563071"><ele>192.2</ele><time>2026-04-23T09:57:27Z</time></trkpt><trkpt lat="45.65420136879242" lon="9.958385231366204"><ele>192.0</ele><time>2026-04-23T09:57:29Z</time></trkpt><trkpt lat="45.65418880364567" lon="9.958565330870597"><ele>191.66666666666666</ele><time>2026-04-23T09:57:31Z</time></trkpt><trkpt lat="45.65418713267774" lon="9.958677260637609"><ele>191.33333333333334</ele><time>2026-04-23T09:57:32Z</time></trkpt><trkpt lat="45.65419085822647" lon="9.958794199125654"><ele>191.0</ele><time>2026-04-23T09:57:33Z</time></trkpt><trkpt lat="45.654189179798166" lon="9.958979064262705"><ele>190.66666666666669</ele><time>2026-04-23T09:57:35Z</time></trkpt><trkpt lat="45.65418928409868" lon="9.959095138027635"><ele>190.33333333333334</ele><time>2026-04-23T09:57:36Z</time></trkpt><trkpt lat="45.654179432747064" lon="9.95919606469114"><ele>190.0</ele><time>2026-04-23T09:57:37Z</time></trkpt><trkpt lat="45.65417295083471" lon="9.959300750111371"><ele>189.83333333333334</ele><time>2026-04-23T09:57:38Z</time></trkpt><trkpt lat="45.65417732588767" lon="9.959453643130491"><ele>189.66666666666669</ele><time>2026-04-23T09:57:40Z</time></trkpt><trkpt lat="45.65417672611755" lon="9.959544565158398"><ele>189.5</ele><time>2026-04-23T09:57:41Z</time></trkpt><trkpt lat="45.654171075658965" lon="9.959659477890128"><ele>189.33333333333334</ele><time>2026-04-23T09:57:42Z</time></trkpt><trkpt lat="45.6541693184446" lon="9.959779895169909"><ele>189.16666666666666</ele><time>2026-04-23T09:57:43Z</time></trkpt><trkpt lat="45.65416257871895" lon="9.959884837162488"><ele>189.0</ele><time>2026-04-23T09:57:44Z</time></trkpt><trkpt lat="45.65415206128683" lon="9.959989622544672"><ele>189.0</ele><time>2026-04-23T09:57:45Z</time></trkpt><trkpt lat="45.65416285811508" lon="9.960097318684397"><ele>189.0</ele><time>2026-04-23T09:57:46Z</time></trkpt><trkpt lat="45.6541715782901" lon="9.960282416946532"><ele>189.0</ele><time>2026-04-23T09:57:48Z</time></trkpt><trkpt lat="45.65417863530728" lon="9.960377322475315"><ele>189.0</ele><time>2026-04-23T09:57:49Z</time></trkpt><trkpt lat="45.65417775350511" lon="9.960484987621127"><ele>189.0</ele><time>2026-04-23T09:57:50Z</time></trkpt><trkpt lat="45.65418218322081" lon="9.960589430419763"><ele>189.0</ele><time>2026-04-23T09:57:51Z</time></trkpt><trkpt lat="45.65418257157573" lon="9.960768922172276"><ele>189.16666666666666</ele><time>2026-04-23T09:57:53Z</time></trkpt><trkpt lat="45.65417755479648" lon="9.960867872775934"><ele>189.33333333333334</ele><time>2026-04-23T09:57:54Z</time></trkpt><trkpt lat="45.65416040988524" lon="9.960992287326947"><ele>189.5</ele><time>2026-04-23T09:57:56Z</time></trkpt><trkpt lat="45.654152084969894" lon="9.961150202776453"><ele>189.66666666666669</ele><time>2026-04-23T09:57:58Z</time></trkpt><trkpt lat="45.65415180172345" lon="9.961245816704702"><ele>189.83333333333334</ele><time>2026-04-23T09:57:59Z</time></trkpt><trkpt lat="45.65415050109505" lon="9.96134018906359"><ele>190.0</ele><time>2026-04-23T09:58:00Z</time></trkpt><trkpt lat="45.6541332954769" lon="9.961436765568388"><ele>190.0</ele><time>2026-04-23T09:58:01Z</time></trkpt><trkpt lat="45.65412131503438" lon="9.96154256711365"><ele>190.0</ele><time>2026-04-23T09:58:02Z</time></trkpt><trkpt lat="45.654113769338906" lon="9.96164532195346"><ele>190.0</ele><time>2026-04-23T09:58:03Z</time></trkpt><trkpt lat="45.65411142673474" lon="9.96174196212591"><ele>190.0</ele><time>2026-04-23T09:58:04Z</time></trkpt><trkpt lat="45.65411133968193" lon="9.961842645292604"><ele>190.0</ele><time>2026-04-23T09:58:05Z</time></trkpt><trkpt lat="45.65410943899745" lon="9.961944562680097"><ele>190.0</ele><time>2026-04-23T09:58:06Z</time></trkpt><trkpt lat="45.654112435975634" lon="9.962038763562868"><ele>190.0</ele><time>2026-04-23T09:58:07Z</time></trkpt><trkpt lat="45.654126791481005" lon="9.962216316019301"><ele>189.83333333333334</ele><time>2026-04-23T09:58:09Z</time></trkpt><trkpt lat="45.65412481980079" lon="9.962311819170216"><ele>189.66666666666669</ele><time>2026-04-23T09:58:10Z</time></trkpt><trkpt lat="45.65412128997108" lon="9.96241105723217"><ele>189.5</ele><time>2026-04-23T09:58:11Z</time></trkpt><trkpt lat="45.654107913620244" lon="9.962570968585526"><ele>189.33333333333334</ele><time>2026-04-23T09:58:13Z</time></trkpt><trkpt lat="45.654069027791785" lon="9.962719922314923"><ele>189.16666666666666</ele><time>2026-04-23T09:58:15Z</time></trkpt><trkpt lat="45.654051782640906" lon="9.962809713432387"><ele>189.0</ele><time>2026-04-23T09:58:16Z</time></trkpt><trkpt lat="45.65402473444669" lon="9.962892166782437"><ele>189.0</ele><time>2026-04-23T09:58:17Z</time></trkpt><trkpt lat="45.654000299254214" lon="9.963049443110702"><ele>189.0</ele><time>2026-04-23T09:58:19Z</time></trkpt><trkpt lat="45.65399554677587" lon="9.96320395188283"><ele>189.0</ele><time>2026-04-23T09:58:21Z</time></trkpt><trkpt lat="45.653991516469034" lon="9.963347775680406"><ele>189.0</ele><time>2026-04-23T09:58:23Z</time></trkpt><trkpt lat="45.65405788886743" lon="9.963391159597025"><ele>189.0</ele><time>2026-04-23T09:58:28Z</time></trkpt><trkpt lat="45.65415345919057" lon="9.963358426310812"><ele>189.0</ele><time>2026-04-23T09:58:30Z</time></trkpt><trkpt lat="45.65424388764216" lon="9.9633282597862"><ele>189.0</ele><time>2026-04-23T09:58:32Z</time></trkpt><trkpt lat="45.65430212407533" lon="9.963363982244516"><ele>189.0</ele><time>2026-04-23T09:58:34Z</time></trkpt><trkpt lat="45.65439232947258" lon="9.963390310985492"><ele>189.0</ele><time>2026-04-23T09:58:36Z</time></trkpt><trkpt lat="45.654519148922006" lon="9.963381261299038"><ele>189.0</ele><time>2026-04-23T09:58:38Z</time></trkpt><trkpt lat="45.65458308840063" lon="9.963399235817041"><ele>189.0</ele><time>2026-04-23T09:58:39Z</time></trkpt><trkpt lat="45.654645021535146" lon="9.963428403989594"><ele>188.5</ele><time>2026-04-23T09:58:40Z</time></trkpt><trkpt lat="45.65473286360326" lon="9.963532818461635"><ele>188.0</ele><time>2026-04-23T09:58:42Z</time></trkpt><trkpt lat="45.65480440666936" lon="9.963657092412257"><ele>187.5</ele><time>2026-04-23T09:58:44Z</time></trkpt><trkpt lat="45.65485328904912" lon="9.963800537228757"><ele>187.0</ele><time>2026-04-23T09:58:46Z</time></trkpt><trkpt lat="45.6549067538241" lon="9.963967010727163"><ele>187.0</ele><time>2026-04-23T09:58:48Z</time></trkpt><trkpt lat="45.654929066007476" lon="9.964055137846096"><ele>187.0</ele><time>2026-04-23T09:58:49Z</time></trkpt><trkpt lat="45.65496046396021" lon="9.964140922154586"><ele>187.0</ele><time>2026-04-23T09:58:50Z</time></trkpt><trkpt lat="45.65499786617676" lon="9.96421977992443"><ele>187.0</ele><time>2026-04-23T09:58:51Z</time></trkpt><trkpt lat="45.65504583871572" lon="9.964281755688814"><ele>187.0</ele><time>2026-04-23T09:58:52Z</time></trkpt><trkpt lat="45.65510037974793" lon="9.964331791695557"><ele>187.0</ele><time>2026-04-23T09:58:53Z</time></trkpt><trkpt lat="45.65515866051988" lon="9.964367738677433"><ele>187.0</ele><time>2026-04-23T09:58:54Z</time></trkpt><trkpt lat="45.65526138881209" lon="9.964410019486218"><ele>187.0</ele><time>2026-04-23T09:58:56Z</time></trkpt><trkpt lat="45.6553319836194" lon="9.964403363119198"><ele>187.0</ele><time>2026-04-23T09:58:57Z</time></trkpt><trkpt lat="45.65539584959284" lon="9.964390103660524"><ele>187.0</ele><time>2026-04-23T09:58:58Z</time></trkpt><trkpt lat="45.655458780860954" lon="9.964387005657457"><ele>187.0</ele><time>2026-04-23T09:58:59Z</time></trkpt><trkpt lat="45.65557412483274" lon="9.964396535227054"><ele>187.0</ele><time>2026-04-23T09:59:00.999Z</time></trkpt><trkpt lat="45.65566507856615" lon="9.964434614222807"><ele>187.0</ele><time>2026-04-23T09:59:02.999Z</time></trkpt><trkpt lat="45.655724407878054" lon="9.96447948022089"><ele>187.0</ele><time>2026-04-23T09:59:03.999Z</time></trkpt><trkpt lat="45.65578135940008" lon="9.96451943875951"><ele>187.0</ele><time>2026-04-23T09:59:04.999Z</time></trkpt><trkpt lat="45.655876215488334" lon="9.964582264171646"><ele>187.0</ele><time>2026-04-23T09:59:06.999Z</time></trkpt><trkpt lat="45.655981763352166" lon="9.964657467639132"><ele>187.0</ele><time>2026-04-23T09:59:08.999Z</time></trkpt><trkpt lat="45.65607087039195" lon="9.964689843845575"><ele>187.0</ele><time>2026-04-23T09:59:10.999Z</time></trkpt><trkpt lat="45.65616517934794" lon="9.964752018224578"><ele>187.0</ele><time>2026-04-23T09:59:12.999Z</time></trkpt><trkpt lat="45.65626550165033" lon="9.964813489054862"><ele>187.0</ele><time>2026-04-23T09:59:14.999Z</time></trkpt><trkpt lat="45.65636221623681" lon="9.964915135373294"><ele>187.0</ele><time>2026-04-23T09:59:16.999Z</time></trkpt><trkpt lat="45.65644546976342" lon="9.965000950183375"><ele>187.0</ele><time>2026-04-23T09:59:18.999Z</time></trkpt><trkpt lat="45.65649549038438" lon="9.965068076145252"><ele>187.0</ele><time>2026-04-23T09:59:19.999Z</time></trkpt><trkpt lat="45.656551821495334" lon="9.965120794603173"><ele>187.0</ele><time>2026-04-23T09:59:20.999Z</time></trkpt><trkpt lat="45.65660315015472" lon="9.965174279871388"><ele>187.0</ele><time>2026-04-23T09:59:21.999Z</time></trkpt><trkpt lat="45.65668794876228" lon="9.965306226761134"><ele>187.0</ele><time>2026-04-23T09:59:24Z</time></trkpt><trkpt lat="45.656745635737" lon="9.965344385964924"><ele>187.0</ele><time>2026-04-23T09:59:25Z</time></trkpt><trkpt lat="45.65680652350779" lon="9.965396878205606"><ele>187.0</ele><time>2026-04-23T09:59:26Z</time></trkpt><trkpt lat="45.656890702643935" lon="9.965361149920975"><ele>187.0</ele><time>2026-04-23T09:59:28Z</time></trkpt><trkpt lat="45.65697490255843" lon="9.965326935139458"><ele>187.0</ele><time>2026-04-23T09:59:30Z</time></trkpt><trkpt lat="45.6570506303679" lon="9.965347215404822"><ele>187.0</ele><time>2026-04-23T09:59:33Z</time></trkpt><trkpt lat="45.65712017029247" lon="9.965356027117679"><ele>187.0</ele><time>2026-04-23T09:59:35Z</time></trkpt><trkpt lat="45.65721850730117" lon="9.965430947627054"><ele>187.0</ele><time>2026-04-23T09:59:37Z</time></trkpt><trkpt lat="45.657303780009116" lon="9.96548128533775"><ele>187.0</ele><time>2026-04-23T09:59:39Z</time></trkpt><trkpt lat="45.657416109148876" lon="9.965530836054137"><ele>187.0</ele><time>2026-04-23T09:59:41Z</time></trkpt><trkpt lat="45.657486972427485" lon="9.965534851703566"><ele>187.0</ele><time>2026-04-23T09:59:43Z</time></trkpt><trkpt lat="45.657543392337686" lon="9.965581968369007"><ele>187.0</ele><time>2026-04-23T09:59:44Z</time></trkpt><trkpt lat="45.657621241215246" lon="9.965651663027757"><ele>187.0</ele><time>2026-04-23T09:59:46Z</time></trkpt><trkpt lat="45.65769629234243" lon="9.965689265935616"><ele>187.0</ele><time>2026-04-23T09:59:48Z</time></trkpt><trkpt lat="45.657791166632336" lon="9.965717633510044"><ele>187.0</ele><time>2026-04-23T09:59:50Z</time></trkpt><trkpt lat="45.65786534052871" lon="9.965791337280956"><ele>187.5</ele><time>2026-04-23T09:59:52Z</time></trkpt><trkpt lat="45.65786336603339" lon="9.96590303553535"><ele>188.0</ele><time>2026-04-23T09:59:57Z</time></trkpt><trkpt lat="45.65786277109609" lon="9.966033633962068"><ele>188.5</ele><time>2026-04-23T09:59:59Z</time></trkpt><trkpt lat="45.65786724378666" lon="9.966180325639055"><ele>189.0</ele><time>2026-04-23T10:00:01Z</time></trkpt><trkpt lat="45.65786539162543" lon="9.966286592893681"><ele>189.5</ele><time>2026-04-23T10:00:02Z</time></trkpt><trkpt lat="45.65787678384784" lon="9.96638215953504"><ele>190.0</ele><time>2026-04-23T10:00:03Z</time></trkpt><trkpt lat="45.657885564284186" lon="9.966530478989593"><ele>189.5</ele><time>2026-04-23T10:00:05Z</time></trkpt><trkpt lat="45.65787652967629" lon="9.966704377192686"><ele>189.0</ele><time>2026-04-23T10:00:07Z</time></trkpt><trkpt lat="45.65791266981565" lon="9.966843443654083"><ele>188.5</ele><time>2026-04-23T10:00:09Z</time></trkpt><trkpt lat="45.65793487249861" lon="9.967008607298858"><ele>188.0</ele><time>2026-04-23T10:00:11Z</time></trkpt><trkpt lat="45.657982318448255" lon="9.96716329695937"><ele>188.0</ele><time>2026-04-23T10:00:14Z</time></trkpt><trkpt lat="45.65804632834594" lon="9.967218812230294"><ele>188.0</ele><time>2026-04-23T10:00:16Z</time></trkpt><trkpt lat="45.658096181085746" lon="9.96727923316249"><ele>188.0</ele><time>2026-04-23T10:00:18Z</time></trkpt><trkpt lat="45.65810538146006" lon="9.967384278953189"><ele>188.0</ele><time>2026-04-23T10:00:20Z</time></trkpt><trkpt lat="45.65810030854246" lon="9.967514976456414"><ele>188.0</ele><time>2026-04-23T10:00:22Z</time></trkpt><trkpt lat="45.65813938440025" lon="9.967638455249062"><ele>188.0</ele><time>2026-04-23T10:00:24Z</time></trkpt><trkpt lat="45.65819272604332" lon="9.967776638004947"><ele>188.2</ele><time>2026-04-23T10:00:26Z</time></trkpt><trkpt lat="45.6582393292803" lon="9.967917922777525"><ele>188.4</ele><time>2026-04-23T10:00:28Z</time></trkpt><trkpt lat="45.65829450067558" lon="9.968039962937734"><ele>188.6</ele><time>2026-04-23T10:00:30Z</time></trkpt><trkpt lat="45.65835813978498" lon="9.96815324865029"><ele>188.79999999999998</ele><time>2026-04-23T10:00:32Z</time></trkpt><trkpt lat="45.65842699193823" lon="9.968272922459201"><ele>189.0</ele><time>2026-04-23T10:00:34Z</time></trkpt><trkpt lat="45.65847898737656" lon="9.968395170127463"><ele>189.25</ele><time>2026-04-23T10:00:36Z</time></trkpt><trkpt lat="45.658548810633654" lon="9.96852561799491"><ele>189.5</ele><time>2026-04-23T10:00:38Z</time></trkpt><trkpt lat="45.65862511366033" lon="9.968635692106792"><ele>189.75</ele><time>2026-04-23T10:00:40Z</time></trkpt><trkpt lat="45.65870626290113" lon="9.968759690375515"><ele>190.0</ele><time>2026-04-23T10:00:42Z</time></trkpt><trkpt lat="45.65878436482562" lon="9.968876395228213"><ele>190.0</ele><time>2026-04-23T10:00:44Z</time></trkpt><trkpt lat="45.6588597236782" lon="9.968999667487473"><ele>190.0</ele><time>2026-04-23T10:00:46Z</time></trkpt><trkpt lat="45.65893069199919" lon="9.969113630383564"><ele>190.0</ele><time>2026-04-23T10:00:48Z</time></trkpt><trkpt lat="45.65900021066346" lon="9.969226570696968"><ele>190.0</ele><time>2026-04-23T10:00:50Z</time></trkpt><trkpt lat="45.65908134554369" lon="9.969353635724845"><ele>190.0</ele><time>2026-04-23T10:00:52Z</time></trkpt><trkpt lat="45.65912746750366" lon="9.969421022389298"><ele>189.5</ele><time>2026-04-23T10:00:53Z</time></trkpt><trkpt lat="45.65920665469776" lon="9.969545287693938"><ele>189.0</ele><time>2026-04-23T10:00:55Z</time></trkpt><trkpt lat="45.65928702655257" lon="9.969672986388707"><ele>188.5</ele><time>2026-04-23T10:00:57Z</time></trkpt><trkpt lat="45.659368503272056" lon="9.96977040515601"><ele>188.0</ele><time>2026-04-23T10:00:59Z</time></trkpt><trkpt lat="45.65945809989731" lon="9.969884830706425"><ele>188.0</ele><time>2026-04-23T10:01:01Z</time></trkpt><trkpt lat="45.659515466187855" lon="9.970007311481385"><ele>188.0</ele><time>2026-04-23T10:01:03Z</time></trkpt><trkpt lat="45.65959619658472" lon="9.970126116998289"><ele>188.0</ele><time>2026-04-23T10:01:05Z</time></trkpt><trkpt lat="45.659657539947794" lon="9.970254534208951"><ele>188.0</ele><time>2026-04-23T10:01:07Z</time></trkpt><trkpt lat="45.65974223907074" lon="9.97035881472128"><ele>188.0</ele><time>2026-04-23T10:01:09Z</time></trkpt><trkpt lat="45.65981161135476" lon="9.970484701434296"><ele>188.4</ele><time>2026-04-23T10:01:11Z</time></trkpt><trkpt lat="45.65987827801585" lon="9.970579748015806"><ele>188.8</ele><time>2026-04-23T10:01:13Z</time></trkpt><trkpt lat="45.6599599330171" lon="9.970690940212359"><ele>189.2</ele><time>2026-04-23T10:01:15Z</time></trkpt><trkpt lat="45.66005253921568" lon="9.970807649268794"><ele>189.6</ele><time>2026-04-23T10:01:17Z</time></trkpt><trkpt lat="45.66010279267885" lon="9.97086365643138"><ele>190.0</ele><time>2026-04-23T10:01:18Z</time></trkpt><trkpt lat="45.66018108093879" lon="9.970958351910847"><ele>190.33333333333334</ele><time>2026-04-23T10:01:20Z</time></trkpt><trkpt lat="45.66023641069433" lon="9.97101863572191"><ele>190.66666666666669</ele><time>2026-04-23T10:01:21Z</time></trkpt><trkpt lat="45.660333452184574" lon="9.971115377099933"><ele>191.0</ele><time>2026-04-23T10:01:23Z</time></trkpt><trkpt lat="45.66038840610833" lon="9.971169777594824"><ele>191.33333333333334</ele><time>2026-04-23T10:01:24Z</time></trkpt><trkpt lat="45.660480716434556" lon="9.971270371406415"><ele>191.66666666666666</ele><time>2026-04-23T10:01:26Z</time></trkpt><trkpt lat="45.66053855006548" lon="9.971345503622562"><ele>192.0</ele><time>2026-04-23T10:01:28Z</time></trkpt><trkpt lat="45.66058303969518" lon="9.971413620813703"><ele>191.25</ele><time>2026-04-23T10:01:29Z</time></trkpt><trkpt lat="45.66065366391416" lon="9.971521926478971"><ele>190.5</ele><time>2026-04-23T10:01:31Z</time></trkpt><trkpt lat="45.660740518889256" lon="9.971672784254169"><ele>189.75</ele><time>2026-04-23T10:01:34Z</time></trkpt><trkpt lat="45.660816009629016" lon="9.971797178300129"><ele>189.0</ele><time>2026-04-23T10:01:36Z</time></trkpt><trkpt lat="45.66088198035512" lon="9.971923658509953"><ele>189.0</ele><time>2026-04-23T10:01:38Z</time></trkpt><trkpt lat="45.66094998076934" lon="9.972061708159478"><ele>189.0</ele><time>2026-04-23T10:01:40Z</time></trkpt><trkpt lat="45.66098368530106" lon="9.972155527906917"><ele>189.0</ele><time>2026-04-23T10:01:41Z</time></trkpt><trkpt lat="45.66106251387646" lon="9.972295772786282"><ele>189.0</ele><time>2026-04-23T10:01:43Z</time></trkpt><trkpt lat="45.661092056952604" lon="9.972389991232545"><ele>189.0</ele><time>2026-04-23T10:01:44Z</time></trkpt><trkpt lat="45.66112450426027" lon="9.972467566965268"><ele>188.16666666666666</ele><time>2026-04-23T10:01:45Z</time></trkpt><trkpt lat="45.66115481610992" lon="9.972548265413423"><ele>187.33333333333334</ele><time>2026-04-23T10:01:46Z</time></trkpt><trkpt lat="45.66118281478707" lon="9.97263662980756"><ele>186.5</ele><time>2026-04-23T10:01:47Z</time></trkpt><trkpt lat="45.66123513671239" lon="9.972799940902409"><ele>185.66666666666669</ele><time>2026-04-23T10:01:49Z</time></trkpt><trkpt lat="45.66126574644587" lon="9.972880131980192"><ele>184.83333333333334</ele><time>2026-04-23T10:01:50Z</time></trkpt><trkpt lat="45.66132653337551" lon="9.973021736871644"><ele>184.0</ele><time>2026-04-23T10:01:52Z</time></trkpt><trkpt lat="45.66135647500368" lon="9.973147385810352"><ele>184.0</ele><time>2026-04-23T10:01:54Z</time></trkpt><trkpt lat="45.661391790522906" lon="9.97323161050431"><ele>184.0</ele><time>2026-04-23T10:01:57Z</time></trkpt><trkpt lat="45.661438497710144" lon="9.97337344263803"><ele>184.0</ele><time>2026-04-23T10:01:59Z</time></trkpt><trkpt lat="45.661460253189205" lon="9.973461690504124"><ele>184.0</ele><time>2026-04-23T10:02:00Z</time></trkpt><trkpt lat="45.66149753847112" lon="9.973615029358239"><ele>184.0</ele><time>2026-04-23T10:02:02Z</time></trkpt><trkpt lat="45.66151908880111" lon="9.973711328906639"><ele>184.0</ele><time>2026-04-23T10:02:03Z</time></trkpt><trkpt lat="45.661562010707655" lon="9.97387097456055"><ele>184.6</ele><time>2026-04-23T10:02:05Z</time></trkpt><trkpt lat="45.661599388784744" lon="9.974041850035585"><ele>185.2</ele><time>2026-04-23T10:02:07Z</time></trkpt><trkpt lat="45.661625142574714" lon="9.974128132586749"><ele>185.79999999999998</ele><time>2026-04-23T10:02:08Z</time></trkpt><trkpt lat="45.66165969466269" lon="9.974282485609"><ele>186.39999999999998</ele><time>2026-04-23T10:02:10Z</time></trkpt><trkpt lat="45.66170240527077" lon="9.974446436785112"><ele>187.0</ele><time>2026-04-23T10:02:12Z</time></trkpt><trkpt lat="45.661723158923145" lon="9.974536723727898"><ele>188.0</ele><time>2026-04-23T10:02:13Z</time></trkpt><trkpt lat="45.661752944445446" lon="9.974697235420308"><ele>189.0</ele><time>2026-04-23T10:02:15Z</time></trkpt><trkpt lat="45.661790612514906" lon="9.974819984796216"><ele>190.0</ele><time>2026-04-23T10:02:17Z</time></trkpt><trkpt lat="45.66183644901473" lon="9.974979467132929"><ele>191.0</ele><time>2026-04-23T10:02:19Z</time></trkpt><trkpt lat="45.66188170160364" lon="9.975163262491657"><ele>191.60000000000002</ele><time>2026-04-23T10:02:21Z</time></trkpt><trkpt lat="45.661923628230554" lon="9.975332114653048"><ele>192.2</ele><time>2026-04-23T10:02:23Z</time></trkpt><trkpt lat="45.661947276980804" lon="9.975419155042054"><ele>192.8</ele><time>2026-04-23T10:02:24Z</time></trkpt><trkpt lat="45.66196954766405" lon="9.975506952451802"><ele>193.39999999999998</ele><time>2026-04-23T10:02:25Z</time></trkpt><trkpt lat="45.66200893756478" lon="9.975670936359421"><ele>194.0</ele><time>2026-04-23T10:02:27Z</time></trkpt><trkpt lat="45.66205152828836" lon="9.97582026456411"><ele>192.2</ele><time>2026-04-23T10:02:29Z</time></trkpt><trkpt lat="45.66207363048223" lon="9.975922814414362"><ele>190.39999999999998</ele><time>2026-04-23T10:02:30Z</time></trkpt><trkpt lat="45.662115366187805" lon="9.976076720798373"><ele>188.6</ele><time>2026-04-23T10:02:32Z</time></trkpt><trkpt lat="45.66216196547635" lon="9.97623933179457"><ele>186.8</ele><time>2026-04-23T10:02:34Z</time></trkpt><trkpt lat="45.662200400234305" lon="9.97638752605813"><ele>185.0</ele><time>2026-04-23T10:02:36Z</time></trkpt><trkpt lat="45.662244671188624" lon="9.976539959331244"><ele>186.2</ele><time>2026-04-23T10:02:38Z</time></trkpt><trkpt lat="45.66228469477558" lon="9.976689213470747"><ele>187.4</ele><time>2026-04-23T10:02:40Z</time></trkpt><trkpt lat="45.662299589810864" lon="9.97679104014387"><ele>188.60000000000002</ele><time>2026-04-23T10:02:42Z</time></trkpt><trkpt lat="45.66231481704308" lon="9.976886814062903"><ele>189.8</ele><time>2026-04-23T10:02:44Z</time></trkpt><trkpt lat="45.662345179170785" lon="9.977025205049085"><ele>191.0</ele><time>2026-04-23T10:02:47Z</time></trkpt><trkpt lat="45.66238357142723" lon="9.977186133776742"><ele>191.0</ele><time>2026-04-23T10:02:49Z</time></trkpt><trkpt lat="45.66242712313778" lon="9.977339052111017"><ele>191.0</ele><time>2026-04-23T10:02:51Z</time></trkpt><trkpt lat="45.66247547805225" lon="9.977477215975137"><ele>191.0</ele><time>2026-04-23T10:02:53Z</time></trkpt><trkpt lat="45.662508165191085" lon="9.977554589801779"><ele>191.0</ele><time>2026-04-23T10:02:54Z</time></trkpt><trkpt lat="45.662564182952416" lon="9.977702301839285"><ele>191.0</ele><time>2026-04-23T10:02:56Z</time></trkpt><trkpt lat="45.66258738892352" lon="9.977794625797596"><ele>190.4</ele><time>2026-04-23T10:02:57Z</time></trkpt><trkpt lat="45.662636724751465" lon="9.977939237017921"><ele>189.8</ele><time>2026-04-23T10:02:59Z</time></trkpt><trkpt lat="45.66270013126113" lon="9.978076054897096"><ele>189.20000000000002</ele><time>2026-04-23T10:03:01Z</time></trkpt><trkpt lat="45.66276548503746" lon="9.978202231770155"><ele>188.60000000000002</ele><time>2026-04-23T10:03:03Z</time></trkpt><trkpt lat="45.66280122789469" lon="9.978337223313591"><ele>188.0</ele><time>2026-04-23T10:03:05Z</time></trkpt><trkpt lat="45.66284484492399" lon="9.978462802370604"><ele>188.0</ele><time>2026-04-23T10:03:07Z</time></trkpt><trkpt lat="45.662875731916316" lon="9.978543313679987"><ele>188.0</ele><time>2026-04-23T10:03:08Z</time></trkpt><trkpt lat="45.662853188040174" lon="9.978639247053591"><ele>188.0</ele><time>2026-04-23T10:03:10Z</time></trkpt><trkpt lat="45.66281319036037" lon="9.97877161321217"><ele>188.0</ele><time>2026-04-23T10:03:13Z</time></trkpt><trkpt lat="45.66281904926776" lon="9.978890601826537"><ele>188.0</ele><time>2026-04-23T10:03:16Z</time></trkpt><trkpt lat="45.66283898032741" lon="9.979015241298516"><ele>188.0</ele><time>2026-04-23T10:03:18Z</time></trkpt><trkpt lat="45.66284784435607" lon="9.979114162586361"><ele>188.4</ele><time>2026-04-23T10:03:20Z</time></trkpt><trkpt lat="45.66289012733366" lon="9.979291173656323"><ele>188.8</ele><time>2026-04-23T10:03:22Z</time></trkpt><trkpt lat="45.66292248080472" lon="9.979375093387894"><ele>189.2</ele><time>2026-04-23T10:03:23Z</time></trkpt><trkpt lat="45.66297606859307" lon="9.979493699596716"><ele>189.6</ele><time>2026-04-23T10:03:25Z</time></trkpt><trkpt lat="45.66297134275931" lon="9.979608774912437"><ele>190.0</ele><time>2026-04-23T10:03:27Z</time></trkpt><trkpt lat="45.66306501248879" lon="9.979755608742453"><ele>190.0</ele><time>2026-04-23T10:03:29Z</time></trkpt><trkpt lat="45.663096741881276" lon="9.979839468765364"><ele>190.0</ele><time>2026-04-23T10:03:30Z</time></trkpt><trkpt lat="45.66316247917011" lon="9.979990946920887"><ele>190.0</ele><time>2026-04-23T10:03:32Z</time></trkpt><trkpt lat="45.6632235802902" lon="9.980040200768153"><ele>190.0</ele><time>2026-04-23T10:03:33Z</time></trkpt><trkpt lat="45.66328352864841" lon="9.980154325248124"><ele>190.0</ele><time>2026-04-23T10:03:35Z</time></trkpt><trkpt lat="45.66334331746893" lon="9.980216115942055"><ele>190.0</ele><time>2026-04-23T10:03:36Z</time></trkpt><trkpt lat="45.663389715702614" lon="9.98030609509312"><ele>189.66666666666669</ele><time>2026-04-23T10:03:37Z</time></trkpt><trkpt lat="45.66340069937066" lon="9.980426547661192"><ele>189.33333333333334</ele><time>2026-04-23T10:03:39Z</time></trkpt><trkpt lat="45.66344334138614" lon="9.980528826896839"><ele>189.0</ele><time>2026-04-23T10:03:40Z</time></trkpt><trkpt lat="45.663484308905296" lon="9.980608777556586"><ele>188.66666666666666</ele><time>2026-04-23T10:03:41Z</time></trkpt><trkpt lat="45.66354195371953" lon="9.980701561402379"><ele>188.33333333333331</ele><time>2026-04-23T10:03:42Z</time></trkpt><trkpt lat="45.66359913962295" lon="9.980816234387257"><ele>188.0</ele><time>2026-04-23T10:03:43Z</time></trkpt><trkpt lat="45.66364303286449" lon="9.980954882056126"><ele>188.0</ele><time>2026-04-23T10:03:44Z</time></trkpt><trkpt lat="45.663698893047965" lon="9.981076728997003"><ele>188.0</ele><time>2026-04-23T10:03:45Z</time></trkpt><trkpt lat="45.6637323797957" lon="9.981175563754974"><ele>188.0</ele><time>2026-04-23T10:03:46Z</time></trkpt><trkpt lat="45.66376182848035" lon="9.981279607484698"><ele>188.0</ele><time>2026-04-23T10:03:47Z</time></trkpt><trkpt lat="45.66379442547684" lon="9.981373232342623"><ele>188.0</ele><time>2026-04-23T10:03:48Z</time></trkpt><trkpt lat="45.66383618997966" lon="9.981555267783866"><ele>188.0</ele><time>2026-04-23T10:03:50Z</time></trkpt><trkpt lat="45.663859086430016" lon="9.981642079448317"><ele>188.0</ele><time>2026-04-23T10:03:51Z</time></trkpt><trkpt lat="45.66387887361105" lon="9.981730309623815"><ele>188.0</ele><time>2026-04-23T10:03:52Z</time></trkpt><trkpt lat="45.66393008116639" lon="9.981899543641171"><ele>188.0</ele><time>2026-04-23T10:03:54Z</time></trkpt><trkpt lat="45.663947025698434" lon="9.981991667487383"><ele>188.0</ele><time>2026-04-23T10:03:55Z</time></trkpt><trkpt lat="45.66396631120887" lon="9.98208972021877"><ele>188.0</ele><time>2026-04-23T10:03:56Z</time></trkpt><trkpt lat="45.66398249456303" lon="9.982189425806562"><ele>188.0</ele><time>2026-04-23T10:03:57Z</time></trkpt><trkpt lat="45.66400707477782" lon="9.982281500951588"><ele>188.0</ele><time>2026-04-23T10:03:58Z</time></trkpt><trkpt lat="45.66404022656515" lon="9.982457292299598"><ele>188.0</ele><time>2026-04-23T10:04:00Z</time></trkpt><trkpt lat="45.664064180989484" lon="9.982550837398499"><ele>188.0</ele><time>2026-04-23T10:04:01Z</time></trkpt><trkpt lat="45.664084054262915" lon="9.982639006270356"><ele>188.0</ele><time>2026-04-23T10:04:02Z</time></trkpt><trkpt lat="45.664104716481454" lon="9.982726586435748"><ele>188.0</ele><time>2026-04-23T10:04:03Z</time></trkpt><trkpt lat="45.664126905965375" lon="9.98284126136988"><ele>188.33333333333331</ele><time>2026-04-23T10:04:04Z</time></trkpt><trkpt lat="45.66414777302008" lon="9.982940729653537"><ele>188.66666666666666</ele><time>2026-04-23T10:04:05Z</time></trkpt><trkpt lat="45.664163595785595" lon="9.983032569810481"><ele>189.0</ele><time>2026-04-23T10:04:06Z</time></trkpt><trkpt lat="45.66419710876712" lon="9.98322250219447"><ele>189.33333333333334</ele><time>2026-04-23T10:04:08Z</time></trkpt><trkpt lat="45.66422657996632" lon="9.983328639488017"><ele>189.66666666666669</ele><time>2026-04-23T10:04:09Z</time></trkpt><trkpt lat="45.664250193191286" lon="9.983414347310818"><ele>190.0</ele><time>2026-04-23T10:04:10Z</time></trkpt><trkpt lat="45.6642631128942" lon="9.983506424628223"><ele>190.4</ele><time>2026-04-23T10:04:11Z</time></trkpt><trkpt lat="45.66429386131665" lon="9.983662923450735"><ele>190.8</ele><time>2026-04-23T10:04:13Z</time></trkpt><trkpt lat="45.66432340693427" lon="9.983821453452004"><ele>191.2</ele><time>2026-04-23T10:04:15Z</time></trkpt><trkpt lat="45.66434350738047" lon="9.983911198274402"><ele>191.6</ele><time>2026-04-23T10:04:16Z</time></trkpt><trkpt lat="45.66437436321815" lon="9.98408021091175"><ele>192.0</ele><time>2026-04-23T10:04:18Z</time></trkpt><trkpt lat="45.664395860482955" lon="9.984180742079053"><ele>192.66666666666666</ele><time>2026-04-23T10:04:19Z</time></trkpt><trkpt lat="45.664434088890786" lon="9.984334572628052"><ele>193.33333333333331</ele><time>2026-04-23T10:04:21Z</time></trkpt><trkpt lat="45.6644442510149" lon="9.984437964914953"><ele>194.0</ele><time>2026-04-23T10:04:22Z</time></trkpt><trkpt lat="45.664455615746135" lon="9.984530725214531"><ele>194.66666666666666</ele><time>2026-04-23T10:04:23Z</time></trkpt><trkpt lat="45.66446463803612" lon="9.984620665619751"><ele>195.33333333333331</ele><time>2026-04-23T10:04:24Z</time></trkpt><trkpt lat="45.66449090176691" lon="9.984770053290926"><ele>196.0</ele><time>2026-04-23T10:04:26Z</time></trkpt><trkpt lat="45.664510796861705" lon="9.984860761630925"><ele>194.60000000000002</ele><time>2026-04-23T10:04:27Z</time></trkpt><trkpt lat="45.66454693490694" lon="9.985000117799816"><ele>193.2</ele><time>2026-04-23T10:04:29Z</time></trkpt><trkpt lat="45.66458129676224" lon="9.985150096287871"><ele>191.8</ele><time>2026-04-23T10:04:31Z</time></trkpt><trkpt lat="45.66461133168279" lon="9.985272189157307"><ele>190.39999999999998</ele><time>2026-04-23T10:04:33Z</time></trkpt><trkpt lat="45.66463343308889" lon="9.985417771793836"><ele>189.0</ele><time>2026-04-23T10:04:35Z</time></trkpt><trkpt lat="45.66465734565541" lon="9.985571482864536"><ele>189.0</ele><time>2026-04-23T10:04:37Z</time></trkpt><trkpt lat="45.664681563029085" lon="9.985677385512929"><ele>189.0</ele><time>2026-04-23T10:04:39Z</time></trkpt><trkpt lat="45.664699654253454" lon="9.985768042850191"><ele>189.0</ele><time>2026-04-23T10:04:40Z</time></trkpt><trkpt lat="45.664727223149995" lon="9.985908393954"><ele>189.0</ele><time>2026-04-23T10:04:42Z</time></trkpt><trkpt lat="45.66474021827513" lon="9.985997391516594"><ele>189.0</ele><time>2026-04-23T10:04:43Z</time></trkpt><trkpt lat="45.66476832285958" lon="9.986159418721442"><ele>189.0</ele><time>2026-04-23T10:04:45Z</time></trkpt><trkpt lat="45.66479318300156" lon="9.986315949945332"><ele>189.0</ele><time>2026-04-23T10:04:47Z</time></trkpt><trkpt lat="45.66482599801227" lon="9.986513269814637"><ele>189.0</ele><time>2026-04-23T10:04:49Z</time></trkpt><trkpt lat="45.664863890151345" lon="9.986692373381226"><ele>189.0</ele><time>2026-04-23T10:04:51Z</time></trkpt><trkpt lat="45.66488656488345" lon="9.986781814923065"><ele>189.0</ele><time>2026-04-23T10:04:52Z</time></trkpt><trkpt lat="45.66491295196376" lon="9.98693105753248"><ele>189.0</ele><time>2026-04-23T10:04:54Z</time></trkpt><trkpt lat="45.66493686432092" lon="9.987024733560947"><ele>188.79999999999998</ele><time>2026-04-23T10:04:55Z</time></trkpt><trkpt lat="45.66495872668979" lon="9.98711238695303"><ele>188.6</ele><time>2026-04-23T10:04:56Z</time></trkpt><trkpt lat="45.66497181706428" lon="9.987212228053352"><ele>188.4</ele><time>2026-04-23T10:04:57Z</time></trkpt><trkpt lat="45.66499552311487" lon="9.98737972084445"><ele>188.2</ele><time>2026-04-23T10:04:59Z</time></trkpt><trkpt lat="45.6650314210632" lon="9.987548422610052"><ele>188.0</ele><time>2026-04-23T10:05:01Z</time></trkpt><trkpt lat="45.665061023636156" lon="9.987705498281494"><ele>188.4</ele><time>2026-04-23T10:05:03Z</time></trkpt><trkpt lat="45.66509647360189" lon="9.987854351801394"><ele>188.8</ele><time>2026-04-23T10:05:05Z</time></trkpt><trkpt lat="45.6651005956956" lon="9.987965834473831"><ele>189.2</ele><time>2026-04-23T10:05:07Z</time></trkpt><trkpt lat="45.66510922259905" lon="9.98809943039794"><ele>189.6</ele><time>2026-04-23T10:05:09Z</time></trkpt><trkpt lat="45.665131951636" lon="9.988268336104008"><ele>190.0</ele><time>2026-04-23T10:05:11.001Z</time></trkpt><trkpt lat="45.66512976298964" lon="9.98842665196458"><ele>190.0</ele><time>2026-04-23T10:05:13.001Z</time></trkpt><trkpt lat="45.66515196551489" lon="9.988572916239493"><ele>190.0</ele><time>2026-04-23T10:05:15.001Z</time></trkpt><trkpt lat="45.66516905606095" lon="9.988746192240884"><ele>190.0</ele><time>2026-04-23T10:05:17.001Z</time></trkpt><trkpt lat="45.66518696734406" lon="9.988841385542933"><ele>190.0</ele><time>2026-04-23T10:05:18.001Z</time></trkpt><trkpt lat="45.665200600964994" lon="9.988939554421433"><ele>190.0</ele><time>2026-04-23T10:05:19.001Z</time></trkpt><trkpt lat="45.665215736014176" lon="9.98902722747111"><ele>190.0</ele><time>2026-04-23T10:05:20.001Z</time></trkpt><trkpt lat="45.66523973535365" lon="9.98912910172002"><ele>189.4</ele><time>2026-04-23T10:05:21.001Z</time></trkpt><trkpt lat="45.665262044557906" lon="9.989226236018864"><ele>188.8</ele><time>2026-04-23T10:05:22.001Z</time></trkpt><trkpt lat="45.6652825813758" lon="9.989323060475243"><ele>188.2</ele><time>2026-04-23T10:05:23.001Z</time></trkpt><trkpt lat="45.665313631632806" lon="9.98948677729377"><ele>187.6</ele><time>2026-04-23T10:05:25.001Z</time></trkpt><trkpt lat="45.66534156512359" lon="9.989652899218319"><ele>187.0</ele><time>2026-04-23T10:05:27.001Z</time></trkpt><trkpt lat="45.6653648544384" lon="9.989747666436061"><ele>187.0</ele><time>2026-04-23T10:05:28.001Z</time></trkpt><trkpt lat="45.66538175437717" lon="9.98983607075201"><ele>187.0</ele><time>2026-04-23T10:05:29.001Z</time></trkpt><trkpt lat="45.66539740315266" lon="9.989979504769398"><ele>187.0</ele><time>2026-04-23T10:05:31.001Z</time></trkpt><trkpt lat="45.66541399367146" lon="9.990066557533765"><ele>187.0</ele><time>2026-04-23T10:05:32.001Z</time></trkpt><trkpt lat="45.66542831799207" lon="9.99015679703134"><ele>187.0</ele><time>2026-04-23T10:05:33.001Z</time></trkpt><trkpt lat="45.66544404779709" lon="9.99029465580531"><ele>187.0</ele><time>2026-04-23T10:05:35.001Z</time></trkpt><trkpt lat="45.66547477683665" lon="9.990445808935837"><ele>187.0</ele><time>2026-04-23T10:05:37.001Z</time></trkpt><trkpt lat="45.665494104022315" lon="9.990547690041295"><ele>187.0</ele><time>2026-04-23T10:05:38.001Z</time></trkpt><trkpt lat="45.66550824392334" lon="9.990639491319406"><ele>187.0</ele><time>2026-04-23T10:05:39.001Z</time></trkpt><trkpt lat="45.66551654900482" lon="9.990788102181629"><ele>187.0</ele><time>2026-04-23T10:05:41.001Z</time></trkpt><trkpt lat="45.6655290755518" lon="9.990918382907841"><ele>187.0</ele><time>2026-04-23T10:05:43.001Z</time></trkpt><trkpt lat="45.66552345789399" lon="9.99103386245217"><ele>187.0</ele><time>2026-04-23T10:05:45.001Z</time></trkpt><trkpt lat="45.66550814286086" lon="9.991130049341002"><ele>187.0</ele><time>2026-04-23T10:05:47.001Z</time></trkpt><trkpt lat="45.665463707439486" lon="9.991207739489253"><ele>187.0</ele><time>2026-04-23T10:05:50.001Z</time></trkpt><trkpt lat="45.665432766813325" lon="9.991321461567086"><ele>187.0</ele><time>2026-04-23T10:05:52.001Z</time></trkpt><trkpt lat="45.66542569314167" lon="9.991411238757042"><ele>187.0</ele><time>2026-04-23T10:05:54.001Z</time></trkpt><trkpt lat="45.665415857009286" lon="9.99152352605527"><ele>187.0</ele><time>2026-04-23T10:05:56.001Z</time></trkpt><trkpt lat="45.66540417963435" lon="9.991622719000492"><ele>187.0</ele><time>2026-04-23T10:05:58.001Z</time></trkpt><trkpt lat="45.66537456715075" lon="9.991779857992222"><ele>186.83333333333334</ele><time>2026-04-23T10:06:00.001Z</time></trkpt><trkpt lat="45.66536101425917" lon="9.991875215783546"><ele>186.66666666666669</ele><time>2026-04-23T10:06:02.001Z</time></trkpt><trkpt lat="45.66529510938123" lon="9.991943215358626"><ele>186.5</ele><time>2026-04-23T10:06:04.001Z</time></trkpt><trkpt lat="45.66527366492485" lon="9.992033171411608"><ele>186.33333333333334</ele><time>2026-04-23T10:06:06.001Z</time></trkpt><trkpt lat="45.66522173291992" lon="9.992152681814709"><ele>186.16666666666666</ele><time>2026-04-23T10:06:09.001Z</time></trkpt><trkpt lat="45.66515809965729" lon="9.99223844582862"><ele>186.0</ele><time>2026-04-23T10:06:11.001Z</time></trkpt><trkpt lat="45.66513760959129" lon="9.992363317131536"><ele>188.20000000000002</ele><time>2026-04-23T10:06:13.001Z</time></trkpt><trkpt lat="45.66507464718478" lon="9.992489091147908"><ele>190.4</ele><time>2026-04-23T10:06:15.001Z</time></trkpt><trkpt lat="45.66501983501642" lon="9.992632684966498"><ele>192.6</ele><time>2026-04-23T10:06:17.001Z</time></trkpt><trkpt lat="45.66495616300725" lon="9.992717290948866"><ele>194.8</ele><time>2026-04-23T10:06:19.001Z</time></trkpt><trkpt lat="45.66490897375987" lon="9.992806124094326"><ele>197.0</ele><time>2026-04-23T10:06:20.001Z</time></trkpt><trkpt lat="45.664909907578256" lon="9.992905920214001"><ele>197.00000000000003</ele><time>2026-04-23T10:06:21.001Z</time></trkpt><trkpt lat="45.664894607800996" lon="9.992999273608062"><ele>197.0</ele><time>2026-04-23T10:06:22.001Z</time></trkpt><trkpt lat="45.66485332785366" lon="9.993105913229446"><ele>197.0</ele><time>2026-04-23T10:06:24.001Z</time></trkpt><trkpt lat="45.66482154912349" lon="9.993253534949824"><ele>197.0</ele><time>2026-04-23T10:06:26.001Z</time></trkpt><trkpt lat="45.664810221848555" lon="9.993396291658042"><ele>197.00000000000003</ele><time>2026-04-23T10:06:28.001Z</time></trkpt><trkpt lat="45.664781925961684" lon="9.993508808474123"><ele>197.0</ele><time>2026-04-23T10:06:30.001Z</time></trkpt><trkpt lat="45.66475648599384" lon="9.993654339713137"><ele>196.2</ele><time>2026-04-23T10:06:32.001Z</time></trkpt><trkpt lat="45.66467147321022" lon="9.993692221578039"><ele>195.39999999999998</ele><time>2026-04-23T10:06:34.001Z</time></trkpt><trkpt lat="45.66463716071482" lon="9.993813721124333"><ele>194.60000000000002</ele><time>2026-04-23T10:06:36.001Z</time></trkpt><trkpt lat="45.664568453004975" lon="9.993899436022412"><ele>193.8</ele><time>2026-04-23T10:06:38.001Z</time></trkpt><trkpt lat="45.664499001436795" lon="9.99398721145539"><ele>193.0</ele><time>2026-04-23T10:06:40.001Z</time></trkpt><trkpt lat="45.664459946933036" lon="9.994132045277302"><ele>195.33333333333331</ele><time>2026-04-23T10:06:42.001Z</time></trkpt><trkpt lat="45.66444612928026" lon="9.99430132513296"><ele>197.66666666666666</ele><time>2026-04-23T10:06:44.001Z</time></trkpt><trkpt lat="45.66442052930615" lon="9.994406539670054"><ele>200.0</ele><time>2026-04-23T10:06:46.001Z</time></trkpt><trkpt lat="45.66440220112792" lon="9.99449411465247"><ele>202.33333333333331</ele><time>2026-04-23T10:06:47.001Z</time></trkpt><trkpt lat="45.664369870788576" lon="9.994617630821773"><ele>204.66666666666666</ele><time>2026-04-23T10:06:50.001Z</time></trkpt><trkpt lat="45.66431710288625" lon="9.994701512000452"><ele>207.0</ele><time>2026-04-23T10:06:52.001Z</time></trkpt><trkpt lat="45.664236641434535" lon="9.99471579316604"><ele>207.0</ele><time>2026-04-23T10:06:54.001Z</time></trkpt><trkpt lat="45.664165238963875" lon="9.994736973148758"><ele>207.0</ele><time>2026-04-23T10:06:56.001Z</time></trkpt><trkpt lat="45.66414995419506" lon="9.994889877155687"><ele>207.0</ele><time>2026-04-23T10:06:58.001Z</time></trkpt><trkpt lat="45.66415120922193" lon="9.994980111719286"><ele>207.0</ele><time>2026-04-23T10:06:59.001Z</time></trkpt><trkpt lat="45.66410473121084" lon="9.99513471751588"><ele>207.0</ele><time>2026-04-23T10:07:01.001Z</time></trkpt><trkpt lat="45.664094862506495" lon="9.995301038035029"><ele>205.2</ele><time>2026-04-23T10:07:03.001Z</time></trkpt><trkpt lat="45.664079593481546" lon="9.995401501901938"><ele>203.39999999999998</ele><time>2026-04-23T10:07:04.001Z</time></trkpt><trkpt lat="45.66403917251778" lon="9.99547791652566"><ele>201.60000000000002</ele><time>2026-04-23T10:07:05.001Z</time></trkpt><trkpt lat="45.663982963345944" lon="9.995651761486958"><ele>199.8</ele><time>2026-04-23T10:07:07.001Z</time></trkpt><trkpt lat="45.66392601902306" lon="9.995722999525862"><ele>198.0</ele><time>2026-04-23T10:07:09.001Z</time></trkpt><trkpt lat="45.66386342492752" lon="9.995860304273501"><ele>198.0</ele><time>2026-04-23T10:07:11.001Z</time></trkpt><trkpt lat="45.663811518573276" lon="9.99592317977872"><ele>198.0</ele><time>2026-04-23T10:07:12.001Z</time></trkpt><trkpt lat="45.66373153509603" lon="9.996046992885958"><ele>198.0</ele><time>2026-04-23T10:07:14.001Z</time></trkpt><trkpt lat="45.6636726179258" lon="9.996215632067662"><ele>198.0</ele><time>2026-04-23T10:07:16.001Z</time></trkpt><trkpt lat="45.663660762328476" lon="9.996313777834766"><ele>198.0</ele><time>2026-04-23T10:07:17.001Z</time></trkpt><trkpt lat="45.66361061855004" lon="9.996369959277525"><ele>198.0</ele><time>2026-04-23T10:07:18.001Z</time></trkpt><trkpt lat="45.66357528053109" lon="9.996486850405466"><ele>198.0</ele><time>2026-04-23T10:07:19.001Z</time></trkpt><trkpt lat="45.6635831312571" lon="9.996701548129007"><ele>198.0</ele><time>2026-04-23T10:07:20.001Z</time></trkpt><trkpt lat="45.663563876726535" lon="9.996842764187756"><ele>198.0</ele><time>2026-04-23T10:07:21.001Z</time></trkpt><trkpt lat="45.663521339961015" lon="9.996938105456572"><ele>198.0</ele><time>2026-04-23T10:07:22.001Z</time></trkpt><trkpt lat="45.66346928687174" lon="9.997110638991044"><ele>195.0</ele><time>2026-04-23T10:07:24.001Z</time></trkpt><trkpt lat="45.66348239340469" lon="9.997353492813088"><ele>192.0</ele><time>2026-04-23T10:07:25.001Z</time></trkpt><trkpt lat="45.66369543468228" lon="9.998069315978388"><ele>190.33333333333334</ele><time>2026-04-23T10:07:26.001Z</time></trkpt><trkpt lat="45.66373618411113" lon="9.998389747738495"><ele>188.66666666666669</ele><time>2026-04-23T10:07:27.001Z</time></trkpt><trkpt lat="45.66373745248211" lon="9.998593577355466"><ele>187.0</ele><time>2026-04-23T10:07:28.001Z</time></trkpt><trkpt lat="45.66371311809025" lon="9.998709487695407"><ele>187.0</ele><time>2026-04-23T10:07:29.001Z</time></trkpt><trkpt lat="45.663699041353055" lon="9.998807610632243"><ele>187.0</ele><time>2026-04-23T10:07:30.001Z</time></trkpt><trkpt lat="45.663675106276926" lon="9.998901655595054"><ele>187.0</ele><time>2026-04-23T10:07:31.001Z</time></trkpt><trkpt lat="45.663606146069824" lon="9.999043300032444"><ele>187.0</ele><time>2026-04-23T10:07:33.001Z</time></trkpt><trkpt lat="45.66354714615785" lon="9.99916559293094"><ele>187.0</ele><time>2026-04-23T10:07:35.001Z</time></trkpt><trkpt lat="45.66351621494664" lon="9.999270130446082"><ele>187.0</ele><time>2026-04-23T10:07:37.001Z</time></trkpt><trkpt lat="45.663451658765965" lon="9.99936662000979"><ele>187.5</ele><time>2026-04-23T10:07:40.001Z</time></trkpt><trkpt lat="45.66338637116237" lon="9.99942502307081"><ele>188.0</ele><time>2026-04-23T10:07:42.001Z</time></trkpt><trkpt lat="45.66331015945605" lon="9.999446409093297"><ele>188.5</ele><time>2026-04-23T10:07:44.001Z</time></trkpt><trkpt lat="45.66324990451458" lon="9.99954431997227"><ele>189.0</ele><time>2026-04-23T10:07:46.001Z</time></trkpt><trkpt lat="45.6632138519585" lon="9.999620198773878"><ele>189.5</ele><time>2026-04-23T10:07:50.001Z</time></trkpt><trkpt lat="45.66318452692555" lon="9.99971513052761"><ele>190.0</ele><time>2026-04-23T10:07:52.001Z</time></trkpt><trkpt lat="45.663255555217305" lon="9.999745138243924"><ele>190.0</ele><time>2026-04-23T10:07:54.001Z</time></trkpt><trkpt lat="45.66332643998402" lon="9.999687818485935"><ele>190.0</ele><time>2026-04-23T10:07:56.001Z</time></trkpt><trkpt lat="45.663366184798704" lon="9.999816847380721"><ele>190.0</ele><time>2026-04-23T10:07:58.001Z</time></trkpt><trkpt lat="45.66345101789596" lon="9.999858043032315"><ele>190.0</ele><time>2026-04-23T10:08:01.001Z</time></trkpt><trkpt lat="45.66354018473325" lon="9.999951052014774"><ele>190.0</ele><time>2026-04-23T10:08:04.001Z</time></trkpt><trkpt lat="45.663586279318636" lon="10.000022439672241"><ele>190.0</ele><time>2026-04-23T10:08:05.001Z</time></trkpt><trkpt lat="45.663662668360104" lon="10.000140992074297"><ele>189.4</ele><time>2026-04-23T10:08:07.001Z</time></trkpt><trkpt lat="45.66371414574323" lon="10.000280637348196"><ele>188.8</ele><time>2026-04-23T10:08:09.001Z</time></trkpt><trkpt lat="45.66379055547396" lon="10.000365467240263"><ele>188.2</ele><time>2026-04-23T10:08:11.001Z</time></trkpt><trkpt lat="45.66385146915103" lon="10.000469550136268"><ele>187.6</ele><time>2026-04-23T10:08:13.001Z</time></trkpt><trkpt lat="45.66390796244484" lon="10.00059615182986"><ele>187.0</ele><time>2026-04-23T10:08:15.001Z</time></trkpt><trkpt lat="45.663947278414085" lon="10.000706533812224"><ele>187.0</ele><time>2026-04-23T10:08:17.001Z</time></trkpt><trkpt lat="45.663902206878966" lon="10.000866074303193"><ele>187.0</ele><time>2026-04-23T10:08:19.001Z</time></trkpt><trkpt lat="45.66387915326138" lon="10.000995002456708"><ele>187.0</ele><time>2026-04-23T10:08:21.001Z</time></trkpt><trkpt lat="45.66382516497446" lon="10.001085255448869"><ele>187.0</ele><time>2026-04-23T10:08:25.001Z</time></trkpt><trkpt lat="45.663851585535845" lon="10.001186919777219"><ele>187.0</ele><time>2026-04-23T10:08:27.001Z</time></trkpt><trkpt lat="45.663813185962326" lon="10.001328279925104"><ele>187.0</ele><time>2026-04-23T10:08:32.001Z</time></trkpt><trkpt lat="45.66376435651142" lon="10.001466962166944"><ele>187.0</ele><time>2026-04-23T10:08:35.001Z</time></trkpt><trkpt lat="45.66373120903447" lon="10.001557022639442"><ele>187.0</ele><time>2026-04-23T10:08:40.001Z</time></trkpt><trkpt lat="45.66368609717801" lon="10.001677496036898"><ele>187.0</ele><time>2026-04-23T10:08:42.001Z</time></trkpt><trkpt lat="45.66371283014518" lon="10.001818538667692"><ele>187.0</ele><time>2026-04-23T10:08:44.001Z</time></trkpt><trkpt lat="45.663727560491196" lon="10.001960394588693"><ele>187.0</ele><time>2026-04-23T10:08:46.001Z</time></trkpt><trkpt lat="45.663753832594686" lon="10.002062667142624"><ele>187.0</ele><time>2026-04-23T10:08:49.001Z</time></trkpt><trkpt lat="45.66366226183395" lon="10.002096537825157"><ele>187.0</ele><time>2026-04-23T10:08:52.001Z</time></trkpt><trkpt lat="45.66362034025035" lon="10.002215811116345"><ele>187.0</ele><time>2026-04-23T10:08:55.001Z</time></trkpt><trkpt lat="45.66355964474466" lon="10.002310454787683"><ele>187.0</ele><time>2026-04-23T10:08:57.001Z</time></trkpt><trkpt lat="45.66347680364466" lon="10.002373830404622"><ele>187.0</ele><time>2026-04-23T10:08:59.001Z</time></trkpt><trkpt lat="45.66338211217173" lon="10.002425238155555"><ele>187.33333333333334</ele><time>2026-04-23T10:09:01.001Z</time></trkpt><trkpt lat="45.663308578892604" lon="10.002481262574978"><ele>187.66666666666669</ele><time>2026-04-23T10:09:03.001Z</time></trkpt><trkpt lat="45.66321535350401" lon="10.002550848541182"><ele>188.0</ele><time>2026-04-23T10:09:05.001Z</time></trkpt><trkpt lat="45.66315001369054" lon="10.002639582693535"><ele>188.33333333333334</ele><time>2026-04-23T10:09:07.001Z</time></trkpt><trkpt lat="45.66310276407442" lon="10.002720379972462"><ele>188.66666666666666</ele><time>2026-04-23T10:09:09.001Z</time></trkpt><trkpt lat="45.66305625095099" lon="10.00279095757753"><ele>189.0</ele><time>2026-04-23T10:09:11.001Z</time></trkpt><trkpt lat="45.663010321018284" lon="10.002857385885697"><ele>189.0</ele><time>2026-04-23T10:09:13.001Z</time></trkpt><trkpt lat="45.66297025263114" lon="10.002934855740524"><ele>189.0</ele><time>2026-04-23T10:09:15.001Z</time></trkpt><trkpt lat="45.66291664742758" lon="10.003044407095576"><ele>189.0</ele><time>2026-04-23T10:09:17.001Z</time></trkpt><trkpt lat="45.66282876042932" lon="10.003142838141128"><ele>189.0</ele><time>2026-04-23T10:09:19.001Z</time></trkpt><trkpt lat="45.6627520368274" lon="10.00323353034888"><ele>189.0</ele><time>2026-04-23T10:09:21.001Z</time></trkpt><trkpt lat="45.662697726145154" lon="10.003280584126804"><ele>189.0</ele><time>2026-04-23T10:09:22.001Z</time></trkpt><trkpt lat="45.66258946084734" lon="10.003378666902764"><ele>188.33333333333334</ele><time>2026-04-23T10:09:24.001Z</time></trkpt><trkpt lat="45.66252837489786" lon="10.00347222301809"><ele>187.66666666666666</ele><time>2026-04-23T10:09:27.001Z</time></trkpt><trkpt lat="45.66246588656708" lon="10.003501459347275"><ele>187.0</ele><time>2026-04-23T10:09:29.001Z</time></trkpt><trkpt lat="45.662406453701564" lon="10.00357168903128"><ele>186.33333333333331</ele><time>2026-04-23T10:09:30.001Z</time></trkpt><trkpt lat="45.66233243745897" lon="10.003616670491112"><ele>185.66666666666666</ele><time>2026-04-23T10:09:31.001Z</time></trkpt><trkpt lat="45.66225686753267" lon="10.003678367998203"><ele>185.0</ele><time>2026-04-23T10:09:32.001Z</time></trkpt><trkpt lat="45.66215606757199" lon="10.003754476431414"><ele>185.0</ele><time>2026-04-23T10:09:33.001Z</time></trkpt><trkpt lat="45.66207077279051" lon="10.003820001534422"><ele>185.0</ele><time>2026-04-23T10:09:34.001Z</time></trkpt><trkpt lat="45.66200497638296" lon="10.003889013779213"><ele>185.0</ele><time>2026-04-23T10:09:35.001Z</time></trkpt><trkpt lat="45.66193140857339" lon="10.003957096428353"><ele>185.0</ele><time>2026-04-23T10:09:36.001Z</time></trkpt><trkpt lat="45.661877329191476" lon="10.004018062429115"><ele>185.0</ele><time>2026-04-23T10:09:37.001Z</time></trkpt><trkpt lat="45.66176583148817" lon="10.004152742788394"><ele>185.33333333333331</ele><time>2026-04-23T10:09:39.001Z</time></trkpt><trkpt lat="45.66171133888023" lon="10.004214357864774"><ele>185.66666666666666</ele><time>2026-04-23T10:09:40.001Z</time></trkpt><trkpt lat="45.66165826828627" lon="10.004278121317366"><ele>186.0</ele><time>2026-04-23T10:09:41.001Z</time></trkpt><trkpt lat="45.66156583317088" lon="10.00437867398007"><ele>186.33333333333334</ele><time>2026-04-23T10:09:43.001Z</time></trkpt><trkpt lat="45.6614959189372" lon="10.004456127603065"><ele>186.66666666666669</ele><time>2026-04-23T10:09:44.001Z</time></trkpt><trkpt lat="45.661441749560545" lon="10.004512395714784"><ele>187.0</ele><time>2026-04-23T10:09:45.001Z</time></trkpt><trkpt lat="45.66133421879218" lon="10.004632413605124"><ele>187.0</ele><time>2026-04-23T10:09:47.001Z</time></trkpt><trkpt lat="45.66127111716354" lon="10.004700496628805"><ele>187.0</ele><time>2026-04-23T10:09:48.001Z</time></trkpt><trkpt lat="45.66122044843194" lon="10.004759508053711"><ele>187.0</ele><time>2026-04-23T10:09:49.001Z</time></trkpt><trkpt lat="45.661144028848156" lon="10.004855136416015"><ele>187.0</ele><time>2026-04-23T10:09:51.001Z</time></trkpt><trkpt lat="45.66108252318817" lon="10.004915755864896"><ele>187.0</ele><time>2026-04-23T10:09:53.001Z</time></trkpt><trkpt lat="45.661016697532396" lon="10.00499986040523"><ele>187.0</ele><time>2026-04-23T10:09:55.001Z</time></trkpt><trkpt lat="45.660973658672795" lon="10.005089685493633"><ele>187.66666666666669</ele><time>2026-04-23T10:09:58.001Z</time></trkpt><trkpt lat="45.660899042279766" lon="10.005096387345379"><ele>188.33333333333334</ele><time>2026-04-23T10:10:00.001Z</time></trkpt><trkpt lat="45.66083520907539" lon="10.005057335204556"><ele>189.0</ele><time>2026-04-23T10:10:02.001Z</time></trkpt><trkpt lat="45.6607703255873" lon="10.005023010618013"><ele>189.66666666666666</ele><time>2026-04-23T10:10:04.001Z</time></trkpt><trkpt lat="45.660724509911724" lon="10.00495041848141"><ele>190.33333333333331</ele><time>2026-04-23T10:10:06.001Z</time></trkpt><trkpt lat="45.66065217748525" lon="10.004874179711528"><ele>191.0</ele><time>2026-04-23T10:10:11.001Z</time></trkpt><trkpt lat="45.66057406550933" lon="10.004867951964135"><ele>191.33333333333331</ele><time>2026-04-23T10:10:13.001Z</time></trkpt><trkpt lat="45.660500772345095" lon="10.00486291430025"><ele>191.66666666666666</ele><time>2026-04-23T10:10:16.001Z</time></trkpt><trkpt lat="45.6603852105766" lon="10.004896211998917"><ele>192.0</ele><time>2026-04-23T10:10:18.001Z</time></trkpt><trkpt lat="45.66030076694664" lon="10.004949513627484"><ele>192.33333333333331</ele><time>2026-04-23T10:10:20.001Z</time></trkpt><trkpt lat="45.660232452437754" lon="10.004962917360299"><ele>192.66666666666666</ele><time>2026-04-23T10:10:22.001Z</time></trkpt><trkpt lat="45.6601775373929" lon="10.004893814840166"><ele>193.0</ele><time>2026-04-23T10:10:25.001Z</time></trkpt><trkpt lat="45.660120758721774" lon="10.00484085254841"><ele>192.99999999999997</ele><time>2026-04-23T10:10:28.001Z</time></trkpt><trkpt lat="45.6600679902616" lon="10.004683646597442"><ele>193.0</ele><time>2026-04-23T10:10:36.001Z</time></trkpt><trkpt lat="45.660037952840966" lon="10.004592921341615"><ele>193.0</ele><time>2026-04-23T10:10:38.001Z</time></trkpt><trkpt lat="45.66001305827781" lon="10.004478761095381"><ele>193.0</ele><time>2026-04-23T10:10:41.001Z</time></trkpt><trkpt lat="45.6599593392606" lon="10.00440315227263"><ele>192.99999999999997</ele><time>2026-04-23T10:10:43.001Z</time></trkpt><trkpt lat="45.65989085519289" lon="10.00434620742469"><ele>193.0</ele><time>2026-04-23T10:10:45.001Z</time></trkpt><trkpt lat="45.65961660063668" lon="10.004301609322926"><ele>193.00000000000003</ele><time>2026-04-23T10:10:57.001Z</time></trkpt><trkpt lat="45.65953844005692" lon="10.004267648742356"><ele>193.0</ele><time>2026-04-23T10:11:00.001Z</time></trkpt><trkpt lat="45.65946760049301" lon="10.004262865591732"><ele>193.0</ele><time>2026-04-23T10:11:03.001Z</time></trkpt><trkpt lat="45.659395441901715" lon="10.004275543828804"><ele>193.0</ele><time>2026-04-23T10:11:08.002Z</time></trkpt><trkpt lat="45.65933184965196" lon="10.004315372376308"><ele>193.0</ele><time>2026-04-23T10:11:11.002Z</time></trkpt><trkpt lat="45.65927717966331" lon="10.004379235529983"><ele>193.00000000000003</ele><time>2026-04-23T10:11:14.002Z</time></trkpt><trkpt lat="45.659205573519834" lon="10.004421801754571"><ele>193.0</ele><time>2026-04-23T10:11:17.002Z</time></trkpt><trkpt lat="45.65910344557712" lon="10.004450223632887"><ele>192.85714285714286</ele><time>2026-04-23T10:11:21.002Z</time></trkpt><trkpt lat="45.65903620441202" lon="10.004435187777085"><ele>192.71428571428572</ele><time>2026-04-23T10:11:22.002Z</time></trkpt><trkpt lat="45.65895040278302" lon="10.004408378648593"><ele>192.57142857142856</ele><time>2026-04-23T10:11:24.002Z</time></trkpt><trkpt lat="45.65888470863482" lon="10.004368772902144"><ele>192.42857142857144</ele><time>2026-04-23T10:11:27.002Z</time></trkpt><trkpt lat="45.65881223128279" lon="10.004347665517306"><ele>192.28571428571428</ele><time>2026-04-23T10:11:31.002Z</time></trkpt><trkpt lat="45.6587418023413" lon="10.00431231109035"><ele>192.14285714285714</ele><time>2026-04-23T10:11:33.002Z</time></trkpt><trkpt lat="45.65867391303556" lon="10.004280150310278"><ele>192.0</ele><time>2026-04-23T10:11:35.002Z</time></trkpt><trkpt lat="45.6585952117097" lon="10.004254382056441"><ele>192.0</ele><time>2026-04-23T10:11:37.002Z</time></trkpt><trkpt lat="45.65850520195076" lon="10.004239384013445"><ele>192.0</ele><time>2026-04-23T10:11:39.002Z</time></trkpt><trkpt lat="45.65842131144111" lon="10.004224526326707"><ele>192.0</ele><time>2026-04-23T10:11:41.002Z</time></trkpt><trkpt lat="45.65835535068382" lon="10.004231767011852"><ele>192.0</ele><time>2026-04-23T10:11:44.002Z</time></trkpt><trkpt lat="45.65829075583742" lon="10.00421014806874"><ele>192.0</ele><time>2026-04-23T10:11:46.002Z</time></trkpt><trkpt lat="45.65820449305907" lon="10.004207443563358"><ele>192.0</ele><time>2026-04-23T10:11:48.002Z</time></trkpt><trkpt lat="45.65811606521125" lon="10.004232049375796"><ele>192.0</ele><time>2026-04-23T10:11:51.002Z</time></trkpt><trkpt lat="45.658010706584825" lon="10.004279931905417"><ele>192.0</ele><time>2026-04-23T10:11:53.002Z</time></trkpt><trkpt lat="45.6579150470697" lon="10.004322533632628"><ele>192.0</ele><time>2026-04-23T10:11:55.002Z</time></trkpt><trkpt lat="45.65782670756637" lon="10.004386891865886"><ele>192.0</ele><time>2026-04-23T10:11:57.002Z</time></trkpt><trkpt lat="45.65773670400874" lon="10.004438037101526"><ele>192.0</ele><time>2026-04-23T10:11:59.002Z</time></trkpt><trkpt lat="45.65764068102748" lon="10.004493770977327"><ele>192.66666666666666</ele><time>2026-04-23T10:12:01.002Z</time></trkpt><trkpt lat="45.65759467165149" lon="10.004567517540291"><ele>193.33333333333331</ele><time>2026-04-23T10:12:03.002Z</time></trkpt><trkpt lat="45.6575395672765" lon="10.004612012590052"><ele>194.0</ele><time>2026-04-23T10:12:05.002Z</time></trkpt><trkpt lat="45.65745841965231" lon="10.004677007485803"><ele>194.66666666666666</ele><time>2026-04-23T10:12:07.002Z</time></trkpt><trkpt lat="45.657386696194294" lon="10.004746656779686"><ele>195.33333333333331</ele><time>2026-04-23T10:12:09.002Z</time></trkpt><trkpt lat="45.657282760697655" lon="10.004817370040294"><ele>196.0</ele><time>2026-04-23T10:12:11.002Z</time></trkpt><trkpt lat="45.65717381436086" lon="10.004879544321144"><ele>196.0</ele><time>2026-04-23T10:12:13.002Z</time></trkpt><trkpt lat="45.6570771007573" lon="10.004940791669227"><ele>196.0</ele><time>2026-04-23T10:12:15.002Z</time></trkpt><trkpt lat="45.656974276092555" lon="10.004996546856246"><ele>196.0</ele><time>2026-04-23T10:12:17.002Z</time></trkpt><trkpt lat="45.65686341016561" lon="10.005058271594777"><ele>196.0</ele><time>2026-04-23T10:12:19.002Z</time></trkpt><trkpt lat="45.6568017846808" lon="10.005093501641198"><ele>196.0</ele><time>2026-04-23T10:12:20.002Z</time></trkpt><trkpt lat="45.65669909276062" lon="10.005153519693128"><ele>196.4</ele><time>2026-04-23T10:12:22.002Z</time></trkpt><trkpt lat="45.65660149510496" lon="10.005212071949483"><ele>196.8</ele><time>2026-04-23T10:12:24.002Z</time></trkpt><trkpt lat="45.65650237173274" lon="10.005259826568457"><ele>197.20000000000002</ele><time>2026-04-23T10:12:26.002Z</time></trkpt><trkpt lat="45.65642025565555" lon="10.005312666982308"><ele>197.60000000000002</ele><time>2026-04-23T10:12:28.002Z</time></trkpt><trkpt lat="45.65632528286026" lon="10.005378094524117"><ele>198.0</ele><time>2026-04-23T10:12:30.002Z</time></trkpt><trkpt lat="45.65621898462209" lon="10.005447627737514"><ele>198.0</ele><time>2026-04-23T10:12:32.002Z</time></trkpt><trkpt lat="45.656122131643045" lon="10.005501971382188"><ele>198.0</ele><time>2026-04-23T10:12:34.002Z</time></trkpt><trkpt lat="45.65603653181206" lon="10.005542745001758"><ele>198.0</ele><time>2026-04-23T10:12:36.002Z</time></trkpt><trkpt lat="45.65597136432677" lon="10.005595057678851"><ele>198.0</ele><time>2026-04-23T10:12:38.002Z</time></trkpt><trkpt lat="45.65590743441696" lon="10.005633132070916"><ele>198.0</ele><time>2026-04-23T10:12:40.002Z</time></trkpt><trkpt lat="45.6558483472069" lon="10.005666098907083"><ele>198.0</ele><time>2026-04-23T10:12:42.002Z</time></trkpt><trkpt lat="45.65576658173431" lon="10.00571935524055"><ele>198.0</ele><time>2026-04-23T10:12:45.002Z</time></trkpt><trkpt lat="45.6556803667373" lon="10.005785405479623"><ele>198.0</ele><time>2026-04-23T10:12:48.002Z</time></trkpt><trkpt lat="45.65558254017594" lon="10.005837431195786"><ele>198.0</ele><time>2026-04-23T10:12:50.002Z</time></trkpt><trkpt lat="45.65547681182396" lon="10.005878773922072"><ele>198.0</ele><time>2026-04-23T10:12:52.002Z</time></trkpt><trkpt lat="45.65540281627238" lon="10.005886930759537"><ele>198.0</ele><time>2026-04-23T10:12:53.002Z</time></trkpt><trkpt lat="45.65529646185643" lon="10.005862638237572"><ele>197.60000000000002</ele><time>2026-04-23T10:12:55.002Z</time></trkpt><trkpt lat="45.65518878293844" lon="10.005867988639194"><ele>197.20000000000002</ele><time>2026-04-23T10:12:57.002Z</time></trkpt><trkpt lat="45.65507348789789" lon="10.005848053485888"><ele>196.8</ele><time>2026-04-23T10:12:59.002Z</time></trkpt><trkpt lat="45.65494439022069" lon="10.005823552917247"><ele>196.4</ele><time>2026-04-23T10:13:01.002Z</time></trkpt><trkpt lat="45.6548752461707" lon="10.005818941250283"><ele>196.0</ele><time>2026-04-23T10:13:02.002Z</time></trkpt><trkpt lat="45.65477561992804" lon="10.005829880367521"><ele>195.99999999999997</ele><time>2026-04-23T10:13:03.002Z</time></trkpt><trkpt lat="45.654677781906344" lon="10.005830097275867"><ele>196.0</ele><time>2026-04-23T10:13:04.002Z</time></trkpt><trkpt lat="45.65459247085624" lon="10.005829208518746"><ele>196.0</ele><time>2026-04-23T10:13:05.002Z</time></trkpt><trkpt lat="45.65452276657375" lon="10.005830847396673"><ele>196.0</ele><time>2026-04-23T10:13:06.002Z</time></trkpt><trkpt lat="45.65444911579092" lon="10.005832426779891"><ele>195.99999999999997</ele><time>2026-04-23T10:13:07.002Z</time></trkpt><trkpt lat="45.654375413340276" lon="10.00584097678296"><ele>196.0</ele><time>2026-04-23T10:13:08.002Z</time></trkpt><trkpt lat="45.65428980338091" lon="10.005859508424958"><ele>195.16666666666666</ele><time>2026-04-23T10:13:09.002Z</time></trkpt><trkpt lat="45.65419833198522" lon="10.005878019811117"><ele>194.33333333333331</ele><time>2026-04-23T10:13:10.002Z</time></trkpt><trkpt lat="45.65411439144088" lon="10.005886389156675"><ele>193.5</ele><time>2026-04-23T10:13:11.002Z</time></trkpt><trkpt lat="45.65404011375235" lon="10.005882728575855"><ele>192.66666666666666</ele><time>2026-04-23T10:13:12.002Z</time></trkpt><trkpt lat="45.653951850351525" lon="10.005886114860006"><ele>191.83333333333331</ele><time>2026-04-23T10:13:13.002Z</time></trkpt><trkpt lat="45.653873258310156" lon="10.005884099862785"><ele>191.0</ele><time>2026-04-23T10:13:14.002Z</time></trkpt><trkpt lat="45.653788433386204" lon="10.005876047959068"><ele>191.0</ele><time>2026-04-23T10:13:15.002Z</time></trkpt><trkpt lat="45.65370551343692" lon="10.005871656297458"><ele>191.0</ele><time>2026-04-23T10:13:16.002Z</time></trkpt><trkpt lat="45.65362938969246" lon="10.005875056519614"><ele>191.0</ele><time>2026-04-23T10:13:17.002Z</time></trkpt><trkpt lat="45.653555143917586" lon="10.005895036518465"><ele>191.0</ele><time>2026-04-23T10:13:18.002Z</time></trkpt><trkpt lat="45.65347875174968" lon="10.00593165695002"><ele>191.0</ele><time>2026-04-23T10:13:19.002Z</time></trkpt><trkpt lat="45.65342021223858" lon="10.005968458587509"><ele>191.0</ele><time>2026-04-23T10:13:20.002Z</time></trkpt><trkpt lat="45.6533010758135" lon="10.006017062611978"><ele>190.8</ele><time>2026-04-23T10:13:22.002Z</time></trkpt><trkpt lat="45.65319644732345" lon="10.006068426848538"><ele>190.60000000000002</ele><time>2026-04-23T10:13:24.002Z</time></trkpt><trkpt lat="45.65308823809453" lon="10.006116339275078"><ele>190.4</ele><time>2026-04-23T10:13:26.002Z</time></trkpt><trkpt lat="45.653012452407495" lon="10.006163554768095"><ele>190.2</ele><time>2026-04-23T10:13:28.002Z</time></trkpt><trkpt lat="45.65295245899342" lon="10.006202437383793"><ele>190.0</ele><time>2026-04-23T10:13:30.002Z</time></trkpt><trkpt lat="45.65286383183216" lon="10.006234772994791"><ele>190.0</ele><time>2026-04-23T10:13:34.002Z</time></trkpt><trkpt lat="45.652752638220726" lon="10.006293426216883"><ele>190.0</ele><time>2026-04-23T10:13:36.002Z</time></trkpt><trkpt lat="45.652639091000076" lon="10.006341904309636"><ele>190.0</ele><time>2026-04-23T10:13:38.002Z</time></trkpt><trkpt lat="45.652540194440995" lon="10.006373498524505"><ele>190.0</ele><time>2026-04-23T10:13:40.002Z</time></trkpt><trkpt lat="45.65243300242745" lon="10.006426561139525"><ele>190.0</ele><time>2026-04-23T10:13:42.002Z</time></trkpt><trkpt lat="45.65234657185232" lon="10.006459419107767"><ele>190.0</ele><time>2026-04-23T10:13:44.002Z</time></trkpt><trkpt lat="45.652254375597515" lon="10.006502109829148"><ele>190.0</ele><time>2026-04-23T10:13:46.002Z</time></trkpt><trkpt lat="45.65218085138626" lon="10.006551900456358"><ele>190.0</ele><time>2026-04-23T10:13:48.002Z</time></trkpt><trkpt lat="45.6521031145672" lon="10.0065938115344"><ele>190.0</ele><time>2026-04-23T10:13:50.002Z</time></trkpt><trkpt lat="45.65200460156045" lon="10.006609464460912"><ele>189.8</ele><time>2026-04-23T10:13:52.002Z</time></trkpt><trkpt lat="45.651925577975476" lon="10.006663573463372"><ele>189.6</ele><time>2026-04-23T10:13:54.002Z</time></trkpt><trkpt lat="45.65182216265962" lon="10.006699687820449"><ele>189.39999999999998</ele><time>2026-04-23T10:13:56.002Z</time></trkpt><trkpt lat="45.65173005031918" lon="10.00673226416329"><ele>189.2</ele><time>2026-04-23T10:13:58.002Z</time></trkpt><trkpt lat="45.651644029458254" lon="10.006749975609772"><ele>189.0</ele><time>2026-04-23T10:14:01.002Z</time></trkpt><trkpt lat="45.65153037963716" lon="10.006806860298981"><ele>189.0</ele><time>2026-04-23T10:14:03.002Z</time></trkpt><trkpt lat="45.651461794628084" lon="10.006853517667023"><ele>189.0</ele><time>2026-04-23T10:14:04.002Z</time></trkpt><trkpt lat="45.65139746465707" lon="10.006910172999804"><ele>189.0</ele><time>2026-04-23T10:14:05.002Z</time></trkpt><trkpt lat="45.65133989788266" lon="10.00695807653526"><ele>189.0</ele><time>2026-04-23T10:14:06.002Z</time></trkpt><trkpt lat="45.651256102386796" lon="10.00703871107701"><ele>189.0</ele><time>2026-04-23T10:14:08.002Z</time></trkpt><trkpt lat="45.65119512962652" lon="10.00710200333024"><ele>189.0</ele><time>2026-04-23T10:14:09.002Z</time></trkpt><trkpt lat="45.65112049276463" lon="10.007170344886369"><ele>189.0</ele><time>2026-04-23T10:14:11.002Z</time></trkpt><trkpt lat="45.65103847715816" lon="10.00725134890404"><ele>189.0</ele><time>2026-04-23T10:14:13.002Z</time></trkpt><trkpt lat="45.65097522240725" lon="10.007293489862937"><ele>189.0</ele><time>2026-04-23T10:14:14.002Z</time></trkpt><trkpt lat="45.65091486651131" lon="10.007341902261127"><ele>189.0</ele><time>2026-04-23T10:14:15.002Z</time></trkpt><trkpt lat="45.65085250219344" lon="10.007391633005158"><ele>189.0</ele><time>2026-04-23T10:14:16.002Z</time></trkpt><trkpt lat="45.650759866330255" lon="10.00750087018056"><ele>189.0</ele><time>2026-04-23T10:14:18.002Z</time></trkpt><trkpt lat="45.65065177555249" lon="10.007587638236378"><ele>189.0</ele><time>2026-04-23T10:14:20.002Z</time></trkpt><trkpt lat="45.65057242755091" lon="10.0076891027024"><ele>189.0</ele><time>2026-04-23T10:14:22.002Z</time></trkpt><trkpt lat="45.650483749678834" lon="10.007767025404434"><ele>189.0</ele><time>2026-04-23T10:14:24.002Z</time></trkpt><trkpt lat="45.650423371867454" lon="10.00782394350852"><ele>189.0</ele><time>2026-04-23T10:14:25.002Z</time></trkpt><trkpt lat="45.65036111024913" lon="10.00787555713467"><ele>189.0</ele><time>2026-04-23T10:14:26.002Z</time></trkpt><trkpt lat="45.6502645806673" lon="10.007932422916557"><ele>189.16666666666666</ele><time>2026-04-23T10:14:28.002Z</time></trkpt><trkpt lat="45.650199035585985" lon="10.008031624531904"><ele>189.33333333333334</ele><time>2026-04-23T10:14:32.002Z</time></trkpt><trkpt lat="45.65014224806512" lon="10.00807440618505"><ele>189.5</ele><time>2026-04-23T10:14:34.002Z</time></trkpt><trkpt lat="45.650064938593765" lon="10.008126424767948"><ele>189.66666666666669</ele><time>2026-04-23T10:14:39.002Z</time></trkpt><trkpt lat="45.650014321062514" lon="10.008191248295452"><ele>189.83333333333334</ele><time>2026-04-23T10:14:41.002Z</time></trkpt><trkpt lat="45.6499629676354" lon="10.008306963928444"><ele>190.0</ele><time>2026-04-23T10:14:43.002Z</time></trkpt><trkpt lat="45.64990652042246" lon="10.008419468966531"><ele>190.0</ele><time>2026-04-23T10:14:45.002Z</time></trkpt><trkpt lat="45.64979955703631" lon="10.008508216508487"><ele>190.0</ele><time>2026-04-23T10:14:47.002Z</time></trkpt><trkpt lat="45.649710999466656" lon="10.00856319147727"><ele>190.0</ele><time>2026-04-23T10:14:49.002Z</time></trkpt><trkpt lat="45.649649064601384" lon="10.008619972914643"><ele>190.0</ele><time>2026-04-23T10:14:50.002Z</time></trkpt><trkpt lat="45.649567075697824" lon="10.00869121734137"><ele>190.0</ele><time>2026-04-23T10:14:51.002Z</time></trkpt><trkpt lat="45.649512364403485" lon="10.008752777451859"><ele>190.8</ele><time>2026-04-23T10:14:52.002Z</time></trkpt><trkpt lat="45.6494554590441" lon="10.008820995144667"><ele>191.6</ele><time>2026-04-23T10:14:53.002Z</time></trkpt><trkpt lat="45.6493502778806" lon="10.008907666373975"><ele>192.39999999999998</ele><time>2026-04-23T10:14:55.002Z</time></trkpt><trkpt lat="45.64925812851936" lon="10.00895049140737"><ele>193.2</ele><time>2026-04-23T10:14:57.002Z</time></trkpt><trkpt lat="45.649210053755276" lon="10.009026425339664"><ele>194.0</ele><time>2026-04-23T10:14:59.002Z</time></trkpt><trkpt lat="45.649140714060444" lon="10.00911921428586"><ele>193.66666666666669</ele><time>2026-04-23T10:15:01.002Z</time></trkpt><trkpt lat="45.649066936252595" lon="10.00920097197558"><ele>193.33333333333334</ele><time>2026-04-23T10:15:03.002Z</time></trkpt><trkpt lat="45.648989078176946" lon="10.009264811135374"><ele>193.0</ele><time>2026-04-23T10:15:05.002Z</time></trkpt><trkpt lat="45.64892760301524" lon="10.009368536441952"><ele>192.66666666666669</ele><time>2026-04-23T10:15:07.002Z</time></trkpt><trkpt lat="45.64888208702182" lon="10.00944721491543"><ele>192.33333333333334</ele><time>2026-04-23T10:15:09.002Z</time></trkpt><trkpt lat="45.64886007844223" lon="10.009536426271445"><ele>192.0</ele><time>2026-04-23T10:15:11.002Z</time></trkpt><trkpt lat="45.648836732430716" lon="10.009633043694452"><ele>192.0</ele><time>2026-04-23T10:15:13.002Z</time></trkpt><trkpt lat="45.6488271017528" lon="10.009754678081924"><ele>192.0</ele><time>2026-04-23T10:15:16.002Z</time></trkpt><trkpt lat="45.64883506772101" lon="10.009851504076138"><ele>192.0</ele><time>2026-04-23T10:15:18.002Z</time></trkpt><trkpt lat="45.64888675034296" lon="10.009965242932187"><ele>192.0</ele><time>2026-04-23T10:15:20.002Z</time></trkpt><trkpt lat="45.64894579862009" lon="10.010062409610573"><ele>192.0</ele><time>2026-04-23T10:15:23.002Z</time></trkpt><trkpt lat="45.649002499853864" lon="10.010138303161437"><ele>192.0</ele><time>2026-04-23T10:15:26.002Z</time></trkpt><trkpt lat="45.649057146440164" lon="10.010194456969145"><ele>192.2</ele><time>2026-04-23T10:15:29.002Z</time></trkpt><trkpt lat="45.649136168435064" lon="10.010271643339127"><ele>192.39999999999998</ele><time>2026-04-23T10:15:31.002Z</time></trkpt><trkpt lat="45.64922054202809" lon="10.010369210849255"><ele>192.60000000000002</ele><time>2026-04-23T10:15:33.002Z</time></trkpt><trkpt lat="45.64931593080611" lon="10.010479723551283"><ele>192.8</ele><time>2026-04-23T10:15:35.002Z</time></trkpt><trkpt lat="45.64936440482794" lon="10.010548442467242"><ele>193.0</ele><time>2026-04-23T10:15:36.002Z</time></trkpt><trkpt lat="45.64944522681677" lon="10.01068219338129"><ele>193.16666666666666</ele><time>2026-04-23T10:15:38.002Z</time></trkpt><trkpt lat="45.64950473759133" lon="10.010780459141259"><ele>193.33333333333331</ele><time>2026-04-23T10:15:40.002Z</time></trkpt><trkpt lat="45.64956704136213" lon="10.010889554555567"><ele>193.5</ele><time>2026-04-23T10:15:42.002Z</time></trkpt><trkpt lat="45.64963009029846" lon="10.01100789813893"><ele>193.66666666666669</ele><time>2026-04-23T10:15:45.002Z</time></trkpt><trkpt lat="45.64966960183482" lon="10.011104231423344"><ele>193.83333333333334</ele><time>2026-04-23T10:15:47.002Z</time></trkpt><trkpt lat="45.6497101692927" lon="10.011194060315038"><ele>194.0</ele><time>2026-04-23T10:15:49.002Z</time></trkpt><trkpt lat="45.649764003310835" lon="10.011301037380782"><ele>194.0</ele><time>2026-04-23T10:15:51.002Z</time></trkpt><trkpt lat="45.649813292448464" lon="10.01137564438503"><ele>194.0</ele><time>2026-04-23T10:15:53.002Z</time></trkpt><trkpt lat="45.64988103304093" lon="10.01149104989648"><ele>194.0</ele><time>2026-04-23T10:15:55.002Z</time></trkpt><trkpt lat="45.64993817392995" lon="10.011579854120273"><ele>194.0</ele><time>2026-04-23T10:15:57.002Z</time></trkpt><trkpt lat="45.650015813116404" lon="10.011689943506386"><ele>194.0</ele><time>2026-04-23T10:15:59.002Z</time></trkpt><trkpt lat="45.65009356736268" lon="10.011800305091109"><ele>194.50000000000003</ele><time>2026-04-23T10:16:01.002Z</time></trkpt><trkpt lat="45.65016739687504" lon="10.011897279569874"><ele>195.0</ele><time>2026-04-23T10:16:03.002Z</time></trkpt><trkpt lat="45.65024121890214" lon="10.011985104685046"><ele>195.5</ele><time>2026-04-23T10:16:05.002Z</time></trkpt><trkpt lat="45.650315660104035" lon="10.012075376710825"><ele>196.0</ele><time>2026-04-23T10:16:07.002Z</time></trkpt><trkpt lat="45.6503641311102" lon="10.012165497075976"><ele>196.50000000000003</ele><time>2026-04-23T10:16:09.002Z</time></trkpt><trkpt lat="45.65040379723899" lon="10.012245993759535"><ele>197.0</ele><time>2026-04-23T10:16:11.002Z</time></trkpt><trkpt lat="45.65044873681191" lon="10.012360811002747"><ele>196.66666666666669</ele><time>2026-04-23T10:16:13.002Z</time></trkpt><trkpt lat="45.65047803766006" lon="10.01246624400903"><ele>196.33333333333334</ele><time>2026-04-23T10:16:15.002Z</time></trkpt><trkpt lat="45.65049932004792" lon="10.012582517102194"><ele>196.0</ele><time>2026-04-23T10:16:17.002Z</time></trkpt><trkpt lat="45.6505004691353" lon="10.01268147112743"><ele>195.66666666666669</ele><time>2026-04-23T10:16:19.002Z</time></trkpt><trkpt lat="45.65047584550667" lon="10.012801749163485"><ele>195.33333333333334</ele><time>2026-04-23T10:16:22.002Z</time></trkpt><trkpt lat="45.65044505844146" lon="10.012907121700762"><ele>195.0</ele><time>2026-04-23T10:16:24.002Z</time></trkpt><trkpt lat="45.65043826732372" lon="10.01304513422133"><ele>195.0</ele><time>2026-04-23T10:16:26.002Z</time></trkpt><trkpt lat="45.65041411241243" lon="10.013129993715296"><ele>195.0</ele><time>2026-04-23T10:16:28.002Z</time></trkpt><trkpt lat="45.65038590339443" lon="10.013237010944058"><ele>195.0</ele><time>2026-04-23T10:16:30.002Z</time></trkpt><trkpt lat="45.650379254932226" lon="10.013371548896743"><ele>195.0</ele><time>2026-04-23T10:16:33.002Z</time></trkpt><trkpt lat="45.650363136411826" lon="10.013520329893733"><ele>195.0</ele><time>2026-04-23T10:16:37.002Z</time></trkpt><trkpt lat="45.65038014796155" lon="10.013616545869176"><ele>195.0</ele><time>2026-04-23T10:16:39.002Z</time></trkpt><trkpt lat="45.65034073982864" lon="10.013754710169557"><ele>196.2</ele><time>2026-04-23T10:16:42.002Z</time></trkpt><trkpt lat="45.65027729832199" lon="10.013869306413227"><ele>197.4</ele><time>2026-04-23T10:16:44.002Z</time></trkpt><trkpt lat="45.650210581198856" lon="10.013950249638883"><ele>198.60000000000002</ele><time>2026-04-23T10:16:47.002Z</time></trkpt><trkpt lat="45.6501696426799" lon="10.014056947637801"><ele>199.8</ele><time>2026-04-23T10:16:49.002Z</time></trkpt><trkpt lat="45.650118196979996" lon="10.014195575532483"><ele>201.0</ele><time>2026-04-23T10:16:51.002Z</time></trkpt><trkpt lat="45.6500682811221" lon="10.014306777784922"><ele>201.5</ele><time>2026-04-23T10:16:53.002Z</time></trkpt><trkpt lat="45.65004222834589" lon="10.014452992707827"><ele>202.0</ele><time>2026-04-23T10:16:55.002Z</time></trkpt><trkpt lat="45.65000015645447" lon="10.014539840664408"><ele>202.5</ele><time>2026-04-23T10:16:57.002Z</time></trkpt><trkpt lat="45.64996709513513" lon="10.014663390692595"><ele>203.0</ele><time>2026-04-23T10:16:59.002Z</time></trkpt><trkpt lat="45.64991968217184" lon="10.014751508809692"><ele>203.5</ele><time>2026-04-23T10:17:01.002Z</time></trkpt><trkpt lat="45.64988817320583" lon="10.01486235580976"><ele>204.0</ele><time>2026-04-23T10:17:03.002Z</time></trkpt><trkpt lat="45.64985538412151" lon="10.01503684216693"><ele>204.0</ele><time>2026-04-23T10:17:05.002Z</time></trkpt><trkpt lat="45.64983764546954" lon="10.015146492278689"><ele>204.0</ele><time>2026-04-23T10:17:06.002Z</time></trkpt><trkpt lat="45.64980443889753" lon="10.015318257918777"><ele>204.0</ele><time>2026-04-23T10:17:08.003Z</time></trkpt><trkpt lat="45.64978629412009" lon="10.015468031213892"><ele>204.0</ele><time>2026-04-23T10:17:10.003Z</time></trkpt><trkpt lat="45.649729967635466" lon="10.015627690698244"><ele>204.0</ele><time>2026-04-23T10:17:12.003Z</time></trkpt><trkpt lat="45.64968141254703" lon="10.015714105752512"><ele>204.0</ele><time>2026-04-23T10:17:14.003Z</time></trkpt><trkpt lat="45.64962797419921" lon="10.015818762102747"><ele>204.0</ele><time>2026-04-23T10:17:18.003Z</time></trkpt><trkpt lat="45.64953891589412" lon="10.015795739471148"><ele>204.0</ele><time>2026-04-23T10:17:20.003Z</time></trkpt><trkpt lat="45.64946784635837" lon="10.015793447648903"><ele>204.0</ele><time>2026-04-23T10:17:22.003Z</time></trkpt><trkpt lat="45.6494092511094" lon="10.015755628433638"><ele>204.0</ele><time>2026-04-23T10:17:24.003Z</time></trkpt><trkpt lat="45.649272091430355" lon="10.015726786190948"><ele>203.16666666666666</ele><time>2026-04-23T10:17:26.003Z</time></trkpt><trkpt lat="45.649192416281615" lon="10.015724281682944"><ele>202.33333333333331</ele><time>2026-04-23T10:17:27.003Z</time></trkpt><trkpt lat="45.6491144521894" lon="10.015728317856887"><ele>201.5</ele><time>2026-04-23T10:17:28.003Z</time></trkpt><trkpt lat="45.649032394506065" lon="10.015719073644894"><ele>200.66666666666666</ele><time>2026-04-23T10:17:29.003Z</time></trkpt><trkpt lat="45.648966553740344" lon="10.015718283391328"><ele>199.83333333333331</ele><time>2026-04-23T10:17:30.003Z</time></trkpt><trkpt lat="45.64887053980611" lon="10.015733160601249"><ele>199.0</ele><time>2026-04-23T10:17:31.003Z</time></trkpt><trkpt lat="45.64879391899935" lon="10.015725502012803"><ele>198.99999999999997</ele><time>2026-04-23T10:17:32.003Z</time></trkpt><trkpt lat="45.648731210348124" lon="10.015713972427283"><ele>199.0</ele><time>2026-04-23T10:17:33.003Z</time></trkpt><trkpt lat="45.64865023742884" lon="10.015716089516983"><ele>199.0</ele><time>2026-04-23T10:17:34.003Z</time></trkpt><trkpt lat="45.64858490395325" lon="10.015705676353985"><ele>199.0</ele><time>2026-04-23T10:17:35.003Z</time></trkpt><trkpt lat="45.6484872211092" lon="10.015664590525843"><ele>198.99999999999997</ele><time>2026-04-23T10:17:37.003Z</time></trkpt><trkpt lat="45.64839843482518" lon="10.01557992864978"><ele>199.0</ele><time>2026-04-23T10:17:40.003Z</time></trkpt><trkpt lat="45.64829487297613" lon="10.015583490164982"><ele>198.6</ele><time>2026-04-23T10:17:42.003Z</time></trkpt><trkpt lat="45.64823166373895" lon="10.015573793287574"><ele>198.2</ele><time>2026-04-23T10:17:43.003Z</time></trkpt><trkpt lat="45.64812777446285" lon="10.015543927325288"><ele>197.79999999999998</ele><time>2026-04-23T10:17:45.003Z</time></trkpt><trkpt lat="45.6480182629867" lon="10.015519374751944"><ele>197.39999999999998</ele><time>2026-04-23T10:17:47.003Z</time></trkpt><trkpt lat="45.6478993442373" lon="10.015495286313346"><ele>197.0</ele><time>2026-04-23T10:17:49.003Z</time></trkpt><trkpt lat="45.64782639773307" lon="10.015488452085789"><ele>196.39999999999998</ele><time>2026-04-23T10:17:50.003Z</time></trkpt><trkpt lat="45.64776030150563" lon="10.0154690926446"><ele>195.79999999999998</ele><time>2026-04-23T10:17:51.003Z</time></trkpt><trkpt lat="45.64769747626377" lon="10.015455687361689"><ele>195.2</ele><time>2026-04-23T10:17:52.003Z</time></trkpt><trkpt lat="45.64755999342336" lon="10.015430329912615"><ele>194.6</ele><time>2026-04-23T10:17:54.003Z</time></trkpt><trkpt lat="45.647436905931194" lon="10.01541611973419"><ele>194.0</ele><time>2026-04-23T10:17:56.003Z</time></trkpt><trkpt lat="45.64735847633086" lon="10.01539377569458"><ele>194.00000000000003</ele><time>2026-04-23T10:17:57.003Z</time></trkpt><trkpt lat="45.64728475008873" lon="10.015372611595666"><ele>194.0</ele><time>2026-04-23T10:17:58.003Z</time></trkpt><trkpt lat="45.6472090384746" lon="10.015357870857502"><ele>194.0</ele><time>2026-04-23T10:17:59.003Z</time></trkpt><trkpt lat="45.64713511834671" lon="10.015341762483468"><ele>194.0</ele><time>2026-04-23T10:18:00.003Z</time></trkpt><trkpt lat="45.647060671698185" lon="10.015323273188706"><ele>194.00000000000003</ele><time>2026-04-23T10:18:01.003Z</time></trkpt><trkpt lat="45.64699868785385" lon="10.015305795769978"><ele>194.0</ele><time>2026-04-23T10:18:02.003Z</time></trkpt><trkpt lat="45.64687766058141" lon="10.015280239798312"><ele>193.83333333333334</ele><time>2026-04-23T10:18:04.003Z</time></trkpt><trkpt lat="45.6468135611757" lon="10.015261608176539"><ele>193.66666666666669</ele><time>2026-04-23T10:18:05.003Z</time></trkpt><trkpt lat="45.646716486540264" lon="10.015226542209936"><ele>193.5</ele><time>2026-04-23T10:18:07.003Z</time></trkpt><trkpt lat="45.6466244153347" lon="10.01519904234633"><ele>193.33333333333331</ele><time>2026-04-23T10:18:09.003Z</time></trkpt><trkpt lat="45.6465514316679" lon="10.015187453570809"><ele>193.16666666666666</ele><time>2026-04-23T10:18:12.003Z</time></trkpt><trkpt lat="45.64648275150459" lon="10.015141791773388"><ele>193.0</ele><time>2026-04-23T10:18:15.003Z</time></trkpt><trkpt lat="45.64641390331287" lon="10.015095465874072"><ele>192.99999999999997</ele><time>2026-04-23T10:18:17.003Z</time></trkpt><trkpt lat="45.64633294475319" lon="10.015056430923533"><ele>193.0</ele><time>2026-04-23T10:18:20.003Z</time></trkpt><trkpt lat="45.646251783564544" lon="10.015040311121659"><ele>193.0</ele><time>2026-04-23T10:18:22.003Z</time></trkpt><trkpt lat="45.64619767680926" lon="10.014981420975857"><ele>193.0</ele><time>2026-04-23T10:18:24.003Z</time></trkpt><trkpt lat="45.64613479465124" lon="10.014964509912936"><ele>192.99999999999997</ele><time>2026-04-23T10:18:27.003Z</time></trkpt><trkpt lat="45.64612803933915" lon="10.015087101672735"><ele>193.0</ele><time>2026-04-23T10:18:37.003Z</time></trkpt><trkpt lat="45.64615913729813" lon="10.01519718840664"><ele>192.99999999999997</ele><time>2026-04-23T10:18:40.003Z</time></trkpt><trkpt lat="45.646145025171535" lon="10.015304516542223"><ele>193.0</ele><time>2026-04-23T10:18:43.003Z</time></trkpt><trkpt lat="45.64605676440579" lon="10.015341905593994"><ele>193.0</ele><time>2026-04-23T10:18:47.003Z</time></trkpt><trkpt lat="45.645994025685916" lon="10.015422055668983"><ele>193.0</ele><time>2026-04-23T10:18:51.003Z</time></trkpt><trkpt lat="45.645929291064434" lon="10.015469764661596"><ele>192.99999999999997</ele><time>2026-04-23T10:18:57.003Z</time></trkpt><trkpt lat="45.645856885406346" lon="10.01547300803987"><ele>193.0</ele><time>2026-04-23T10:19:00.996Z</time></trkpt><trkpt lat="45.6457808933943" lon="10.015481919225806"><ele>193.66666666666666</ele><time>2026-04-23T10:19:04.996Z</time></trkpt><trkpt lat="45.64569752644065" lon="10.015478481864944"><ele>194.33333333333331</ele><time>2026-04-23T10:19:07.996Z</time></trkpt><trkpt lat="45.64561729603899" lon="10.015460624606828"><ele>195.0</ele><time>2026-04-23T10:19:10.996Z</time></trkpt><trkpt lat="45.645546537035706" lon="10.015461097174912"><ele>195.66666666666669</ele><time>2026-04-23T10:19:12.996Z</time></trkpt><trkpt lat="45.64547328818509" lon="10.015457949636104"><ele>196.33333333333334</ele><time>2026-04-23T10:19:14.996Z</time></trkpt><trkpt lat="45.64540816432831" lon="10.015457444177802"><ele>197.0</ele><time>2026-04-23T10:19:16.996Z</time></trkpt><trkpt lat="45.64531793539481" lon="10.015451655812548"><ele>196.83333333333334</ele><time>2026-04-23T10:19:20.996Z</time></trkpt><trkpt lat="45.645260499221706" lon="10.015506199602113"><ele>196.66666666666669</ele><time>2026-04-23T10:19:22.996Z</time></trkpt><trkpt lat="45.645210227229526" lon="10.01562320040165"><ele>196.5</ele><time>2026-04-23T10:19:24.996Z</time></trkpt><trkpt lat="45.64516748009463" lon="10.01570832562284"><ele>196.33333333333331</ele><time>2026-04-23T10:19:25.996Z</time></trkpt><trkpt lat="45.645122847270365" lon="10.015787628144247"><ele>196.16666666666666</ele><time>2026-04-23T10:19:26.996Z</time></trkpt><trkpt lat="45.645081679233535" lon="10.015883265047256"><ele>196.0</ele><time>2026-04-23T10:19:27.996Z</time></trkpt><trkpt lat="45.64504672176942" lon="10.015982859151192"><ele>195.99999999999997</ele><time>2026-04-23T10:19:28.996Z</time></trkpt><trkpt lat="45.64499637152277" lon="10.016085523626014"><ele>196.0</ele><time>2026-04-23T10:19:29.996Z</time></trkpt><trkpt lat="45.64495701751401" lon="10.016188187336795"><ele>196.0</ele><time>2026-04-23T10:19:30.996Z</time></trkpt><trkpt lat="45.64490146327586" lon="10.016275513480428"><ele>196.0</ele><time>2026-04-23T10:19:31.996Z</time></trkpt><trkpt lat="45.64484380722828" lon="10.01634035864509"><ele>195.99999999999997</ele><time>2026-04-23T10:19:32.996Z</time></trkpt><trkpt lat="45.64475015122121" lon="10.016342076070396"><ele>196.0</ele><time>2026-04-23T10:19:36.996Z</time></trkpt><trkpt lat="45.64465917267702" lon="10.016335618957024"><ele>195.99999999999997</ele><time>2026-04-23T10:19:39.996Z</time></trkpt><trkpt lat="45.64458984976875" lon="10.016338046963249"><ele>196.0</ele><time>2026-04-23T10:19:41.996Z</time></trkpt><trkpt lat="45.644512604058406" lon="10.016319117181151"><ele>196.0</ele><time>2026-04-23T10:19:43.996Z</time></trkpt><trkpt lat="45.644432261410174" lon="10.01628693972242"><ele>196.0</ele><time>2026-04-23T10:19:45.996Z</time></trkpt><trkpt lat="45.64435007875908" lon="10.016254130650749"><ele>195.99999999999997</ele><time>2026-04-23T10:19:48.996Z</time></trkpt><trkpt lat="45.644281604370875" lon="10.01622808831345"><ele>196.0</ele><time>2026-04-23T10:19:50.996Z</time></trkpt><trkpt lat="45.6441919446472" lon="10.016194083980366"><ele>195.8</ele><time>2026-04-23T10:19:52.996Z</time></trkpt><trkpt lat="45.644090236233964" lon="10.01613996372883"><ele>195.60000000000002</ele><time>2026-04-23T10:19:54.996Z</time></trkpt><trkpt lat="45.64399183590539" lon="10.016102301559073"><ele>195.4</ele><time>2026-04-23T10:19:56.996Z</time></trkpt><trkpt lat="45.64389797768594" lon="10.016099595374703"><ele>195.2</ele><time>2026-04-23T10:19:58.995Z</time></trkpt><trkpt lat="45.64381476520966" lon="10.016125373510745"><ele>195.0</ele><time>2026-04-23T10:20:00.994Z</time></trkpt><trkpt lat="45.64372820346502" lon="10.016213905387989"><ele>195.0</ele><time>2026-04-23T10:20:02.994Z</time></trkpt><trkpt lat="45.643650999272005" lon="10.016318969394804"><ele>195.0</ele><time>2026-04-23T10:20:04.994Z</time></trkpt><trkpt lat="45.64361034071384" lon="10.016388462726717"><ele>195.0</ele><time>2026-04-23T10:20:05.994Z</time></trkpt><trkpt lat="45.643567198149825" lon="10.016461174027098"><ele>195.0</ele><time>2026-04-23T10:20:06.994Z</time></trkpt><trkpt lat="45.6434931676767" lon="10.016588354918863"><ele>195.0</ele><time>2026-04-23T10:20:08.995Z</time></trkpt><trkpt lat="45.643429936996625" lon="10.016729311163527"><ele>194.4</ele><time>2026-04-23T10:20:10.995Z</time></trkpt><trkpt lat="45.643384461353534" lon="10.016857787921003"><ele>193.8</ele><time>2026-04-23T10:20:12.994Z</time></trkpt><trkpt lat="45.64332825955161" lon="10.016997211506677"><ele>193.2</ele><time>2026-04-23T10:20:14.994Z</time></trkpt><trkpt lat="45.64327460986622" lon="10.017125748483691"><ele>192.6</ele><time>2026-04-23T10:20:16.994Z</time></trkpt><trkpt lat="45.64323510152295" lon="10.017234662921473"><ele>192.0</ele><time>2026-04-23T10:20:18.994Z</time></trkpt><trkpt lat="45.6431868453378" lon="10.017346441522994"><ele>192.0</ele><time>2026-04-23T10:20:20.994Z</time></trkpt><trkpt lat="45.64314167302842" lon="10.017410213136353"><ele>192.0</ele><time>2026-04-23T10:20:22.994Z</time></trkpt><trkpt lat="45.64304823359647" lon="10.017473271511543"><ele>192.0</ele><time>2026-04-23T10:20:26.994Z</time></trkpt><trkpt lat="45.64298071767941" lon="10.017503380913233"><ele>192.0</ele><time>2026-04-23T10:20:28.994Z</time></trkpt><trkpt lat="45.64289936230329" lon="10.017553358529431"><ele>192.0</ele><time>2026-04-23T10:20:31.994Z</time></trkpt><trkpt lat="45.64280810693114" lon="10.017577055456094"><ele>192.0</ele><time>2026-04-23T10:20:34.994Z</time></trkpt><trkpt lat="45.6427453636545" lon="10.017620664579036"><ele>192.0</ele><time>2026-04-23T10:20:36.994Z</time></trkpt><trkpt lat="45.64266873994988" lon="10.017667427952546"><ele>192.0</ele><time>2026-04-23T10:20:38.994Z</time></trkpt><trkpt lat="45.642578705050184" lon="10.017654842614848"><ele>192.0</ele><time>2026-04-23T10:20:43.994Z</time></trkpt><trkpt lat="45.64250652361658" lon="10.017629596178342"><ele>192.0</ele><time>2026-04-23T10:20:45.994Z</time></trkpt><trkpt lat="45.64243998487111" lon="10.017625946759324"><ele>192.0</ele><time>2026-04-23T10:20:47.994Z</time></trkpt><trkpt lat="45.642362824177" lon="10.017609952478503"><ele>192.0</ele><time>2026-04-23T10:20:50.994Z</time></trkpt><trkpt lat="45.64227841394217" lon="10.017587263612556"><ele>192.0</ele><time>2026-04-23T10:20:53.994Z</time></trkpt><trkpt lat="45.642204810800344" lon="10.01752878252767"><ele>192.0</ele><time>2026-04-23T10:20:55.994Z</time></trkpt><trkpt lat="45.64211831835159" lon="10.01745288132331"><ele>192.0</ele><time>2026-04-23T10:20:58.994Z</time></trkpt><trkpt lat="45.64205169223516" lon="10.017368505128868"><ele>192.0</ele><time>2026-04-23T10:21:01.994Z</time></trkpt><trkpt lat="45.6420018613331" lon="10.017294385458548"><ele>192.0</ele><time>2026-04-23T10:21:04.994Z</time></trkpt><trkpt lat="45.64194715887423" lon="10.017190750440289"><ele>192.0</ele><time>2026-04-23T10:21:07.995Z</time></trkpt><trkpt lat="45.641906424147784" lon="10.017089972204666"><ele>192.66666666666666</ele><time>2026-04-23T10:21:09.995Z</time></trkpt><trkpt lat="45.641873779899576" lon="10.016986897471963"><ele>193.33333333333331</ele><time>2026-04-23T10:21:11.995Z</time></trkpt><trkpt lat="45.641817668522236" lon="10.016888874843234"><ele>194.0</ele><time>2026-04-23T10:21:13.995Z</time></trkpt><trkpt lat="45.641764647158794" lon="10.01680013078181"><ele>194.66666666666666</ele><time>2026-04-23T10:21:15.995Z</time></trkpt><trkpt lat="45.641711766025225" lon="10.016719803224307"><ele>195.33333333333331</ele><time>2026-04-23T10:21:17.995Z</time></trkpt><trkpt lat="45.64165762850968" lon="10.01664403506203"><ele>196.0</ele><time>2026-04-23T10:21:19.995Z</time></trkpt><trkpt lat="45.64159695966692" lon="10.016573938818597"><ele>196.33333333333331</ele><time>2026-04-23T10:21:21.995Z</time></trkpt><trkpt lat="45.64155105798399" lon="10.016509104468481"><ele>196.66666666666666</ele><time>2026-04-23T10:21:23.995Z</time></trkpt><trkpt lat="45.64149831042896" lon="10.016439697881"><ele>197.0</ele><time>2026-04-23T10:21:25.995Z</time></trkpt><trkpt lat="45.641433160717746" lon="10.01635580289374"><ele>197.33333333333331</ele><time>2026-04-23T10:21:28.995Z</time></trkpt><trkpt lat="45.641368341609926" lon="10.016260584661273"><ele>197.66666666666666</ele><time>2026-04-23T10:21:31.995Z</time></trkpt><trkpt lat="45.641292185103865" lon="10.016201494444811"><ele>198.0</ele><time>2026-04-23T10:21:33.995Z</time></trkpt><trkpt lat="45.641241931152926" lon="10.016119749230096"><ele>198.0</ele><time>2026-04-23T10:21:37.995Z</time></trkpt><trkpt lat="45.64117364693224" lon="10.016070553589637"><ele>198.0</ele><time>2026-04-23T10:21:40.995Z</time></trkpt><trkpt lat="45.641112193803444" lon="10.01602463009982"><ele>198.0</ele><time>2026-04-23T10:21:42.995Z</time></trkpt><trkpt lat="45.64104244593676" lon="10.01597706639339"><ele>198.0</ele><time>2026-04-23T10:21:44.995Z</time></trkpt><trkpt lat="45.640980021972574" lon="10.015946024167976"><ele>198.0</ele><time>2026-04-23T10:21:46.995Z</time></trkpt><trkpt lat="45.64091821021587" lon="10.01589117333839"><ele>198.0</ele><time>2026-04-23T10:21:48.995Z</time></trkpt><trkpt lat="45.64082779019922" lon="10.015860769081753"><ele>198.5</ele><time>2026-04-23T10:21:51.995Z</time></trkpt><trkpt lat="45.64075208236888" lon="10.015818325991015"><ele>199.0</ele><time>2026-04-23T10:21:53.995Z</time></trkpt><trkpt lat="45.6406909786053" lon="10.015782988253306"><ele>199.5</ele><time>2026-04-23T10:21:55.995Z</time></trkpt><trkpt lat="45.640608684370285" lon="10.01573821674274"><ele>200.0</ele><time>2026-04-23T10:21:58.995Z</time></trkpt><trkpt lat="45.64054770949623" lon="10.015709422504555"><ele>200.5</ele><time>2026-04-23T10:22:00.995Z</time></trkpt><trkpt lat="45.64046342686012" lon="10.015661473584046"><ele>201.0</ele><time>2026-04-23T10:22:02.995Z</time></trkpt><trkpt lat="45.6403941224962" lon="10.015640313549639"><ele>201.0</ele><time>2026-04-23T10:22:06.992Z</time></trkpt><trkpt lat="45.64031026931271" lon="10.015604369342489"><ele>201.0</ele><time>2026-04-23T10:22:09.992Z</time></trkpt><trkpt lat="45.64024749633017" lon="10.015571605628223"><ele>201.0</ele><time>2026-04-23T10:22:13.993Z</time></trkpt><trkpt lat="45.64018482114669" lon="10.015555302399415"><ele>201.0</ele><time>2026-04-23T10:22:16.992Z</time></trkpt><trkpt lat="45.64008584563541" lon="10.015539687746331"><ele>201.0</ele><time>2026-04-23T10:22:19.992Z</time></trkpt><trkpt lat="45.639994151578996" lon="10.015529315290893"><ele>201.0</ele><time>2026-04-23T10:22:22.992Z</time></trkpt><trkpt lat="45.63992215766783" lon="10.01552107329174"><ele>201.16666666666666</ele><time>2026-04-23T10:22:24.992Z</time></trkpt><trkpt lat="45.639851575533065" lon="10.015510896533657"><ele>201.33333333333331</ele><time>2026-04-23T10:22:26.992Z</time></trkpt><trkpt lat="45.63976412032902" lon="10.015496388727819"><ele>201.5</ele><time>2026-04-23T10:22:29.992Z</time></trkpt><trkpt lat="45.63968862274684" lon="10.015505915971573"><ele>201.66666666666666</ele><time>2026-04-23T10:22:32.992Z</time></trkpt><trkpt lat="45.63960225421774" lon="10.01553483038614"><ele>201.83333333333331</ele><time>2026-04-23T10:22:35.992Z</time></trkpt><trkpt lat="45.63953810372534" lon="10.015584734788622"><ele>202.0</ele><time>2026-04-23T10:22:38.992Z</time></trkpt><trkpt lat="45.639476056124266" lon="10.015601338631752"><ele>204.16666666666666</ele><time>2026-04-23T10:22:41.992Z</time></trkpt><trkpt lat="45.63938807960976" lon="10.015604675027399"><ele>206.33333333333331</ele><time>2026-04-23T10:22:44.992Z</time></trkpt><trkpt lat="45.63931632349992" lon="10.015600722122905"><ele>208.5</ele><time>2026-04-23T10:22:47.992Z</time></trkpt><trkpt lat="45.63923928528649" lon="10.015612724871083"><ele>210.66666666666669</ele><time>2026-04-23T10:22:50.992Z</time></trkpt><trkpt lat="45.63917703187428" lon="10.015633658139082"><ele>212.83333333333334</ele><time>2026-04-23T10:22:53.992Z</time></trkpt><trkpt lat="45.639098182012496" lon="10.015649360251775"><ele>215.0</ele><time>2026-04-23T10:22:56.992Z</time></trkpt><trkpt lat="45.639025361058415" lon="10.015671960844067"><ele>215.0</ele><time>2026-04-23T10:22:59.992Z</time></trkpt><trkpt lat="45.63896254190687" lon="10.015691338372461"><ele>215.0</ele><time>2026-04-23T10:23:02.992Z</time></trkpt><trkpt lat="45.63889971915697" lon="10.015706658333242"><ele>215.0</ele><time>2026-04-23T10:23:05.992Z</time></trkpt><trkpt lat="45.638830318927745" lon="10.015723527411629"><ele>215.0</ele><time>2026-04-23T10:23:07.992Z</time></trkpt><trkpt lat="45.63875461627319" lon="10.015744220314343"><ele>215.0</ele><time>2026-04-23T10:23:11.992Z</time></trkpt><trkpt lat="45.63867960869234" lon="10.015782189011457"><ele>215.0</ele><time>2026-04-23T10:23:15.992Z</time></trkpt><trkpt lat="45.63861249284195" lon="10.015775005548504"><ele>215.0</ele><time>2026-04-23T10:23:18.992Z</time></trkpt><trkpt lat="45.63854055869356" lon="10.015754694293788"><ele>216.14285714285714</ele><time>2026-04-23T10:23:21.992Z</time></trkpt><trkpt lat="45.6384551515523" lon="10.01574040245878"><ele>217.2857142857143</ele><time>2026-04-23T10:23:24.992Z</time></trkpt><trkpt lat="45.638379670985124" lon="10.015740807917247"><ele>218.42857142857144</ele><time>2026-04-23T10:23:27.992Z</time></trkpt><trkpt lat="45.63830061596924" lon="10.015719568780218"><ele>219.57142857142856</ele><time>2026-04-23T10:23:30.992Z</time></trkpt><trkpt lat="45.638237438176134" lon="10.015712145373074"><ele>220.71428571428572</ele><time>2026-04-23T10:23:33.992Z</time></trkpt><trkpt lat="45.638169280995264" lon="10.015704432515607"><ele>221.85714285714286</ele><time>2026-04-23T10:23:36.992Z</time></trkpt><trkpt lat="45.6380999987845" lon="10.01571966468288"><ele>223.0</ele><time>2026-04-23T10:23:39.992Z</time></trkpt><trkpt lat="45.638036749819186" lon="10.015735683180466"><ele>222.99999999999997</ele><time>2026-04-23T10:23:42.992Z</time></trkpt><trkpt lat="45.637969700072425" lon="10.015745290978021"><ele>223.0</ele><time>2026-04-23T10:23:45.992Z</time></trkpt><trkpt lat="45.63787656189185" lon="10.015785825310779"><ele>223.0</ele><time>2026-04-23T10:23:49.992Z</time></trkpt><trkpt lat="45.63780369338275" lon="10.015808000148088"><ele>223.0</ele><time>2026-04-23T10:23:52.992Z</time></trkpt><trkpt lat="45.6377297312117" lon="10.015828552511875"><ele>222.99999999999997</ele><time>2026-04-23T10:23:55.992Z</time></trkpt><trkpt lat="45.63766117003285" lon="10.015840492517908"><ele>223.0</ele><time>2026-04-23T10:23:57.992Z</time></trkpt><trkpt lat="45.63757959067831" lon="10.015870816012402"><ele>221.66666666666666</ele><time>2026-04-23T10:24:01.992Z</time></trkpt><trkpt lat="45.637507701089966" lon="10.015901050117053"><ele>220.33333333333331</ele><time>2026-04-23T10:24:04.992Z</time></trkpt><trkpt lat="45.63741760394435" lon="10.01594879858926"><ele>219.0</ele><time>2026-04-23T10:24:08.992Z</time></trkpt><trkpt lat="45.63735391047171" lon="10.015962693450993"><ele>217.66666666666669</ele><time>2026-04-23T10:24:10.991Z</time></trkpt><trkpt lat="45.63727621823093" lon="10.01595244788398"><ele>216.33333333333334</ele><time>2026-04-23T10:24:12.99Z</time></trkpt><trkpt lat="45.637190757789305" lon="10.015911238193084"><ele>215.0</ele><time>2026-04-23T10:24:15.99Z</time></trkpt><trkpt lat="45.63710337534778" lon="10.015891480589787"><ele>215.0</ele><time>2026-04-23T10:24:18.991Z</time></trkpt><trkpt lat="45.63699680352397" lon="10.015843358040854"><ele>215.0</ele><time>2026-04-23T10:24:20.99Z</time></trkpt><trkpt lat="45.63690250951074" lon="10.015811773031123"><ele>215.0</ele><time>2026-04-23T10:24:22.991Z</time></trkpt><trkpt lat="45.636814473464284" lon="10.015808836356971"><ele>215.0</ele><time>2026-04-23T10:24:24.99Z</time></trkpt><trkpt lat="45.636728462761546" lon="10.01581677637328"><ele>215.0</ele><time>2026-04-23T10:24:26.99Z</time></trkpt><trkpt lat="45.63667285638427" lon="10.015920282658072"><ele>215.4</ele><time>2026-04-23T10:24:28.99Z</time></trkpt><trkpt lat="45.6365758161429" lon="10.015941180607598"><ele>215.8</ele><time>2026-04-23T10:24:31.99Z</time></trkpt><trkpt lat="45.63648988337736" lon="10.015895091847847"><ele>216.2</ele><time>2026-04-23T10:24:36.99Z</time></trkpt><trkpt lat="45.636364133944454" lon="10.015849230345388"><ele>216.6</ele><time>2026-04-23T10:24:44.99Z</time></trkpt><trkpt lat="45.63628452791909" lon="10.01588825171866"><ele>217.0</ele><time>2026-04-23T10:24:47.99Z</time></trkpt><trkpt lat="45.636209408486195" lon="10.015947302340388"><ele>216.99999999999997</ele><time>2026-04-23T10:24:50.99Z</time></trkpt><trkpt lat="45.63615021602612" lon="10.016007233004087"><ele>217.0</ele><time>2026-04-23T10:24:52.99Z</time></trkpt><trkpt lat="45.63608975869763" lon="10.016091824216765"><ele>217.0</ele><time>2026-04-23T10:24:54.99Z</time></trkpt><trkpt lat="45.636041280669176" lon="10.016166079061817"><ele>217.0</ele><time>2026-04-23T10:24:56.99Z</time></trkpt><trkpt lat="45.63598977676709" lon="10.016250348525412"><ele>216.99999999999997</ele><time>2026-04-23T10:24:58.99Z</time></trkpt><trkpt lat="45.635930889669886" lon="10.016345869553906"><ele>217.0</ele><time>2026-04-23T10:25:00.99Z</time></trkpt><trkpt lat="45.63586528823339" lon="10.016464101685369"><ele>216.39999999999998</ele><time>2026-04-23T10:25:02.99Z</time></trkpt><trkpt lat="45.63580391299856" lon="10.01656881678454"><ele>215.79999999999998</ele><time>2026-04-23T10:25:04.99Z</time></trkpt><trkpt lat="45.635747951075494" lon="10.016669360439046"><ele>215.2</ele><time>2026-04-23T10:25:06.99Z</time></trkpt><trkpt lat="45.63568880033518" lon="10.016779355736514"><ele>214.6</ele><time>2026-04-23T10:25:08.99Z</time></trkpt><trkpt lat="45.63562652601945" lon="10.016895605431673"><ele>214.0</ele><time>2026-04-23T10:25:10.99Z</time></trkpt><trkpt lat="45.63556163949694" lon="10.017010756419467"><ele>213.99999999999997</ele><time>2026-04-23T10:25:12.99Z</time></trkpt><trkpt lat="45.63550047391978" lon="10.017134580762258"><ele>214.0</ele><time>2026-04-23T10:25:14.99Z</time></trkpt><trkpt lat="45.63544695872747" lon="10.01724741990808"><ele>214.0</ele><time>2026-04-23T10:25:16.99Z</time></trkpt><trkpt lat="45.63539632386181" lon="10.017323612072232"><ele>214.0</ele><time>2026-04-23T10:25:18.99Z</time></trkpt><trkpt lat="45.635363721311634" lon="10.017235308221851"><ele>213.99999999999997</ele><time>2026-04-23T10:25:21.99Z</time></trkpt><trkpt lat="45.635328147750386" lon="10.01715888249884"><ele>214.0</ele><time>2026-04-23T10:25:26.99Z</time></trkpt><trkpt lat="45.63533303868041" lon="10.017038163279919"><ele>214.0</ele><time>2026-04-23T10:25:29.99Z</time></trkpt><trkpt lat="45.635344772583906" lon="10.016907355443784"><ele>213.99999999999997</ele><time>2026-04-23T10:25:31.99Z</time></trkpt><trkpt lat="45.63535408460503" lon="10.016792018539855"><ele>213.99999999999997</ele><time>2026-04-23T10:25:33.99Z</time></trkpt><trkpt lat="45.63537325901598" lon="10.016662350476825"><ele>214.0</ele><time>2026-04-23T10:25:35.99Z</time></trkpt><trkpt lat="45.635387092942814" lon="10.016535476921918"><ele>214.0</ele><time>2026-04-23T10:25:37.99Z</time></trkpt><trkpt lat="45.635396372101205" lon="10.016389602817695"><ele>213.83333333333331</ele><time>2026-04-23T10:25:39.99Z</time></trkpt><trkpt lat="45.6354164522768" lon="10.016234829986516"><ele>213.66666666666666</ele><time>2026-04-23T10:25:41.99Z</time></trkpt><trkpt lat="45.635424334936104" lon="10.016096882749437"><ele>213.5</ele><time>2026-04-23T10:25:43.99Z</time></trkpt><trkpt lat="45.63542014907965" lon="10.015997689238743"><ele>213.33333333333331</ele><time>2026-04-23T10:25:45.99Z</time></trkpt><trkpt lat="45.63543172564063" lon="10.015867416556352"><ele>213.16666666666666</ele><time>2026-04-23T10:25:47.99Z</time></trkpt><trkpt lat="45.635443618617025" lon="10.015760093815441"><ele>213.0</ele><time>2026-04-23T10:25:49.99Z</time></trkpt><trkpt lat="45.63545417006524" lon="10.015612781887404"><ele>212.83333333333334</ele><time>2026-04-23T10:25:51.99Z</time></trkpt><trkpt lat="45.6354661277789" lon="10.015495026314975"><ele>212.66666666666669</ele><time>2026-04-23T10:25:53.99Z</time></trkpt><trkpt lat="45.63546585018883" lon="10.015387493429557"><ele>212.5</ele><time>2026-04-23T10:25:55.99Z</time></trkpt><trkpt lat="45.6354741412263" lon="10.01526359977048"><ele>212.33333333333334</ele><time>2026-04-23T10:25:57.99Z</time></trkpt><trkpt lat="45.635506090744926" lon="10.015130270404926"><ele>212.16666666666669</ele><time>2026-04-23T10:25:59.99Z</time></trkpt><trkpt lat="45.63553060474528" lon="10.015016999508713"><ele>212.0</ele><time>2026-04-23T10:26:01.99Z</time></trkpt><trkpt lat="45.635560508397624" lon="10.014875495048061"><ele>211.6</ele><time>2026-04-23T10:26:03.99Z</time></trkpt><trkpt lat="45.63559893991693" lon="10.014732876354888"><ele>211.2</ele><time>2026-04-23T10:26:05.99Z</time></trkpt><trkpt lat="45.63562372900645" lon="10.014596791257931"><ele>210.8</ele><time>2026-04-23T10:26:07.99Z</time></trkpt><trkpt lat="45.63564673161398" lon="10.014438434024752"><ele>210.4</ele><time>2026-04-23T10:26:10.99Z</time></trkpt><trkpt lat="45.63566220042547" lon="10.014332852980766"><ele>210.0</ele><time>2026-04-23T10:26:12.99Z</time></trkpt><trkpt lat="45.63567665164273" lon="10.014219952689276"><ele>210.16666666666666</ele><time>2026-04-23T10:26:14.99Z</time></trkpt><trkpt lat="45.63569929695873" lon="10.014121192619323"><ele>210.33333333333331</ele><time>2026-04-23T10:26:16.988Z</time></trkpt><trkpt lat="45.63571796278578" lon="10.01403304786617"><ele>210.5</ele><time>2026-04-23T10:26:18.989Z</time></trkpt><trkpt lat="45.63574772330009" lon="10.013935042555202"><ele>210.66666666666666</ele><time>2026-04-23T10:26:20.989Z</time></trkpt><trkpt lat="45.63577535727399" lon="10.013812700377658"><ele>210.83333333333331</ele><time>2026-04-23T10:26:22.989Z</time></trkpt><trkpt lat="45.635803962765294" lon="10.01369377105623"><ele>211.0</ele><time>2026-04-23T10:26:24.989Z</time></trkpt><trkpt lat="45.63582700092249" lon="10.013586852846005"><ele>210.99999999999997</ele><time>2026-04-23T10:26:26.989Z</time></trkpt><trkpt lat="45.63582660949111" lon="10.013471839568158"><ele>211.0</ele><time>2026-04-23T10:26:28.989Z</time></trkpt><trkpt lat="45.63583888647486" lon="10.01336321144597"><ele>211.0</ele><time>2026-04-23T10:26:30.989Z</time></trkpt><trkpt lat="45.63585659361505" lon="10.013258277668918"><ele>211.0</ele><time>2026-04-23T10:26:32.989Z</time></trkpt><trkpt lat="45.635880378748894" lon="10.013111196989323"><ele>210.99999999999997</ele><time>2026-04-23T10:26:34.989Z</time></trkpt><trkpt lat="45.63589892159445" lon="10.012988186830752"><ele>211.0</ele><time>2026-04-23T10:26:36.989Z</time></trkpt><trkpt lat="45.63592116971643" lon="10.012857156109705"><ele>211.16666666666666</ele><time>2026-04-23T10:26:38.989Z</time></trkpt><trkpt lat="45.6359829462093" lon="10.01271422149598"><ele>211.33333333333331</ele><time>2026-04-23T10:26:42.989Z</time></trkpt><trkpt lat="45.6360171551622" lon="10.012627008629403"><ele>211.5</ele><time>2026-04-23T10:26:44.989Z</time></trkpt><trkpt lat="45.63602494356113" lon="10.012507956151394"><ele>211.66666666666669</ele><time>2026-04-23T10:26:46.989Z</time></trkpt><trkpt lat="45.63604346888339" lon="10.012420680015552"><ele>211.83333333333334</ele><time>2026-04-23T10:26:48.989Z</time></trkpt><trkpt lat="45.63602856852506" lon="10.012276928655648"><ele>212.0</ele><time>2026-04-23T10:26:50.989Z</time></trkpt><trkpt lat="45.636001173118544" lon="10.012154919479507"><ele>212.00000000000003</ele><time>2026-04-23T10:26:52.989Z</time></trkpt><trkpt lat="45.635993351765926" lon="10.012034387302846"><ele>212.0</ele><time>2026-04-23T10:26:55.989Z</time></trkpt><trkpt lat="45.635902324325286" lon="10.01196790802699"><ele>212.0</ele><time>2026-04-23T10:26:57.989Z</time></trkpt><trkpt lat="45.63582890192775" lon="10.011874079952975"><ele>212.0</ele><time>2026-04-23T10:26:59.989Z</time></trkpt><trkpt lat="45.63577550306312" lon="10.011789688875"><ele>212.00000000000003</ele><time>2026-04-23T10:27:02.989Z</time></trkpt><trkpt lat="45.63572295356731" lon="10.011706489533722"><ele>212.0</ele><time>2026-04-23T10:27:04.989Z</time></trkpt><trkpt lat="45.63566276512831" lon="10.011603850847592"><ele>212.00000000000003</ele><time>2026-04-23T10:27:07.989Z</time></trkpt><trkpt lat="45.63561245217481" lon="10.011545705081605"><ele>212.0</ele><time>2026-04-23T10:27:09.989Z</time></trkpt><trkpt lat="45.63553050456949" lon="10.011464491254317"><ele>212.0</ele><time>2026-04-23T10:27:12.989Z</time></trkpt><trkpt lat="45.63547274905637" lon="10.011416921288923"><ele>212.0</ele><time>2026-04-23T10:27:14.989Z</time></trkpt><trkpt lat="45.63539311865836" lon="10.011356950260904"><ele>212.00000000000003</ele><time>2026-04-23T10:27:16.989Z</time></trkpt><trkpt lat="45.635335201170065" lon="10.011320022879586"><ele>212.0</ele><time>2026-04-23T10:27:17.989Z</time></trkpt><trkpt lat="45.63523510466284" lon="10.01127377041016"><ele>212.0</ele><time>2026-04-23T10:27:19.989Z</time></trkpt><trkpt lat="45.63512874941693" lon="10.011202479811763"><ele>212.0</ele><time>2026-04-23T10:27:21.989Z</time></trkpt><trkpt lat="45.635026310254865" lon="10.011165904239395"><ele>212.0</ele><time>2026-04-23T10:27:23.989Z</time></trkpt><trkpt lat="45.63495242173337" lon="10.01116259960349"><ele>212.0</ele><time>2026-04-23T10:27:25.989Z</time></trkpt><trkpt lat="45.63486539406414" lon="10.011144596776735"><ele>212.0</ele><time>2026-04-23T10:27:27.989Z</time></trkpt><trkpt lat="45.634786342729335" lon="10.0111248248807"><ele>212.0</ele><time>2026-04-23T10:27:29.989Z</time></trkpt><trkpt lat="45.6346657613238" lon="10.011109537047384"><ele>212.0</ele><time>2026-04-23T10:27:31.989Z</time></trkpt><trkpt lat="45.63456292062403" lon="10.011158942734433"><ele>212.0</ele><time>2026-04-23T10:27:33.989Z</time></trkpt><trkpt lat="45.63444645526729" lon="10.011203398851759"><ele>212.0</ele><time>2026-04-23T10:27:35.989Z</time></trkpt><trkpt lat="45.634381655155416" lon="10.011233176266883"><ele>212.0</ele><time>2026-04-23T10:27:36.989Z</time></trkpt><trkpt lat="45.63431352786552" lon="10.011262232526311"><ele>211.83333333333334</ele><time>2026-04-23T10:27:37.989Z</time></trkpt><trkpt lat="45.63422101015501" lon="10.0113378813083"><ele>211.66666666666669</ele><time>2026-04-23T10:27:39.989Z</time></trkpt><trkpt lat="45.63416880982927" lon="10.011396240055179"><ele>211.5</ele><time>2026-04-23T10:27:40.989Z</time></trkpt><trkpt lat="45.63411824129348" lon="10.011456119657216"><ele>211.33333333333331</ele><time>2026-04-23T10:27:41.989Z</time></trkpt><trkpt lat="45.63403029558597" lon="10.011569647509264"><ele>211.16666666666666</ele><time>2026-04-23T10:27:43.989Z</time></trkpt><trkpt lat="45.63398359515634" lon="10.011637664606608"><ele>211.0</ele><time>2026-04-23T10:27:44.989Z</time></trkpt><trkpt lat="45.63390030967965" lon="10.011744867324575"><ele>211.4</ele><time>2026-04-23T10:27:46.989Z</time></trkpt><trkpt lat="45.63381263031462" lon="10.011829257807056"><ele>211.8</ele><time>2026-04-23T10:27:48.989Z</time></trkpt><trkpt lat="45.63372317303487" lon="10.011891876521135"><ele>212.20000000000002</ele><time>2026-04-23T10:27:50.989Z</time></trkpt><trkpt lat="45.6336370152426" lon="10.011935070988365"><ele>212.60000000000002</ele><time>2026-04-23T10:27:52.989Z</time></trkpt><trkpt lat="45.63355850226256" lon="10.012007116929539"><ele>213.0</ele><time>2026-04-23T10:27:54.989Z</time></trkpt><trkpt lat="45.633509058973694" lon="10.012115222974142"><ele>212.33333333333334</ele><time>2026-04-23T10:27:56.989Z</time></trkpt><trkpt lat="45.633454685688896" lon="10.012229136504088"><ele>211.66666666666669</ele><time>2026-04-23T10:27:58.989Z</time></trkpt><trkpt lat="45.633406024642845" lon="10.012347357976067"><ele>211.0</ele><time>2026-04-23T10:28:00.989Z</time></trkpt><trkpt lat="45.633361774107925" lon="10.012451752139654"><ele>210.33333333333334</ele><time>2026-04-23T10:28:02.989Z</time></trkpt><trkpt lat="45.63332761209112" lon="10.012374571554538"><ele>209.66666666666669</ele><time>2026-04-23T10:28:11.989Z</time></trkpt><trkpt lat="45.63336305661433" lon="10.01225930000206"><ele>209.0</ele><time>2026-04-23T10:28:14.989Z</time></trkpt><trkpt lat="45.6333658623626" lon="10.012127669122167"><ele>209.00000000000003</ele><time>2026-04-23T10:28:17.989Z</time></trkpt><trkpt lat="45.63330885994413" lon="10.012063348422647"><ele>209.0</ele><time>2026-04-23T10:28:20.989Z</time></trkpt><trkpt lat="45.63322926703929" lon="10.012073487525717"><ele>209.0</ele><time>2026-04-23T10:28:22.987Z</time></trkpt><trkpt lat="45.63314917613249" lon="10.0120820538055"><ele>209.0</ele><time>2026-04-23T10:28:24.986Z</time></trkpt><trkpt lat="45.633081115295695" lon="10.012096007131476"><ele>209.00000000000003</ele><time>2026-04-23T10:28:26.986Z</time></trkpt><trkpt lat="45.63300074885625" lon="10.012117031882633"><ele>209.0</ele><time>2026-04-23T10:28:28.987Z</time></trkpt><trkpt lat="45.63291513910991" lon="10.012134706525403"><ele>209.00000000000003</ele><time>2026-04-23T10:28:30.986Z</time></trkpt><trkpt lat="45.632832466817284" lon="10.012158275461442"><ele>209.0</ele><time>2026-04-23T10:28:32.986Z</time></trkpt><trkpt lat="45.632749063983994" lon="10.012180307369404"><ele>209.0</ele><time>2026-04-23T10:28:34.987Z</time></trkpt><trkpt lat="45.632672151303666" lon="10.012217984005618"><ele>209.0</ele><time>2026-04-23T10:28:36.987Z</time></trkpt><trkpt lat="45.632572369881125" lon="10.012240285471975"><ele>209.00000000000003</ele><time>2026-04-23T10:28:38.987Z</time></trkpt><trkpt lat="45.63250026102094" lon="10.01229376065479"><ele>209.0</ele><time>2026-04-23T10:28:40.987Z</time></trkpt><trkpt lat="45.632447258319" lon="10.012349893008347"><ele>208.6</ele><time>2026-04-23T10:28:42.987Z</time></trkpt><trkpt lat="45.63237386972513" lon="10.012389551967065"><ele>208.2</ele><time>2026-04-23T10:28:44.987Z</time></trkpt><trkpt lat="45.632342324774896" lon="10.01249351466731"><ele>207.79999999999998</ele><time>2026-04-23T10:28:46.987Z</time></trkpt><trkpt lat="45.63231906329174" lon="10.01265097138548"><ele>207.39999999999998</ele><time>2026-04-23T10:28:48.987Z</time></trkpt><trkpt lat="45.632291005242145" lon="10.012784548593826"><ele>207.0</ele><time>2026-04-23T10:28:50.987Z</time></trkpt><trkpt lat="45.63226465627377" lon="10.012901463239576"><ele>207.0</ele><time>2026-04-23T10:28:52.987Z</time></trkpt><trkpt lat="45.63223740082721" lon="10.013003301869944"><ele>207.0</ele><time>2026-04-23T10:28:54.987Z</time></trkpt><trkpt lat="45.632197023005034" lon="10.013129375418744"><ele>207.0</ele><time>2026-04-23T10:28:56.987Z</time></trkpt><trkpt lat="45.63214337689522" lon="10.013254250104122"><ele>207.0</ele><time>2026-04-23T10:28:58.987Z</time></trkpt><trkpt lat="45.63211685202008" lon="10.013358361754486"><ele>207.0</ele><time>2026-04-23T10:29:00.987Z</time></trkpt><trkpt lat="45.63207665576841" lon="10.013490718754241"><ele>207.0</ele><time>2026-04-23T10:29:02.987Z</time></trkpt><trkpt lat="45.632055919771254" lon="10.013586505407348"><ele>207.0</ele><time>2026-04-23T10:29:03.987Z</time></trkpt><trkpt lat="45.632018686382246" lon="10.013722272937917"><ele>207.0</ele><time>2026-04-23T10:29:05.987Z</time></trkpt><trkpt lat="45.63198928155939" lon="10.013869584072573"><ele>207.0</ele><time>2026-04-23T10:29:07.987Z</time></trkpt><trkpt lat="45.63194579390815" lon="10.013997593449284"><ele>207.0</ele><time>2026-04-23T10:29:09.987Z</time></trkpt><trkpt lat="45.631908225238895" lon="10.014101324883919"><ele>207.16666666666666</ele><time>2026-04-23T10:29:11.987Z</time></trkpt><trkpt lat="45.63185144876021" lon="10.0142368740182"><ele>207.33333333333331</ele><time>2026-04-23T10:29:13.987Z</time></trkpt><trkpt lat="45.63180041432762" lon="10.014305627432588"><ele>207.5</ele><time>2026-04-23T10:29:15.987Z</time></trkpt><trkpt lat="45.63174215911659" lon="10.014401112309143"><ele>207.66666666666666</ele><time>2026-04-23T10:29:18.987Z</time></trkpt><trkpt lat="45.63171652371755" lon="10.014497914255227"><ele>207.83333333333331</ele><time>2026-04-23T10:29:21.987Z</time></trkpt><trkpt lat="45.631690449855945" lon="10.014609485403945"><ele>208.0</ele><time>2026-04-23T10:29:23.987Z</time></trkpt><trkpt lat="45.63164472703254" lon="10.014678266391178"><ele>207.99999999999997</ele><time>2026-04-23T10:29:25.987Z</time></trkpt><trkpt lat="45.631616224177876" lon="10.01476221862682"><ele>208.0</ele><time>2026-04-23T10:29:28.987Z</time></trkpt><trkpt lat="45.63155577646646" lon="10.014817861777532"><ele>208.0</ele><time>2026-04-23T10:29:32.987Z</time></trkpt><trkpt lat="45.63148330322245" lon="10.014857017350334"><ele>208.0</ele><time>2026-04-23T10:29:35.987Z</time></trkpt><trkpt lat="45.63140087937615" lon="10.014853326210458"><ele>207.99999999999997</ele><time>2026-04-23T10:29:37.987Z</time></trkpt><trkpt lat="45.63130407259186" lon="10.014856297741959"><ele>208.0</ele><time>2026-04-23T10:29:39.987Z</time></trkpt><trkpt lat="45.63119981099087" lon="10.01483305231471"><ele>208.16666666666666</ele><time>2026-04-23T10:29:41.987Z</time></trkpt><trkpt lat="45.631119612990034" lon="10.014844320616385"><ele>208.33333333333331</ele><time>2026-04-23T10:29:43.987Z</time></trkpt><trkpt lat="45.63104138339923" lon="10.014879950101355"><ele>208.5</ele><time>2026-04-23T10:29:45.987Z</time></trkpt><trkpt lat="45.63097350893066" lon="10.01488846421676"><ele>208.66666666666669</ele><time>2026-04-23T10:29:48.987Z</time></trkpt><trkpt lat="45.630905673872306" lon="10.014903825774084"><ele>208.83333333333334</ele><time>2026-04-23T10:29:50.987Z</time></trkpt><trkpt lat="45.630834765797616" lon="10.014917924038782"><ele>209.0</ele><time>2026-04-23T10:29:52.987Z</time></trkpt><trkpt lat="45.63072694915893" lon="10.01492075242318"><ele>209.0</ele><time>2026-04-23T10:29:54.987Z</time></trkpt><trkpt lat="45.63060785475111" lon="10.01491457740786"><ele>209.0</ele><time>2026-04-23T10:29:56.987Z</time></trkpt><trkpt lat="45.6305009802236" lon="10.01487485066162"><ele>209.0</ele><time>2026-04-23T10:29:58.987Z</time></trkpt><trkpt lat="45.630406136366176" lon="10.01482670871657"><ele>209.0</ele><time>2026-04-23T10:30:00.987Z</time></trkpt><trkpt lat="45.63030903783666" lon="10.014765451331128"><ele>209.0</ele><time>2026-04-23T10:30:02.987Z</time></trkpt><trkpt lat="45.63021272082247" lon="10.014727937134278"><ele>208.2</ele><time>2026-04-23T10:30:04.987Z</time></trkpt><trkpt lat="45.630121646916336" lon="10.014663174923152"><ele>207.39999999999998</ele><time>2026-04-23T10:30:06.987Z</time></trkpt><trkpt lat="45.63005312854847" lon="10.014628805141388"><ele>206.6</ele><time>2026-04-23T10:30:07.987Z</time></trkpt><trkpt lat="45.62994722360275" lon="10.01458413334931"><ele>205.8</ele><time>2026-04-23T10:30:09.987Z</time></trkpt><trkpt lat="45.62982201951149" lon="10.014531580546715"><ele>205.0</ele><time>2026-04-23T10:30:11.987Z</time></trkpt><trkpt lat="45.629759691612755" lon="10.014507548001824"><ele>204.99999999999997</ele><time>2026-04-23T10:30:12.987Z</time></trkpt><trkpt lat="45.629696744489046" lon="10.014485034480124"><ele>205.0</ele><time>2026-04-23T10:30:13.987Z</time></trkpt><trkpt lat="45.62963612119385" lon="10.014454686586923"><ele>205.0</ele><time>2026-04-23T10:30:14.987Z</time></trkpt><trkpt lat="45.629560279576744" lon="10.014407017458664"><ele>205.0</ele><time>2026-04-23T10:30:16.987Z</time></trkpt><trkpt lat="45.629494905922094" lon="10.01432479344241"><ele>204.99999999999997</ele><time>2026-04-23T10:30:18.987Z</time></trkpt><trkpt lat="45.62940412061995" lon="10.01423945079229"><ele>205.0</ele><time>2026-04-23T10:30:20.987Z</time></trkpt><trkpt lat="45.62934031644395" lon="10.014169732084017"><ele>205.16666666666666</ele><time>2026-04-23T10:30:22.987Z</time></trkpt><trkpt lat="45.62927146599322" lon="10.01411847009177"><ele>205.33333333333331</ele><time>2026-04-23T10:30:24.987Z</time></trkpt><trkpt lat="45.62922178482345" lon="10.014029652561607"><ele>205.5</ele><time>2026-04-23T10:30:26.987Z</time></trkpt><trkpt lat="45.62914272658583" lon="10.013965814134709"><ele>205.66666666666669</ele><time>2026-04-23T10:30:28.984Z</time></trkpt><trkpt lat="45.629052783146705" lon="10.013892371466621"><ele>205.83333333333334</ele><time>2026-04-23T10:30:30.984Z</time></trkpt><trkpt lat="45.62898047511296" lon="10.013827021256756"><ele>206.0</ele><time>2026-04-23T10:30:32.984Z</time></trkpt><trkpt lat="45.62890238511018" lon="10.013755471489464"><ele>206.00000000000003</ele><time>2026-04-23T10:30:34.984Z</time></trkpt><trkpt lat="45.628814518916656" lon="10.01367035503589"><ele>206.0</ele><time>2026-04-23T10:30:36.984Z</time></trkpt><trkpt lat="45.628745829064826" lon="10.013594885299886"><ele>206.0</ele><time>2026-04-23T10:30:38.984Z</time></trkpt><trkpt lat="45.62867576704367" lon="10.01353155655356"><ele>206.0</ele><time>2026-04-23T10:30:40.984Z</time></trkpt><trkpt lat="45.62861041755298" lon="10.013472186953093"><ele>206.00000000000003</ele><time>2026-04-23T10:30:42.984Z</time></trkpt><trkpt lat="45.62853126361399" lon="10.013422758624653"><ele>206.0</ele><time>2026-04-23T10:30:44.984Z</time></trkpt><trkpt lat="45.628445049654495" lon="10.013364790498397"><ele>206.20000000000002</ele><time>2026-04-23T10:30:46.984Z</time></trkpt><trkpt lat="45.628347175587095" lon="10.013317254093808"><ele>206.4</ele><time>2026-04-23T10:30:48.984Z</time></trkpt><trkpt lat="45.62825101648619" lon="10.013266904734731"><ele>206.6</ele><time>2026-04-23T10:30:50.984Z</time></trkpt><trkpt lat="45.6281662951086" lon="10.013222957896696"><ele>206.8</ele><time>2026-04-23T10:30:52.984Z</time></trkpt><trkpt lat="45.6280696357369" lon="10.01316870132664"><ele>207.0</ele><time>2026-04-23T10:30:54.984Z</time></trkpt><trkpt lat="45.62797813992847" lon="10.013128372670206"><ele>207.0</ele><time>2026-04-23T10:30:56.984Z</time></trkpt><trkpt lat="45.62788585833607" lon="10.013083137333695"><ele>207.0</ele><time>2026-04-23T10:30:58.984Z</time></trkpt><trkpt lat="45.62780384076634" lon="10.013046035524216"><ele>207.0</ele><time>2026-04-23T10:31:00.984Z</time></trkpt><trkpt lat="45.627707523373275" lon="10.013007116138644"><ele>207.0</ele><time>2026-04-23T10:31:02.984Z</time></trkpt><trkpt lat="45.62761692168943" lon="10.012977566539815"><ele>207.0</ele><time>2026-04-23T10:31:04.984Z</time></trkpt><trkpt lat="45.62752045566286" lon="10.012949420234783"><ele>207.0</ele><time>2026-04-23T10:31:06.984Z</time></trkpt><trkpt lat="45.62742305851157" lon="10.01291976609981"><ele>207.0</ele><time>2026-04-23T10:31:08.984Z</time></trkpt><trkpt lat="45.627340685938414" lon="10.012902166116103"><ele>207.0</ele><time>2026-04-23T10:31:10.984Z</time></trkpt><trkpt lat="45.627255230851645" lon="10.012875344917333"><ele>207.0</ele><time>2026-04-23T10:31:12.984Z</time></trkpt><trkpt lat="45.627164915157664" lon="10.012857102701792"><ele>207.0</ele><time>2026-04-23T10:31:14.984Z</time></trkpt><trkpt lat="45.627078391476246" lon="10.01283009443544"><ele>207.0</ele><time>2026-04-23T10:31:16.984Z</time></trkpt><trkpt lat="45.62697783460875" lon="10.012798763532762"><ele>207.0</ele><time>2026-04-23T10:31:18.984Z</time></trkpt><trkpt lat="45.626882735845086" lon="10.012770507618768"><ele>207.0</ele><time>2026-04-23T10:31:20.984Z</time></trkpt><trkpt lat="45.6267897956694" lon="10.012746204439656"><ele>207.0</ele><time>2026-04-23T10:31:22.984Z</time></trkpt><trkpt lat="45.62669745327349" lon="10.012721816627812"><ele>207.0</ele><time>2026-04-23T10:31:24.984Z</time></trkpt><trkpt lat="45.62660975665146" lon="10.012688730156764"><ele>207.2</ele><time>2026-04-23T10:31:26.984Z</time></trkpt><trkpt lat="45.626507259345196" lon="10.012647404928229"><ele>207.39999999999998</ele><time>2026-04-23T10:31:28.984Z</time></trkpt><trkpt lat="45.62640884140301" lon="10.012607525466908"><ele>207.60000000000002</ele><time>2026-04-23T10:31:30.985Z</time></trkpt><trkpt lat="45.626319283021466" lon="10.012562591875213"><ele>207.8</ele><time>2026-04-23T10:31:32.985Z</time></trkpt><trkpt lat="45.62623450901072" lon="10.012525544545978"><ele>208.0</ele><time>2026-04-23T10:31:34.985Z</time></trkpt><trkpt lat="45.626145560132144" lon="10.012484169580025"><ele>207.99999999999997</ele><time>2026-04-23T10:31:36.985Z</time></trkpt><trkpt lat="45.62607524869178" lon="10.012447101706146"><ele>208.0</ele><time>2026-04-23T10:31:38.985Z</time></trkpt><trkpt lat="45.62599352989958" lon="10.012407982302102"><ele>208.0</ele><time>2026-04-23T10:31:40.985Z</time></trkpt><trkpt lat="45.62592913750813" lon="10.01235624345952"><ele>208.0</ele><time>2026-04-23T10:31:42.985Z</time></trkpt><trkpt lat="45.625855593733085" lon="10.01230664340859"><ele>207.99999999999997</ele><time>2026-04-23T10:31:44.985Z</time></trkpt><trkpt lat="45.625783935031514" lon="10.01225460114343"><ele>208.0</ele><time>2026-04-23T10:31:46.985Z</time></trkpt><trkpt lat="45.625705940386645" lon="10.012203323337143"><ele>207.99999999999997</ele><time>2026-04-23T10:31:48.985Z</time></trkpt><trkpt lat="45.62562561676369" lon="10.012162278781659"><ele>208.0</ele><time>2026-04-23T10:31:50.985Z</time></trkpt><trkpt lat="45.62554588020079" lon="10.012099450932054"><ele>208.0</ele><time>2026-04-23T10:31:52.985Z</time></trkpt><trkpt lat="45.62553641703969" lon="10.012220247804223"><ele>208.0</ele><time>2026-04-23T10:32:04.985Z</time></trkpt><trkpt lat="45.62549307035631" lon="10.012326439226173"><ele>207.99999999999997</ele><time>2026-04-23T10:32:07.985Z</time></trkpt><trkpt lat="45.62546397250812" lon="10.012411889703941"><ele>208.0</ele><time>2026-04-23T10:32:09.985Z</time></trkpt><trkpt lat="45.62543294845113" lon="10.012496478575171"><ele>208.16666666666666</ele><time>2026-04-23T10:32:11.985Z</time></trkpt><trkpt lat="45.62540415155248" lon="10.012599402551867"><ele>208.33333333333331</ele><time>2026-04-23T10:32:13.985Z</time></trkpt><trkpt lat="45.62537207794644" lon="10.012685289090195"><ele>208.5</ele><time>2026-04-23T10:32:15.985Z</time></trkpt><trkpt lat="45.625341682850284" lon="10.012789463505314"><ele>208.66666666666669</ele><time>2026-04-23T10:32:17.985Z</time></trkpt><trkpt lat="45.62531019985538" lon="10.01290937755299"><ele>208.83333333333334</ele><time>2026-04-23T10:32:19.985Z</time></trkpt><trkpt lat="45.62527880769003" lon="10.013035791565251"><ele>209.0</ele><time>2026-04-23T10:32:21.985Z</time></trkpt><trkpt lat="45.625246407380324" lon="10.013156795949977"><ele>209.0</ele><time>2026-04-23T10:32:23.985Z</time></trkpt><trkpt lat="45.6252187405007" lon="10.013297953589895"><ele>209.0</ele><time>2026-04-23T10:32:25.985Z</time></trkpt><trkpt lat="45.62518774026473" lon="10.013406450077088"><ele>209.0</ele><time>2026-04-23T10:32:27.985Z</time></trkpt><trkpt lat="45.62516254358466" lon="10.013521298221148"><ele>209.0</ele><time>2026-04-23T10:32:29.985Z</time></trkpt><trkpt lat="45.625216706092516" lon="10.013631920161563"><ele>209.0</ele><time>2026-04-23T10:32:33.985Z</time></trkpt><trkpt lat="45.62527943070345" lon="10.013729923194619"><ele>209.0</ele><time>2026-04-23T10:32:35.982Z</time></trkpt><trkpt lat="45.62534552120757" lon="10.013820283403295"><ele>209.0</ele><time>2026-04-23T10:32:37.982Z</time></trkpt><trkpt lat="45.625408410810465" lon="10.013903037542114"><ele>209.0</ele><time>2026-04-23T10:32:39.982Z</time></trkpt><trkpt lat="45.62548254816044" lon="10.013996626798637"><ele>209.0</ele><time>2026-04-23T10:32:41.982Z</time></trkpt><trkpt lat="45.625552368694926" lon="10.014117421320838"><ele>209.0</ele><time>2026-04-23T10:32:43.981Z</time></trkpt><trkpt lat="45.625595225533296" lon="10.014195583450793"><ele>208.5</ele><time>2026-04-23T10:32:44.982Z</time></trkpt><trkpt lat="45.625682451327705" lon="10.01432539781702"><ele>208.0</ele><time>2026-04-23T10:32:46.982Z</time></trkpt><trkpt lat="45.6257640182947" lon="10.014445392747966"><ele>207.5</ele><time>2026-04-23T10:32:48.982Z</time></trkpt><trkpt lat="45.6258479185719" lon="10.014573306930377"><ele>207.0</ele><time>2026-04-23T10:32:50.982Z</time></trkpt><trkpt lat="45.62592888440157" lon="10.01469610768103"><ele>207.0</ele><time>2026-04-23T10:32:52.982Z</time></trkpt><trkpt lat="45.62600967673941" lon="10.014817884256352"><ele>207.0</ele><time>2026-04-23T10:32:54.982Z</time></trkpt><trkpt lat="45.6261024673763" lon="10.014926204274323"><ele>207.0</ele><time>2026-04-23T10:32:56.982Z</time></trkpt><trkpt lat="45.62615157300009" lon="10.014984135977993"><ele>207.0</ele><time>2026-04-23T10:32:57.982Z</time></trkpt><trkpt lat="45.626239767907805" lon="10.015095374998754"><ele>207.0</ele><time>2026-04-23T10:32:59.982Z</time></trkpt><trkpt lat="45.626289779886484" lon="10.015153534222778"><ele>207.0</ele><time>2026-04-23T10:33:00.982Z</time></trkpt><trkpt lat="45.62638264388524" lon="10.015271800346758"><ele>207.0</ele><time>2026-04-23T10:33:02.982Z</time></trkpt><trkpt lat="45.62647110473134" lon="10.015379458713127"><ele>207.0</ele><time>2026-04-23T10:33:04.982Z</time></trkpt><trkpt lat="45.626561047191096" lon="10.015459176938316"><ele>207.0</ele><time>2026-04-23T10:33:06.982Z</time></trkpt><trkpt lat="45.62664500043956" lon="10.015546441662645"><ele>207.0</ele><time>2026-04-23T10:33:08.982Z</time></trkpt><trkpt lat="45.626725660350075" lon="10.015648357502831"><ele>207.0</ele><time>2026-04-23T10:33:10.982Z</time></trkpt><trkpt lat="45.62680109608429" lon="10.015792681155988"><ele>207.0</ele><time>2026-04-23T10:33:12.982Z</time></trkpt><trkpt lat="45.626870699935004" lon="10.015923178532812"><ele>207.0</ele><time>2026-04-23T10:33:14.982Z</time></trkpt><trkpt lat="45.62691647248798" lon="10.016042283875837"><ele>207.0</ele><time>2026-04-23T10:33:16.982Z</time></trkpt><trkpt lat="45.626947249581605" lon="10.01620860932899"><ele>206.6</ele><time>2026-04-23T10:33:18.982Z</time></trkpt><trkpt lat="45.62696246246416" lon="10.016329261236457"><ele>206.2</ele><time>2026-04-23T10:33:20.982Z</time></trkpt><trkpt lat="45.62697825093496" lon="10.016425320456774"><ele>205.8</ele><time>2026-04-23T10:33:21.982Z</time></trkpt><trkpt lat="45.626985629109" lon="10.016596503302921"><ele>205.4</ele><time>2026-04-23T10:33:23.982Z</time></trkpt><trkpt lat="45.62699676195582" lon="10.016751371544613"><ele>205.0</ele><time>2026-04-23T10:33:25.982Z</time></trkpt><trkpt lat="45.62702600632168" lon="10.016897079878607"><ele>204.8</ele><time>2026-04-23T10:33:27.982Z</time></trkpt><trkpt lat="45.627039273093445" lon="10.016986478296921"><ele>204.6</ele><time>2026-04-23T10:33:28.982Z</time></trkpt><trkpt lat="45.62707443651213" lon="10.017144960423405"><ele>204.39999999999998</ele><time>2026-04-23T10:33:30.982Z</time></trkpt><trkpt lat="45.6271169485154" lon="10.017287627191669"><ele>204.2</ele><time>2026-04-23T10:33:32.982Z</time></trkpt><trkpt lat="45.62715773838534" lon="10.017411759479696"><ele>204.0</ele><time>2026-04-23T10:33:34.982Z</time></trkpt><trkpt lat="45.627186933366374" lon="10.017551755149933"><ele>204.0</ele><time>2026-04-23T10:33:36.982Z</time></trkpt><trkpt lat="45.62723705842287" lon="10.017681923810953"><ele>204.0</ele><time>2026-04-23T10:33:38.982Z</time></trkpt><trkpt lat="45.6273025069346" lon="10.017787544875768"><ele>204.0</ele><time>2026-04-23T10:33:40.982Z</time></trkpt><trkpt lat="45.62737341635406" lon="10.017901841394314"><ele>204.0</ele><time>2026-04-23T10:33:42.982Z</time></trkpt><trkpt lat="45.62744260707987" lon="10.018010589885243"><ele>204.0</ele><time>2026-04-23T10:33:44.982Z</time></trkpt><trkpt lat="45.62750282230703" lon="10.018164223850745"><ele>204.0</ele><time>2026-04-23T10:33:46.982Z</time></trkpt><trkpt lat="45.627549402456076" lon="10.018317107781167"><ele>204.0</ele><time>2026-04-23T10:33:48.982Z</time></trkpt><trkpt lat="45.62757603335699" lon="10.018455982093784"><ele>204.0</ele><time>2026-04-23T10:33:50.982Z</time></trkpt><trkpt lat="45.62759132666327" lon="10.018603609444673"><ele>204.0</ele><time>2026-04-23T10:33:52.982Z</time></trkpt><trkpt lat="45.627602435167084" lon="10.018696493995007"><ele>204.0</ele><time>2026-04-23T10:33:53.982Z</time></trkpt><trkpt lat="45.627611681834516" lon="10.018787317507842"><ele>204.5</ele><time>2026-04-23T10:33:54.982Z</time></trkpt><trkpt lat="45.62763710234594" lon="10.018948086762338"><ele>205.0</ele><time>2026-04-23T10:33:56.982Z</time></trkpt><trkpt lat="45.62764583335846" lon="10.019135700065787"><ele>205.5</ele><time>2026-04-23T10:33:58.982Z</time></trkpt><trkpt lat="45.62766941137615" lon="10.019279130998546"><ele>206.0</ele><time>2026-04-23T10:34:00.982Z</time></trkpt><trkpt lat="45.627696272305606" lon="10.01943893605388"><ele>206.00000000000003</ele><time>2026-04-23T10:34:02.982Z</time></trkpt><trkpt lat="45.627738420256605" lon="10.019599152037221"><ele>206.0</ele><time>2026-04-23T10:34:04.982Z</time></trkpt><trkpt lat="45.6277802552326" lon="10.019716289627034"><ele>206.0</ele><time>2026-04-23T10:34:06.982Z</time></trkpt><trkpt lat="45.62781123748659" lon="10.019823913296815"><ele>206.0</ele><time>2026-04-23T10:34:08.982Z</time></trkpt><trkpt lat="45.62784724499661" lon="10.019935670558164"><ele>206.00000000000003</ele><time>2026-04-23T10:34:11.982Z</time></trkpt><trkpt lat="45.627855959040595" lon="10.020025684594756"><ele>206.0</ele><time>2026-04-23T10:34:13.982Z</time></trkpt><trkpt lat="45.6278704032876" lon="10.020114629408281"><ele>206.16666666666669</ele><time>2026-04-23T10:34:15.982Z</time></trkpt><trkpt lat="45.627875665296855" lon="10.020247511617463"><ele>206.33333333333334</ele><time>2026-04-23T10:34:18.982Z</time></trkpt><trkpt lat="45.6278588487366" lon="10.020352913403528"><ele>206.5</ele><time>2026-04-23T10:34:20.982Z</time></trkpt><trkpt lat="45.62784860676921" lon="10.02046366580166"><ele>206.66666666666669</ele><time>2026-04-23T10:34:22.982Z</time></trkpt><trkpt lat="45.62783027923396" lon="10.020554022373181"><ele>206.83333333333334</ele><time>2026-04-23T10:34:24.982Z</time></trkpt><trkpt lat="45.627801853926236" lon="10.020676662571114"><ele>207.0</ele><time>2026-04-23T10:34:26.982Z</time></trkpt><trkpt lat="45.62777074790426" lon="10.020798023879676"><ele>207.0</ele><time>2026-04-23T10:34:28.982Z</time></trkpt><trkpt lat="45.6277469547192" lon="10.020919490057107"><ele>207.0</ele><time>2026-04-23T10:34:30.982Z</time></trkpt><trkpt lat="45.62775087836316" lon="10.021048537825148"><ele>207.0</ele><time>2026-04-23T10:34:32.982Z</time></trkpt><trkpt lat="45.62774232823008" lon="10.021172814690054"><ele>207.0</ele><time>2026-04-23T10:34:34.982Z</time></trkpt><trkpt lat="45.627734932107316" lon="10.021267476087255"><ele>207.0</ele><time>2026-04-23T10:34:36.982Z</time></trkpt><trkpt lat="45.62775436494622" lon="10.021391298667476"><ele>207.0</ele><time>2026-04-23T10:34:39.982Z</time></trkpt><trkpt lat="45.627799252505625" lon="10.021513875473056"><ele>207.0</ele><time>2026-04-23T10:34:42.98Z</time></trkpt><trkpt lat="45.62786343632612" lon="10.021589201576932"><ele>207.0</ele><time>2026-04-23T10:34:44.979Z</time></trkpt><trkpt lat="45.62792688355265" lon="10.021661919098635"><ele>207.0</ele><time>2026-04-23T10:34:46.979Z</time></trkpt><trkpt lat="45.62798235662486" lon="10.021738848772518"><ele>207.0</ele><time>2026-04-23T10:34:48.98Z</time></trkpt><trkpt lat="45.62803897788186" lon="10.021804366662211"><ele>207.0</ele><time>2026-04-23T10:34:50.98Z</time></trkpt><trkpt lat="45.62809752243284" lon="10.02187357311909"><ele>207.0</ele><time>2026-04-23T10:34:52.979Z</time></trkpt><trkpt lat="45.62814639410944" lon="10.021938297143834"><ele>207.33333333333334</ele><time>2026-04-23T10:34:54.979Z</time></trkpt><trkpt lat="45.62820784129216" lon="10.022043410633227"><ele>207.66666666666669</ele><time>2026-04-23T10:34:57.979Z</time></trkpt><trkpt lat="45.62824022289897" lon="10.022147179882815"><ele>208.0</ele><time>2026-04-23T10:35:00.979Z</time></trkpt><trkpt lat="45.628256783499324" lon="10.022249898619878"><ele>208.33333333333334</ele><time>2026-04-23T10:35:03.979Z</time></trkpt><trkpt lat="45.62826662637649" lon="10.022355490084353"><ele>208.66666666666669</ele><time>2026-04-23T10:35:06.979Z</time></trkpt><trkpt lat="45.628273779314824" lon="10.022464294840844"><ele>209.0</ele><time>2026-04-23T10:35:09.979Z</time></trkpt><trkpt lat="45.62828395179925" lon="10.022598619982071"><ele>209.50000000000003</ele><time>2026-04-23T10:35:12.979Z</time></trkpt><trkpt lat="45.62828900777818" lon="10.022718814068305"><ele>210.0</ele><time>2026-04-23T10:35:14.979Z</time></trkpt><trkpt lat="45.62829884321823" lon="10.022827898465893"><ele>210.5</ele><time>2026-04-23T10:35:16.979Z</time></trkpt><trkpt lat="45.628302807050986" lon="10.02293064715694"><ele>211.0</ele><time>2026-04-23T10:35:18.98Z</time></trkpt><trkpt lat="45.6283048818586" lon="10.023050026406551"><ele>211.50000000000003</ele><time>2026-04-23T10:35:20.98Z</time></trkpt><trkpt lat="45.628343460985874" lon="10.023158730977913"><ele>212.0</ele><time>2026-04-23T10:35:22.98Z</time></trkpt><trkpt lat="45.62835341579455" lon="10.023304036416448"><ele>212.0</ele><time>2026-04-23T10:35:24.98Z</time></trkpt><trkpt lat="45.628334885068995" lon="10.023438219294881"><ele>212.0</ele><time>2026-04-23T10:35:26.98Z</time></trkpt><trkpt lat="45.62836079594997" lon="10.023569693846758"><ele>212.0</ele><time>2026-04-23T10:35:28.98Z</time></trkpt><trkpt lat="45.628382035146664" lon="10.023710606337723"><ele>212.0</ele><time>2026-04-23T10:35:29.98Z</time></trkpt><trkpt lat="45.62840291506371" lon="10.02382006980139"><ele>212.0</ele><time>2026-04-23T10:35:30.98Z</time></trkpt><trkpt lat="45.628427179507725" lon="10.023962451244369"><ele>212.0</ele><time>2026-04-23T10:35:31.98Z</time></trkpt><trkpt lat="45.62845598016701" lon="10.024096900269551"><ele>212.0</ele><time>2026-04-23T10:35:32.98Z</time></trkpt><trkpt lat="45.62848060978328" lon="10.02423539850142"><ele>212.0</ele><time>2026-04-23T10:35:33.98Z</time></trkpt><trkpt lat="45.62851386765742" lon="10.0243936508642"><ele>212.0</ele><time>2026-04-23T10:35:34.98Z</time></trkpt><trkpt lat="45.62855120591993" lon="10.024545496863375"><ele>212.0</ele><time>2026-04-23T10:35:35.98Z</time></trkpt><trkpt lat="45.628584986767336" lon="10.024669256032777"><ele>211.8</ele><time>2026-04-23T10:35:36.98Z</time></trkpt><trkpt lat="45.62862309379154" lon="10.024816816393091"><ele>211.6</ele><time>2026-04-23T10:35:37.98Z</time></trkpt><trkpt lat="45.6286676650788" lon="10.024953996035826"><ele>211.4</ele><time>2026-04-23T10:35:38.98Z</time></trkpt><trkpt lat="45.628711990054626" lon="10.025084242078519"><ele>211.20000000000002</ele><time>2026-04-23T10:35:39.98Z</time></trkpt><trkpt lat="45.62875974231316" lon="10.025203443194679"><ele>211.0</ele><time>2026-04-23T10:35:40.98Z</time></trkpt><trkpt lat="45.628798816788446" lon="10.025307125375779"><ele>210.16666666666666</ele><time>2026-04-23T10:35:41.98Z</time></trkpt><trkpt lat="45.62884362508536" lon="10.025414546013273"><ele>209.33333333333331</ele><time>2026-04-23T10:35:42.98Z</time></trkpt><trkpt lat="45.628889368271146" lon="10.025515523150816"><ele>208.5</ele><time>2026-04-23T10:35:43.98Z</time></trkpt><trkpt lat="45.62893800133287" lon="10.025611725808119"><ele>207.66666666666669</ele><time>2026-04-23T10:35:44.98Z</time></trkpt><trkpt lat="45.62899561260981" lon="10.025689129004316"><ele>206.83333333333334</ele><time>2026-04-23T10:35:45.98Z</time></trkpt><trkpt lat="45.62906185605637" lon="10.025737697018592"><ele>206.0</ele><time>2026-04-23T10:35:46.98Z</time></trkpt><trkpt lat="45.629136133261035" lon="10.025768935025487"><ele>206.00000000000003</ele><time>2026-04-23T10:35:47.98Z</time></trkpt><trkpt lat="45.62920910992798" lon="10.025783825911718"><ele>206.0</ele><time>2026-04-23T10:35:48.98Z</time></trkpt><trkpt lat="45.62927290982691" lon="10.025763422711682"><ele>206.0</ele><time>2026-04-23T10:35:49.98Z</time></trkpt><trkpt lat="45.62933595193876" lon="10.025752829208786"><ele>206.0</ele><time>2026-04-23T10:35:50.98Z</time></trkpt><trkpt lat="45.6294425030391" lon="10.025742674085565"><ele>206.00000000000003</ele><time>2026-04-23T10:35:52.98Z</time></trkpt><trkpt lat="45.6295198726201" lon="10.02575896324159"><ele>206.0</ele><time>2026-04-23T10:35:54.98Z</time></trkpt><trkpt lat="45.62962773528686" lon="10.025776341365932"><ele>206.0</ele><time>2026-04-23T10:35:56.98Z</time></trkpt><trkpt lat="45.629683543657286" lon="10.025846182831646"><ele>206.0</ele><time>2026-04-23T10:35:57.98Z</time></trkpt><trkpt lat="45.62972321789485" lon="10.025920706256144"><ele>206.0</ele><time>2026-04-23T10:35:58.98Z</time></trkpt><trkpt lat="45.629802552949684" lon="10.026042160238205"><ele>206.0</ele><time>2026-04-23T10:36:00.98Z</time></trkpt><trkpt lat="45.629880032613016" lon="10.026159541083846"><ele>206.0</ele><time>2026-04-23T10:36:02.98Z</time></trkpt><trkpt lat="45.629952770367524" lon="10.026271275771434"><ele>206.0</ele><time>2026-04-23T10:36:04.98Z</time></trkpt><trkpt lat="45.630035940904975" lon="10.02638977996527"><ele>206.0</ele><time>2026-04-23T10:36:06.98Z</time></trkpt><trkpt lat="45.630114851256266" lon="10.02650742474649"><ele>206.0</ele><time>2026-04-23T10:36:08.98Z</time></trkpt><trkpt lat="45.63018640145247" lon="10.02663681707079"><ele>206.0</ele><time>2026-04-23T10:36:10.98Z</time></trkpt><trkpt lat="45.63025049246798" lon="10.02677187421047"><ele>205.60000000000002</ele><time>2026-04-23T10:36:12.98Z</time></trkpt><trkpt lat="45.63032598587472" lon="10.026881977725521"><ele>205.2</ele><time>2026-04-23T10:36:14.98Z</time></trkpt><trkpt lat="45.63040875447912" lon="10.026977225287558"><ele>204.8</ele><time>2026-04-23T10:36:16.98Z</time></trkpt><trkpt lat="45.630498333777986" lon="10.027065787016664"><ele>204.39999999999998</ele><time>2026-04-23T10:36:18.98Z</time></trkpt><trkpt lat="45.630589021902246" lon="10.027138877118244"><ele>204.0</ele><time>2026-04-23T10:36:20.98Z</time></trkpt><trkpt lat="45.63068152161539" lon="10.027209221093804"><ele>204.0</ele><time>2026-04-23T10:36:22.98Z</time></trkpt><trkpt lat="45.63077421179659" lon="10.0272786501938"><ele>204.0</ele><time>2026-04-23T10:36:24.98Z</time></trkpt><trkpt lat="45.63086352716061" lon="10.027334711935078"><ele>204.0</ele><time>2026-04-23T10:36:26.98Z</time></trkpt><trkpt lat="45.63095591692275" lon="10.02738509372529"><ele>204.0</ele><time>2026-04-23T10:36:28.98Z</time></trkpt><trkpt lat="45.63105724445784" lon="10.027447436984362"><ele>204.0</ele><time>2026-04-23T10:36:30.98Z</time></trkpt><trkpt lat="45.63115467356857" lon="10.027494286686208"><ele>204.6</ele><time>2026-04-23T10:36:32.98Z</time></trkpt><trkpt lat="45.63124898305554" lon="10.027549656959092"><ele>205.2</ele><time>2026-04-23T10:36:34.98Z</time></trkpt><trkpt lat="45.63134389364079" lon="10.027606097376722"><ele>205.79999999999998</ele><time>2026-04-23T10:36:36.98Z</time></trkpt><trkpt lat="45.63143271707337" lon="10.02765646273474"><ele>206.39999999999998</ele><time>2026-04-23T10:36:38.98Z</time></trkpt><trkpt lat="45.63152447532975" lon="10.027707529410444"><ele>207.0</ele><time>2026-04-23T10:36:40.98Z</time></trkpt><trkpt lat="45.63162691928066" lon="10.027765722241819"><ele>207.0</ele><time>2026-04-23T10:36:42.98Z</time></trkpt><trkpt lat="45.631722004533486" lon="10.027803566068782"><ele>207.0</ele><time>2026-04-23T10:36:44.98Z</time></trkpt><trkpt lat="45.63180889452578" lon="10.027840993542021"><ele>207.0</ele><time>2026-04-23T10:36:46.976Z</time></trkpt><trkpt lat="45.63190423127288" lon="10.027908245262994"><ele>207.0</ele><time>2026-04-23T10:36:48.977Z</time></trkpt><trkpt lat="45.631999941634426" lon="10.027972572729041"><ele>207.0</ele><time>2026-04-23T10:36:50.976Z</time></trkpt><trkpt lat="45.63209507947456" lon="10.028048512934799"><ele>207.0</ele><time>2026-04-23T10:36:52.977Z</time></trkpt><trkpt lat="45.63219320996654" lon="10.028124744402499"><ele>207.0</ele><time>2026-04-23T10:36:54.977Z</time></trkpt><trkpt lat="45.6322979706658" lon="10.028207203999575"><ele>207.0</ele><time>2026-04-23T10:36:56.976Z</time></trkpt><trkpt lat="45.632399845060526" lon="10.028288665983812"><ele>207.0</ele><time>2026-04-23T10:36:58.976Z</time></trkpt><trkpt lat="45.6324940841743" lon="10.028357206035766"><ele>207.0</ele><time>2026-04-23T10:37:00.976Z</time></trkpt><trkpt lat="45.63259148704111" lon="10.02843800864006"><ele>207.0</ele><time>2026-04-23T10:37:02.976Z</time></trkpt><trkpt lat="45.63269309502422" lon="10.028518818357663"><ele>207.0</ele><time>2026-04-23T10:37:04.976Z</time></trkpt><trkpt lat="45.6327862492718" lon="10.02859155263584"><ele>207.0</ele><time>2026-04-23T10:37:06.976Z</time></trkpt><trkpt lat="45.63288254421091" lon="10.02866347462347"><ele>207.0</ele><time>2026-04-23T10:37:08.976Z</time></trkpt><trkpt lat="45.63297921835321" lon="10.028736771652303"><ele>207.0</ele><time>2026-04-23T10:37:10.976Z</time></trkpt><trkpt lat="45.63308009648136" lon="10.028798342946772"><ele>207.0</ele><time>2026-04-23T10:37:12.976Z</time></trkpt><trkpt lat="45.63317571406027" lon="10.028850254802215"><ele>207.0</ele><time>2026-04-23T10:37:14.976Z</time></trkpt><trkpt lat="45.63327405146541" lon="10.028917958684408"><ele>207.0</ele><time>2026-04-23T10:37:16.976Z</time></trkpt><trkpt lat="45.633374623472555" lon="10.028976818157687"><ele>207.0</ele><time>2026-04-23T10:37:18.976Z</time></trkpt><trkpt lat="45.633470611408505" lon="10.029060303323913"><ele>206.8</ele><time>2026-04-23T10:37:20.976Z</time></trkpt><trkpt lat="45.633554420916646" lon="10.029149093418612"><ele>206.6</ele><time>2026-04-23T10:37:22.976Z</time></trkpt><trkpt lat="45.633632253478176" lon="10.029266693092689"><ele>206.4</ele><time>2026-04-23T10:37:24.976Z</time></trkpt><trkpt lat="45.63370086163172" lon="10.029369246432914"><ele>206.20000000000002</ele><time>2026-04-23T10:37:26.976Z</time></trkpt><trkpt lat="45.63378413538229" lon="10.029491967548127"><ele>206.0</ele><time>2026-04-23T10:37:28.976Z</time></trkpt><trkpt lat="45.6338581282103" lon="10.029603690667122"><ele>205.83333333333334</ele><time>2026-04-23T10:37:30.976Z</time></trkpt><trkpt lat="45.6339309041365" lon="10.02972475778346"><ele>205.66666666666669</ele><time>2026-04-23T10:37:32.976Z</time></trkpt><trkpt lat="45.633969045853384" lon="10.029803623932027"><ele>205.5</ele><time>2026-04-23T10:37:33.976Z</time></trkpt><trkpt lat="45.63402889018438" lon="10.02991914941302"><ele>205.33333333333331</ele><time>2026-04-23T10:37:35.976Z</time></trkpt><trkpt lat="45.63405554575698" lon="10.03000154903875"><ele>205.16666666666666</ele><time>2026-04-23T10:37:36.976Z</time></trkpt><trkpt lat="45.634099934530795" lon="10.030116586505764"><ele>205.0</ele><time>2026-04-23T10:37:38.976Z</time></trkpt><trkpt lat="45.63414265960222" lon="10.030252039196123"><ele>204.99999999999997</ele><time>2026-04-23T10:37:40.976Z</time></trkpt><trkpt lat="45.63416379073947" lon="10.030337949129533"><ele>205.0</ele><time>2026-04-23T10:37:41.976Z</time></trkpt><trkpt lat="45.63419175908925" lon="10.03042189821715"><ele>205.0</ele><time>2026-04-23T10:37:42.976Z</time></trkpt><trkpt lat="45.63424004921704" lon="10.030569949029442"><ele>205.0</ele><time>2026-04-23T10:37:44.976Z</time></trkpt><trkpt lat="45.634318484445934" lon="10.030673155764879"><ele>204.99999999999997</ele><time>2026-04-23T10:37:46.976Z</time></trkpt><trkpt lat="45.63440811553158" lon="10.030733484959654"><ele>205.0</ele><time>2026-04-23T10:37:48.976Z</time></trkpt><trkpt lat="45.63452006102703" lon="10.030778732513177"><ele>204.8</ele><time>2026-04-23T10:37:50.976Z</time></trkpt><trkpt lat="45.63458392454456" lon="10.030817360721738"><ele>204.6</ele><time>2026-04-23T10:37:51.976Z</time></trkpt><trkpt lat="45.63465772011678" lon="10.030873915789032"><ele>204.39999999999998</ele><time>2026-04-23T10:37:53.976Z</time></trkpt><trkpt lat="45.63474289554348" lon="10.03094418242772"><ele>204.2</ele><time>2026-04-23T10:37:55.976Z</time></trkpt><trkpt lat="45.634820911931826" lon="10.03108014213294"><ele>204.0</ele><time>2026-04-23T10:37:57.976Z</time></trkpt><trkpt lat="45.63489294863935" lon="10.031207711085763"><ele>204.0</ele><time>2026-04-23T10:37:59.976Z</time></trkpt><trkpt lat="45.63494050317895" lon="10.031351026711803"><ele>204.0</ele><time>2026-04-23T10:38:01.976Z</time></trkpt><trkpt lat="45.63494994871647" lon="10.031446427497135"><ele>204.0</ele><time>2026-04-23T10:38:03.976Z</time></trkpt><trkpt lat="45.63494941241215" lon="10.031538128571057"><ele>204.0</ele><time>2026-04-23T10:38:04.976Z</time></trkpt><trkpt lat="45.63494460363563" lon="10.031683118946987"><ele>204.0</ele><time>2026-04-23T10:38:06.976Z</time></trkpt><trkpt lat="45.63496442573932" lon="10.031813187920152"><ele>204.0</ele><time>2026-04-23T10:38:08.976Z</time></trkpt><trkpt lat="45.63497842340848" lon="10.031972059688501"><ele>204.0</ele><time>2026-04-23T10:38:10.976Z</time></trkpt><trkpt lat="45.63498657262637" lon="10.032110429181694"><ele>204.0</ele><time>2026-04-23T10:38:12.976Z</time></trkpt><trkpt lat="45.6349849807422" lon="10.032247054627332"><ele>204.0</ele><time>2026-04-23T10:38:14.976Z</time></trkpt><trkpt lat="45.63499656799416" lon="10.032396201456386"><ele>204.0</ele><time>2026-04-23T10:38:16.976Z</time></trkpt><trkpt lat="45.635003165397556" lon="10.032565447674301"><ele>204.0</ele><time>2026-04-23T10:38:18.976Z</time></trkpt><trkpt lat="45.635010085593265" lon="10.032729402072171"><ele>204.0</ele><time>2026-04-23T10:38:20.976Z</time></trkpt><trkpt lat="45.63502497847505" lon="10.032893970064778"><ele>204.0</ele><time>2026-04-23T10:38:22.976Z</time></trkpt><trkpt lat="45.63504753263674" lon="10.033047623012148"><ele>204.0</ele><time>2026-04-23T10:38:24.976Z</time></trkpt><trkpt lat="45.63506425274013" lon="10.033196891669936"><ele>204.0</ele><time>2026-04-23T10:38:26.976Z</time></trkpt><trkpt lat="45.63508063196023" lon="10.033357428563557"><ele>204.0</ele><time>2026-04-23T10:38:28.976Z</time></trkpt><trkpt lat="45.63510098405197" lon="10.033499877938706"><ele>204.0</ele><time>2026-04-23T10:38:30.976Z</time></trkpt><trkpt lat="45.63512359344803" lon="10.033655461747554"><ele>204.0</ele><time>2026-04-23T10:38:32.976Z</time></trkpt><trkpt lat="45.6351397589697" lon="10.033800788780093"><ele>204.0</ele><time>2026-04-23T10:38:34.976Z</time></trkpt><trkpt lat="45.63515691722216" lon="10.033921694831164"><ele>204.0</ele><time>2026-04-23T10:38:36.976Z</time></trkpt><trkpt lat="45.635161758248266" lon="10.03405797905795"><ele>204.0</ele><time>2026-04-23T10:38:38.976Z</time></trkpt><trkpt lat="45.635142461480584" lon="10.034162808412908"><ele>204.2</ele><time>2026-04-23T10:38:42.976Z</time></trkpt><trkpt lat="45.63513181298959" lon="10.034333168837456"><ele>204.39999999999998</ele><time>2026-04-23T10:38:44.976Z</time></trkpt><trkpt lat="45.63512471512092" lon="10.034444307694951"><ele>204.6</ele><time>2026-04-23T10:38:45.976Z</time></trkpt><trkpt lat="45.63511471457658" lon="10.03453368956455"><ele>204.8</ele><time>2026-04-23T10:38:46.976Z</time></trkpt><trkpt lat="45.63507804526546" lon="10.034671160907374"><ele>205.0</ele><time>2026-04-23T10:38:48.976Z</time></trkpt><trkpt lat="45.63503441975207" lon="10.03483728044393"><ele>204.99999999999997</ele><time>2026-04-23T10:38:50.976Z</time></trkpt><trkpt lat="45.63500706491766" lon="10.034952222678337"><ele>205.0</ele><time>2026-04-23T10:38:52.973Z</time></trkpt><trkpt lat="45.634980115844506" lon="10.035053877420799"><ele>205.0</ele><time>2026-04-23T10:38:55.973Z</time></trkpt><trkpt lat="45.63503573415251" lon="10.03499359586463"><ele>205.0</ele><time>2026-04-23T10:39:03.973Z</time></trkpt><trkpt lat="45.635022926660604" lon="10.03490490710904"><ele>204.99999999999997</ele><time>2026-04-23T10:39:06.973Z</time></trkpt><trkpt lat="45.634965615228694" lon="10.034798259756686"><ele>205.0</ele><time>2026-04-23T10:39:09.973Z</time></trkpt><trkpt lat="45.63489482893424" lon="10.034728226849673"><ele>205.0</ele><time>2026-04-23T10:39:12.973Z</time></trkpt><trkpt lat="45.63482372894625" lon="10.034761981764882"><ele>205.0</ele><time>2026-04-23T10:39:18.973Z</time></trkpt><trkpt lat="45.63475947508424" lon="10.03479618912304"><ele>205.0</ele><time>2026-04-23T10:39:20.973Z</time></trkpt><trkpt lat="45.63470927909365" lon="10.034863769546421"><ele>205.0</ele><time>2026-04-23T10:39:24.973Z</time></trkpt><trkpt lat="45.63462933338186" lon="10.0349107551268"><ele>205.0</ele><time>2026-04-23T10:39:27.973Z</time></trkpt><trkpt lat="45.63456376455276" lon="10.034956924537633"><ele>205.0</ele><time>2026-04-23T10:39:29.973Z</time></trkpt><trkpt lat="45.63449502297939" lon="10.03493539881938"><ele>205.0</ele><time>2026-04-23T10:39:33.973Z</time></trkpt><trkpt lat="45.63442663131102" lon="10.034909342749321"><ele>205.49999999999997</ele><time>2026-04-23T10:39:35.973Z</time></trkpt><trkpt lat="45.63436318174861" lon="10.034926730909392"><ele>206.0</ele><time>2026-04-23T10:39:39.973Z</time></trkpt><trkpt lat="45.63428434480557" lon="10.034935855648142"><ele>206.5</ele><time>2026-04-23T10:39:41.973Z</time></trkpt><trkpt lat="45.634242061608575" lon="10.034839255525375"><ele>207.0</ele><time>2026-04-23T10:39:42.973Z</time></trkpt><trkpt lat="45.6341601658474" lon="10.034831593384451"><ele>207.49999999999997</ele><time>2026-04-23T10:39:44.973Z</time></trkpt><trkpt lat="45.63409264896931" lon="10.034807093766142"><ele>208.0</ele><time>2026-04-23T10:39:46.973Z</time></trkpt><trkpt lat="45.6340191225226" lon="10.034836337450377"><ele>208.0</ele><time>2026-04-23T10:39:48.973Z</time></trkpt><trkpt lat="45.6339241264179" lon="10.034762190900905"><ele>208.0</ele><time>2026-04-23T10:39:50.973Z</time></trkpt><trkpt lat="45.6338577696225" lon="10.034746060804014"><ele>208.0</ele><time>2026-04-23T10:39:51.973Z</time></trkpt><trkpt lat="45.63378829519783" lon="10.034722916488185"><ele>208.0</ele><time>2026-04-23T10:39:52.973Z</time></trkpt><trkpt lat="45.63368537939292" lon="10.034700404867626"><ele>208.0</ele><time>2026-04-23T10:39:54.973Z</time></trkpt><trkpt lat="45.633570040899336" lon="10.034662501972745"><ele>208.2</ele><time>2026-04-23T10:39:56.973Z</time></trkpt><trkpt lat="45.633508004957825" lon="10.034631162971271"><ele>208.4</ele><time>2026-04-23T10:39:58.973Z</time></trkpt><trkpt lat="45.633389315145294" lon="10.034579405168213"><ele>208.6</ele><time>2026-04-23T10:40:00.973Z</time></trkpt><trkpt lat="45.63328062572968" lon="10.03456406842554"><ele>208.79999999999998</ele><time>2026-04-23T10:40:02.973Z</time></trkpt><trkpt lat="45.633168565279306" lon="10.03451089016142"><ele>209.0</ele><time>2026-04-23T10:40:04.973Z</time></trkpt><trkpt lat="45.63304846880484" lon="10.034487659369287"><ele>209.00000000000003</ele><time>2026-04-23T10:40:06.973Z</time></trkpt><trkpt lat="45.63296005214773" lon="10.034432143892435"><ele>209.0</ele><time>2026-04-23T10:40:08.973Z</time></trkpt><trkpt lat="45.632883694700084" lon="10.034418801109695"><ele>209.0</ele><time>2026-04-23T10:40:10.973Z</time></trkpt><trkpt lat="45.63280630269949" lon="10.034382803595909"><ele>209.0</ele><time>2026-04-23T10:40:12.973Z</time></trkpt><trkpt lat="45.63273128731032" lon="10.03435452295849"><ele>209.00000000000003</ele><time>2026-04-23T10:40:14.973Z</time></trkpt><trkpt lat="45.63264868820832" lon="10.034312368934195"><ele>209.0</ele><time>2026-04-23T10:40:16.973Z</time></trkpt><trkpt lat="45.63255486507501" lon="10.034273345224527"><ele>209.0</ele><time>2026-04-23T10:40:19.973Z</time></trkpt><trkpt lat="45.632453747298555" lon="10.03422252444521"><ele>209.0</ele><time>2026-04-23T10:40:21.973Z</time></trkpt><trkpt lat="45.63236994588785" lon="10.034217481632282"><ele>209.0</ele><time>2026-04-23T10:40:23.973Z</time></trkpt><trkpt lat="45.632287039439525" lon="10.034177994481478"><ele>209.0</ele><time>2026-04-23T10:40:25.973Z</time></trkpt><trkpt lat="45.632206519446925" lon="10.034148653412899"><ele>209.0</ele><time>2026-04-23T10:40:27.973Z</time></trkpt><trkpt lat="45.63209758654089" lon="10.034145153546135"><ele>208.79999999999998</ele><time>2026-04-23T10:40:29.973Z</time></trkpt><trkpt lat="45.63199328967576" lon="10.034105086651662"><ele>208.6</ele><time>2026-04-23T10:40:31.973Z</time></trkpt><trkpt lat="45.63189137541591" lon="10.034082283930527"><ele>208.4</ele><time>2026-04-23T10:40:33.973Z</time></trkpt><trkpt lat="45.63178079235306" lon="10.034055524463447"><ele>208.2</ele><time>2026-04-23T10:40:35.973Z</time></trkpt><trkpt lat="45.631669231792756" lon="10.03403050529568"><ele>208.0</ele><time>2026-04-23T10:40:37.973Z</time></trkpt><trkpt lat="45.63160573979273" lon="10.034016470341836"><ele>208.0</ele><time>2026-04-23T10:40:38.973Z</time></trkpt><trkpt lat="45.63149241184676" lon="10.033986346853881"><ele>208.0</ele><time>2026-04-23T10:40:40.973Z</time></trkpt><trkpt lat="45.63138945464035" lon="10.03396081389046"><ele>208.0</ele><time>2026-04-23T10:40:42.973Z</time></trkpt><trkpt lat="45.631282107025804" lon="10.033912857610394"><ele>208.0</ele><time>2026-04-23T10:40:44.973Z</time></trkpt><trkpt lat="45.63116684109626" lon="10.033862121259276"><ele>208.25</ele><time>2026-04-23T10:40:46.973Z</time></trkpt><trkpt lat="45.6310599039013" lon="10.033812234474174"><ele>208.5</ele><time>2026-04-23T10:40:48.973Z</time></trkpt><trkpt lat="45.63095844413462" lon="10.03377009036674"><ele>208.75</ele><time>2026-04-23T10:40:50.973Z</time></trkpt><trkpt lat="45.63083953528371" lon="10.033715348564302"><ele>209.0</ele><time>2026-04-23T10:40:52.973Z</time></trkpt><trkpt lat="45.63073097495761" lon="10.033661603634984"><ele>209.0</ele><time>2026-04-23T10:40:54.973Z</time></trkpt><trkpt lat="45.63062791541743" lon="10.03360502263175"><ele>209.0</ele><time>2026-04-23T10:40:56.973Z</time></trkpt><trkpt lat="45.630525817534256" lon="10.03355601426443"><ele>209.0</ele><time>2026-04-23T10:40:58.97Z</time></trkpt><trkpt lat="45.630411710848" lon="10.033506599578113"><ele>209.0</ele><time>2026-04-23T10:41:00.97Z</time></trkpt><trkpt lat="45.63032197537986" lon="10.03345637815369"><ele>209.0</ele><time>2026-04-23T10:41:02.97Z</time></trkpt><trkpt lat="45.630212947901235" lon="10.03340344737052"><ele>208.79999999999998</ele><time>2026-04-23T10:41:04.97Z</time></trkpt><trkpt lat="45.63011474338078" lon="10.033358323543489"><ele>208.6</ele><time>2026-04-23T10:41:06.969Z</time></trkpt><trkpt lat="45.63000959870795" lon="10.033311505393275"><ele>208.4</ele><time>2026-04-23T10:41:08.969Z</time></trkpt><trkpt lat="45.62991955529075" lon="10.03327773948236"><ele>208.2</ele><time>2026-04-23T10:41:10.969Z</time></trkpt><trkpt lat="45.629811920653054" lon="10.033287130226796"><ele>208.0</ele><time>2026-04-23T10:41:12.97Z</time></trkpt><trkpt lat="45.629746467589875" lon="10.03339561929277"><ele>208.0</ele><time>2026-04-23T10:41:14.97Z</time></trkpt><trkpt lat="45.62972923836311" lon="10.033509666258283"><ele>208.0</ele><time>2026-04-23T10:41:16.97Z</time></trkpt><trkpt lat="45.62969578524344" lon="10.03364428635239"><ele>208.0</ele><time>2026-04-23T10:41:18.97Z</time></trkpt><trkpt lat="45.62966570731265" lon="10.033781653687774"><ele>208.0</ele><time>2026-04-23T10:41:20.97Z</time></trkpt><trkpt lat="45.62961345516117" lon="10.033914534857011"><ele>208.0</ele><time>2026-04-23T10:41:22.97Z</time></trkpt><trkpt lat="45.629567634318796" lon="10.034032817254925"><ele>208.2</ele><time>2026-04-23T10:41:24.97Z</time></trkpt><trkpt lat="45.62952963403762" lon="10.034174854015308"><ele>208.4</ele><time>2026-04-23T10:41:26.97Z</time></trkpt><trkpt lat="45.62950634014005" lon="10.034299094919602"><ele>208.6</ele><time>2026-04-23T10:41:28.97Z</time></trkpt><trkpt lat="45.62947581422037" lon="10.034432899487427"><ele>208.79999999999998</ele><time>2026-04-23T10:41:30.97Z</time></trkpt><trkpt lat="45.62942486761046" lon="10.034571310679107"><ele>209.0</ele><time>2026-04-23T10:41:32.97Z</time></trkpt><trkpt lat="45.62937755363953" lon="10.034696217415808"><ele>209.00000000000003</ele><time>2026-04-23T10:41:34.97Z</time></trkpt><trkpt lat="45.62933355120703" lon="10.03479850951399"><ele>209.0</ele><time>2026-04-23T10:41:36.97Z</time></trkpt><trkpt lat="45.62929434115306" lon="10.034891939673455"><ele>209.0</ele><time>2026-04-23T10:41:38.97Z</time></trkpt><trkpt lat="45.62924038620608" lon="10.035015118590055"><ele>209.0</ele><time>2026-04-23T10:41:40.97Z</time></trkpt><trkpt lat="45.62917680105398" lon="10.035115700870957"><ele>209.00000000000003</ele><time>2026-04-23T10:41:42.97Z</time></trkpt><trkpt lat="45.62915137507799" lon="10.035202371248323"><ele>209.0</ele><time>2026-04-23T10:41:43.97Z</time></trkpt><trkpt lat="45.62909748325084" lon="10.035347388019895"><ele>209.2</ele><time>2026-04-23T10:41:45.97Z</time></trkpt><trkpt lat="45.62902171331337" lon="10.035453701905265"><ele>209.39999999999998</ele><time>2026-04-23T10:41:48.97Z</time></trkpt><trkpt lat="45.629001985582576" lon="10.035588828235307"><ele>209.6</ele><time>2026-04-23T10:41:50.97Z</time></trkpt><trkpt lat="45.62897731704106" lon="10.03570993167418"><ele>209.8</ele><time>2026-04-23T10:41:53.97Z</time></trkpt><trkpt lat="45.62893359061343" lon="10.035815162011941"><ele>210.0</ele><time>2026-04-23T10:41:56.97Z</time></trkpt><trkpt lat="45.62891959496078" lon="10.035931764963594"><ele>210.16666666666666</ele><time>2026-04-23T10:41:58.97Z</time></trkpt><trkpt lat="45.62893504718747" lon="10.036035906004066"><ele>210.33333333333331</ele><time>2026-04-23T10:42:00.97Z</time></trkpt><trkpt lat="45.62897684281591" lon="10.0361319722283"><ele>210.5</ele><time>2026-04-23T10:42:06.97Z</time></trkpt><trkpt lat="45.62900089436113" lon="10.03625070389435"><ele>210.66666666666666</ele><time>2026-04-23T10:42:08.97Z</time></trkpt><trkpt lat="45.62902956526856" lon="10.03638321764773"><ele>210.83333333333331</ele><time>2026-04-23T10:42:10.97Z</time></trkpt><trkpt lat="45.62905326955591" lon="10.036491879458385"><ele>211.0</ele><time>2026-04-23T10:42:12.97Z</time></trkpt><trkpt lat="45.62906250115329" lon="10.036587032470877"><ele>211.0</ele><time>2026-04-23T10:42:14.97Z</time></trkpt><trkpt lat="45.629079914696746" lon="10.036754949023939"><ele>211.0</ele><time>2026-04-23T10:42:17.97Z</time></trkpt><trkpt lat="45.62910935389542" lon="10.036878404540872"><ele>211.0</ele><time>2026-04-23T10:42:19.97Z</time></trkpt><trkpt lat="45.62912392241077" lon="10.036998843048254"><ele>211.0</ele><time>2026-04-23T10:42:21.97Z</time></trkpt><trkpt lat="45.62913873622188" lon="10.03711183358134"><ele>211.0</ele><time>2026-04-23T10:42:23.97Z</time></trkpt><trkpt lat="45.62915221838514" lon="10.037245219258683"><ele>211.0</ele><time>2026-04-23T10:42:25.97Z</time></trkpt><trkpt lat="45.62916184633552" lon="10.03738738827754"><ele>211.0</ele><time>2026-04-23T10:42:27.97Z</time></trkpt><trkpt lat="45.629156111586525" lon="10.037522640156332"><ele>211.0</ele><time>2026-04-23T10:42:29.97Z</time></trkpt><trkpt lat="45.629146812241444" lon="10.037655822172692"><ele>211.0</ele><time>2026-04-23T10:42:31.97Z</time></trkpt><trkpt lat="45.62915175888351" lon="10.037801670863484"><ele>211.0</ele><time>2026-04-23T10:42:33.97Z</time></trkpt><trkpt lat="45.629164767911654" lon="10.037959882121424"><ele>211.0</ele><time>2026-04-23T10:42:35.97Z</time></trkpt><trkpt lat="45.629185634975244" lon="10.038102719184678"><ele>211.0</ele><time>2026-04-23T10:42:37.97Z</time></trkpt><trkpt lat="45.6292177157139" lon="10.038251617961421"><ele>211.0</ele><time>2026-04-23T10:42:39.97Z</time></trkpt><trkpt lat="45.629248583497144" lon="10.038400154042954"><ele>211.0</ele><time>2026-04-23T10:42:41.97Z</time></trkpt><trkpt lat="45.629274957250615" lon="10.038502098769275"><ele>211.0</ele><time>2026-04-23T10:42:42.97Z</time></trkpt><trkpt lat="45.62932285433128" lon="10.03863783337249"><ele>211.0</ele><time>2026-04-23T10:42:44.97Z</time></trkpt><trkpt lat="45.62936185025273" lon="10.038771429874428"><ele>211.0</ele><time>2026-04-23T10:42:46.97Z</time></trkpt><trkpt lat="45.62941421981726" lon="10.038921866810337"><ele>211.0</ele><time>2026-04-23T10:42:48.97Z</time></trkpt><trkpt lat="45.62945998140292" lon="10.039070244680417"><ele>211.0</ele><time>2026-04-23T10:42:50.97Z</time></trkpt><trkpt lat="45.629508739061286" lon="10.039223448811576"><ele>211.20000000000002</ele><time>2026-04-23T10:42:52.97Z</time></trkpt><trkpt lat="45.62955836829203" lon="10.03936448205847"><ele>211.4</ele><time>2026-04-23T10:42:54.97Z</time></trkpt><trkpt lat="45.62961203446928" lon="10.03951448324287"><ele>211.6</ele><time>2026-04-23T10:42:56.97Z</time></trkpt><trkpt lat="45.629650187703305" lon="10.039657861664638"><ele>211.8</ele><time>2026-04-23T10:42:58.97Z</time></trkpt><trkpt lat="45.6295992610073" lon="10.039746236276958"><ele>212.0</ele><time>2026-04-23T10:43:00.97Z</time></trkpt><trkpt lat="45.6295268720274" lon="10.039774547915577"><ele>212.2</ele><time>2026-04-23T10:43:02.97Z</time></trkpt><trkpt lat="45.629434014515056" lon="10.03973743298394"><ele>212.39999999999998</ele><time>2026-04-23T10:43:04.967Z</time></trkpt><trkpt lat="45.6293603474221" lon="10.039685583416606"><ele>212.60000000000002</ele><time>2026-04-23T10:43:06.967Z</time></trkpt><trkpt lat="45.62926144136411" lon="10.039656662611678"><ele>212.8</ele><time>2026-04-23T10:43:08.967Z</time></trkpt><trkpt lat="45.62916671999632" lon="10.039614315588414"><ele>213.0</ele><time>2026-04-23T10:43:10.967Z</time></trkpt><trkpt lat="45.62908958887892" lon="10.039596174423801"><ele>213.0</ele><time>2026-04-23T10:43:12.966Z</time></trkpt><trkpt lat="45.62899600944061" lon="10.039562064685839"><ele>213.0</ele><time>2026-04-23T10:43:14.967Z</time></trkpt><trkpt lat="45.628893030750476" lon="10.039547468443464"><ele>213.0</ele><time>2026-04-23T10:43:16.967Z</time></trkpt><trkpt lat="45.62879008263852" lon="10.039531815288559"><ele>213.0</ele><time>2026-04-23T10:43:18.967Z</time></trkpt><trkpt lat="45.62869996753791" lon="10.03951955428583"><ele>213.0</ele><time>2026-04-23T10:43:20.967Z</time></trkpt><trkpt lat="45.62859984186506" lon="10.039517311325966"><ele>212.8</ele><time>2026-04-23T10:43:22.967Z</time></trkpt><trkpt lat="45.6285019617297" lon="10.039536846627318"><ele>212.60000000000002</ele><time>2026-04-23T10:43:24.967Z</time></trkpt><trkpt lat="45.628396114888105" lon="10.039557519518215"><ele>212.39999999999998</ele><time>2026-04-23T10:43:26.967Z</time></trkpt><trkpt lat="45.62829795169487" lon="10.039572062945405"><ele>212.2</ele><time>2026-04-23T10:43:28.967Z</time></trkpt><trkpt lat="45.62819992787799" lon="10.039593585620805"><ele>212.0</ele><time>2026-04-23T10:43:30.967Z</time></trkpt><trkpt lat="45.628093239947965" lon="10.039607766094823"><ele>212.00000000000003</ele><time>2026-04-23T10:43:32.967Z</time></trkpt><trkpt lat="45.62802240808171" lon="10.039608025160616"><ele>212.0</ele><time>2026-04-23T10:43:34.967Z</time></trkpt><trkpt lat="45.62793400531017" lon="10.039584643771397"><ele>212.0</ele><time>2026-04-23T10:43:36.967Z</time></trkpt><trkpt lat="45.62783409812795" lon="10.039578164339567"><ele>212.0</ele><time>2026-04-23T10:43:38.967Z</time></trkpt><trkpt lat="45.62775845302042" lon="10.039548226696118"><ele>212.00000000000003</ele><time>2026-04-23T10:43:40.967Z</time></trkpt><trkpt lat="45.62767640780096" lon="10.039516451997757"><ele>212.0</ele><time>2026-04-23T10:43:42.967Z</time></trkpt><trkpt lat="45.62758220137222" lon="10.039533934050464"><ele>212.66666666666669</ele><time>2026-04-23T10:43:45.967Z</time></trkpt><trkpt lat="45.62750358289144" lon="10.03954576604336"><ele>213.33333333333334</ele><time>2026-04-23T10:43:48.967Z</time></trkpt><trkpt lat="45.62742503929438" lon="10.039549100649227"><ele>214.0</ele><time>2026-04-23T10:43:52.967Z</time></trkpt><trkpt lat="45.62735430659588" lon="10.039538214567534"><ele>214.66666666666669</ele><time>2026-04-23T10:43:57.967Z</time></trkpt><trkpt lat="45.627279827146545" lon="10.039553876477441"><ele>215.33333333333334</ele><time>2026-04-23T10:43:59.967Z</time></trkpt><trkpt lat="45.62720659652742" lon="10.039565651552723"><ele>216.0</ele><time>2026-04-23T10:44:02.967Z</time></trkpt><trkpt lat="45.62713389144935" lon="10.039597222228824"><ele>216.0</ele><time>2026-04-23T10:44:05.967Z</time></trkpt><trkpt lat="45.627072244863854" lon="10.039625875539517"><ele>216.0</ele><time>2026-04-23T10:44:08.967Z</time></trkpt><trkpt lat="45.626983592474325" lon="10.039678355373335"><ele>216.0</ele><time>2026-04-23T10:44:10.967Z</time></trkpt><trkpt lat="45.62690558529097" lon="10.039730710448973"><ele>216.0</ele><time>2026-04-23T10:44:12.967Z</time></trkpt><trkpt lat="45.62684505269656" lon="10.039786663863575"><ele>216.0</ele><time>2026-04-23T10:44:13.967Z</time></trkpt><trkpt lat="45.6267811910047" lon="10.03988871624247"><ele>216.0</ele><time>2026-04-23T10:44:15.967Z</time></trkpt><trkpt lat="45.62669202882452" lon="10.03997959122758"><ele>216.0</ele><time>2026-04-23T10:44:17.967Z</time></trkpt><trkpt lat="45.62662472004678" lon="10.040057571344592"><ele>216.0</ele><time>2026-04-23T10:44:19.967Z</time></trkpt><trkpt lat="45.62656864806595" lon="10.040103014548619"><ele>216.0</ele><time>2026-04-23T10:44:20.967Z</time></trkpt><trkpt lat="45.62650051142661" lon="10.040139561925889"><ele>216.0</ele><time>2026-04-23T10:44:21.967Z</time></trkpt><trkpt lat="45.62643635609023" lon="10.040175822657716"><ele>216.0</ele><time>2026-04-23T10:44:22.967Z</time></trkpt><trkpt lat="45.62633182152565" lon="10.040246617849016"><ele>216.0</ele><time>2026-04-23T10:44:24.967Z</time></trkpt><trkpt lat="45.62622325580159" lon="10.040323195274063"><ele>216.0</ele><time>2026-04-23T10:44:26.967Z</time></trkpt><trkpt lat="45.62612192911108" lon="10.040389255467367"><ele>216.00000000000003</ele><time>2026-04-23T10:44:28.967Z</time></trkpt><trkpt lat="45.62604410480072" lon="10.040457414578317"><ele>216.00000000000003</ele><time>2026-04-23T10:44:30.967Z</time></trkpt><trkpt lat="45.625977899000915" lon="10.040564882382654"><ele>216.0</ele><time>2026-04-23T10:44:32.967Z</time></trkpt><trkpt lat="45.62589264619314" lon="10.04066003130559"><ele>216.0</ele><time>2026-04-23T10:44:34.967Z</time></trkpt><trkpt lat="45.62581070158346" lon="10.040720590844076"><ele>216.0</ele><time>2026-04-23T10:44:37.967Z</time></trkpt><trkpt lat="45.62575458390224" lon="10.040786151032101"><ele>216.0</ele><time>2026-04-23T10:44:39.967Z</time></trkpt><trkpt lat="45.62566778360476" lon="10.040808886351096"><ele>216.0</ele><time>2026-04-23T10:44:42.967Z</time></trkpt><trkpt lat="45.62560238710811" lon="10.040824869411335"><ele>216.0</ele><time>2026-04-23T10:44:44.967Z</time></trkpt><trkpt lat="45.62552548250764" lon="10.040843021057245"><ele>216.0</ele><time>2026-04-23T10:44:46.967Z</time></trkpt><trkpt lat="45.62542252765336" lon="10.040861618162763"><ele>216.0</ele><time>2026-04-23T10:44:49.967Z</time></trkpt><trkpt lat="45.62534544200856" lon="10.040859136056802"><ele>216.66666666666666</ele><time>2026-04-23T10:44:51.967Z</time></trkpt><trkpt lat="45.62526221236337" lon="10.04087491396824"><ele>217.33333333333331</ele><time>2026-04-23T10:44:53.967Z</time></trkpt><trkpt lat="45.6252000087708" lon="10.040890633032301"><ele>218.0</ele><time>2026-04-23T10:44:55.967Z</time></trkpt><trkpt lat="45.625132833014966" lon="10.040868896981486"><ele>218.66666666666666</ele><time>2026-04-23T10:44:57.967Z</time></trkpt><trkpt lat="45.625054263638475" lon="10.040847569188955"><ele>219.33333333333331</ele><time>2026-04-23T10:45:00.967Z</time></trkpt><trkpt lat="45.62497486601997" lon="10.040825153319565"><ele>220.0</ele><time>2026-04-23T10:45:02.967Z</time></trkpt><trkpt lat="45.624876256755876" lon="10.04081016276638"><ele>219.99999999999997</ele><time>2026-04-23T10:45:05.967Z</time></trkpt><trkpt lat="45.62479666556957" lon="10.040828899841397"><ele>220.0</ele><time>2026-04-23T10:45:08.967Z</time></trkpt><trkpt lat="45.62472072879931" lon="10.040833695124729"><ele>220.0</ele><time>2026-04-23T10:45:11.963Z</time></trkpt><trkpt lat="45.62464661783911" lon="10.040854324435257"><ele>220.0</ele><time>2026-04-23T10:45:14.963Z</time></trkpt><trkpt lat="45.62457126459745" lon="10.040877033652134"><ele>219.99999999999997</ele><time>2026-04-23T10:45:16.963Z</time></trkpt><trkpt lat="45.62448878147766" lon="10.040915841707568"><ele>220.0</ele><time>2026-04-23T10:45:19.963Z</time></trkpt><trkpt lat="45.62439989977823" lon="10.040957713586131"><ele>221.0</ele><time>2026-04-23T10:45:22.963Z</time></trkpt><trkpt lat="45.62432582596477" lon="10.040985620789828"><ele>222.0</ele><time>2026-04-23T10:45:24.963Z</time></trkpt><trkpt lat="45.62423949987631" lon="10.041035420119735"><ele>223.0</ele><time>2026-04-23T10:45:27.963Z</time></trkpt><trkpt lat="45.62417159759582" lon="10.041078703706274"><ele>224.0</ele><time>2026-04-23T10:45:29.963Z</time></trkpt><trkpt lat="45.624108174072965" lon="10.04112098170626"><ele>225.00000000000003</ele><time>2026-04-23T10:45:31.963Z</time></trkpt><trkpt lat="45.62405124787217" lon="10.041165173030475"><ele>226.0</ele><time>2026-04-23T10:45:33.963Z</time></trkpt><trkpt lat="45.62398714536384" lon="10.041186589706117"><ele>227.0</ele><time>2026-04-23T10:45:35.963Z</time></trkpt><trkpt lat="45.62391359577662" lon="10.041229215806142"><ele>227.0</ele><time>2026-04-23T10:45:37.963Z</time></trkpt><trkpt lat="45.62383847877413" lon="10.041316303012604"><ele>227.00000000000003</ele><time>2026-04-23T10:45:40.963Z</time></trkpt><trkpt lat="45.623773982627235" lon="10.041374919268705"><ele>227.0</ele><time>2026-04-23T10:45:42.963Z</time></trkpt><trkpt lat="45.62371573574743" lon="10.041430440270712"><ele>227.0</ele><time>2026-04-23T10:45:44.963Z</time></trkpt><trkpt lat="45.6236610938849" lon="10.041509519801362"><ele>227.00000000000003</ele><time>2026-04-23T10:45:46.963Z</time></trkpt><trkpt lat="45.623609157348106" lon="10.041564294785614"><ele>227.0</ele><time>2026-04-23T10:45:48.963Z</time></trkpt><trkpt lat="45.623567730131924" lon="10.041632254449874"><ele>227.0</ele><time>2026-04-23T10:45:50.963Z</time></trkpt><trkpt lat="45.623511458527595" lon="10.041717832056367"><ele>228.00000000000003</ele><time>2026-04-23T10:45:52.963Z</time></trkpt><trkpt lat="45.623459417869874" lon="10.04179069661682"><ele>229.0</ele><time>2026-04-23T10:45:54.963Z</time></trkpt><trkpt lat="45.62340230101774" lon="10.04186627677277"><ele>230.0</ele><time>2026-04-23T10:45:56.963Z</time></trkpt><trkpt lat="45.62332703880665" lon="10.041962914465286"><ele>231.0</ele><time>2026-04-23T10:45:58.963Z</time></trkpt><trkpt lat="45.62325511216222" lon="10.04204609482925"><ele>232.00000000000003</ele><time>2026-04-23T10:46:00.963Z</time></trkpt><trkpt lat="45.62317999219578" lon="10.042118599085672"><ele>233.0</ele><time>2026-04-23T10:46:02.963Z</time></trkpt><trkpt lat="45.62307973599427" lon="10.042224158159938"><ele>233.00000000000003</ele><time>2026-04-23T10:46:04.963Z</time></trkpt><trkpt lat="45.62300819930538" lon="10.04233199070133"><ele>233.0</ele><time>2026-04-23T10:46:06.963Z</time></trkpt><trkpt lat="45.62292927906849" lon="10.042457559566861"><ele>233.0</ele><time>2026-04-23T10:46:08.963Z</time></trkpt><trkpt lat="45.622878793735794" lon="10.042540698183906"><ele>233.0</ele><time>2026-04-23T10:46:09.963Z</time></trkpt><trkpt lat="45.62284461852254" lon="10.04263206610099"><ele>233.00000000000003</ele><time>2026-04-23T10:46:10.963Z</time></trkpt><trkpt lat="45.62280301331246" lon="10.042709323087408"><ele>233.0</ele><time>2026-04-23T10:46:11.963Z</time></trkpt><trkpt lat="45.62275355494018" lon="10.042765361927955"><ele>232.0</ele><time>2026-04-23T10:46:12.963Z</time></trkpt><trkpt lat="45.622659630913695" lon="10.042859972547566"><ele>231.0</ele><time>2026-04-23T10:46:14.963Z</time></trkpt><trkpt lat="45.622592710606966" lon="10.042959288334856"><ele>230.0</ele><time>2026-04-23T10:46:16.963Z</time></trkpt><trkpt lat="45.62253343619241" lon="10.043062745383004"><ele>229.0</ele><time>2026-04-23T10:46:18.963Z</time></trkpt><trkpt lat="45.62247437502362" lon="10.043153913544831"><ele>228.0</ele><time>2026-04-23T10:46:20.963Z</time></trkpt><trkpt lat="45.62241126914978" lon="10.043272891059507"><ele>227.83333333333334</ele><time>2026-04-23T10:46:22.963Z</time></trkpt><trkpt lat="45.622350751514745" lon="10.0433625507447"><ele>227.66666666666669</ele><time>2026-04-23T10:46:24.963Z</time></trkpt><trkpt lat="45.62228898107454" lon="10.043442123674257"><ele>227.5</ele><time>2026-04-23T10:46:26.963Z</time></trkpt><trkpt lat="45.62223294785648" lon="10.043530774555046"><ele>227.33333333333334</ele><time>2026-04-23T10:46:28.963Z</time></trkpt><trkpt lat="45.6221738123633" lon="10.043628303723072"><ele>227.16666666666669</ele><time>2026-04-23T10:46:30.963Z</time></trkpt><trkpt lat="45.622111945489166" lon="10.043717616621999"><ele>227.0</ele><time>2026-04-23T10:46:32.963Z</time></trkpt><trkpt lat="45.622044255992655" lon="10.04380236077072"><ele>227.00000000000003</ele><time>2026-04-23T10:46:34.963Z</time></trkpt><trkpt lat="45.62197774278397" lon="10.043881445697625"><ele>227.0</ele><time>2026-04-23T10:46:36.963Z</time></trkpt><trkpt lat="45.621910935782715" lon="10.043963975115453"><ele>227.0</ele><time>2026-04-23T10:46:38.963Z</time></trkpt><trkpt lat="45.62183396371745" lon="10.044030462745077"><ele>227.0</ele><time>2026-04-23T10:46:40.963Z</time></trkpt><trkpt lat="45.621766101379215" lon="10.044080306174925"><ele>227.00000000000003</ele><time>2026-04-23T10:46:42.963Z</time></trkpt><trkpt lat="45.621690151307156" lon="10.044101420369843"><ele>227.0</ele><time>2026-04-23T10:46:44.963Z</time></trkpt><trkpt lat="45.62161768558688" lon="10.0440757119962"><ele>227.00000000000003</ele><time>2026-04-23T10:46:46.963Z</time></trkpt><trkpt lat="45.62153619535919" lon="10.044028229838835"><ele>227.0</ele><time>2026-04-23T10:46:49.963Z</time></trkpt><trkpt lat="45.621440557111754" lon="10.043986335984712"><ele>227.0</ele><time>2026-04-23T10:46:52.963Z</time></trkpt><trkpt lat="45.62137814366105" lon="10.043964652437557"><ele>227.0</ele><time>2026-04-23T10:46:54.963Z</time></trkpt><trkpt lat="45.62131358560412" lon="10.0439511446014"><ele>227.00000000000003</ele><time>2026-04-23T10:46:57.963Z</time></trkpt><trkpt lat="45.62123946900179" lon="10.043956519917081"><ele>227.0</ele><time>2026-04-23T10:47:00.963Z</time></trkpt><trkpt lat="45.621160908067935" lon="10.043936893855749"><ele>227.14285714285717</ele><time>2026-04-23T10:47:03.963Z</time></trkpt><trkpt lat="45.621095109240976" lon="10.043934184714905"><ele>227.2857142857143</ele><time>2026-04-23T10:47:05.963Z</time></trkpt><trkpt lat="45.62102288792507" lon="10.043958034021022"><ele>227.42857142857144</ele><time>2026-04-23T10:47:08.963Z</time></trkpt><trkpt lat="45.620943619370045" lon="10.043963607498847"><ele>227.57142857142856</ele><time>2026-04-23T10:47:12.963Z</time></trkpt><trkpt lat="45.62085462659148" lon="10.04400166168732"><ele>227.7142857142857</ele><time>2026-04-23T10:47:15.963Z</time></trkpt><trkpt lat="45.620790662698234" lon="10.044030252760356"><ele>227.85714285714283</ele><time>2026-04-23T10:47:17.96Z</time></trkpt><trkpt lat="45.62073363923071" lon="10.044069663623594"><ele>228.0</ele><time>2026-04-23T10:47:20.96Z</time></trkpt><trkpt lat="45.62066661710761" lon="10.0441309732997"><ele>228.83333333333334</ele><time>2026-04-23T10:47:23.96Z</time></trkpt><trkpt lat="45.620605699429575" lon="10.044156082364644"><ele>229.66666666666669</ele><time>2026-04-23T10:47:26.96Z</time></trkpt><trkpt lat="45.620521704613026" lon="10.044195777597519"><ele>230.5</ele><time>2026-04-23T10:47:30.96Z</time></trkpt><trkpt lat="45.62042642278304" lon="10.044185486008937"><ele>231.33333333333334</ele><time>2026-04-23T10:47:33.96Z</time></trkpt><trkpt lat="45.62035877478484" lon="10.0441901832426"><ele>232.16666666666669</ele><time>2026-04-23T10:47:36.96Z</time></trkpt><trkpt lat="45.62028401844621" lon="10.044207391104754"><ele>233.0</ele><time>2026-04-23T10:47:39.96Z</time></trkpt><trkpt lat="45.620191494272234" lon="10.044197920388063"><ele>234.00000000000003</ele><time>2026-04-23T10:47:42.96Z</time></trkpt><trkpt lat="45.62012043444677" lon="10.044207526790785"><ele>235.0</ele><time>2026-04-23T10:47:44.96Z</time></trkpt><trkpt lat="45.620057215162795" lon="10.044184196423616"><ele>236.0</ele><time>2026-04-23T10:47:46.96Z</time></trkpt><trkpt lat="45.61997921294829" lon="10.044203926500654"><ele>237.0</ele><time>2026-04-23T10:47:49.96Z</time></trkpt><trkpt lat="45.6198901296044" lon="10.044174292665252"><ele>238.00000000000003</ele><time>2026-04-23T10:47:52.96Z</time></trkpt><trkpt lat="45.61981424909395" lon="10.04417378684118"><ele>239.0</ele><time>2026-04-23T10:47:55.96Z</time></trkpt><trkpt lat="45.619747806064325" lon="10.04417126052291"><ele>239.00000000000003</ele><time>2026-04-23T10:47:57.96Z</time></trkpt><trkpt lat="45.61968047357304" lon="10.044171555610639"><ele>239.0</ele><time>2026-04-23T10:47:59.96Z</time></trkpt><trkpt lat="45.61961636406719" lon="10.044159013591539"><ele>239.00000000000003</ele><time>2026-04-23T10:48:01.96Z</time></trkpt><trkpt lat="45.619539386984705" lon="10.044154238137754"><ele>239.00000000000003</ele><time>2026-04-23T10:48:03.96Z</time></trkpt><trkpt lat="45.61947399215062" lon="10.04413751616715"><ele>239.0</ele><time>2026-04-23T10:48:05.96Z</time></trkpt><trkpt lat="45.619392807646875" lon="10.044131187543286"><ele>239.00000000000003</ele><time>2026-04-23T10:48:07.96Z</time></trkpt><trkpt lat="45.61932265391046" lon="10.04411560866456"><ele>239.00000000000003</ele><time>2026-04-23T10:48:09.96Z</time></trkpt><trkpt lat="45.6192530686226" lon="10.04411422579791"><ele>239.00000000000003</ele><time>2026-04-23T10:48:11.96Z</time></trkpt><trkpt lat="45.6191781207374" lon="10.044100282841162"><ele>239.0</ele><time>2026-04-23T10:48:13.96Z</time></trkpt><trkpt lat="45.61910879405603" lon="10.044089251652315"><ele>239.0</ele><time>2026-04-23T10:48:15.96Z</time></trkpt><trkpt lat="45.61902362773742" lon="10.044069767031152"><ele>239.0</ele><time>2026-04-23T10:48:17.96Z</time></trkpt><trkpt lat="45.61894235628431" lon="10.044060723968412"><ele>239.00000000000003</ele><time>2026-04-23T10:48:19.96Z</time></trkpt><trkpt lat="45.6188572712591" lon="10.044043512712891"><ele>239.0</ele><time>2026-04-23T10:48:21.96Z</time></trkpt><trkpt lat="45.618770756174435" lon="10.044031566050995"><ele>239.00000000000003</ele><time>2026-04-23T10:48:23.96Z</time></trkpt><trkpt lat="45.618692487380024" lon="10.044019445169466"><ele>239.0</ele><time>2026-04-23T10:48:25.96Z</time></trkpt><trkpt lat="45.618610778601585" lon="10.044009167054915"><ele>239.0</ele><time>2026-04-23T10:48:27.96Z</time></trkpt><trkpt lat="45.618543566233846" lon="10.043994087670566"><ele>239.0</ele><time>2026-04-23T10:48:29.96Z</time></trkpt><trkpt lat="45.618478609582716" lon="10.043984397987936"><ele>239.00000000000003</ele><time>2026-04-23T10:48:31.96Z</time></trkpt><trkpt lat="45.61840437093351" lon="10.043969510411252"><ele>239.0</ele><time>2026-04-23T10:48:33.96Z</time></trkpt><trkpt lat="45.61831873700281" lon="10.043966811989996"><ele>239.33333333333334</ele><time>2026-04-23T10:48:35.96Z</time></trkpt><trkpt lat="45.61824022916716" lon="10.043962461686288"><ele>239.66666666666669</ele><time>2026-04-23T10:48:37.96Z</time></trkpt><trkpt lat="45.61816839572885" lon="10.043964639309486"><ele>240.0</ele><time>2026-04-23T10:48:39.96Z</time></trkpt><trkpt lat="45.61809319426935" lon="10.043967704437078"><ele>240.33333333333331</ele><time>2026-04-23T10:48:41.96Z</time></trkpt><trkpt lat="45.61801206221932" lon="10.043983675005126"><ele>240.66666666666666</ele><time>2026-04-23T10:48:43.96Z</time></trkpt><trkpt lat="45.61792400329405" lon="10.044015332577985"><ele>241.0</ele><time>2026-04-23T10:48:46.96Z</time></trkpt><trkpt lat="45.617860659236975" lon="10.044032499300164"><ele>240.99999999999997</ele><time>2026-04-23T10:48:48.96Z</time></trkpt><trkpt lat="45.61780282365487" lon="10.044070836680207"><ele>241.0</ele><time>2026-04-23T10:48:50.96Z</time></trkpt><trkpt lat="45.617741248527686" lon="10.044108869263557"><ele>241.0</ele><time>2026-04-23T10:48:52.96Z</time></trkpt><trkpt lat="45.617664605563334" lon="10.04417780858464"><ele>241.0</ele><time>2026-04-23T10:48:55.96Z</time></trkpt><trkpt lat="45.61760272224475" lon="10.044277232560027"><ele>240.99999999999997</ele><time>2026-04-23T10:48:58.96Z</time></trkpt><trkpt lat="45.617551889007125" lon="10.044381183694208"><ele>241.0</ele><time>2026-04-23T10:49:01.96Z</time></trkpt><trkpt lat="45.617501152364646" lon="10.04448256258402"><ele>241.2857142857143</ele><time>2026-04-23T10:49:04.96Z</time></trkpt><trkpt lat="45.61745962356944" lon="10.04455505993851"><ele>241.5714285714286</ele><time>2026-04-23T10:49:06.96Z</time></trkpt><trkpt lat="45.617415827500984" lon="10.044628153288889"><ele>241.85714285714286</ele><time>2026-04-23T10:49:08.96Z</time></trkpt><trkpt lat="45.617358316643525" lon="10.044685755325679"><ele>242.14285714285717</ele><time>2026-04-23T10:49:10.96Z</time></trkpt><trkpt lat="45.61729686918529" lon="10.044732110071289"><ele>242.42857142857144</ele><time>2026-04-23T10:49:12.96Z</time></trkpt><trkpt lat="45.617207407906015" lon="10.044765613786005"><ele>242.71428571428572</ele><time>2026-04-23T10:49:15.96Z</time></trkpt><trkpt lat="45.61713731090907" lon="10.044792253633945"><ele>243.0</ele><time>2026-04-23T10:49:18.96Z</time></trkpt><trkpt lat="45.61704459885003" lon="10.044820466424508"><ele>243.0</ele><time>2026-04-23T10:49:22.957Z</time></trkpt><trkpt lat="45.6169647532038" lon="10.044861079331714"><ele>243.0</ele><time>2026-04-23T10:49:25.957Z</time></trkpt><trkpt lat="45.61690159520744" lon="10.044883136679355"><ele>243.0</ele><time>2026-04-23T10:49:27.957Z</time></trkpt><trkpt lat="45.61680875091094" lon="10.044926127618565"><ele>243.0</ele><time>2026-04-23T10:49:30.957Z</time></trkpt><trkpt lat="45.61672406907923" lon="10.044982072922023"><ele>243.0</ele><time>2026-04-23T10:49:33.957Z</time></trkpt><trkpt lat="45.61666610443939" lon="10.045027769297958"><ele>243.0</ele><time>2026-04-23T10:49:35.957Z</time></trkpt><trkpt lat="45.61658383159025" lon="10.045077440818698"><ele>243.83333333333334</ele><time>2026-04-23T10:49:38.957Z</time></trkpt><trkpt lat="45.61652816058434" lon="10.045121651161814"><ele>244.66666666666669</ele><time>2026-04-23T10:49:40.957Z</time></trkpt><trkpt lat="45.616447608599316" lon="10.045167993353695"><ele>245.5</ele><time>2026-04-23T10:49:43.957Z</time></trkpt><trkpt lat="45.61638367780371" lon="10.045225120758495"><ele>246.33333333333334</ele><time>2026-04-23T10:49:47.957Z</time></trkpt><trkpt lat="45.61630733156948" lon="10.04526866042266"><ele>247.16666666666669</ele><time>2026-04-23T10:49:50.957Z</time></trkpt><trkpt lat="45.61622551432995" lon="10.045303450158041"><ele>248.0</ele><time>2026-04-23T10:49:53.958Z</time></trkpt><trkpt lat="45.6161518114076" lon="10.045337580811264"><ele>248.66666666666669</ele><time>2026-04-23T10:49:56.958Z</time></trkpt><trkpt lat="45.61607540541541" lon="10.045372728725985"><ele>249.33333333333334</ele><time>2026-04-23T10:49:59.958Z</time></trkpt><trkpt lat="45.61600151457786" lon="10.045388716246325"><ele>250.0</ele><time>2026-04-23T10:50:02.958Z</time></trkpt><trkpt lat="45.61592813614389" lon="10.045406805727199"><ele>250.66666666666669</ele><time>2026-04-23T10:50:05.958Z</time></trkpt><trkpt lat="45.61584680670607" lon="10.045414447911602"><ele>251.33333333333334</ele><time>2026-04-23T10:50:08.958Z</time></trkpt><trkpt lat="45.61576333804098" lon="10.045420368631182"><ele>252.0</ele><time>2026-04-23T10:50:11.958Z</time></trkpt><trkpt lat="45.61568228662841" lon="10.045411777464736"><ele>252.0</ele><time>2026-04-23T10:50:14.958Z</time></trkpt><trkpt lat="45.61561966744273" lon="10.04540219980182"><ele>252.0</ele><time>2026-04-23T10:50:16.958Z</time></trkpt><trkpt lat="45.61554911894005" lon="10.045392465814313"><ele>252.0</ele><time>2026-04-23T10:50:18.958Z</time></trkpt><trkpt lat="45.61548202628065" lon="10.04538960168569"><ele>252.0</ele><time>2026-04-23T10:50:20.958Z</time></trkpt><trkpt lat="45.6154182817369" lon="10.045382471372069"><ele>252.0</ele><time>2026-04-23T10:50:22.958Z</time></trkpt><trkpt lat="45.61534406727686" lon="10.045380189603588"><ele>252.0</ele><time>2026-04-23T10:50:24.958Z</time></trkpt><trkpt lat="45.6152790409561" lon="10.04537088434996"><ele>252.0</ele><time>2026-04-23T10:50:26.958Z</time></trkpt><trkpt lat="45.61519966783206" lon="10.045365775725775"><ele>252.16666666666666</ele><time>2026-04-23T10:50:29.958Z</time></trkpt><trkpt lat="45.615116927458494" lon="10.045382394222647"><ele>252.33333333333331</ele><time>2026-04-23T10:50:32.958Z</time></trkpt><trkpt lat="45.615033342731934" lon="10.04537792981129"><ele>252.5</ele><time>2026-04-23T10:50:34.958Z</time></trkpt><trkpt lat="45.61495591991105" lon="10.045374510268433"><ele>252.66666666666666</ele><time>2026-04-23T10:50:36.958Z</time></trkpt><trkpt lat="45.61487043308078" lon="10.0453848671926"><ele>252.83333333333331</ele><time>2026-04-23T10:50:39.958Z</time></trkpt><trkpt lat="45.614796188782705" lon="10.045396608532707"><ele>253.0</ele><time>2026-04-23T10:50:41.958Z</time></trkpt><trkpt lat="45.614725677162504" lon="10.045396619741949"><ele>253.00000000000003</ele><time>2026-04-23T10:50:43.958Z</time></trkpt><trkpt lat="45.61465282779536" lon="10.045398343587731"><ele>253.0</ele><time>2026-04-23T10:50:45.958Z</time></trkpt><trkpt lat="45.6145896543005" lon="10.0454001829287"><ele>253.00000000000003</ele><time>2026-04-23T10:50:47.958Z</time></trkpt><trkpt lat="45.61451418877684" lon="10.045403038120577"><ele>253.00000000000003</ele><time>2026-04-23T10:50:49.958Z</time></trkpt><trkpt lat="45.61444654832021" lon="10.045408877233495"><ele>253.0</ele><time>2026-04-23T10:50:51.958Z</time></trkpt><trkpt lat="45.61437515291541" lon="10.045416295314787"><ele>253.00000000000003</ele><time>2026-04-23T10:50:53.958Z</time></trkpt><trkpt lat="45.614291775783414" lon="10.045417266527005"><ele>253.00000000000003</ele><time>2026-04-23T10:50:56.958Z</time></trkpt><trkpt lat="45.614217810334885" lon="10.045410788515685"><ele>253.16666666666666</ele><time>2026-04-23T10:50:58.958Z</time></trkpt><trkpt lat="45.61414228205686" lon="10.045398494749167"><ele>253.33333333333331</ele><time>2026-04-23T10:51:00.958Z</time></trkpt><trkpt lat="45.61407148215508" lon="10.045381255513544"><ele>253.5</ele><time>2026-04-23T10:51:02.958Z</time></trkpt><trkpt lat="45.61400291744386" lon="10.045372545013278"><ele>253.66666666666669</ele><time>2026-04-23T10:51:04.958Z</time></trkpt><trkpt lat="45.61392350228257" lon="10.045345960204664"><ele>253.83333333333334</ele><time>2026-04-23T10:51:07.958Z</time></trkpt><trkpt lat="45.613847034980786" lon="10.04532862658297"><ele>254.0</ele><time>2026-04-23T10:51:10.958Z</time></trkpt><trkpt lat="45.61375436540659" lon="10.045305856294357"><ele>254.83333333333334</ele><time>2026-04-23T10:51:13.958Z</time></trkpt><trkpt lat="45.61365034624778" lon="10.04528845158482"><ele>255.66666666666669</ele><time>2026-04-23T10:51:16.958Z</time></trkpt><trkpt lat="45.61358645228719" lon="10.045271358273734"><ele>256.5</ele><time>2026-04-23T10:51:18.958Z</time></trkpt><trkpt lat="45.61351896295064" lon="10.045250910734302"><ele>257.3333333333333</ele><time>2026-04-23T10:51:20.958Z</time></trkpt><trkpt lat="45.61343624672515" lon="10.0452260251131"><ele>258.16666666666663</ele><time>2026-04-23T10:51:23.958Z</time></trkpt><trkpt lat="45.61335223627821" lon="10.045212933905084"><ele>259.0</ele><time>2026-04-23T10:51:26.958Z</time></trkpt><trkpt lat="45.61327203178267" lon="10.045158004341333"><ele>259.0</ele><time>2026-04-23T10:51:29.955Z</time></trkpt><trkpt lat="45.61321246313711" lon="10.045119332505227"><ele>259.0</ele><time>2026-04-23T10:51:31.955Z</time></trkpt><trkpt lat="45.61315585386434" lon="10.04507064827339"><ele>259.0</ele><time>2026-04-23T10:51:33.954Z</time></trkpt><trkpt lat="45.613071158114906" lon="10.045007366546573"><ele>259.0</ele><time>2026-04-23T10:51:37.954Z</time></trkpt><trkpt lat="45.6130081861417" lon="10.044972477872552"><ele>259.0</ele><time>2026-04-23T10:51:40.954Z</time></trkpt><trkpt lat="45.61294765517079" lon="10.044939834640676"><ele>259.0</ele><time>2026-04-23T10:51:43.954Z</time></trkpt><trkpt lat="45.612881473849036" lon="10.045001868469054"><ele>259.0</ele><time>2026-04-23T10:51:47.954Z</time></trkpt><trkpt lat="45.61282905014908" lon="10.045078231412878"><ele>260.0</ele><time>2026-04-23T10:51:52.954Z</time></trkpt><trkpt lat="45.61276302532797" lon="10.045126120280063"><ele>261.0</ele><time>2026-04-23T10:51:56.954Z</time></trkpt><trkpt lat="45.61274696909539" lon="10.045229075164803"><ele>262.0</ele><time>2026-04-23T10:52:01.954Z</time></trkpt><trkpt lat="45.61267326652377" lon="10.045240290751327"><ele>263.0</ele><time>2026-04-23T10:52:05.954Z</time></trkpt><trkpt lat="45.61261762586699" lon="10.045304536503453"><ele>264.0</ele><time>2026-04-23T10:52:07.954Z</time></trkpt><trkpt lat="45.61257529264769" lon="10.045402609321716"><ele>265.0</ele><time>2026-04-23T10:52:09.954Z</time></trkpt><trkpt lat="45.61254122260135" lon="10.045489661382746"><ele>266.0</ele><time>2026-04-23T10:52:10.954Z</time></trkpt><trkpt lat="45.612481511651374" lon="10.045648488515292"><ele>266.0</ele><time>2026-04-23T10:52:12.954Z</time></trkpt><trkpt lat="45.612446651044564" lon="10.045765880539728"><ele>266.0</ele><time>2026-04-23T10:52:13.954Z</time></trkpt><trkpt lat="45.61241025000944" lon="10.045870921345761"><ele>266.0</ele><time>2026-04-23T10:52:14.954Z</time></trkpt><trkpt lat="45.61237789960944" lon="10.045972579131865"><ele>266.0</ele><time>2026-04-23T10:52:15.954Z</time></trkpt><trkpt lat="45.612347349933714" lon="10.046081642904294"><ele>266.0</ele><time>2026-04-23T10:52:16.954Z</time></trkpt><trkpt lat="45.61232373196125" lon="10.046189480825337"><ele>266.0</ele><time>2026-04-23T10:52:17.954Z</time></trkpt><trkpt lat="45.61230009370182" lon="10.046289223444838"><ele>266.0</ele><time>2026-04-23T10:52:18.954Z</time></trkpt><trkpt lat="45.612275884025216" lon="10.046382943889272"><ele>266.0</ele><time>2026-04-23T10:52:19.954Z</time></trkpt><trkpt lat="45.61224617047032" lon="10.046480871907464"><ele>266.0</ele><time>2026-04-23T10:52:20.954Z</time></trkpt><trkpt lat="45.612221067189424" lon="10.046588569701372"><ele>266.0</ele><time>2026-04-23T10:52:21.954Z</time></trkpt><trkpt lat="45.61219531038954" lon="10.046695454574968"><ele>266.0</ele><time>2026-04-23T10:52:22.954Z</time></trkpt><trkpt lat="45.61216906587769" lon="10.046792450597426"><ele>266.0</ele><time>2026-04-23T10:52:23.954Z</time></trkpt><trkpt lat="45.612146428163996" lon="10.046885089265224"><ele>266.0</ele><time>2026-04-23T10:52:24.954Z</time></trkpt><trkpt lat="45.61209077010921" lon="10.047019489447862"><ele>265.6666666666667</ele><time>2026-04-23T10:52:26.954Z</time></trkpt><trkpt lat="45.61202353768298" lon="10.047121647400225"><ele>265.33333333333337</ele><time>2026-04-23T10:52:28.954Z</time></trkpt><trkpt lat="45.61194105474294" lon="10.047147722045391"><ele>265.0</ele><time>2026-04-23T10:52:30.954Z</time></trkpt><trkpt lat="45.61185666581323" lon="10.047162902816632"><ele>264.6666666666667</ele><time>2026-04-23T10:52:33.954Z</time></trkpt><trkpt lat="45.61178597299223" lon="10.047208889521032"><ele>264.3333333333333</ele><time>2026-04-23T10:52:35.954Z</time></trkpt><trkpt lat="45.61171752690866" lon="10.047238828181433"><ele>264.0</ele><time>2026-04-23T10:52:37.954Z</time></trkpt><trkpt lat="45.61162689252787" lon="10.047272136348832"><ele>264.1666666666667</ele><time>2026-04-23T10:52:39.954Z</time></trkpt><trkpt lat="45.61155330867403" lon="10.047310148717015"><ele>264.3333333333333</ele><time>2026-04-23T10:52:41.954Z</time></trkpt><trkpt lat="45.61147338163287" lon="10.047336938960067"><ele>264.5</ele><time>2026-04-23T10:52:43.954Z</time></trkpt><trkpt lat="45.611395307521434" lon="10.047350975772375"><ele>264.66666666666663</ele><time>2026-04-23T10:52:45.954Z</time></trkpt><trkpt lat="45.61130701868682" lon="10.047376505601486"><ele>264.8333333333333</ele><time>2026-04-23T10:52:48.954Z</time></trkpt><trkpt lat="45.61123109264592" lon="10.047400811420092"><ele>265.0</ele><time>2026-04-23T10:52:50.954Z</time></trkpt><trkpt lat="45.61115184027619" lon="10.047475394965996"><ele>264.99999999999994</ele><time>2026-04-23T10:52:53.954Z</time></trkpt><trkpt lat="45.61109473657477" lon="10.04752628711654"><ele>265.0</ele><time>2026-04-23T10:52:55.954Z</time></trkpt><trkpt lat="45.61102399828188" lon="10.047566271977619"><ele>265.0</ele><time>2026-04-23T10:52:58.954Z</time></trkpt><trkpt lat="45.610964091460474" lon="10.047605469555863"><ele>265.0</ele><time>2026-04-23T10:53:01.954Z</time></trkpt><trkpt lat="45.61090821429176" lon="10.04768285251022"><ele>265.0</ele><time>2026-04-23T10:53:04.954Z</time></trkpt><trkpt lat="45.61087400903068" lon="10.0477628932556"><ele>264.99999999999994</ele><time>2026-04-23T10:53:07.954Z</time></trkpt><trkpt lat="45.610854964567196" lon="10.047854301829291"><ele>265.0</ele><time>2026-04-23T10:53:09.954Z</time></trkpt><trkpt lat="45.610818003257094" lon="10.047954212875544"><ele>265.0</ele><time>2026-04-23T10:53:11.954Z</time></trkpt><trkpt lat="45.610784348659145" lon="10.048078762473109"><ele>265.0</ele><time>2026-04-23T10:53:14.954Z</time></trkpt><trkpt lat="45.61076759640181" lon="10.048173404041608"><ele>265.0</ele><time>2026-04-23T10:53:16.954Z</time></trkpt><trkpt lat="45.610741908155475" lon="10.04829271368452"><ele>265.0</ele><time>2026-04-23T10:53:19.954Z</time></trkpt><trkpt lat="45.61072688360949" lon="10.048411471116951"><ele>265.0</ele><time>2026-04-23T10:53:22.954Z</time></trkpt><trkpt lat="45.61071015063098" lon="10.048507834484246"><ele>265.0</ele><time>2026-04-23T10:53:24.954Z</time></trkpt><trkpt lat="45.61068189353947" lon="10.048618762354332"><ele>266.4</ele><time>2026-04-23T10:53:26.954Z</time></trkpt><trkpt lat="45.61065692034834" lon="10.048760390112614"><ele>267.8</ele><time>2026-04-23T10:53:28.954Z</time></trkpt><trkpt lat="45.61062249955333" lon="10.048856260376539"><ele>269.2</ele><time>2026-04-23T10:53:30.954Z</time></trkpt><trkpt lat="45.61058194114095" lon="10.049009740446305"><ele>270.6</ele><time>2026-04-23T10:53:33.954Z</time></trkpt><trkpt lat="45.61054914491351" lon="10.049126261491711"><ele>272.0</ele><time>2026-04-23T10:53:35.951Z</time></trkpt><trkpt lat="45.61052635639272" lon="10.049280652122844"><ele>272.2</ele><time>2026-04-23T10:53:37.951Z</time></trkpt><trkpt lat="45.61049509585712" lon="10.049409218876043"><ele>272.4</ele><time>2026-04-23T10:53:39.951Z</time></trkpt><trkpt lat="45.610472675633495" lon="10.04952848169942"><ele>272.6</ele><time>2026-04-23T10:53:41.951Z</time></trkpt><trkpt lat="45.61042695422922" lon="10.049687865110783"><ele>272.8</ele><time>2026-04-23T10:53:43.951Z</time></trkpt><trkpt lat="45.610400938204876" lon="10.049804567288167"><ele>273.0</ele><time>2026-04-23T10:53:45.951Z</time></trkpt><trkpt lat="45.61035977102229" lon="10.049931006808018"><ele>273.0</ele><time>2026-04-23T10:53:47.95Z</time></trkpt><trkpt lat="45.61032930831184" lon="10.050064862184996"><ele>273.0</ele><time>2026-04-23T10:53:49.95Z</time></trkpt><trkpt lat="45.61030632980616" lon="10.050185711205096"><ele>273.0</ele><time>2026-04-23T10:53:50.95Z</time></trkpt><trkpt lat="45.61028675488743" lon="10.050293814865434"><ele>273.0</ele><time>2026-04-23T10:53:51.95Z</time></trkpt><trkpt lat="45.61027229061432" lon="10.050386958570357"><ele>273.0</ele><time>2026-04-23T10:53:52.95Z</time></trkpt><trkpt lat="45.61026268589046" lon="10.05054570088665"><ele>273.0</ele><time>2026-04-23T10:53:54.95Z</time></trkpt><trkpt lat="45.610256401346525" lon="10.050636801993093"><ele>272.5</ele><time>2026-04-23T10:53:55.95Z</time></trkpt><trkpt lat="45.61023491510754" lon="10.050782683912702"><ele>272.0</ele><time>2026-04-23T10:53:57.95Z</time></trkpt><trkpt lat="45.61022188218468" lon="10.05087605036073"><ele>271.5</ele><time>2026-04-23T10:53:58.95Z</time></trkpt><trkpt lat="45.61021973543785" lon="10.050971642175323"><ele>271.0</ele><time>2026-04-23T10:53:59.95Z</time></trkpt><trkpt lat="45.61020259225221" lon="10.051094269812747"><ele>270.5</ele><time>2026-04-23T10:54:00.951Z</time></trkpt><trkpt lat="45.61018410002076" lon="10.051209152557432"><ele>270.0</ele><time>2026-04-23T10:54:01.951Z</time></trkpt><trkpt lat="45.610167631013546" lon="10.051314314088895"><ele>269.5</ele><time>2026-04-23T10:54:02.951Z</time></trkpt><trkpt lat="45.61012375896044" lon="10.051465310970494"><ele>269.0</ele><time>2026-04-23T10:54:04.951Z</time></trkpt><trkpt lat="45.610117020208406" lon="10.05155990661548"><ele>268.5</ele><time>2026-04-23T10:54:05.951Z</time></trkpt><trkpt lat="45.61010544253784" lon="10.051655637302408"><ele>268.0</ele><time>2026-04-23T10:54:06.951Z</time></trkpt><trkpt lat="45.610085846905946" lon="10.051770790124829"><ele>267.5</ele><time>2026-04-23T10:54:07.951Z</time></trkpt><trkpt lat="45.61006907290127" lon="10.051878362812738"><ele>267.0</ele><time>2026-04-23T10:54:08.951Z</time></trkpt><trkpt lat="45.61005765055358" lon="10.051971316637315"><ele>266.2</ele><time>2026-04-23T10:54:09.951Z</time></trkpt><trkpt lat="45.61003094170601" lon="10.052110293989276"><ele>265.4</ele><time>2026-04-23T10:54:11.951Z</time></trkpt><trkpt lat="45.60996755549133" lon="10.05223592579827"><ele>264.6</ele><time>2026-04-23T10:54:13.951Z</time></trkpt><trkpt lat="45.60992612944637" lon="10.052401638578356"><ele>263.8</ele><time>2026-04-23T10:54:15.951Z</time></trkpt><trkpt lat="45.60986415352479" lon="10.052473925913423"><ele>263.0</ele><time>2026-04-23T10:54:16.951Z</time></trkpt><trkpt lat="45.6098122324077" lon="10.052548889793977"><ele>262.1666666666667</ele><time>2026-04-23T10:54:17.951Z</time></trkpt><trkpt lat="45.609769256952994" lon="10.052634969642165"><ele>261.33333333333337</ele><time>2026-04-23T10:54:18.951Z</time></trkpt><trkpt lat="45.60968344041591" lon="10.052708168289449"><ele>260.5</ele><time>2026-04-23T10:54:20.951Z</time></trkpt><trkpt lat="45.60961057827533" lon="10.052677595759077"><ele>259.6666666666667</ele><time>2026-04-23T10:54:22.951Z</time></trkpt><trkpt lat="45.609516126254725" lon="10.052620217513537"><ele>258.8333333333333</ele><time>2026-04-23T10:54:24.951Z</time></trkpt><trkpt lat="45.60944615150959" lon="10.052594046815864"><ele>258.0</ele><time>2026-04-23T10:54:26.951Z</time></trkpt><trkpt lat="45.60937374211142" lon="10.052558829047445"><ele>257.6</ele><time>2026-04-23T10:54:28.951Z</time></trkpt><trkpt lat="45.60928876912131" lon="10.052559249253937"><ele>257.20000000000005</ele><time>2026-04-23T10:54:30.951Z</time></trkpt><trkpt lat="45.60918977200327" lon="10.052526726468871"><ele>256.8</ele><time>2026-04-23T10:54:32.951Z</time></trkpt><trkpt lat="45.60909808505924" lon="10.052495044676695"><ele>256.40000000000003</ele><time>2026-04-23T10:54:34.951Z</time></trkpt><trkpt lat="45.608990461295775" lon="10.05249054697109"><ele>256.0</ele><time>2026-04-23T10:54:36.951Z</time></trkpt><trkpt lat="45.608867029826115" lon="10.052492813300242"><ele>255.99999999999997</ele><time>2026-04-23T10:54:38.951Z</time></trkpt><trkpt lat="45.60878400460361" lon="10.052464815781672"><ele>256.0</ele><time>2026-04-23T10:54:40.951Z</time></trkpt><trkpt lat="45.60870425701505" lon="10.05245081786679"><ele>256.0</ele><time>2026-04-23T10:54:42.951Z</time></trkpt><trkpt lat="45.60862224356299" lon="10.052429698107058"><ele>256.0</ele><time>2026-04-23T10:54:45.951Z</time></trkpt><trkpt lat="45.608545165529975" lon="10.052390382706813"><ele>255.99999999999997</ele><time>2026-04-23T10:54:48.951Z</time></trkpt><trkpt lat="45.60848389805572" lon="10.052353341832685"><ele>256.0</ele><time>2026-04-23T10:54:51.951Z</time></trkpt><trkpt lat="45.60842093624735" lon="10.052345524250384"><ele>257.5</ele><time>2026-04-23T10:54:53.951Z</time></trkpt><trkpt lat="45.60835342528247" lon="10.052292468888918"><ele>259.0</ele><time>2026-04-23T10:54:56.951Z</time></trkpt><trkpt lat="45.60827445108464" lon="10.052257326360884"><ele>260.5</ele><time>2026-04-23T10:55:00.951Z</time></trkpt><trkpt lat="45.60820218771083" lon="10.052231849483496"><ele>262.0</ele><time>2026-04-23T10:55:04.951Z</time></trkpt><trkpt lat="45.6081461989187" lon="10.052176790137182"><ele>263.5</ele><time>2026-04-23T10:55:07.951Z</time></trkpt><trkpt lat="45.60807416221311" lon="10.05212327832647"><ele>265.0</ele><time>2026-04-23T10:55:10.951Z</time></trkpt><trkpt lat="45.60800656374316" lon="10.052077936247628"><ele>264.99999999999994</ele><time>2026-04-23T10:55:13.951Z</time></trkpt><trkpt lat="45.60794996805296" lon="10.052018989454432"><ele>265.0</ele><time>2026-04-23T10:55:17.951Z</time></trkpt><trkpt lat="45.60789967006209" lon="10.051932733263767"><ele>265.0</ele><time>2026-04-23T10:55:22.951Z</time></trkpt><trkpt lat="45.60785114538748" lon="10.051861552264684"><ele>265.0</ele><time>2026-04-23T10:55:27.951Z</time></trkpt><trkpt lat="45.60778570097033" lon="10.051816353437047"><ele>265.0</ele><time>2026-04-23T10:55:30.951Z</time></trkpt><trkpt lat="45.60771559261023" lon="10.051788412170849"><ele>264.99999999999994</ele><time>2026-04-23T10:55:33.951Z</time></trkpt><trkpt lat="45.607637307834814" lon="10.051766731759033"><ele>265.0</ele><time>2026-04-23T10:55:36.951Z</time></trkpt><trkpt lat="45.60758434718558" lon="10.051713036417059"><ele>264.16666666666663</ele><time>2026-04-23T10:55:38.951Z</time></trkpt><trkpt lat="45.60753403494706" lon="10.051649974569411"><ele>263.3333333333333</ele><time>2026-04-23T10:55:40.948Z</time></trkpt><trkpt lat="45.60745952114061" lon="10.051594931997345"><ele>262.5</ele><time>2026-04-23T10:55:43.948Z</time></trkpt><trkpt lat="45.60739256970958" lon="10.05152211411313"><ele>261.6666666666667</ele><time>2026-04-23T10:55:45.948Z</time></trkpt><trkpt lat="45.60732071978219" lon="10.051484894693337"><ele>260.83333333333337</ele><time>2026-04-23T10:55:47.947Z</time></trkpt><trkpt lat="45.60726500995595" lon="10.05143184452837"><ele>260.0</ele><time>2026-04-23T10:55:49.948Z</time></trkpt><trkpt lat="45.60720206760378" lon="10.051343452110576"><ele>260.33333333333337</ele><time>2026-04-23T10:55:51.948Z</time></trkpt><trkpt lat="45.607138782768544" lon="10.051272715009848"><ele>260.6666666666667</ele><time>2026-04-23T10:55:53.947Z</time></trkpt><trkpt lat="45.60707508240506" lon="10.051192623403914"><ele>261.0</ele><time>2026-04-23T10:55:55.947Z</time></trkpt><trkpt lat="45.60699301156987" lon="10.051146672436941"><ele>261.3333333333333</ele><time>2026-04-23T10:55:57.947Z</time></trkpt><trkpt lat="45.60692853842425" lon="10.051109213299467"><ele>261.66666666666663</ele><time>2026-04-23T10:55:59.947Z</time></trkpt><trkpt lat="45.60686762576141" lon="10.051066351754548"><ele>262.0</ele><time>2026-04-23T10:56:01.947Z</time></trkpt><trkpt lat="45.60678614840072" lon="10.051042183327368"><ele>262.0</ele><time>2026-04-23T10:56:04.947Z</time></trkpt><trkpt lat="45.60669596413269" lon="10.05097174014968"><ele>262.0</ele><time>2026-04-23T10:56:08.947Z</time></trkpt><trkpt lat="45.606625217843096" lon="10.050957751702164"><ele>262.0</ele><time>2026-04-23T10:56:09.947Z</time></trkpt><trkpt lat="45.606566348333345" lon="10.050910606433481"><ele>262.0</ele><time>2026-04-23T10:56:11.947Z</time></trkpt><trkpt lat="45.606504624968615" lon="10.050875144651979"><ele>262.0</ele><time>2026-04-23T10:56:14.947Z</time></trkpt><trkpt lat="45.60643737914176" lon="10.050883473188279"><ele>262.0</ele><time>2026-04-23T10:56:15.947Z</time></trkpt><trkpt lat="45.60633781838747" lon="10.050873427877058"><ele>261.66666666666663</ele><time>2026-04-23T10:56:17.947Z</time></trkpt><trkpt lat="45.6062422831215" lon="10.050778645671901"><ele>261.3333333333333</ele><time>2026-04-23T10:56:19.947Z</time></trkpt><trkpt lat="45.60617924619803" lon="10.050749025481448"><ele>261.0</ele><time>2026-04-23T10:56:20.947Z</time></trkpt><trkpt lat="45.606116751999195" lon="10.050707284370537"><ele>260.6666666666667</ele><time>2026-04-23T10:56:21.947Z</time></trkpt><trkpt lat="45.60606213256115" lon="10.050646359618355"><ele>260.33333333333337</ele><time>2026-04-23T10:56:22.947Z</time></trkpt><trkpt lat="45.605954127558746" lon="10.05055693328854"><ele>260.0</ele><time>2026-04-23T10:56:24.947Z</time></trkpt><trkpt lat="45.6058951245825" lon="10.050521245753549"><ele>260.0</ele><time>2026-04-23T10:56:25.947Z</time></trkpt><trkpt lat="45.60578549481219" lon="10.05047898422006"><ele>260.0</ele><time>2026-04-23T10:56:27.947Z</time></trkpt><trkpt lat="45.60569157038391" lon="10.050442042600617"><ele>260.0</ele><time>2026-04-23T10:56:29.947Z</time></trkpt><trkpt lat="45.60560705079616" lon="10.050417293512842"><ele>260.0</ele><time>2026-04-23T10:56:31.947Z</time></trkpt><trkpt lat="45.605551190739696" lon="10.050350948868363"><ele>260.0</ele><time>2026-04-23T10:56:33.947Z</time></trkpt><trkpt lat="45.60548694150391" lon="10.050295345513652"><ele>260.0</ele><time>2026-04-23T10:56:38.947Z</time></trkpt><trkpt lat="45.605385323198014" lon="10.05023730212875"><ele>260.1666666666667</ele><time>2026-04-23T10:56:41.947Z</time></trkpt><trkpt lat="45.60530692090559" lon="10.050212825120528"><ele>260.33333333333337</ele><time>2026-04-23T10:56:42.947Z</time></trkpt><trkpt lat="45.60524780207524" lon="10.050175135457646"><ele>260.5</ele><time>2026-04-23T10:56:43.947Z</time></trkpt><trkpt lat="45.60518904487488" lon="10.05012913062043"><ele>260.6666666666667</ele><time>2026-04-23T10:56:44.947Z</time></trkpt><trkpt lat="45.60509122089957" lon="10.050075693512648"><ele>260.8333333333333</ele><time>2026-04-23T10:56:46.947Z</time></trkpt><trkpt lat="45.60501416762757" lon="10.04999315033348"><ele>261.0</ele><time>2026-04-23T10:56:48.947Z</time></trkpt><trkpt lat="45.604922434443914" lon="10.049931068095285"><ele>261.0</ele><time>2026-04-23T10:56:50.947Z</time></trkpt><trkpt lat="45.60483502663833" lon="10.049864449941808"><ele>261.0</ele><time>2026-04-23T10:56:52.947Z</time></trkpt><trkpt lat="45.6047675795246" lon="10.049775493917391"><ele>261.0</ele><time>2026-04-23T10:56:54.947Z</time></trkpt><trkpt lat="45.604729887845686" lon="10.049688002258025"><ele>261.0</ele><time>2026-04-23T10:56:59.947Z</time></trkpt><trkpt lat="45.604715204659435" lon="10.049591304012525"><ele>261.0</ele><time>2026-04-23T10:57:04.947Z</time></trkpt><trkpt lat="45.60470985620602" lon="10.049492021872496"><ele>261.0</ele><time>2026-04-23T10:57:09.947Z</time></trkpt><trkpt lat="45.60465916648757" lon="10.049434323027585"><ele>261.0</ele><time>2026-04-23T10:57:13.947Z</time></trkpt><trkpt lat="45.60457798773143" lon="10.04936251512862"><ele>261.0</ele><time>2026-04-23T10:57:18.947Z</time></trkpt><trkpt lat="45.60450311044698" lon="10.049294685464849"><ele>261.0</ele><time>2026-04-23T10:57:21.947Z</time></trkpt><trkpt lat="45.60442971721312" lon="10.049259172862863"><ele>261.0</ele><time>2026-04-23T10:57:24.947Z</time></trkpt><trkpt lat="45.60436614195762" lon="10.049223943816765"><ele>261.0</ele><time>2026-04-23T10:57:26.947Z</time></trkpt><trkpt lat="45.60430422065177" lon="10.049156997472739"><ele>261.0</ele><time>2026-04-23T10:57:29.947Z</time></trkpt><trkpt lat="45.604260828643234" lon="10.049083719037228"><ele>261.40000000000003</ele><time>2026-04-23T10:57:31.947Z</time></trkpt><trkpt lat="45.60419638740952" lon="10.048919919950233"><ele>261.8</ele><time>2026-04-23T10:57:33.947Z</time></trkpt><trkpt lat="45.60415331396328" lon="10.04885151887824"><ele>262.20000000000005</ele><time>2026-04-23T10:57:34.947Z</time></trkpt><trkpt lat="45.60407624540004" lon="10.048748247444733"><ele>262.6</ele><time>2026-04-23T10:57:36.947Z</time></trkpt><trkpt lat="45.60399867735363" lon="10.048637218481414"><ele>263.0</ele><time>2026-04-23T10:57:38.947Z</time></trkpt><trkpt lat="45.603930215370816" lon="10.048551254935612"><ele>263.0</ele><time>2026-04-23T10:57:40.947Z</time></trkpt><trkpt lat="45.60387993559706" lon="10.048492674674996"><ele>263.0</ele><time>2026-04-23T10:57:41.947Z</time></trkpt><trkpt lat="45.60382031728546" lon="10.04844972492965"><ele>263.0</ele><time>2026-04-23T10:57:42.947Z</time></trkpt><trkpt lat="45.60375330178532" lon="10.04840990348159"><ele>263.0</ele><time>2026-04-23T10:57:43.947Z</time></trkpt><trkpt lat="45.603681938984444" lon="10.048382978555406"><ele>263.0</ele><time>2026-04-23T10:57:44.947Z</time></trkpt><trkpt lat="45.603605814656596" lon="10.048347250757498"><ele>263.0</ele><time>2026-04-23T10:57:45.947Z</time></trkpt><trkpt lat="45.60350013320518" lon="10.048281009780492"><ele>261.0</ele><time>2026-04-23T10:57:47.944Z</time></trkpt><trkpt lat="45.60336460011099" lon="10.048209792940058"><ele>259.0</ele><time>2026-04-23T10:57:49.944Z</time></trkpt><trkpt lat="45.603267525552354" lon="10.048154964997584"><ele>257.0</ele><time>2026-04-23T10:57:50.944Z</time></trkpt><trkpt lat="45.60318678013048" lon="10.048104625604658"><ele>255.0</ele><time>2026-04-23T10:57:51.944Z</time></trkpt><trkpt lat="45.603114467325135" lon="10.048062483428987"><ele>253.0</ele><time>2026-04-23T10:57:52.945Z</time></trkpt><trkpt lat="45.60303719274651" lon="10.048032512099415"><ele>252.99999999999997</ele><time>2026-04-23T10:57:53.944Z</time></trkpt><trkpt lat="45.60297110307904" lon="10.048012496650518"><ele>253.0</ele><time>2026-04-23T10:57:54.944Z</time></trkpt><trkpt lat="45.602864000584475" lon="10.048017830313547"><ele>253.0</ele><time>2026-04-23T10:57:56.944Z</time></trkpt><trkpt lat="45.602788053875706" lon="10.048074473873541"><ele>253.0</ele><time>2026-04-23T10:57:58.944Z</time></trkpt><trkpt lat="45.60274620709418" lon="10.048142969080374"><ele>252.99999999999997</ele><time>2026-04-23T10:58:00.944Z</time></trkpt><trkpt lat="45.602681440672846" lon="10.048185750496216"><ele>253.0</ele><time>2026-04-23T10:58:04.944Z</time></trkpt><trkpt lat="45.60261723638425" lon="10.048152599299202"><ele>251.66666666666666</ele><time>2026-04-23T10:58:06.944Z</time></trkpt><trkpt lat="45.60253982496405" lon="10.04807842117117"><ele>250.33333333333331</ele><time>2026-04-23T10:58:09.944Z</time></trkpt><trkpt lat="45.60246249077448" lon="10.048027637891211"><ele>249.0</ele><time>2026-04-23T10:58:11.944Z</time></trkpt><trkpt lat="45.60240195897173" lon="10.047971543006728"><ele>247.66666666666669</ele><time>2026-04-23T10:58:13.944Z</time></trkpt><trkpt lat="45.602354262109586" lon="10.047895252436412"><ele>246.33333333333334</ele><time>2026-04-23T10:58:16.944Z</time></trkpt><trkpt lat="45.60227914194583" lon="10.047848086339604"><ele>245.0</ele><time>2026-04-23T10:58:19.944Z</time></trkpt><trkpt lat="45.60221453214088" lon="10.047866455332377"><ele>245.00000000000003</ele><time>2026-04-23T10:58:22.944Z</time></trkpt><trkpt lat="45.60214904510116" lon="10.047921785227208"><ele>245.0</ele><time>2026-04-23T10:58:24.944Z</time></trkpt><trkpt lat="45.60209493048937" lon="10.047998130365103"><ele>245.0</ele><time>2026-04-23T10:58:26.944Z</time></trkpt><trkpt lat="45.60201801175075" lon="10.048112563317702"><ele>245.0</ele><time>2026-04-23T10:58:28.944Z</time></trkpt><trkpt lat="45.601968720683814" lon="10.048174346756053"><ele>245.00000000000003</ele><time>2026-04-23T10:58:29.944Z</time></trkpt><trkpt lat="45.60191845590045" lon="10.048255831884848"><ele>245.0</ele><time>2026-04-23T10:58:30.944Z</time></trkpt><trkpt lat="45.60186598893044" lon="10.048326763584546"><ele>243.33333333333334</ele><time>2026-04-23T10:58:31.944Z</time></trkpt><trkpt lat="45.60181564485279" lon="10.048402816585583"><ele>241.66666666666669</ele><time>2026-04-23T10:58:32.944Z</time></trkpt><trkpt lat="45.60177193886547" lon="10.048484602285686"><ele>240.0</ele><time>2026-04-23T10:58:33.944Z</time></trkpt><trkpt lat="45.60172761821213" lon="10.048560631074892"><ele>238.33333333333331</ele><time>2026-04-23T10:58:34.944Z</time></trkpt><trkpt lat="45.60168075432814" lon="10.048658487798276"><ele>236.66666666666666</ele><time>2026-04-23T10:58:35.944Z</time></trkpt><trkpt lat="45.601624546600526" lon="10.04875177892479"><ele>235.0</ele><time>2026-04-23T10:58:36.944Z</time></trkpt><trkpt lat="45.60156604664213" lon="10.048820098322008"><ele>234.99999999999997</ele><time>2026-04-23T10:58:37.944Z</time></trkpt><trkpt lat="45.60150617282968" lon="10.048908387853837"><ele>235.0</ele><time>2026-04-23T10:58:38.944Z</time></trkpt><trkpt lat="45.60144301110871" lon="10.04899412239231"><ele>235.0</ele><time>2026-04-23T10:58:39.944Z</time></trkpt><trkpt lat="45.601385094876065" lon="10.049084364839143"><ele>235.0</ele><time>2026-04-23T10:58:40.944Z</time></trkpt><trkpt lat="45.6013386878224" lon="10.04917162770085"><ele>234.99999999999997</ele><time>2026-04-23T10:58:41.944Z</time></trkpt><trkpt lat="45.601290957983" lon="10.049284384124713"><ele>235.0</ele><time>2026-04-23T10:58:42.944Z</time></trkpt><trkpt lat="45.60123286549093" lon="10.049395811219703"><ele>234.4</ele><time>2026-04-23T10:58:43.944Z</time></trkpt><trkpt lat="45.60118243887211" lon="10.049507177351186"><ele>233.8</ele><time>2026-04-23T10:58:44.944Z</time></trkpt><trkpt lat="45.60112926909039" lon="10.049615902338914"><ele>233.2</ele><time>2026-04-23T10:58:45.944Z</time></trkpt><trkpt lat="45.601082990835145" lon="10.04972410309285"><ele>232.6</ele><time>2026-04-23T10:58:46.944Z</time></trkpt><trkpt lat="45.60102395491082" lon="10.04982636081399"><ele>232.0</ele><time>2026-04-23T10:58:47.944Z</time></trkpt><trkpt lat="45.600967499896676" lon="10.049920166421314"><ele>230.99999999999997</ele><time>2026-04-23T10:58:48.944Z</time></trkpt><trkpt lat="45.600904627231166" lon="10.05000852041052"><ele>230.0</ele><time>2026-04-23T10:58:49.944Z</time></trkpt><trkpt lat="45.60084515256385" lon="10.050099449851697"><ele>229.0</ele><time>2026-04-23T10:58:50.944Z</time></trkpt><trkpt lat="45.60078650343133" lon="10.050187089775012"><ele>228.0</ele><time>2026-04-23T10:58:51.944Z</time></trkpt><trkpt lat="45.600721203956404" lon="10.050272799150894"><ele>226.99999999999997</ele><time>2026-04-23T10:58:52.944Z</time></trkpt><trkpt lat="45.60065460980953" lon="10.050358483453106"><ele>226.0</ele><time>2026-04-23T10:58:53.944Z</time></trkpt><trkpt lat="45.600596528495586" lon="10.050445178944786"><ele>225.99999999999997</ele><time>2026-04-23T10:58:54.944Z</time></trkpt><trkpt lat="45.60054498153964" lon="10.05052810875403"><ele>226.0</ele><time>2026-04-23T10:58:55.944Z</time></trkpt><trkpt lat="45.60049283550195" lon="10.050618447597197"><ele>226.0</ele><time>2026-04-23T10:58:56.944Z</time></trkpt><trkpt lat="45.60043960968531" lon="10.050710085938714"><ele>226.0</ele><time>2026-04-23T10:58:57.944Z</time></trkpt><trkpt lat="45.60039613996695" lon="10.050800646253384"><ele>225.99999999999997</ele><time>2026-04-23T10:58:58.944Z</time></trkpt><trkpt lat="45.60034661166874" lon="10.05088468774933"><ele>226.0</ele><time>2026-04-23T10:58:59.944Z</time></trkpt><trkpt lat="45.60029533848423" lon="10.050975457129317"><ele>225.71428571428572</ele><time>2026-04-23T10:59:00.944Z</time></trkpt><trkpt lat="45.60024221503236" lon="10.051066317277158"><ele>225.42857142857142</ele><time>2026-04-23T10:59:01.944Z</time></trkpt><trkpt lat="45.60019887017992" lon="10.051140378748487"><ele>225.14285714285714</ele><time>2026-04-23T10:59:02.944Z</time></trkpt><trkpt lat="45.60014876401224" lon="10.051226994930401"><ele>224.85714285714286</ele><time>2026-04-23T10:59:03.944Z</time></trkpt><trkpt lat="45.60010225287097" lon="10.05131195276239"><ele>224.57142857142856</ele><time>2026-04-23T10:59:04.944Z</time></trkpt><trkpt lat="45.60004872867699" lon="10.051388687582351"><ele>224.28571428571428</ele><time>2026-04-23T10:59:05.944Z</time></trkpt><trkpt lat="45.600010482078844" lon="10.051469013585153"><ele>224.0</ele><time>2026-04-23T10:59:06.944Z</time></trkpt><trkpt lat="45.59997578181012" lon="10.051552393729457"><ele>223.50000000000003</ele><time>2026-04-23T10:59:07.944Z</time></trkpt><trkpt lat="45.59992799297619" lon="10.051636228298932"><ele>223.0</ele><time>2026-04-23T10:59:08.944Z</time></trkpt><trkpt lat="45.59987561286155" lon="10.051728709634409"><ele>222.5</ele><time>2026-04-23T10:59:09.944Z</time></trkpt><trkpt lat="45.599825595987056" lon="10.051802027826803"><ele>222.0</ele><time>2026-04-23T10:59:10.944Z</time></trkpt><trkpt lat="45.59977613157481" lon="10.051886185263458"><ele>221.50000000000003</ele><time>2026-04-23T10:59:11.944Z</time></trkpt><trkpt lat="45.5996850149515" lon="10.05202123001952"><ele>221.0</ele><time>2026-04-23T10:59:13.944Z</time></trkpt><trkpt lat="45.59960161600419" lon="10.052183858334496"><ele>221.0</ele><time>2026-04-23T10:59:15.944Z</time></trkpt><trkpt lat="45.59954804107901" lon="10.052309891313266"><ele>221.00000000000003</ele><time>2026-04-23T10:59:17.944Z</time></trkpt><trkpt lat="45.59950952298991" lon="10.052392999681372"><ele>221.00000000000003</ele><time>2026-04-23T10:59:18.944Z</time></trkpt><trkpt lat="45.59947320506513" lon="10.052497832888273"><ele>221.0</ele><time>2026-04-23T10:59:19.944Z</time></trkpt><trkpt lat="45.59943886213956" lon="10.052604212669127"><ele>221.0</ele><time>2026-04-23T10:59:20.944Z</time></trkpt><trkpt lat="45.59939508169402" lon="10.052776306981016"><ele>220.71428571428572</ele><time>2026-04-23T10:59:22.944Z</time></trkpt><trkpt lat="45.59936375719001" lon="10.052866646242013"><ele>220.42857142857144</ele><time>2026-04-23T10:59:23.944Z</time></trkpt><trkpt lat="45.59933994603225" lon="10.05295800562673"><ele>220.14285714285717</ele><time>2026-04-23T10:59:24.944Z</time></trkpt><trkpt lat="45.599316083573676" lon="10.053049024028468"><ele>219.85714285714286</ele><time>2026-04-23T10:59:25.944Z</time></trkpt><trkpt lat="45.59929381729653" lon="10.053151699072105"><ele>219.57142857142856</ele><time>2026-04-23T10:59:26.944Z</time></trkpt><trkpt lat="45.59926279653572" lon="10.05324857757302"><ele>219.2857142857143</ele><time>2026-04-23T10:59:27.944Z</time></trkpt><trkpt lat="45.5992303711958" lon="10.053343498184127"><ele>219.0</ele><time>2026-04-23T10:59:28.944Z</time></trkpt><trkpt lat="45.59919753696472" lon="10.05344564980129"><ele>218.83333333333334</ele><time>2026-04-23T10:59:29.944Z</time></trkpt><trkpt lat="45.59916549150035" lon="10.053534740602728"><ele>218.66666666666669</ele><time>2026-04-23T10:59:30.944Z</time></trkpt><trkpt lat="45.5991308075706" lon="10.053624447252766"><ele>218.5</ele><time>2026-04-23T10:59:31.944Z</time></trkpt><trkpt lat="45.59908595987169" lon="10.053779562969602"><ele>218.33333333333334</ele><time>2026-04-23T10:59:33.944Z</time></trkpt><trkpt lat="45.59901883702321" lon="10.05388650834937"><ele>218.16666666666669</ele><time>2026-04-23T10:59:35.944Z</time></trkpt><trkpt lat="45.598947913517776" lon="10.053954982603948"><ele>218.0</ele><time>2026-04-23T10:59:37.944Z</time></trkpt><trkpt lat="45.59887994978459" lon="10.054019763177095"><ele>217.8</ele><time>2026-04-23T10:59:39.944Z</time></trkpt><trkpt lat="45.59881129517499" lon="10.054122063753528"><ele>217.60000000000002</ele><time>2026-04-23T10:59:41.944Z</time></trkpt><trkpt lat="45.59875573216219" lon="10.054246458024991"><ele>217.39999999999998</ele><time>2026-04-23T10:59:43.944Z</time></trkpt><trkpt lat="45.598692291736484" lon="10.054356081534491"><ele>217.2</ele><time>2026-04-23T10:59:45.944Z</time></trkpt><trkpt lat="45.59863829772733" lon="10.054436626185117"><ele>217.0</ele><time>2026-04-23T10:59:47.944Z</time></trkpt><trkpt lat="45.59856077213056" lon="10.054555230928829"><ele>216.83333333333331</ele><time>2026-04-23T10:59:49.945Z</time></trkpt><trkpt lat="45.598515736752425" lon="10.054620706693624"><ele>216.66666666666666</ele><time>2026-04-23T10:59:50.945Z</time></trkpt><trkpt lat="45.59847413758051" lon="10.054694244439293"><ele>216.5</ele><time>2026-04-23T10:59:51.945Z</time></trkpt><trkpt lat="45.598425188391815" lon="10.05475209288005"><ele>216.33333333333331</ele><time>2026-04-23T10:59:52.942Z</time></trkpt><trkpt lat="45.59835786676534" lon="10.054878672126408"><ele>216.16666666666666</ele><time>2026-04-23T10:59:54.941Z</time></trkpt><trkpt lat="45.59828327800932" lon="10.05500063998837"><ele>216.0</ele><time>2026-04-23T10:59:56.941Z</time></trkpt><trkpt lat="45.598247570332624" lon="10.055136029965762"><ele>215.60000000000002</ele><time>2026-04-23T10:59:58.941Z</time></trkpt><trkpt lat="45.5981975366285" lon="10.055198800058177"><ele>215.20000000000002</ele><time>2026-04-23T10:59:59.941Z</time></trkpt><trkpt lat="45.59816077329692" lon="10.055277023717627"><ele>214.79999999999998</ele><time>2026-04-23T11:00:00.941Z</time></trkpt><trkpt lat="45.59808384173482" lon="10.055414758698024"><ele>214.39999999999998</ele><time>2026-04-23T11:00:02.941Z</time></trkpt><trkpt lat="45.598015148196176" lon="10.055540260519948"><ele>214.0</ele><time>2026-04-23T11:00:04.941Z</time></trkpt><trkpt lat="45.59793888994069" lon="10.055673581357533"><ele>213.6</ele><time>2026-04-23T11:00:06.941Z</time></trkpt><trkpt lat="45.597885836061046" lon="10.055790033876248"><ele>213.2</ele><time>2026-04-23T11:00:08.941Z</time></trkpt><trkpt lat="45.59785053109792" lon="10.05592046127299"><ele>212.79999999999998</ele><time>2026-04-23T11:00:10.941Z</time></trkpt><trkpt lat="45.597813273151864" lon="10.056031771907481"><ele>212.39999999999998</ele><time>2026-04-23T11:00:12.941Z</time></trkpt><trkpt lat="45.597759157758226" lon="10.056142203383484"><ele>212.0</ele><time>2026-04-23T11:00:15.941Z</time></trkpt><trkpt lat="45.59775965654425" lon="10.056251877556411"><ele>211.83333333333334</ele><time>2026-04-23T11:00:19.941Z</time></trkpt><trkpt lat="45.59775970588484" lon="10.056357829243217"><ele>211.66666666666669</ele><time>2026-04-23T11:00:22.941Z</time></trkpt><trkpt lat="45.5977661505152" lon="10.056473673169616"><ele>211.5</ele><time>2026-04-23T11:00:25.941Z</time></trkpt><trkpt lat="45.59777726224626" lon="10.0566067060766"><ele>211.33333333333331</ele><time>2026-04-23T11:00:28.941Z</time></trkpt><trkpt lat="45.59778694359594" lon="10.05674662792032"><ele>211.16666666666666</ele><time>2026-04-23T11:00:31.941Z</time></trkpt><trkpt lat="45.59779536221793" lon="10.056838687508774"><ele>211.0</ele><time>2026-04-23T11:00:33.941Z</time></trkpt><trkpt lat="45.59779791722362" lon="10.056937600036466"><ele>210.8</ele><time>2026-04-23T11:00:35.941Z</time></trkpt><trkpt lat="45.5978145918583" lon="10.057040833154787"><ele>210.60000000000002</ele><time>2026-04-23T11:00:38.941Z</time></trkpt><trkpt lat="45.59778896731575" lon="10.057154753316107"><ele>210.4</ele><time>2026-04-23T11:00:40.941Z</time></trkpt><trkpt lat="45.597752389753644" lon="10.057295170228663"><ele>210.2</ele><time>2026-04-23T11:00:42.941Z</time></trkpt><trkpt lat="45.59772086356305" lon="10.057425340629404"><ele>210.0</ele><time>2026-04-23T11:00:44.941Z</time></trkpt><trkpt lat="45.597720207776405" lon="10.057574750740796"><ele>209.66666666666666</ele><time>2026-04-23T11:00:46.941Z</time></trkpt><trkpt lat="45.59772159760986" lon="10.057677350963377"><ele>209.33333333333331</ele><time>2026-04-23T11:00:48.941Z</time></trkpt><trkpt lat="45.59776447902789" lon="10.057776277299954"><ele>209.0</ele><time>2026-04-23T11:00:50.941Z</time></trkpt><trkpt lat="45.597825979287904" lon="10.0578578516703"><ele>208.66666666666666</ele><time>2026-04-23T11:00:52.941Z</time></trkpt><trkpt lat="45.59786624412343" lon="10.05793034190993"><ele>208.33333333333331</ele><time>2026-04-23T11:00:54.941Z</time></trkpt><trkpt lat="45.59792889044325" lon="10.058013895153953"><ele>208.0</ele><time>2026-04-23T11:00:56.941Z</time></trkpt><trkpt lat="45.5979841775971" lon="10.058103940336697"><ele>208.8</ele><time>2026-04-23T11:00:58.941Z</time></trkpt><trkpt lat="45.59801058804351" lon="10.058201512000377"><ele>209.60000000000002</ele><time>2026-04-23T11:01:00.941Z</time></trkpt><trkpt lat="45.59806910096125" lon="10.05828255498544"><ele>210.39999999999998</ele><time>2026-04-23T11:01:02.941Z</time></trkpt><trkpt lat="45.598084873427794" lon="10.058397563693745"><ele>211.2</ele><time>2026-04-23T11:01:04.941Z</time></trkpt><trkpt lat="45.59810218343017" lon="10.058569775558624"><ele>212.0</ele><time>2026-04-23T11:01:06.941Z</time></trkpt><trkpt lat="45.59814140200952" lon="10.058749278306994"><ele>212.0</ele><time>2026-04-23T11:01:08.941Z</time></trkpt><trkpt lat="45.5981430890195" lon="10.058845762845259"><ele>212.0</ele><time>2026-04-23T11:01:09.941Z</time></trkpt><trkpt lat="45.598156450832185" lon="10.05902431420885"><ele>212.0</ele><time>2026-04-23T11:01:11.941Z</time></trkpt><trkpt lat="45.59815050930983" lon="10.059205503176445"><ele>212.0</ele><time>2026-04-23T11:01:13.941Z</time></trkpt><trkpt lat="45.59815075959199" lon="10.059304933034504"><ele>212.0</ele><time>2026-04-23T11:01:14.941Z</time></trkpt><trkpt lat="45.59814826248032" lon="10.059485146474861"><ele>211.00000000000003</ele><time>2026-04-23T11:01:16.941Z</time></trkpt><trkpt lat="45.59814216417156" lon="10.059575809009507"><ele>210.0</ele><time>2026-04-23T11:01:17.941Z</time></trkpt><trkpt lat="45.598137079222596" lon="10.059669818117907"><ele>209.0</ele><time>2026-04-23T11:01:18.941Z</time></trkpt><trkpt lat="45.598133793057016" lon="10.059770172383267"><ele>208.0</ele><time>2026-04-23T11:01:19.941Z</time></trkpt><trkpt lat="45.598114164712946" lon="10.059921298236272"><ele>207.00000000000003</ele><time>2026-04-23T11:01:21.941Z</time></trkpt><trkpt lat="45.598105064119714" lon="10.060055965288546"><ele>206.0</ele><time>2026-04-23T11:01:23.941Z</time></trkpt><trkpt lat="45.59805420231556" lon="10.060168634143054"><ele>205.66666666666669</ele><time>2026-04-23T11:01:25.941Z</time></trkpt><trkpt lat="45.5979913296292" lon="10.060153067349558"><ele>205.33333333333334</ele><time>2026-04-23T11:01:28.941Z</time></trkpt><trkpt lat="45.59788470397097" lon="10.060186987120113"><ele>205.0</ele><time>2026-04-23T11:01:30.941Z</time></trkpt><trkpt lat="45.59781222213322" lon="10.060211047915345"><ele>204.66666666666669</ele><time>2026-04-23T11:01:31.941Z</time></trkpt><trkpt lat="45.59775070551879" lon="10.060251184879991"><ele>204.33333333333334</ele><time>2026-04-23T11:01:32.941Z</time></trkpt><trkpt lat="45.59766882861989" lon="10.060365723637073"><ele>204.0</ele><time>2026-04-23T11:01:34.941Z</time></trkpt><trkpt lat="45.59761626470711" lon="10.060461622008392"><ele>204.0</ele><time>2026-04-23T11:01:36.941Z</time></trkpt><trkpt lat="45.59758273420723" lon="10.06054573857125"><ele>204.0</ele><time>2026-04-23T11:01:37.941Z</time></trkpt><trkpt lat="45.59755117979001" lon="10.060630669865791"><ele>204.0</ele><time>2026-04-23T11:01:38.941Z</time></trkpt><trkpt lat="45.59750144581736" lon="10.060788054800815"><ele>204.0</ele><time>2026-04-23T11:01:40.941Z</time></trkpt><trkpt lat="45.59748078531243" lon="10.060924214319193"><ele>204.0</ele><time>2026-04-23T11:01:42.941Z</time></trkpt><trkpt lat="45.597438792385674" lon="10.061063426006308"><ele>203.83333333333334</ele><time>2026-04-23T11:01:44.941Z</time></trkpt><trkpt lat="45.597397038884296" lon="10.061192577141925"><ele>203.66666666666669</ele><time>2026-04-23T11:01:46.941Z</time></trkpt><trkpt lat="45.5973577857759" lon="10.061333052982661"><ele>203.5</ele><time>2026-04-23T11:01:48.941Z</time></trkpt><trkpt lat="45.597335968283225" lon="10.061424994348314"><ele>203.33333333333334</ele><time>2026-04-23T11:01:51.941Z</time></trkpt><trkpt lat="45.59727697300518" lon="10.061519372559173"><ele>203.16666666666669</ele><time>2026-04-23T11:01:54.941Z</time></trkpt><trkpt lat="45.597219937271525" lon="10.06157634843777"><ele>203.0</ele><time>2026-04-23T11:01:56.941Z</time></trkpt><trkpt lat="45.59717856391914" lon="10.061688974424209"><ele>202.8</ele><time>2026-04-23T11:01:58.938Z</time></trkpt><trkpt lat="45.597141655377165" lon="10.06181384369638"><ele>202.60000000000002</ele><time>2026-04-23T11:02:00.938Z</time></trkpt><trkpt lat="45.597074912248246" lon="10.06194942558909"><ele>202.39999999999998</ele><time>2026-04-23T11:02:02.938Z</time></trkpt><trkpt lat="45.597032330926204" lon="10.062032953274585"><ele>202.2</ele><time>2026-04-23T11:02:04.938Z</time></trkpt><trkpt lat="45.596993100788985" lon="10.062145966067993"><ele>202.0</ele><time>2026-04-23T11:02:06.938Z</time></trkpt><trkpt lat="45.596950493991805" lon="10.062248281655982"><ele>201.6</ele><time>2026-04-23T11:02:08.937Z</time></trkpt><trkpt lat="45.59691592059293" lon="10.062384594361975"><ele>201.2</ele><time>2026-04-23T11:02:10.938Z</time></trkpt><trkpt lat="45.59685977555543" lon="10.062511945275256"><ele>200.8</ele><time>2026-04-23T11:02:12.937Z</time></trkpt><trkpt lat="45.59679398074631" lon="10.062631887006125"><ele>200.4</ele><time>2026-04-23T11:02:14.937Z</time></trkpt><trkpt lat="45.59674733582215" lon="10.062737409464283"><ele>200.0</ele><time>2026-04-23T11:02:16.937Z</time></trkpt><trkpt lat="45.596697652235875" lon="10.062886310357197"><ele>200.0</ele><time>2026-04-23T11:02:18.937Z</time></trkpt><trkpt lat="45.59665257954936" lon="10.063023142372488"><ele>200.0</ele><time>2026-04-23T11:02:20.937Z</time></trkpt><trkpt lat="45.59663011426305" lon="10.063135709763499"><ele>200.0</ele><time>2026-04-23T11:02:22.937Z</time></trkpt><trkpt lat="45.59659676883246" lon="10.063284012590474"><ele>200.0</ele><time>2026-04-23T11:02:24.937Z</time></trkpt><trkpt lat="45.59659439296351" lon="10.06341168537936"><ele>200.0</ele><time>2026-04-23T11:02:26.937Z</time></trkpt><trkpt lat="45.59663230546282" lon="10.063535101382794"><ele>200.33333333333334</ele><time>2026-04-23T11:02:29.937Z</time></trkpt><trkpt lat="45.5966673470117" lon="10.063613238498695"><ele>200.66666666666669</ele><time>2026-04-23T11:02:31.937Z</time></trkpt><trkpt lat="45.59671835884419" lon="10.063719514151575"><ele>201.0</ele><time>2026-04-23T11:02:33.937Z</time></trkpt><trkpt lat="45.59675521612432" lon="10.063822783512741"><ele>201.33333333333331</ele><time>2026-04-23T11:02:35.937Z</time></trkpt><trkpt lat="45.596780331183666" lon="10.063930960290179"><ele>201.66666666666666</ele><time>2026-04-23T11:02:37.937Z</time></trkpt><trkpt lat="45.59678311420881" lon="10.064064847645826"><ele>202.0</ele><time>2026-04-23T11:02:39.937Z</time></trkpt><trkpt lat="45.59677530226252" lon="10.06417961175709"><ele>202.6</ele><time>2026-04-23T11:02:41.937Z</time></trkpt><trkpt lat="45.5967468290091" lon="10.064323090328706"><ele>203.2</ele><time>2026-04-23T11:02:43.937Z</time></trkpt><trkpt lat="45.596711667337495" lon="10.064437281516422"><ele>203.8</ele><time>2026-04-23T11:02:45.937Z</time></trkpt><trkpt lat="45.59668157763295" lon="10.064572622494783"><ele>204.4</ele><time>2026-04-23T11:02:47.937Z</time></trkpt><trkpt lat="45.59664773222947" lon="10.064711427567522"><ele>205.0</ele><time>2026-04-23T11:02:49.937Z</time></trkpt><trkpt lat="45.59661411343362" lon="10.064871446881416"><ele>205.2</ele><time>2026-04-23T11:02:51.937Z</time></trkpt><trkpt lat="45.596580329429855" lon="10.06502668827136"><ele>205.4</ele><time>2026-04-23T11:02:53.937Z</time></trkpt><trkpt lat="45.59656481103122" lon="10.065177351496212"><ele>205.60000000000002</ele><time>2026-04-23T11:02:55.937Z</time></trkpt><trkpt lat="45.5965507443676" lon="10.06534111190582"><ele>205.8</ele><time>2026-04-23T11:02:57.937Z</time></trkpt><trkpt lat="45.59652596377453" lon="10.065457350542117"><ele>206.0</ele><time>2026-04-23T11:02:59.937Z</time></trkpt><trkpt lat="45.59649713824106" lon="10.065578946926335"><ele>206.00000000000003</ele><time>2026-04-23T11:03:01.937Z</time></trkpt><trkpt lat="45.59645933485364" lon="10.065659302084288"><ele>206.0</ele><time>2026-04-23T11:03:04.937Z</time></trkpt><trkpt lat="45.59639306327586" lon="10.065642929295965"><ele>206.0</ele><time>2026-04-23T11:03:10.937Z</time></trkpt><trkpt lat="45.596326208382145" lon="10.065641475566313"><ele>206.0</ele><time>2026-04-23T11:03:14.937Z</time></trkpt><trkpt lat="45.59620194847069" lon="10.065641236268561"><ele>206.00000000000003</ele><time>2026-04-23T11:03:17.937Z</time></trkpt><trkpt lat="45.59612930872331" lon="10.065627628302696"><ele>206.0</ele><time>2026-04-23T11:03:18.937Z</time></trkpt><trkpt lat="45.59605772564113" lon="10.06559226107216"><ele>206.20000000000002</ele><time>2026-04-23T11:03:19.937Z</time></trkpt><trkpt lat="45.59596022850278" lon="10.065551816123962"><ele>206.4</ele><time>2026-04-23T11:03:21.937Z</time></trkpt><trkpt lat="45.59588777228772" lon="10.065561056892843"><ele>206.6</ele><time>2026-04-23T11:03:23.937Z</time></trkpt><trkpt lat="45.59579710717315" lon="10.065550155503617"><ele>206.8</ele><time>2026-04-23T11:03:25.937Z</time></trkpt><trkpt lat="45.59571337467891" lon="10.065540986940299"><ele>207.0</ele><time>2026-04-23T11:03:27.937Z</time></trkpt><trkpt lat="45.59560437204648" lon="10.065506457207789"><ele>207.0</ele><time>2026-04-23T11:03:29.937Z</time></trkpt><trkpt lat="45.59551021291516" lon="10.06547835327275"><ele>207.0</ele><time>2026-04-23T11:03:31.937Z</time></trkpt><trkpt lat="45.595431333767976" lon="10.065456248581329"><ele>207.0</ele><time>2026-04-23T11:03:33.937Z</time></trkpt><trkpt lat="45.59533861302555" lon="10.065427626544214"><ele>207.0</ele><time>2026-04-23T11:03:35.937Z</time></trkpt><trkpt lat="45.59524601610556" lon="10.065420138038537"><ele>207.0</ele><time>2026-04-23T11:03:37.937Z</time></trkpt><trkpt lat="45.59517344262234" lon="10.065452894202938"><ele>207.0</ele><time>2026-04-23T11:03:39.937Z</time></trkpt><trkpt lat="45.595139391124455" lon="10.065546185123823"><ele>206.0</ele><time>2026-04-23T11:03:41.937Z</time></trkpt><trkpt lat="45.59509015800013" lon="10.065645854401613"><ele>205.0</ele><time>2026-04-23T11:03:43.937Z</time></trkpt><trkpt lat="45.595049747647025" lon="10.0657840627512"><ele>204.0</ele><time>2026-04-23T11:03:45.937Z</time></trkpt><trkpt lat="45.5950067324625" lon="10.065949609980482"><ele>203.0</ele><time>2026-04-23T11:03:47.937Z</time></trkpt><trkpt lat="45.59498500366129" lon="10.06603451091417"><ele>202.0</ele><time>2026-04-23T11:03:48.937Z</time></trkpt><trkpt lat="45.59495320772646" lon="10.066208382212466"><ele>201.8</ele><time>2026-04-23T11:03:50.937Z</time></trkpt><trkpt lat="45.59491821610457" lon="10.066305327886726"><ele>201.6</ele><time>2026-04-23T11:03:51.937Z</time></trkpt><trkpt lat="45.594896153711666" lon="10.066392200093604"><ele>201.4</ele><time>2026-04-23T11:03:52.937Z</time></trkpt><trkpt lat="45.594863880802706" lon="10.06655965001783"><ele>201.20000000000002</ele><time>2026-04-23T11:03:54.937Z</time></trkpt><trkpt lat="45.59484003981877" lon="10.066648776476052"><ele>201.0</ele><time>2026-04-23T11:03:55.937Z</time></trkpt><trkpt lat="45.594804949471374" lon="10.06682442124925"><ele>200.4</ele><time>2026-04-23T11:03:57.937Z</time></trkpt><trkpt lat="45.594781257241365" lon="10.06690933383417"><ele>199.8</ele><time>2026-04-23T11:03:58.937Z</time></trkpt><trkpt lat="45.59473353960273" lon="10.067065661954606"><ele>199.20000000000002</ele><time>2026-04-23T11:04:00.937Z</time></trkpt><trkpt lat="45.59468050739615" lon="10.067224241944482"><ele>198.60000000000002</ele><time>2026-04-23T11:04:02.937Z</time></trkpt><trkpt lat="45.59463800732432" lon="10.067377062651577"><ele>198.0</ele><time>2026-04-23T11:04:04.933Z</time></trkpt><trkpt lat="45.59458515871502" lon="10.06752558576992"><ele>197.8</ele><time>2026-04-23T11:04:06.933Z</time></trkpt><trkpt lat="45.594556627890924" lon="10.067606796880924"><ele>197.60000000000002</ele><time>2026-04-23T11:04:07.933Z</time></trkpt><trkpt lat="45.59449650545397" lon="10.06775698776972"><ele>197.39999999999998</ele><time>2026-04-23T11:04:09.933Z</time></trkpt><trkpt lat="45.59439938322426" lon="10.067819861623168"><ele>197.2</ele><time>2026-04-23T11:04:11.933Z</time></trkpt><trkpt lat="45.59429032072246" lon="10.067800604051223"><ele>197.0</ele><time>2026-04-23T11:04:13.933Z</time></trkpt><trkpt lat="45.59422773226648" lon="10.067774157879677"><ele>196.6</ele><time>2026-04-23T11:04:14.933Z</time></trkpt><trkpt lat="45.59412664633721" lon="10.067746390372003"><ele>196.2</ele><time>2026-04-23T11:04:16.933Z</time></trkpt><trkpt lat="45.594024588068656" lon="10.067717145809645"><ele>195.8</ele><time>2026-04-23T11:04:18.933Z</time></trkpt><trkpt lat="45.59391751617021" lon="10.067670384684995"><ele>195.4</ele><time>2026-04-23T11:04:20.933Z</time></trkpt><trkpt lat="45.593819481735544" lon="10.067637389520327"><ele>195.0</ele><time>2026-04-23T11:04:22.933Z</time></trkpt><trkpt lat="45.59372949449517" lon="10.067616794708936"><ele>195.0</ele><time>2026-04-23T11:04:24.933Z</time></trkpt><trkpt lat="45.593630517672" lon="10.067589676474906"><ele>195.0</ele><time>2026-04-23T11:04:26.933Z</time></trkpt><trkpt lat="45.5935283477607" lon="10.06756320815283"><ele>195.0</ele><time>2026-04-23T11:04:28.933Z</time></trkpt><trkpt lat="45.59341457721063" lon="10.067554816174008"><ele>195.0</ele><time>2026-04-23T11:04:30.933Z</time></trkpt><trkpt lat="45.59331337209274" lon="10.067559150876084"><ele>195.0</ele><time>2026-04-23T11:04:32.933Z</time></trkpt><trkpt lat="45.59320825887751" lon="10.067587350373712"><ele>195.0</ele><time>2026-04-23T11:04:34.933Z</time></trkpt><trkpt lat="45.593110170253354" lon="10.067671015866365"><ele>195.0</ele><time>2026-04-23T11:04:36.933Z</time></trkpt><trkpt lat="45.5930416413566" lon="10.067782902578578"><ele>195.0</ele><time>2026-04-23T11:04:38.933Z</time></trkpt><trkpt lat="45.59299554695562" lon="10.067912151311806"><ele>195.0</ele><time>2026-04-23T11:04:40.933Z</time></trkpt><trkpt lat="45.59296916663872" lon="10.068044172238922"><ele>195.0</ele><time>2026-04-23T11:04:42.933Z</time></trkpt><trkpt lat="45.592957203957276" lon="10.06818555504642"><ele>194.25</ele><time>2026-04-23T11:04:44.933Z</time></trkpt><trkpt lat="45.59292342052831" lon="10.068338991937567"><ele>193.5</ele><time>2026-04-23T11:04:46.933Z</time></trkpt><trkpt lat="45.59288880013946" lon="10.068490174880512"><ele>192.75</ele><time>2026-04-23T11:04:48.933Z</time></trkpt><trkpt lat="45.59285350103255" lon="10.068653088943334"><ele>192.0</ele><time>2026-04-23T11:04:50.933Z</time></trkpt><trkpt lat="45.59282229556926" lon="10.068831633724797"><ele>191.66666666666666</ele><time>2026-04-23T11:04:52.933Z</time></trkpt><trkpt lat="45.59277497716055" lon="10.06900189613883"><ele>191.33333333333334</ele><time>2026-04-23T11:04:54.933Z</time></trkpt><trkpt lat="45.59274129269451" lon="10.069080841822494"><ele>191.0</ele><time>2026-04-23T11:04:55.933Z</time></trkpt><trkpt lat="45.59266683032222" lon="10.0692123436315"><ele>190.66666666666669</ele><time>2026-04-23T11:04:57.933Z</time></trkpt><trkpt lat="45.59261390179764" lon="10.06927687523004"><ele>190.33333333333334</ele><time>2026-04-23T11:04:58.933Z</time></trkpt><trkpt lat="45.59257080039339" lon="10.06934650725329"><ele>190.0</ele><time>2026-04-23T11:04:59.933Z</time></trkpt><trkpt lat="45.592510604990224" lon="10.06942164133088"><ele>189.66666666666669</ele><time>2026-04-23T11:05:00.933Z</time></trkpt><trkpt lat="45.59241757014294" lon="10.069533349410845"><ele>189.33333333333334</ele><time>2026-04-23T11:05:02.933Z</time></trkpt><trkpt lat="45.592371681324785" lon="10.069599218761631"><ele>189.0</ele><time>2026-04-23T11:05:03.933Z</time></trkpt><trkpt lat="45.592332529046594" lon="10.069673690035874"><ele>188.66666666666666</ele><time>2026-04-23T11:05:04.933Z</time></trkpt><trkpt lat="45.5922461902976" lon="10.06981362245249"><ele>188.33333333333331</ele><time>2026-04-23T11:05:06.933Z</time></trkpt><trkpt lat="45.59220300997338" lon="10.069882365906437"><ele>188.0</ele><time>2026-04-23T11:05:07.933Z</time></trkpt><trkpt lat="45.592133190360336" lon="10.070019672321381"><ele>187.8</ele><time>2026-04-23T11:05:09.933Z</time></trkpt><trkpt lat="45.592080004295596" lon="10.070142855446305"><ele>187.60000000000002</ele><time>2026-04-23T11:05:11.933Z</time></trkpt><trkpt lat="45.59203422557681" lon="10.070254856654056"><ele>187.39999999999998</ele><time>2026-04-23T11:05:13.933Z</time></trkpt><trkpt lat="45.59197020609544" lon="10.070377457497095"><ele>187.2</ele><time>2026-04-23T11:05:15.933Z</time></trkpt><trkpt lat="45.59187812557342" lon="10.070505016341476"><ele>187.0</ele><time>2026-04-23T11:05:17.933Z</time></trkpt><trkpt lat="45.59179789449287" lon="10.070623635805823"><ele>186.8</ele><time>2026-04-23T11:05:19.933Z</time></trkpt><trkpt lat="45.59174012518089" lon="10.070749989035129"><ele>186.6</ele><time>2026-04-23T11:05:21.933Z</time></trkpt><trkpt lat="45.59170247125905" lon="10.0708580047126"><ele>186.4</ele><time>2026-04-23T11:05:23.933Z</time></trkpt><trkpt lat="45.59165530727223" lon="10.070983629194972"><ele>186.20000000000002</ele><time>2026-04-23T11:05:25.933Z</time></trkpt><trkpt lat="45.59160097300782" lon="10.071100688983073"><ele>186.0</ele><time>2026-04-23T11:05:27.933Z</time></trkpt><trkpt lat="45.59157604238559" lon="10.07125806438496"><ele>186.0</ele><time>2026-04-23T11:05:29.933Z</time></trkpt><trkpt lat="45.591578064179856" lon="10.071397744231982"><ele>186.0</ele><time>2026-04-23T11:05:31.933Z</time></trkpt><trkpt lat="45.59158759560899" lon="10.071544327931282"><ele>186.0</ele><time>2026-04-23T11:05:33.933Z</time></trkpt><trkpt lat="45.59159833483785" lon="10.071679273806732"><ele>186.0</ele><time>2026-04-23T11:05:35.933Z</time></trkpt><trkpt lat="45.59160984283624" lon="10.071833073105317"><ele>186.0</ele><time>2026-04-23T11:05:37.933Z</time></trkpt><trkpt lat="45.5916242610248" lon="10.071969262141703"><ele>186.0</ele><time>2026-04-23T11:05:39.933Z</time></trkpt><trkpt lat="45.59165042528604" lon="10.072111249872107"><ele>186.0</ele><time>2026-04-23T11:05:41.933Z</time></trkpt><trkpt lat="45.59167450531823" lon="10.072260580749127"><ele>186.0</ele><time>2026-04-23T11:05:43.933Z</time></trkpt><trkpt lat="45.591701382101455" lon="10.072407109938021"><ele>186.0</ele><time>2026-04-23T11:05:45.933Z</time></trkpt><trkpt lat="45.59172053578835" lon="10.072550584491914"><ele>186.0</ele><time>2026-04-23T11:05:47.933Z</time></trkpt><trkpt lat="45.5917453902149" lon="10.07270460482402"><ele>186.0</ele><time>2026-04-23T11:05:49.933Z</time></trkpt><trkpt lat="45.59176314022198" lon="10.07285019252363"><ele>186.0</ele><time>2026-04-23T11:05:51.933Z</time></trkpt><trkpt lat="45.591783407900344" lon="10.072996899083913"><ele>186.0</ele><time>2026-04-23T11:05:53.933Z</time></trkpt><trkpt lat="45.59180598971042" lon="10.073143632927406"><ele>186.0</ele><time>2026-04-23T11:05:55.933Z</time></trkpt><trkpt lat="45.591837610722735" lon="10.073279432120602"><ele>186.0</ele><time>2026-04-23T11:05:57.933Z</time></trkpt><trkpt lat="45.591853768688644" lon="10.073425885514498"><ele>186.0</ele><time>2026-04-23T11:05:59.933Z</time></trkpt><trkpt lat="45.591875866153174" lon="10.07354221906041"><ele>186.0</ele><time>2026-04-23T11:06:01.933Z</time></trkpt><trkpt lat="45.59189220603185" lon="10.073659094351935"><ele>186.0</ele><time>2026-04-23T11:06:03.933Z</time></trkpt><trkpt lat="45.591909882253034" lon="10.073755575375317"><ele>186.0</ele><time>2026-04-23T11:06:05.933Z</time></trkpt><trkpt lat="45.591930265349006" lon="10.073865709767944"><ele>186.0</ele><time>2026-04-23T11:06:07.933Z</time></trkpt><trkpt lat="45.59195847861726" lon="10.073971364175383"><ele>186.0</ele><time>2026-04-23T11:06:09.933Z</time></trkpt><trkpt lat="45.59199324922966" lon="10.074051030030024"><ele>186.33333333333334</ele><time>2026-04-23T11:06:11.929Z</time></trkpt><trkpt lat="45.59202127525041" lon="10.074138196514275"><ele>186.66666666666666</ele><time>2026-04-23T11:06:14.928Z</time></trkpt><trkpt lat="45.59206533108986" lon="10.07427230309544"><ele>187.0</ele><time>2026-04-23T11:06:16.928Z</time></trkpt><trkpt lat="45.59210889525995" lon="10.07435709069472"><ele>187.33333333333331</ele><time>2026-04-23T11:06:18.928Z</time></trkpt><trkpt lat="45.5921518011219" lon="10.074431190408308"><ele>187.66666666666666</ele><time>2026-04-23T11:06:20.928Z</time></trkpt><trkpt lat="45.59223832375818" lon="10.07449391852415"><ele>188.0</ele><time>2026-04-23T11:06:23.928Z</time></trkpt><trkpt lat="45.59231098322519" lon="10.07452038101276"><ele>188.0</ele><time>2026-04-23T11:06:25.928Z</time></trkpt><trkpt lat="45.59239396926627" lon="10.07449775707513"><ele>188.0</ele><time>2026-04-23T11:06:27.928Z</time></trkpt><trkpt lat="45.59248875354343" lon="10.074442024057204"><ele>188.0</ele><time>2026-04-23T11:06:29.928Z</time></trkpt><trkpt lat="45.59256179876124" lon="10.074383672456339"><ele>188.0</ele><time>2026-04-23T11:06:31.928Z</time></trkpt><trkpt lat="45.59260991841087" lon="10.074284446015016"><ele>188.0</ele><time>2026-04-23T11:06:33.928Z</time></trkpt><trkpt lat="45.59265058900529" lon="10.074169417534486"><ele>188.0</ele><time>2026-04-23T11:06:35.928Z</time></trkpt><trkpt lat="45.592689150993756" lon="10.074059068401684"><ele>187.8</ele><time>2026-04-23T11:06:37.928Z</time></trkpt><trkpt lat="45.592711340515336" lon="10.073962605081057"><ele>187.60000000000002</ele><time>2026-04-23T11:06:39.928Z</time></trkpt><trkpt lat="45.59275214346754" lon="10.073835316101867"><ele>187.39999999999998</ele><time>2026-04-23T11:06:41.928Z</time></trkpt><trkpt lat="45.59281528279515" lon="10.07372628093752"><ele>187.2</ele><time>2026-04-23T11:06:43.928Z</time></trkpt><trkpt lat="45.59286926558873" lon="10.07362495691065"><ele>187.0</ele><time>2026-04-23T11:06:45.928Z</time></trkpt><trkpt lat="45.59295218162921" lon="10.073535291145193"><ele>186.8</ele><time>2026-04-23T11:06:47.928Z</time></trkpt><trkpt lat="45.593041609146" lon="10.073449955959543"><ele>186.6</ele><time>2026-04-23T11:06:49.928Z</time></trkpt><trkpt lat="45.59311904900114" lon="10.073382371062186"><ele>186.4</ele><time>2026-04-23T11:06:51.928Z</time></trkpt><trkpt lat="45.59320692900065" lon="10.073333951343347"><ele>186.20000000000002</ele><time>2026-04-23T11:06:53.928Z</time></trkpt><trkpt lat="45.59331309699531" lon="10.07329383869801"><ele>186.0</ele><time>2026-04-23T11:06:55.928Z</time></trkpt><trkpt lat="45.59339469503126" lon="10.073279405887332"><ele>186.0</ele><time>2026-04-23T11:06:57.928Z</time></trkpt><trkpt lat="45.59345822358223" lon="10.073277162007546"><ele>186.0</ele><time>2026-04-23T11:06:58.928Z</time></trkpt><trkpt lat="45.593579653038226" lon="10.0732863888892"><ele>186.0</ele><time>2026-04-23T11:07:00.928Z</time></trkpt><trkpt lat="45.59368346184475" lon="10.07327602076986"><ele>186.0</ele><time>2026-04-23T11:07:02.928Z</time></trkpt><trkpt lat="45.59378463562309" lon="10.073263760865938"><ele>186.0</ele><time>2026-04-23T11:07:04.928Z</time></trkpt><trkpt lat="45.59384729939224" lon="10.073226746015976"><ele>186.33333333333334</ele><time>2026-04-23T11:07:06.928Z</time></trkpt><trkpt lat="45.593926145689515" lon="10.07321801081349"><ele>186.66666666666666</ele><time>2026-04-23T11:07:08.928Z</time></trkpt><trkpt lat="45.5940107867078" lon="10.07315982047931"><ele>187.0</ele><time>2026-04-23T11:07:11.928Z</time></trkpt><trkpt lat="45.594076765937004" lon="10.073106578399662"><ele>187.33333333333331</ele><time>2026-04-23T11:07:13.928Z</time></trkpt><trkpt lat="45.59414672675953" lon="10.073057165200762"><ele>187.66666666666666</ele><time>2026-04-23T11:07:15.928Z</time></trkpt><trkpt lat="45.59422252855288" lon="10.072987159338494"><ele>188.0</ele><time>2026-04-23T11:07:17.928Z</time></trkpt><trkpt lat="45.59429345779632" lon="10.072908240777537"><ele>188.0</ele><time>2026-04-23T11:07:19.928Z</time></trkpt><trkpt lat="45.59434436124265" lon="10.072812674165037"><ele>188.0</ele><time>2026-04-23T11:07:21.928Z</time></trkpt><trkpt lat="45.59440081871359" lon="10.072722580670343"><ele>188.0</ele><time>2026-04-23T11:07:23.928Z</time></trkpt><trkpt lat="45.59445730643438" lon="10.072612739044756"><ele>188.0</ele><time>2026-04-23T11:07:25.928Z</time></trkpt><trkpt lat="45.594513111467364" lon="10.07251028034275"><ele>188.0</ele><time>2026-04-23T11:07:27.928Z</time></trkpt><trkpt lat="45.59456518860492" lon="10.072419858765448"><ele>188.0</ele><time>2026-04-23T11:07:29.928Z</time></trkpt><trkpt lat="45.594641933787315" lon="10.072334773527695"><ele>188.16666666666666</ele><time>2026-04-23T11:07:31.928Z</time></trkpt><trkpt lat="45.594713934688116" lon="10.072246715001162"><ele>188.33333333333331</ele><time>2026-04-23T11:07:33.928Z</time></trkpt><trkpt lat="45.594789795020546" lon="10.072193879148482"><ele>188.5</ele><time>2026-04-23T11:07:35.928Z</time></trkpt><trkpt lat="45.59487938107936" lon="10.072110770963281"><ele>188.66666666666666</ele><time>2026-04-23T11:07:37.928Z</time></trkpt><trkpt lat="45.59494942575054" lon="10.072086368056063"><ele>188.83333333333334</ele><time>2026-04-23T11:07:38.928Z</time></trkpt><trkpt lat="45.59501139648801" lon="10.072066549848387"><ele>189.0</ele><time>2026-04-23T11:07:39.928Z</time></trkpt><trkpt lat="45.59512057134531" lon="10.072033847360238"><ele>189.0</ele><time>2026-04-23T11:07:41.928Z</time></trkpt><trkpt lat="45.59523113793297" lon="10.072032637627359"><ele>189.0</ele><time>2026-04-23T11:07:43.928Z</time></trkpt><trkpt lat="45.59532440386994" lon="10.072019365571206"><ele>189.0</ele><time>2026-04-23T11:07:45.928Z</time></trkpt><trkpt lat="45.59541843495543" lon="10.072045745097821"><ele>189.0</ele><time>2026-04-23T11:07:47.928Z</time></trkpt><trkpt lat="45.59552691096249" lon="10.072061580503268"><ele>189.0</ele><time>2026-04-23T11:07:49.928Z</time></trkpt><trkpt lat="45.595631398252685" lon="10.07206081445808"><ele>189.16666666666666</ele><time>2026-04-23T11:07:51.928Z</time></trkpt><trkpt lat="45.59572691215453" lon="10.072051662991434"><ele>189.33333333333334</ele><time>2026-04-23T11:07:53.928Z</time></trkpt><trkpt lat="45.595813426392674" lon="10.072043848450491"><ele>189.5</ele><time>2026-04-23T11:07:55.928Z</time></trkpt><trkpt lat="45.59588808970536" lon="10.072018274812836"><ele>189.66666666666669</ele><time>2026-04-23T11:07:57.928Z</time></trkpt><trkpt lat="45.59598824124016" lon="10.071994015330837"><ele>189.83333333333334</ele><time>2026-04-23T11:07:59.928Z</time></trkpt><trkpt lat="45.596063259235905" lon="10.071947880329086"><ele>190.0</ele><time>2026-04-23T11:08:01.928Z</time></trkpt><trkpt lat="45.596135491416014" lon="10.071907633489841"><ele>191.0</ele><time>2026-04-23T11:08:03.928Z</time></trkpt><trkpt lat="45.59622325725391" lon="10.07187500065309"><ele>192.0</ele><time>2026-04-23T11:08:05.928Z</time></trkpt><trkpt lat="45.596308405336536" lon="10.071847280522661"><ele>193.0</ele><time>2026-04-23T11:08:07.928Z</time></trkpt><trkpt lat="45.59640771586416" lon="10.071842321873266"><ele>194.0</ele><time>2026-04-23T11:08:09.928Z</time></trkpt><trkpt lat="45.59649409299644" lon="10.071845659254418"><ele>195.0</ele><time>2026-04-23T11:08:11.928Z</time></trkpt><trkpt lat="45.59659705493449" lon="10.071858090331535"><ele>195.0</ele><time>2026-04-23T11:08:13.928Z</time></trkpt><trkpt lat="45.59669963792286" lon="10.071870287934766"><ele>195.0</ele><time>2026-04-23T11:08:15.928Z</time></trkpt><trkpt lat="45.59677483546655" lon="10.071884770489373"><ele>195.0</ele><time>2026-04-23T11:08:17.924Z</time></trkpt><trkpt lat="45.596875662012074" lon="10.071915766340478"><ele>195.0</ele><time>2026-04-23T11:08:19.924Z</time></trkpt><trkpt lat="45.59697425552566" lon="10.071952836100365"><ele>195.0</ele><time>2026-04-23T11:08:21.924Z</time></trkpt><trkpt lat="45.59706416693889" lon="10.07198741660181"><ele>195.16666666666666</ele><time>2026-04-23T11:08:23.924Z</time></trkpt><trkpt lat="45.59711729676218" lon="10.072044298580847"><ele>195.33333333333331</ele><time>2026-04-23T11:08:25.924Z</time></trkpt><trkpt lat="45.5971396363992" lon="10.072146179188739"><ele>195.5</ele><time>2026-04-23T11:08:27.924Z</time></trkpt><trkpt lat="45.59714251914145" lon="10.072254570683148"><ele>195.66666666666666</ele><time>2026-04-23T11:08:29.924Z</time></trkpt><trkpt lat="45.59714418369898" lon="10.072369971927841"><ele>195.83333333333331</ele><time>2026-04-23T11:08:31.924Z</time></trkpt><trkpt lat="45.59714551975918" lon="10.072483741236429"><ele>196.0</ele><time>2026-04-23T11:08:33.924Z</time></trkpt><trkpt lat="45.5971383333916" lon="10.07262288357207"><ele>196.0</ele><time>2026-04-23T11:08:35.924Z</time></trkpt><trkpt lat="45.5971364626775" lon="10.07274868109914"><ele>196.0</ele><time>2026-04-23T11:08:37.924Z</time></trkpt><trkpt lat="45.59714213503912" lon="10.072900447821564"><ele>196.0</ele><time>2026-04-23T11:08:39.924Z</time></trkpt><trkpt lat="45.597146840558715" lon="10.07301079467343"><ele>196.0</ele><time>2026-04-23T11:08:41.924Z</time></trkpt><trkpt lat="45.59714978952392" lon="10.07314920290468"><ele>196.0</ele><time>2026-04-23T11:08:43.924Z</time></trkpt><trkpt lat="45.59715803856033" lon="10.073305966825542"><ele>195.99999999999997</ele><time>2026-04-23T11:08:45.924Z</time></trkpt><trkpt lat="45.59716244617064" lon="10.073459305378112"><ele>196.0</ele><time>2026-04-23T11:08:47.924Z</time></trkpt><trkpt lat="45.597160055159605" lon="10.073571184101407"><ele>196.0</ele><time>2026-04-23T11:08:49.924Z</time></trkpt><trkpt lat="45.59716244154145" lon="10.073699266987921"><ele>196.0</ele><time>2026-04-23T11:08:51.924Z</time></trkpt><trkpt lat="45.59716617666048" lon="10.073805651665845"><ele>195.99999999999997</ele><time>2026-04-23T11:08:53.924Z</time></trkpt><trkpt lat="45.59714830843633" lon="10.07393585264606"><ele>196.0</ele><time>2026-04-23T11:08:55.924Z</time></trkpt><trkpt lat="45.59712898185232" lon="10.074063905973599"><ele>195.99999999999997</ele><time>2026-04-23T11:08:57.924Z</time></trkpt><trkpt lat="45.59711866834193" lon="10.074154403756049"><ele>196.0</ele><time>2026-04-23T11:08:58.924Z</time></trkpt><trkpt lat="45.59712510833694" lon="10.074315808640055"><ele>196.0</ele><time>2026-04-23T11:09:00.924Z</time></trkpt><trkpt lat="45.59714877745032" lon="10.07443424087352"><ele>196.0</ele><time>2026-04-23T11:09:02.924Z</time></trkpt><trkpt lat="45.597096759803144" lon="10.074494660246573"><ele>195.99999999999997</ele><time>2026-04-23T11:09:05.924Z</time></trkpt><trkpt lat="45.59704729572604" lon="10.074606649150184"><ele>196.0</ele><time>2026-04-23T11:09:07.924Z</time></trkpt><trkpt lat="45.59702689746195" lon="10.074800826786051"><ele>195.99999999999997</ele><time>2026-04-23T11:09:09.924Z</time></trkpt><trkpt lat="45.59702125726718" lon="10.074899144452525"><ele>196.0</ele><time>2026-04-23T11:09:10.924Z</time></trkpt><trkpt lat="45.596999636572114" lon="10.075063698320108"><ele>196.0</ele><time>2026-04-23T11:09:12.924Z</time></trkpt><trkpt lat="45.59697896541911" lon="10.075225005406063"><ele>196.0</ele><time>2026-04-23T11:09:14.924Z</time></trkpt><trkpt lat="45.596977029257324" lon="10.075324516598682"><ele>195.99999999999997</ele><time>2026-04-23T11:09:15.924Z</time></trkpt><trkpt lat="45.59696914597533" lon="10.075424183452926"><ele>196.0</ele><time>2026-04-23T11:09:16.924Z</time></trkpt><trkpt lat="45.596967822609514" lon="10.075563556157803"><ele>195.49999999999997</ele><time>2026-04-23T11:09:18.924Z</time></trkpt><trkpt lat="45.59696205241242" lon="10.075701079046162"><ele>195.0</ele><time>2026-04-23T11:09:20.924Z</time></trkpt><trkpt lat="45.59697884419853" lon="10.075799276244604"><ele>194.5</ele><time>2026-04-23T11:09:22.924Z</time></trkpt><trkpt lat="45.5969843752791" lon="10.075891957901193"><ele>194.0</ele><time>2026-04-23T11:09:24.924Z</time></trkpt><trkpt lat="45.59697190431786" lon="10.07603315392581"><ele>193.49999999999997</ele><time>2026-04-23T11:09:26.924Z</time></trkpt><trkpt lat="45.596957426367" lon="10.076150546253091"><ele>193.0</ele><time>2026-04-23T11:09:28.924Z</time></trkpt><trkpt lat="45.5969510166444" lon="10.076280757964856"><ele>192.99999999999997</ele><time>2026-04-23T11:09:30.924Z</time></trkpt><trkpt lat="45.59694700495639" lon="10.076376594542408"><ele>193.0</ele><time>2026-04-23T11:09:31.924Z</time></trkpt><trkpt lat="45.596943780697146" lon="10.076508645861336"><ele>193.0</ele><time>2026-04-23T11:09:33.924Z</time></trkpt><trkpt lat="45.59694006771555" lon="10.076665564159676"><ele>193.0</ele><time>2026-04-23T11:09:35.924Z</time></trkpt><trkpt lat="45.59693811720642" lon="10.076783678664889"><ele>192.99999999999997</ele><time>2026-04-23T11:09:36.924Z</time></trkpt><trkpt lat="45.59693914525989" lon="10.076904442180066"><ele>193.0</ele><time>2026-04-23T11:09:37.924Z</time></trkpt><trkpt lat="45.596938769247885" lon="10.0770136268072"><ele>193.00000000000003</ele><time>2026-04-23T11:09:38.924Z</time></trkpt><trkpt lat="45.59694202229699" lon="10.077117853361173"><ele>193.0</ele><time>2026-04-23T11:09:39.924Z</time></trkpt><trkpt lat="45.596947191174216" lon="10.07720815060749"><ele>193.0</ele><time>2026-04-23T11:09:40.924Z</time></trkpt><trkpt lat="45.596947001430415" lon="10.077303161298744"><ele>193.0</ele><time>2026-04-23T11:09:41.924Z</time></trkpt><trkpt lat="45.596949706613835" lon="10.077401713596172"><ele>193.0</ele><time>2026-04-23T11:09:42.924Z</time></trkpt><trkpt lat="45.59695065391221" lon="10.077504783721762"><ele>193.00000000000003</ele><time>2026-04-23T11:09:43.924Z</time></trkpt><trkpt lat="45.59695382779316" lon="10.077598467974163"><ele>193.0</ele><time>2026-04-23T11:09:44.924Z</time></trkpt><trkpt lat="45.5969536134582" lon="10.077689525826791"><ele>193.00000000000003</ele><time>2026-04-23T11:09:45.924Z</time></trkpt><trkpt lat="45.596952506336415" lon="10.077781215009587"><ele>193.0</ele><time>2026-04-23T11:09:46.924Z</time></trkpt><trkpt lat="45.59695279485729" lon="10.077871342253747"><ele>193.0</ele><time>2026-04-23T11:09:47.924Z</time></trkpt><trkpt lat="45.596958515874356" lon="10.077991941366786"><ele>193.0</ele><time>2026-04-23T11:09:49.924Z</time></trkpt><trkpt lat="45.59695729911739" lon="10.078092753461183"><ele>193.0</ele><time>2026-04-23T11:09:50.924Z</time></trkpt><trkpt lat="45.59695374012033" lon="10.078205597637075"><ele>193.00000000000003</ele><time>2026-04-23T11:09:51.924Z</time></trkpt><trkpt lat="45.59695471406149" lon="10.07831137332148"><ele>193.0</ele><time>2026-04-23T11:09:52.924Z</time></trkpt><trkpt lat="45.596950143322" lon="10.078407127334899"><ele>192.8</ele><time>2026-04-23T11:09:53.924Z</time></trkpt><trkpt lat="45.59695323318627" lon="10.07849748150284"><ele>192.60000000000002</ele><time>2026-04-23T11:09:54.924Z</time></trkpt><trkpt lat="45.5969500317454" lon="10.078672740288578"><ele>192.39999999999998</ele><time>2026-04-23T11:09:56.924Z</time></trkpt><trkpt lat="45.59694750332752" lon="10.078847417354243"><ele>192.2</ele><time>2026-04-23T11:09:58.924Z</time></trkpt><trkpt lat="45.59694475644627" lon="10.078938320623392"><ele>192.0</ele><time>2026-04-23T11:09:59.924Z</time></trkpt><trkpt lat="45.59694492108955" lon="10.07910188401174"><ele>191.75</ele><time>2026-04-23T11:10:01.924Z</time></trkpt><trkpt lat="45.59694708449789" lon="10.079274622138142"><ele>191.5</ele><time>2026-04-23T11:10:03.924Z</time></trkpt><trkpt lat="45.59694260504334" lon="10.079432363071025"><ele>191.25</ele><time>2026-04-23T11:10:05.924Z</time></trkpt><trkpt lat="45.59693519799865" lon="10.079607726397319"><ele>191.0</ele><time>2026-04-23T11:10:07.924Z</time></trkpt><trkpt lat="45.596932199727625" lon="10.079786426362194"><ele>191.0</ele><time>2026-04-23T11:10:09.924Z</time></trkpt><trkpt lat="45.59693037913373" lon="10.079878216874524"><ele>191.0</ele><time>2026-04-23T11:10:10.924Z</time></trkpt><trkpt lat="45.59692102113514" lon="10.08004080710642"><ele>191.0</ele><time>2026-04-23T11:10:12.924Z</time></trkpt><trkpt lat="45.596909601595186" lon="10.080204998585172"><ele>191.0</ele><time>2026-04-23T11:10:14.924Z</time></trkpt><trkpt lat="45.596884963999855" lon="10.0803747117169"><ele>191.0</ele><time>2026-04-23T11:10:16.924Z</time></trkpt><trkpt lat="45.59685509709486" lon="10.0805359265984"><ele>191.20000000000002</ele><time>2026-04-23T11:10:18.924Z</time></trkpt><trkpt lat="45.59683487988501" lon="10.08069119511271"><ele>191.4</ele><time>2026-04-23T11:10:20.924Z</time></trkpt><trkpt lat="45.59679837690069" lon="10.080848559910272"><ele>191.6</ele><time>2026-04-23T11:10:22.92Z</time></trkpt><trkpt lat="45.59676833408897" lon="10.080999643540926"><ele>191.8</ele><time>2026-04-23T11:10:24.92Z</time></trkpt><trkpt lat="45.59673819494432" lon="10.081154053241718"><ele>192.0</ele><time>2026-04-23T11:10:26.92Z</time></trkpt><trkpt lat="45.59670836741014" lon="10.081306067004245"><ele>191.6</ele><time>2026-04-23T11:10:28.92Z</time></trkpt><trkpt lat="45.59668506641185" lon="10.081397934489743"><ele>191.2</ele><time>2026-04-23T11:10:30.92Z</time></trkpt><trkpt lat="45.59663001562437" lon="10.08155872131762"><ele>190.8</ele><time>2026-04-23T11:10:33.92Z</time></trkpt><trkpt lat="45.596601244951316" lon="10.081705775991143"><ele>190.4</ele><time>2026-04-23T11:10:35.919Z</time></trkpt><trkpt lat="45.59657534285407" lon="10.08184015481634"><ele>190.0</ele><time>2026-04-23T11:10:38.919Z</time></trkpt><trkpt lat="45.59654080246302" lon="10.081952930848805"><ele>189.83333333333334</ele><time>2026-04-23T11:10:41.919Z</time></trkpt><trkpt lat="45.596533402029564" lon="10.082071905671187"><ele>189.66666666666669</ele><time>2026-04-23T11:10:43.919Z</time></trkpt><trkpt lat="45.596530421616094" lon="10.082184756518382"><ele>189.5</ele><time>2026-04-23T11:10:45.919Z</time></trkpt><trkpt lat="45.59651493615515" lon="10.082288351982339"><ele>189.33333333333334</ele><time>2026-04-23T11:10:47.919Z</time></trkpt><trkpt lat="45.59651920364193" lon="10.08239760798412"><ele>189.16666666666666</ele><time>2026-04-23T11:10:48.919Z</time></trkpt><trkpt lat="45.59652979075771" lon="10.082489197348776"><ele>189.0</ele><time>2026-04-23T11:10:49.919Z</time></trkpt><trkpt lat="45.59655410582206" lon="10.082649163953766"><ele>188.79999999999998</ele><time>2026-04-23T11:10:51.919Z</time></trkpt><trkpt lat="45.596583889603146" lon="10.082783741658254"><ele>188.6</ele><time>2026-04-23T11:10:53.919Z</time></trkpt><trkpt lat="45.5966150457616" lon="10.082925805646957"><ele>188.4</ele><time>2026-04-23T11:10:55.919Z</time></trkpt><trkpt lat="45.59664325634894" lon="10.083099989234805"><ele>188.2</ele><time>2026-04-23T11:10:57.919Z</time></trkpt><trkpt lat="45.59667071605467" lon="10.08324820123329"><ele>188.0</ele><time>2026-04-23T11:10:59.919Z</time></trkpt><trkpt lat="45.596696022128555" lon="10.083390754266297"><ele>188.5</ele><time>2026-04-23T11:11:01.919Z</time></trkpt><trkpt lat="45.596736308732055" lon="10.083557580685428"><ele>189.0</ele><time>2026-04-23T11:11:03.919Z</time></trkpt><trkpt lat="45.59677236449004" lon="10.083715999764815"><ele>189.5</ele><time>2026-04-23T11:11:05.919Z</time></trkpt><trkpt lat="45.59680916103258" lon="10.083871506540438"><ele>190.0</ele><time>2026-04-23T11:11:07.919Z</time></trkpt><trkpt lat="45.59684397347173" lon="10.084013308162602"><ele>189.8</ele><time>2026-04-23T11:11:09.919Z</time></trkpt><trkpt lat="45.596875695049256" lon="10.084158506175056"><ele>189.6</ele><time>2026-04-23T11:11:11.919Z</time></trkpt><trkpt lat="45.59693469729894" lon="10.084295627231139"><ele>189.39999999999998</ele><time>2026-04-23T11:11:14.919Z</time></trkpt><trkpt lat="45.59698594424523" lon="10.08442281735355"><ele>189.2</ele><time>2026-04-23T11:11:18.919Z</time></trkpt><trkpt lat="45.59701356468216" lon="10.084508470767013"><ele>189.0</ele><time>2026-04-23T11:11:19.919Z</time></trkpt><trkpt lat="45.59704363620742" lon="10.08466446552582"><ele>189.0</ele><time>2026-04-23T11:11:21.919Z</time></trkpt><trkpt lat="45.597085194282364" lon="10.084800394661723"><ele>189.0</ele><time>2026-04-23T11:11:23.919Z</time></trkpt><trkpt lat="45.59711319793737" lon="10.084890005282459"><ele>189.0</ele><time>2026-04-23T11:11:24.919Z</time></trkpt><trkpt lat="45.59714296856312" lon="10.084970744846636"><ele>189.0</ele><time>2026-04-23T11:11:25.919Z</time></trkpt><trkpt lat="45.59717104395891" lon="10.085092707715988"><ele>189.0</ele><time>2026-04-23T11:11:28.919Z</time></trkpt><trkpt lat="45.59720251321368" lon="10.085196966747835"><ele>189.0</ele><time>2026-04-23T11:11:29.919Z</time></trkpt><trkpt lat="45.59725187556416" lon="10.085331479015482"><ele>189.0</ele><time>2026-04-23T11:11:30.919Z</time></trkpt><trkpt lat="45.59727544171491" lon="10.085438856991747"><ele>189.0</ele><time>2026-04-23T11:11:31.919Z</time></trkpt><trkpt lat="45.597302932730926" lon="10.085521513758435"><ele>189.0</ele><time>2026-04-23T11:11:32.919Z</time></trkpt><trkpt lat="45.59734635115164" lon="10.085673118398114"><ele>189.0</ele><time>2026-04-23T11:11:34.919Z</time></trkpt><trkpt lat="45.597374287938756" lon="10.085756540841345"><ele>189.0</ele><time>2026-04-23T11:11:35.919Z</time></trkpt><trkpt lat="45.59739021510832" lon="10.085848089125347"><ele>189.0</ele><time>2026-04-23T11:11:36.919Z</time></trkpt><trkpt lat="45.597395729508925" lon="10.085984768886352"><ele>189.2</ele><time>2026-04-23T11:11:39.919Z</time></trkpt><trkpt lat="45.597387547216016" lon="10.086138803068762"><ele>189.39999999999998</ele><time>2026-04-23T11:11:41.919Z</time></trkpt><trkpt lat="45.59734230885928" lon="10.086288901453363"><ele>189.6</ele><time>2026-04-23T11:11:43.919Z</time></trkpt><trkpt lat="45.597303660926464" lon="10.086438063777631"><ele>189.8</ele><time>2026-04-23T11:11:45.92Z</time></trkpt><trkpt lat="45.59726221186309" lon="10.086581015921825"><ele>190.0</ele><time>2026-04-23T11:11:47.92Z</time></trkpt><trkpt lat="45.59726093454148" lon="10.086704589925"><ele>190.4</ele><time>2026-04-23T11:11:48.92Z</time></trkpt><trkpt lat="45.59725567097099" lon="10.086814527963035"><ele>190.8</ele><time>2026-04-23T11:11:49.92Z</time></trkpt><trkpt lat="45.597250502326474" lon="10.086914099621254"><ele>191.2</ele><time>2026-04-23T11:11:50.92Z</time></trkpt><trkpt lat="45.59724144085066" lon="10.087092188129652"><ele>191.6</ele><time>2026-04-23T11:11:52.92Z</time></trkpt><trkpt lat="45.597240623780905" lon="10.087278808544257"><ele>192.0</ele><time>2026-04-23T11:11:54.92Z</time></trkpt><trkpt lat="45.5972420696145" lon="10.087370997470762"><ele>191.8</ele><time>2026-04-23T11:11:55.92Z</time></trkpt><trkpt lat="45.5972516060089" lon="10.087550092598388"><ele>191.6</ele><time>2026-04-23T11:11:57.92Z</time></trkpt><trkpt lat="45.59728199972379" lon="10.087747925781665"><ele>191.4</ele><time>2026-04-23T11:11:59.92Z</time></trkpt><trkpt lat="45.597286028995505" lon="10.087841012539807"><ele>191.20000000000002</ele><time>2026-04-23T11:12:00.92Z</time></trkpt><trkpt lat="45.597300834172955" lon="10.08794558998479"><ele>191.0</ele><time>2026-04-23T11:12:01.92Z</time></trkpt><trkpt lat="45.59730305739821" lon="10.088040761104326"><ele>191.0</ele><time>2026-04-23T11:12:02.92Z</time></trkpt><trkpt lat="45.597312017519386" lon="10.088129856370452"><ele>191.0</ele><time>2026-04-23T11:12:04.92Z</time></trkpt><trkpt lat="45.59734812541227" lon="10.088212619743443"><ele>191.0</ele><time>2026-04-23T11:12:06.92Z</time></trkpt><trkpt lat="45.597409561528984" lon="10.088322175878911"><ele>191.0</ele><time>2026-04-23T11:12:09.92Z</time></trkpt><trkpt lat="45.59747407082064" lon="10.088343081345862"><ele>191.0</ele><time>2026-04-23T11:12:12.92Z</time></trkpt><trkpt lat="45.597528535633366" lon="10.088421240762425"><ele>191.0</ele><time>2026-04-23T11:12:14.92Z</time></trkpt><trkpt lat="45.5975967493413" lon="10.088485292424432"><ele>190.60000000000002</ele><time>2026-04-23T11:12:16.92Z</time></trkpt><trkpt lat="45.59768296108002" lon="10.088579945000621"><ele>190.2</ele><time>2026-04-23T11:12:18.92Z</time></trkpt><trkpt lat="45.59776842472922" lon="10.088662121984969"><ele>189.8</ele><time>2026-04-23T11:12:20.92Z</time></trkpt><trkpt lat="45.597848715580646" lon="10.088746777811984"><ele>189.39999999999998</ele><time>2026-04-23T11:12:22.92Z</time></trkpt><trkpt lat="45.597948939328276" lon="10.08881676480587"><ele>189.0</ele><time>2026-04-23T11:12:24.92Z</time></trkpt><trkpt lat="45.598023861137776" lon="10.088889945078156"><ele>188.79999999999998</ele><time>2026-04-23T11:12:26.92Z</time></trkpt><trkpt lat="45.598108488768304" lon="10.0889632625009"><ele>188.6</ele><time>2026-04-23T11:12:28.915Z</time></trkpt><trkpt lat="45.59817797368145" lon="10.089026505472672"><ele>188.4</ele><time>2026-04-23T11:12:30.916Z</time></trkpt><trkpt lat="45.59825385849438" lon="10.089107282973194"><ele>188.2</ele><time>2026-04-23T11:12:32.915Z</time></trkpt><trkpt lat="45.598327678250655" lon="10.089155594512928"><ele>188.0</ele><time>2026-04-23T11:12:34.915Z</time></trkpt><trkpt lat="45.59843152355791" lon="10.089132085914464"><ele>188.0</ele><time>2026-04-23T11:12:36.915Z</time></trkpt><trkpt lat="45.59851715789724" lon="10.089099300729428"><ele>188.0</ele><time>2026-04-23T11:12:38.915Z</time></trkpt><trkpt lat="45.598582657405295" lon="10.089079881637051"><ele>188.0</ele><time>2026-04-23T11:12:40.915Z</time></trkpt><trkpt lat="45.598653294783624" lon="10.089070324730857"><ele>188.0</ele><time>2026-04-23T11:12:42.914Z</time></trkpt><trkpt lat="45.598723068227635" lon="10.089063362094366"><ele>188.0</ele><time>2026-04-23T11:12:44.914Z</time></trkpt><trkpt lat="45.598791866616956" lon="10.089063115696423"><ele>188.0</ele><time>2026-04-23T11:12:46.914Z</time></trkpt><trkpt lat="45.598858814719016" lon="10.089050367742296"><ele>188.0</ele><time>2026-04-23T11:12:48.914Z</time></trkpt><trkpt lat="45.5989258025167" lon="10.089043611079486"><ele>188.66666666666666</ele><time>2026-04-23T11:12:50.914Z</time></trkpt><trkpt lat="45.59899412548922" lon="10.089036390285019"><ele>189.33333333333331</ele><time>2026-04-23T11:12:52.914Z</time></trkpt><trkpt lat="45.599087815737214" lon="10.089050068191298"><ele>190.0</ele><time>2026-04-23T11:12:55.914Z</time></trkpt><trkpt lat="45.5991598215713" lon="10.089064264669151"><ele>190.66666666666666</ele><time>2026-04-23T11:12:57.914Z</time></trkpt><trkpt lat="45.59925647940636" lon="10.089087053726782"><ele>191.33333333333334</ele><time>2026-04-23T11:13:00.914Z</time></trkpt><trkpt lat="45.599320049096264" lon="10.089103939880683"><ele>192.0</ele><time>2026-04-23T11:13:02.914Z</time></trkpt><trkpt lat="45.59938455498966" lon="10.089130901300532"><ele>192.0</ele><time>2026-04-23T11:13:04.914Z</time></trkpt><trkpt lat="45.59947187775231" lon="10.089187019724514"><ele>192.0</ele><time>2026-04-23T11:13:07.914Z</time></trkpt><trkpt lat="45.59955642106987" lon="10.089252545013474"><ele>192.0</ele><time>2026-04-23T11:13:10.914Z</time></trkpt><trkpt lat="45.59962603965955" lon="10.089322397016764"><ele>192.0</ele><time>2026-04-23T11:13:13.914Z</time></trkpt><trkpt lat="45.59967533148463" lon="10.089378677688778"><ele>192.0</ele><time>2026-04-23T11:13:15.914Z</time></trkpt><trkpt lat="45.59972451899246" lon="10.08944712451547"><ele>192.0</ele><time>2026-04-23T11:13:17.914Z</time></trkpt><trkpt lat="45.59977330334734" lon="10.089540431050894"><ele>192.0</ele><time>2026-04-23T11:13:20.914Z</time></trkpt><trkpt lat="45.59982881073921" lon="10.089610038202274"><ele>192.0</ele><time>2026-04-23T11:13:22.914Z</time></trkpt><trkpt lat="45.599871509783206" lon="10.089686898138273"><ele>192.0</ele><time>2026-04-23T11:13:24.914Z</time></trkpt><trkpt lat="45.599929650546024" lon="10.089759154146721"><ele>192.0</ele><time>2026-04-23T11:13:26.914Z</time></trkpt><trkpt lat="45.59997827834427" lon="10.089829339492479"><ele>192.0</ele><time>2026-04-23T11:13:28.914Z</time></trkpt><trkpt lat="45.600024390245885" lon="10.089913145076128"><ele>192.0</ele><time>2026-04-23T11:13:30.914Z</time></trkpt><trkpt lat="45.600081155485405" lon="10.090010925514646"><ele>191.99999999999997</ele><time>2026-04-23T11:13:32.914Z</time></trkpt><trkpt lat="45.600126788774055" lon="10.090127234139723"><ele>192.0</ele><time>2026-04-23T11:13:34.914Z</time></trkpt><trkpt lat="45.60016215950912" lon="10.090206125429399"><ele>192.0</ele><time>2026-04-23T11:13:35.914Z</time></trkpt><trkpt lat="45.60019225531292" lon="10.090295150900157"><ele>192.0</ele><time>2026-04-23T11:13:36.914Z</time></trkpt><trkpt lat="45.60021919542909" lon="10.090376483127542"><ele>192.0</ele><time>2026-04-23T11:13:37.915Z</time></trkpt><trkpt lat="45.60024744023627" lon="10.090466413990132"><ele>191.99999999999997</ele><time>2026-04-23T11:13:38.915Z</time></trkpt><trkpt lat="45.60027477940792" lon="10.090560924937778"><ele>192.0</ele><time>2026-04-23T11:13:39.915Z</time></trkpt><trkpt lat="45.60029228307597" lon="10.090648033779122"><ele>192.0</ele><time>2026-04-23T11:13:40.915Z</time></trkpt><trkpt lat="45.60031140062166" lon="10.090746612063208"><ele>192.0</ele><time>2026-04-23T11:13:41.915Z</time></trkpt><trkpt lat="45.6003275166271" lon="10.090854957562845"><ele>192.0</ele><time>2026-04-23T11:13:42.915Z</time></trkpt><trkpt lat="45.600359846766914" lon="10.090973183429002"><ele>192.0</ele><time>2026-04-23T11:13:43.915Z</time></trkpt><trkpt lat="45.60038608186092" lon="10.091090192011709"><ele>192.0</ele><time>2026-04-23T11:13:44.915Z</time></trkpt><trkpt lat="45.60041917934182" lon="10.091211360477796"><ele>192.0</ele><time>2026-04-23T11:13:45.915Z</time></trkpt><trkpt lat="45.600444373749255" lon="10.091345026787161"><ele>192.0</ele><time>2026-04-23T11:13:46.915Z</time></trkpt><trkpt lat="45.60046818647567" lon="10.091468473857537"><ele>192.0</ele><time>2026-04-23T11:13:47.915Z</time></trkpt><trkpt lat="45.60049765687173" lon="10.091585271049093"><ele>192.0</ele><time>2026-04-23T11:13:48.915Z</time></trkpt><trkpt lat="45.60052840451082" lon="10.091700640407893"><ele>192.0</ele><time>2026-04-23T11:13:49.915Z</time></trkpt><trkpt lat="45.60056557894766" lon="10.091806993872718"><ele>192.0</ele><time>2026-04-23T11:13:50.915Z</time></trkpt><trkpt lat="45.600613294325996" lon="10.09190431010127"><ele>192.0</ele><time>2026-04-23T11:13:51.915Z</time></trkpt><trkpt lat="45.60067155539408" lon="10.091992606117989"><ele>191.99999999999997</ele><time>2026-04-23T11:13:52.915Z</time></trkpt><trkpt lat="45.600736022303934" lon="10.0920588458238"><ele>192.0</ele><time>2026-04-23T11:13:53.915Z</time></trkpt><trkpt lat="45.60080275918924" lon="10.09211443973997"><ele>192.0</ele><time>2026-04-23T11:13:54.915Z</time></trkpt><trkpt lat="45.60086645417605" lon="10.092164402984867"><ele>192.0</ele><time>2026-04-23T11:13:55.915Z</time></trkpt><trkpt lat="45.60093410689226" lon="10.092213191908739"><ele>192.0</ele><time>2026-04-23T11:13:56.915Z</time></trkpt><trkpt lat="45.60099574754522" lon="10.092253426737438"><ele>191.99999999999997</ele><time>2026-04-23T11:13:57.915Z</time></trkpt><trkpt lat="45.60105526412492" lon="10.092292494828953"><ele>192.0</ele><time>2026-04-23T11:13:58.915Z</time></trkpt><trkpt lat="45.60111177748888" lon="10.092334987153532"><ele>191.6</ele><time>2026-04-23T11:13:59.915Z</time></trkpt><trkpt lat="45.601219683725766" lon="10.092412603316165"><ele>191.2</ele><time>2026-04-23T11:14:01.915Z</time></trkpt><trkpt lat="45.60132032690462" lon="10.09248301447741"><ele>190.8</ele><time>2026-04-23T11:14:03.915Z</time></trkpt><trkpt lat="45.60140852500152" lon="10.092546150576265"><ele>190.4</ele><time>2026-04-23T11:14:05.915Z</time></trkpt><trkpt lat="45.60150073883505" lon="10.092607920722456"><ele>190.0</ele><time>2026-04-23T11:14:07.915Z</time></trkpt><trkpt lat="45.60159500216396" lon="10.092678178574912"><ele>190.0</ele><time>2026-04-23T11:14:09.915Z</time></trkpt><trkpt lat="45.60168731380002" lon="10.092740271820169"><ele>190.0</ele><time>2026-04-23T11:14:11.915Z</time></trkpt><trkpt lat="45.601772812445695" lon="10.092803213073571"><ele>190.0</ele><time>2026-04-23T11:14:13.915Z</time></trkpt><trkpt lat="45.60185800994233" lon="10.09286072717403"><ele>190.0</ele><time>2026-04-23T11:14:15.915Z</time></trkpt><trkpt lat="45.60195601188793" lon="10.092917409887754"><ele>190.0</ele><time>2026-04-23T11:14:17.915Z</time></trkpt><trkpt lat="45.60203052101539" lon="10.092946297790036"><ele>190.0</ele><time>2026-04-23T11:14:19.915Z</time></trkpt><trkpt lat="45.6020306396911" lon="10.092836785249695"><ele>190.0</ele><time>2026-04-23T11:14:23.915Z</time></trkpt><trkpt lat="45.602052952280076" lon="10.0927219974444"><ele>190.0</ele><time>2026-04-23T11:14:27.915Z</time></trkpt><trkpt lat="45.60207818786784" lon="10.092638644509789"><ele>190.0</ele><time>2026-04-23T11:14:29.915Z</time></trkpt><trkpt lat="45.60210683371007" lon="10.09254071086014"><ele>190.0</ele><time>2026-04-23T11:14:31.915Z</time></trkpt><trkpt lat="45.602122382248474" lon="10.092447334425295"><ele>190.0</ele><time>2026-04-23T11:14:33.915Z</time></trkpt><trkpt lat="45.602127883000584" lon="10.092341999408049"><ele>190.0</ele><time>2026-04-23T11:14:36.911Z</time></trkpt><trkpt lat="45.60217508939214" lon="10.092263175788856"><ele>190.16666666666669</ele><time>2026-04-23T11:14:38.91Z</time></trkpt><trkpt lat="45.60221886633308" lon="10.092161230638794"><ele>190.33333333333334</ele><time>2026-04-23T11:14:40.911Z</time></trkpt><trkpt lat="45.602262612998295" lon="10.092087638705241"><ele>190.5</ele><time>2026-04-23T11:14:42.911Z</time></trkpt><trkpt lat="45.60233361658686" lon="10.092005988584752"><ele>190.66666666666666</ele><time>2026-04-23T11:14:45.911Z</time></trkpt><trkpt lat="45.60239160043616" lon="10.091916101309586"><ele>190.83333333333331</ele><time>2026-04-23T11:14:47.91Z</time></trkpt><trkpt lat="45.602440227891954" lon="10.091806333553235"><ele>191.0</ele><time>2026-04-23T11:14:49.91Z</time></trkpt><trkpt lat="45.60247659292313" lon="10.091727476575814"><ele>191.0</ele><time>2026-04-23T11:14:51.91Z</time></trkpt><trkpt lat="45.602512154193526" lon="10.09164248684996"><ele>191.0</ele><time>2026-04-23T11:14:53.91Z</time></trkpt><trkpt lat="45.602543348332674" lon="10.091532101715824"><ele>191.0</ele><time>2026-04-23T11:14:56.91Z</time></trkpt><trkpt lat="45.60257648757439" lon="10.091441687510985"><ele>191.0</ele><time>2026-04-23T11:14:58.91Z</time></trkpt><trkpt lat="45.6026064526018" lon="10.091348345792849"><ele>191.0</ele><time>2026-04-23T11:15:01.91Z</time></trkpt><trkpt lat="45.60263989328852" lon="10.09123539057046"><ele>191.0</ele><time>2026-04-23T11:15:04.911Z</time></trkpt><trkpt lat="45.602667154292355" lon="10.091141536099801"><ele>191.33333333333331</ele><time>2026-04-23T11:15:06.911Z</time></trkpt><trkpt lat="45.602706411005606" lon="10.090998383907204"><ele>191.66666666666666</ele><time>2026-04-23T11:15:10.911Z</time></trkpt><trkpt lat="45.60273676924623" lon="10.090902474835392"><ele>192.0</ele><time>2026-04-23T11:15:12.911Z</time></trkpt><trkpt lat="45.60276682070456" lon="10.090782743196554"><ele>192.33333333333331</ele><time>2026-04-23T11:15:15.911Z</time></trkpt><trkpt lat="45.602802531053555" lon="10.090673722087855"><ele>192.66666666666666</ele><time>2026-04-23T11:15:17.911Z</time></trkpt><trkpt lat="45.602832027337115" lon="10.090592358513268"><ele>193.0</ele><time>2026-04-23T11:15:19.911Z</time></trkpt><trkpt lat="45.602865773450645" lon="10.09050272010642"><ele>193.33333333333331</ele><time>2026-04-23T11:15:21.911Z</time></trkpt><trkpt lat="45.60289892060199" lon="10.090416465506927"><ele>193.66666666666666</ele><time>2026-04-23T11:15:23.911Z</time></trkpt><trkpt lat="45.60293921395527" lon="10.090271425471835"><ele>194.0</ele><time>2026-04-23T11:15:26.911Z</time></trkpt><trkpt lat="45.60298269996473" lon="10.090161052204651"><ele>194.33333333333331</ele><time>2026-04-23T11:15:28.911Z</time></trkpt><trkpt lat="45.603015594946704" lon="10.090074351980903"><ele>194.66666666666666</ele><time>2026-04-23T11:15:30.911Z</time></trkpt><trkpt lat="45.6030407317929" lon="10.089987129844584"><ele>195.0</ele><time>2026-04-23T11:15:32.911Z</time></trkpt><trkpt lat="45.60306583640766" lon="10.0898999323304"><ele>195.0</ele><time>2026-04-23T11:15:34.911Z</time></trkpt><trkpt lat="45.603100870713206" lon="10.089770441038175"><ele>195.0</ele><time>2026-04-23T11:15:36.911Z</time></trkpt><trkpt lat="45.6031296698095" lon="10.08966931141726"><ele>195.0</ele><time>2026-04-23T11:15:38.911Z</time></trkpt><trkpt lat="45.60315984713815" lon="10.089540742434778"><ele>195.0</ele><time>2026-04-23T11:15:40.911Z</time></trkpt><trkpt lat="45.60317919919824" lon="10.089433028223917"><ele>195.0</ele><time>2026-04-23T11:15:42.911Z</time></trkpt><trkpt lat="45.603200972718554" lon="10.089340458985019"><ele>195.0</ele><time>2026-04-23T11:15:44.911Z</time></trkpt><trkpt lat="45.603225769524855" lon="10.089242829153092"><ele>195.0</ele><time>2026-04-23T11:15:46.911Z</time></trkpt><trkpt lat="45.60324560339684" lon="10.089155208267723"><ele>195.0</ele><time>2026-04-23T11:15:48.911Z</time></trkpt><trkpt lat="45.603264933316986" lon="10.08903919976359"><ele>195.0</ele><time>2026-04-23T11:15:51.911Z</time></trkpt><trkpt lat="45.60329026256799" lon="10.08893393349587"><ele>195.0</ele><time>2026-04-23T11:15:53.911Z</time></trkpt><trkpt lat="45.60331594788621" lon="10.088807489490911"><ele>195.0</ele><time>2026-04-23T11:15:55.911Z</time></trkpt><trkpt lat="45.6033375455601" lon="10.088701074958516"><ele>195.0</ele><time>2026-04-23T11:15:57.911Z</time></trkpt><trkpt lat="45.603364186760565" lon="10.088581086119076"><ele>195.16666666666666</ele><time>2026-04-23T11:15:59.911Z</time></trkpt><trkpt lat="45.603389180531515" lon="10.088475965560185"><ele>195.33333333333331</ele><time>2026-04-23T11:16:01.911Z</time></trkpt><trkpt lat="45.60341357864413" lon="10.088352665825745"><ele>195.5</ele><time>2026-04-23T11:16:03.911Z</time></trkpt><trkpt lat="45.603442531415155" lon="10.088233816575702"><ele>195.66666666666666</ele><time>2026-04-23T11:16:05.911Z</time></trkpt><trkpt lat="45.60347016039156" lon="10.0881159249342"><ele>195.83333333333331</ele><time>2026-04-23T11:16:07.911Z</time></trkpt><trkpt lat="45.60350692498891" lon="10.08798309050668"><ele>196.0</ele><time>2026-04-23T11:16:09.911Z</time></trkpt><trkpt lat="45.60353930815708" lon="10.087871766403916"><ele>196.16666666666666</ele><time>2026-04-23T11:16:11.911Z</time></trkpt><trkpt lat="45.603565134369376" lon="10.087776169155376"><ele>196.33333333333331</ele><time>2026-04-23T11:16:14.911Z</time></trkpt><trkpt lat="45.60359094788511" lon="10.0876612964106"><ele>196.5</ele><time>2026-04-23T11:16:17.911Z</time></trkpt><trkpt lat="45.60360936557874" lon="10.087555015745094"><ele>196.66666666666669</ele><time>2026-04-23T11:16:20.911Z</time></trkpt><trkpt lat="45.6036243663385" lon="10.087439826499562"><ele>196.83333333333334</ele><time>2026-04-23T11:16:24.911Z</time></trkpt><trkpt lat="45.60363516370915" lon="10.087350655320288"><ele>197.0</ele><time>2026-04-23T11:16:26.911Z</time></trkpt><trkpt lat="45.603649771978816" lon="10.08722512851459"><ele>197.33333333333334</ele><time>2026-04-23T11:16:29.911Z</time></trkpt><trkpt lat="45.60367034686324" lon="10.087117948888014"><ele>197.66666666666669</ele><time>2026-04-23T11:16:32.911Z</time></trkpt><trkpt lat="45.60368932464385" lon="10.086984576973657"><ele>198.0</ele><time>2026-04-23T11:16:35.911Z</time></trkpt><trkpt lat="45.60370173841518" lon="10.086888921005759"><ele>198.33333333333331</ele><time>2026-04-23T11:16:37.911Z</time></trkpt><trkpt lat="45.60371309413812" lon="10.086774280478641"><ele>198.66666666666666</ele><time>2026-04-23T11:16:39.911Z</time></trkpt><trkpt lat="45.60372456416291" lon="10.086672477191621"><ele>199.0</ele><time>2026-04-23T11:16:41.906Z</time></trkpt><trkpt lat="45.6037289374536" lon="10.086530729366663"><ele>198.99999999999997</ele><time>2026-04-23T11:16:43.906Z</time></trkpt><trkpt lat="45.60377345478492" lon="10.086410409397713"><ele>199.0</ele><time>2026-04-23T11:16:45.906Z</time></trkpt><trkpt lat="45.6038479862704" lon="10.086382448822487"><ele>199.0</ele><time>2026-04-23T11:16:48.906Z</time></trkpt><trkpt lat="45.60393147487597" lon="10.086349077454056"><ele>199.0</ele><time>2026-04-23T11:16:50.906Z</time></trkpt><trkpt lat="45.604004708848876" lon="10.086348814537056"><ele>198.99999999999997</ele><time>2026-04-23T11:16:52.905Z</time></trkpt><trkpt lat="45.60408388757758" lon="10.086324507920198"><ele>199.0</ele><time>2026-04-23T11:16:54.906Z</time></trkpt><trkpt lat="45.60416304155543" lon="10.086332391870194"><ele>198.99999999999997</ele><time>2026-04-23T11:16:56.906Z</time></trkpt><trkpt lat="45.604251934108575" lon="10.086359228120767"><ele>199.0</ele><time>2026-04-23T11:16:58.906Z</time></trkpt><trkpt lat="45.604334169013114" lon="10.086390932947113"><ele>199.0</ele><time>2026-04-23T11:17:00.906Z</time></trkpt><trkpt lat="45.60441075720673" lon="10.086422811025928"><ele>199.0</ele><time>2026-04-23T11:17:02.906Z</time></trkpt><trkpt lat="45.60449702622714" lon="10.08647674742706"><ele>198.99999999999997</ele><time>2026-04-23T11:17:04.906Z</time></trkpt><trkpt lat="45.604586475741904" lon="10.086528938645722"><ele>199.0</ele><time>2026-04-23T11:17:06.906Z</time></trkpt><trkpt lat="45.60467962595777" lon="10.08656819004983"><ele>199.33333333333331</ele><time>2026-04-23T11:17:08.906Z</time></trkpt><trkpt lat="45.60475871847037" lon="10.086545824943041"><ele>199.66666666666666</ele><time>2026-04-23T11:17:10.906Z</time></trkpt><trkpt lat="45.604825587118654" lon="10.086577529643337"><ele>200.0</ele><time>2026-04-23T11:17:12.906Z</time></trkpt><trkpt lat="45.60490933128704" lon="10.086592675500736"><ele>200.33333333333331</ele><time>2026-04-23T11:17:15.906Z</time></trkpt><trkpt lat="45.604989841343496" lon="10.086559616261423"><ele>200.66666666666666</ele><time>2026-04-23T11:17:18.906Z</time></trkpt><trkpt lat="45.605036269461934" lon="10.086473973640047"><ele>201.0</ele><time>2026-04-23T11:17:23.906Z</time></trkpt><trkpt lat="45.605095352100356" lon="10.086399446625567"><ele>201.0</ele><time>2026-04-23T11:17:25.906Z</time></trkpt><trkpt lat="45.60514453198636" lon="10.086329401215588"><ele>201.0</ele><time>2026-04-23T11:17:27.906Z</time></trkpt><trkpt lat="45.60520537600636" lon="10.086279145201823"><ele>201.0</ele><time>2026-04-23T11:17:29.906Z</time></trkpt><trkpt lat="45.60528658237131" lon="10.086217309981238"><ele>201.0</ele><time>2026-04-23T11:17:31.906Z</time></trkpt><trkpt lat="45.60535938014484" lon="10.086152703554312"><ele>201.0</ele><time>2026-04-23T11:17:33.906Z</time></trkpt><trkpt lat="45.6054301836724" lon="10.086106366922587"><ele>201.0</ele><time>2026-04-23T11:17:35.906Z</time></trkpt><trkpt lat="45.605495901385275" lon="10.086062983433882"><ele>201.33333333333334</ele><time>2026-04-23T11:17:37.906Z</time></trkpt><trkpt lat="45.60556825405683" lon="10.08598356934928"><ele>201.66666666666669</ele><time>2026-04-23T11:17:39.906Z</time></trkpt><trkpt lat="45.605640461626166" lon="10.08592060415157"><ele>202.0</ele><time>2026-04-23T11:17:41.906Z</time></trkpt><trkpt lat="45.60570947024838" lon="10.085855105073735"><ele>202.33333333333334</ele><time>2026-04-23T11:17:43.906Z</time></trkpt><trkpt lat="45.6057737790719" lon="10.085793801746192"><ele>202.66666666666669</ele><time>2026-04-23T11:17:45.906Z</time></trkpt><trkpt lat="45.60585376312971" lon="10.085721768350906"><ele>203.0</ele><time>2026-04-23T11:17:47.906Z</time></trkpt><trkpt lat="45.6059250736502" lon="10.085663474014698"><ele>203.00000000000003</ele><time>2026-04-23T11:17:49.906Z</time></trkpt><trkpt lat="45.605986396481335" lon="10.085608937767567"><ele>203.0</ele><time>2026-04-23T11:17:51.906Z</time></trkpt><trkpt lat="45.606050020894855" lon="10.085544137562445"><ele>203.0</ele><time>2026-04-23T11:17:53.906Z</time></trkpt><trkpt lat="45.60612757987192" lon="10.085467910632865"><ele>203.0</ele><time>2026-04-23T11:17:56.906Z</time></trkpt><trkpt lat="45.60618855364382" lon="10.085402650064113"><ele>203.00000000000003</ele><time>2026-04-23T11:17:58.906Z</time></trkpt><trkpt lat="45.60624679921416" lon="10.085333456895556"><ele>203.0</ele><time>2026-04-23T11:18:01.906Z</time></trkpt><trkpt lat="45.60630220120186" lon="10.085256486467669"><ele>203.0</ele><time>2026-04-23T11:18:03.906Z</time></trkpt><trkpt lat="45.60636187759951" lon="10.085196400442129"><ele>203.0</ele><time>2026-04-23T11:18:07.906Z</time></trkpt><trkpt lat="45.60641818606338" lon="10.085129030360012"><ele>203.0</ele><time>2026-04-23T11:18:10.906Z</time></trkpt><trkpt lat="45.60645777950492" lon="10.085042676931437"><ele>203.0</ele><time>2026-04-23T11:18:13.906Z</time></trkpt><trkpt lat="45.60653242836731" lon="10.085012219780728"><ele>203.0</ele><time>2026-04-23T11:18:16.906Z</time></trkpt><trkpt lat="45.606574862888465" lon="10.08493163421264"><ele>203.0</ele><time>2026-04-23T11:18:19.906Z</time></trkpt><trkpt lat="45.606633355471274" lon="10.084864281152095"><ele>203.0</ele><time>2026-04-23T11:18:22.906Z</time></trkpt><trkpt lat="45.606677969616726" lon="10.084785624466518"><ele>203.00000000000003</ele><time>2026-04-23T11:18:24.906Z</time></trkpt><trkpt lat="45.60671987183403" lon="10.084706522632908"><ele>203.0</ele><time>2026-04-23T11:18:26.906Z</time></trkpt><trkpt lat="45.606766747693165" lon="10.084616535452662"><ele>203.0</ele><time>2026-04-23T11:18:28.906Z</time></trkpt><trkpt lat="45.60681486974467" lon="10.08451454640864"><ele>203.0</ele><time>2026-04-23T11:18:30.906Z</time></trkpt><trkpt lat="45.60684815625895" lon="10.084418824538096"><ele>203.00000000000003</ele><time>2026-04-23T11:18:32.906Z</time></trkpt><trkpt lat="45.606890492478044" lon="10.08433552428877"><ele>203.0</ele><time>2026-04-23T11:18:34.906Z</time></trkpt><trkpt lat="45.60694151866781" lon="10.08425509386226"><ele>203.0</ele><time>2026-04-23T11:18:36.906Z</time></trkpt><trkpt lat="45.60698874053225" lon="10.084164446492576"><ele>203.0</ele><time>2026-04-23T11:18:38.906Z</time></trkpt><trkpt lat="45.607092981792576" lon="10.084060952925503"><ele>203.0</ele><time>2026-04-23T11:18:41.906Z</time></trkpt><trkpt lat="45.607190595507376" lon="10.083977574189777"><ele>203.0</ele><time>2026-04-23T11:18:43.906Z</time></trkpt><trkpt lat="45.60727077258537" lon="10.083883170349429"><ele>203.0</ele><time>2026-04-23T11:18:45.906Z</time></trkpt><trkpt lat="45.607340417157225" lon="10.08379415363113"><ele>203.50000000000003</ele><time>2026-04-23T11:18:47.902Z</time></trkpt><trkpt lat="45.607426110680464" lon="10.083719377835239"><ele>204.0</ele><time>2026-04-23T11:18:49.902Z</time></trkpt><trkpt lat="45.607495189377815" lon="10.083688446329223"><ele>204.5</ele><time>2026-04-23T11:18:51.902Z</time></trkpt><trkpt lat="45.6075888529145" lon="10.083677910835611"><ele>205.0</ele><time>2026-04-23T11:18:53.902Z</time></trkpt><trkpt lat="45.60768349211989" lon="10.08364379491405"><ele>205.50000000000003</ele><time>2026-04-23T11:18:55.902Z</time></trkpt><trkpt lat="45.60776243923499" lon="10.08362502226425"><ele>206.0</ele><time>2026-04-23T11:18:57.902Z</time></trkpt><trkpt lat="45.60783259256312" lon="10.08361169180598"><ele>206.33333333333334</ele><time>2026-04-23T11:18:59.901Z</time></trkpt><trkpt lat="45.60791619386789" lon="10.083604776480732"><ele>206.66666666666669</ele><time>2026-04-23T11:19:01.901Z</time></trkpt><trkpt lat="45.607980154162526" lon="10.083596162352313"><ele>207.0</ele><time>2026-04-23T11:19:03.901Z</time></trkpt><trkpt lat="45.608047112439664" lon="10.083611658690298"><ele>207.33333333333331</ele><time>2026-04-23T11:19:05.901Z</time></trkpt><trkpt lat="45.608131924808816" lon="10.083623350227857"><ele>207.66666666666666</ele><time>2026-04-23T11:19:07.901Z</time></trkpt><trkpt lat="45.60820692295407" lon="10.083620565294618"><ele>208.0</ele><time>2026-04-23T11:19:09.901Z</time></trkpt><trkpt lat="45.60828169971635" lon="10.083620115604052"><ele>207.99999999999997</ele><time>2026-04-23T11:19:11.901Z</time></trkpt><trkpt lat="45.60835778808447" lon="10.083608508563481"><ele>208.0</ele><time>2026-04-23T11:19:13.901Z</time></trkpt><trkpt lat="45.6084244129725" lon="10.083532301491587"><ele>208.0</ele><time>2026-04-23T11:19:16.901Z</time></trkpt><trkpt lat="45.60850019032246" lon="10.083493399154714"><ele>208.0</ele><time>2026-04-23T11:19:18.901Z</time></trkpt><trkpt lat="45.608569017680246" lon="10.083462100428527"><ele>207.99999999999997</ele><time>2026-04-23T11:19:21.901Z</time></trkpt><trkpt lat="45.608641156792615" lon="10.083404164448002"><ele>208.0</ele><time>2026-04-23T11:19:23.901Z</time></trkpt><trkpt lat="45.608721076702075" lon="10.083343550114598"><ele>208.66666666666666</ele><time>2026-04-23T11:19:26.901Z</time></trkpt><trkpt lat="45.60878993680655" lon="10.08333591733247"><ele>209.33333333333331</ele><time>2026-04-23T11:19:28.901Z</time></trkpt><trkpt lat="45.60888899375194" lon="10.083353353171743"><ele>210.0</ele><time>2026-04-23T11:19:30.901Z</time></trkpt><trkpt lat="45.60897366841422" lon="10.083338069326725"><ele>210.66666666666669</ele><time>2026-04-23T11:19:32.901Z</time></trkpt><trkpt lat="45.60905050320971" lon="10.083367367349348"><ele>211.33333333333334</ele><time>2026-04-23T11:19:35.901Z</time></trkpt><trkpt lat="45.60912431552402" lon="10.083401327167941"><ele>212.0</ele><time>2026-04-23T11:19:37.901Z</time></trkpt><trkpt lat="45.60918757768023" lon="10.083436503691509"><ele>212.00000000000003</ele><time>2026-04-23T11:19:39.901Z</time></trkpt><trkpt lat="45.609252127291754" lon="10.08349757711711"><ele>212.0</ele><time>2026-04-23T11:19:41.901Z</time></trkpt><trkpt lat="45.60931196151462" lon="10.08353901275722"><ele>212.0</ele><time>2026-04-23T11:19:43.901Z</time></trkpt><trkpt lat="45.609376420900446" lon="10.0836100860887"><ele>212.0</ele><time>2026-04-23T11:19:46.901Z</time></trkpt><trkpt lat="45.60945158250819" lon="10.083572445318984"><ele>212.00000000000003</ele><time>2026-04-23T11:19:51.901Z</time></trkpt><trkpt lat="45.609517411135876" lon="10.083508050161205"><ele>212.0</ele><time>2026-04-23T11:19:53.901Z</time></trkpt><trkpt lat="45.60959524373894" lon="10.08345428972517"><ele>212.16666666666669</ele><time>2026-04-23T11:19:55.901Z</time></trkpt><trkpt lat="45.60964781709036" lon="10.083400251476686"><ele>212.33333333333334</ele><time>2026-04-23T11:19:57.901Z</time></trkpt><trkpt lat="45.60972010075353" lon="10.083350712171054"><ele>212.5</ele><time>2026-04-23T11:20:00.901Z</time></trkpt><trkpt lat="45.60978185665624" lon="10.08333301861241"><ele>212.66666666666669</ele><time>2026-04-23T11:20:02.901Z</time></trkpt><trkpt lat="45.60988274512876" lon="10.083275457904042"><ele>212.83333333333334</ele><time>2026-04-23T11:20:05.901Z</time></trkpt><trkpt lat="45.60996493482193" lon="10.083256290107308"><ele>213.0</ele><time>2026-04-23T11:20:08.901Z</time></trkpt><trkpt lat="45.610029818211395" lon="10.083213302914826"><ele>213.0</ele><time>2026-04-23T11:20:10.901Z</time></trkpt><trkpt lat="45.61012378092192" lon="10.083145442497942"><ele>213.0</ele><time>2026-04-23T11:20:12.901Z</time></trkpt><trkpt lat="45.61020762352774" lon="10.083068304182953"><ele>213.0</ele><time>2026-04-23T11:20:14.901Z</time></trkpt><trkpt lat="45.61028289253154" lon="10.083001063466497"><ele>213.0</ele><time>2026-04-23T11:20:16.901Z</time></trkpt><trkpt lat="45.61035481750347" lon="10.082928777421573"><ele>213.0</ele><time>2026-04-23T11:20:18.901Z</time></trkpt><trkpt lat="45.610379814823865" lon="10.082805968346399"><ele>213.0</ele><time>2026-04-23T11:20:21.901Z</time></trkpt><trkpt lat="45.6103495695614" lon="10.082709729396111"><ele>213.0</ele><time>2026-04-23T11:20:23.901Z</time></trkpt><trkpt lat="45.610335948099795" lon="10.082585225156425"><ele>213.0</ele><time>2026-04-23T11:20:26.901Z</time></trkpt><trkpt lat="45.610306243088274" lon="10.082462606187518"><ele>213.0</ele><time>2026-04-23T11:20:29.901Z</time></trkpt><trkpt lat="45.61030565508893" lon="10.08234979045882"><ele>213.0</ele><time>2026-04-23T11:20:31.901Z</time></trkpt><trkpt lat="45.61026583660359" lon="10.082228077151614"><ele>213.0</ele><time>2026-04-23T11:20:33.901Z</time></trkpt><trkpt lat="45.61022764502366" lon="10.082112424261773"><ele>212.4</ele><time>2026-04-23T11:20:35.901Z</time></trkpt><trkpt lat="45.61017090772495" lon="10.081993356844963"><ele>211.8</ele><time>2026-04-23T11:20:37.901Z</time></trkpt><trkpt lat="45.610116067129795" lon="10.081857437403304"><ele>211.2</ele><time>2026-04-23T11:20:39.901Z</time></trkpt><trkpt lat="45.610048973006556" lon="10.081735644200082"><ele>210.6</ele><time>2026-04-23T11:20:41.901Z</time></trkpt><trkpt lat="45.610011534929406" lon="10.08161712914332"><ele>210.0</ele><time>2026-04-23T11:20:43.901Z</time></trkpt><trkpt lat="45.609956226469755" lon="10.081499553909836"><ele>210.0</ele><time>2026-04-23T11:20:45.901Z</time></trkpt><trkpt lat="45.609919056009865" lon="10.081389500753014"><ele>210.0</ele><time>2026-04-23T11:20:47.901Z</time></trkpt><trkpt lat="45.60987488470143" lon="10.081265015469338"><ele>210.0</ele><time>2026-04-23T11:20:49.901Z</time></trkpt><trkpt lat="45.6098347120373" lon="10.08114827539281"><ele>210.0</ele><time>2026-04-23T11:20:51.901Z</time></trkpt><trkpt lat="45.6097967535882" lon="10.08103545027609"><ele>210.0</ele><time>2026-04-23T11:20:53.897Z</time></trkpt><trkpt lat="45.60976914950524" lon="10.08094839223908"><ele>210.0</ele><time>2026-04-23T11:20:55.897Z</time></trkpt><trkpt lat="45.60971952251723" lon="10.080820985042635"><ele>210.0</ele><time>2026-04-23T11:20:57.897Z</time></trkpt><trkpt lat="45.609688431075064" lon="10.080717216465448"><ele>210.0</ele><time>2026-04-23T11:20:59.898Z</time></trkpt><trkpt lat="45.60965577791923" lon="10.080613477840927"><ele>210.0</ele><time>2026-04-23T11:21:01.897Z</time></trkpt><trkpt lat="45.60961458708604" lon="10.080514908746366"><ele>210.0</ele><time>2026-04-23T11:21:03.898Z</time></trkpt><trkpt lat="45.60957662356698" lon="10.080439553934696"><ele>210.0</ele><time>2026-04-23T11:21:06.897Z</time></trkpt><trkpt lat="45.60953565859045" lon="10.080334258575856"><ele>210.0</ele><time>2026-04-23T11:21:09.897Z</time></trkpt><trkpt lat="45.60947803725527" lon="10.080260733562564"><ele>210.0</ele><time>2026-04-23T11:21:12.897Z</time></trkpt><trkpt lat="45.60943652868916" lon="10.0801745434488"><ele>210.0</ele><time>2026-04-23T11:21:14.897Z</time></trkpt><trkpt lat="45.609395395796604" lon="10.080076313157873"><ele>210.0</ele><time>2026-04-23T11:21:16.897Z</time></trkpt><trkpt lat="45.60935250125173" lon="10.079954986217722"><ele>210.0</ele><time>2026-04-23T11:21:18.897Z</time></trkpt><trkpt lat="45.60931090534042" lon="10.079859832625798"><ele>210.0</ele><time>2026-04-23T11:21:20.897Z</time></trkpt><trkpt lat="45.60927402710692" lon="10.079756556712752"><ele>210.0</ele><time>2026-04-23T11:21:22.897Z</time></trkpt><trkpt lat="45.60924558662725" lon="10.079641475924012"><ele>210.0</ele><time>2026-04-23T11:21:24.897Z</time></trkpt><trkpt lat="45.60921015248007" lon="10.079560502282185"><ele>210.0</ele><time>2026-04-23T11:21:26.897Z</time></trkpt><trkpt lat="45.60917873546313" lon="10.079479455637763"><ele>210.0</ele><time>2026-04-23T11:21:28.897Z</time></trkpt><trkpt lat="45.60914188411454" lon="10.079392164850077"><ele>210.0</ele><time>2026-04-23T11:21:30.897Z</time></trkpt><trkpt lat="45.609098535572066" lon="10.079302033603362"><ele>210.0</ele><time>2026-04-23T11:21:32.897Z</time></trkpt><trkpt lat="45.6090404545677" lon="10.079199476749686"><ele>210.0</ele><time>2026-04-23T11:21:34.897Z</time></trkpt><trkpt lat="45.60897098575919" lon="10.079046807149165"><ele>210.33333333333334</ele><time>2026-04-23T11:21:36.897Z</time></trkpt><trkpt lat="45.60889025180521" lon="10.078912651087748"><ele>210.66666666666669</ele><time>2026-04-23T11:21:38.897Z</time></trkpt><trkpt lat="45.608841269706296" lon="10.078849237643666"><ele>211.0</ele><time>2026-04-23T11:21:39.897Z</time></trkpt><trkpt lat="45.608783468580896" lon="10.078788518848107"><ele>211.33333333333334</ele><time>2026-04-23T11:21:40.897Z</time></trkpt><trkpt lat="45.6087250424781" lon="10.07873736403187"><ele>211.66666666666669</ele><time>2026-04-23T11:21:41.897Z</time></trkpt><trkpt lat="45.60866139660835" lon="10.078682904302987"><ele>212.0</ele><time>2026-04-23T11:21:42.897Z</time></trkpt><trkpt lat="45.60859778734839" lon="10.078643078111364"><ele>211.42857142857144</ele><time>2026-04-23T11:21:43.897Z</time></trkpt><trkpt lat="45.608534180015795" lon="10.078601904656523"><ele>210.85714285714283</ele><time>2026-04-23T11:21:44.897Z</time></trkpt><trkpt lat="45.60847371914011" lon="10.078573592129253"><ele>210.28571428571428</ele><time>2026-04-23T11:21:45.897Z</time></trkpt><trkpt lat="45.60839858289956" lon="10.078539605012416"><ele>209.71428571428572</ele><time>2026-04-23T11:21:46.897Z</time></trkpt><trkpt lat="45.608323529225174" lon="10.078510620750261"><ele>209.14285714285717</ele><time>2026-04-23T11:21:47.897Z</time></trkpt><trkpt lat="45.60824901057559" lon="10.078477841791932"><ele>208.57142857142856</ele><time>2026-04-23T11:21:48.897Z</time></trkpt><trkpt lat="45.60817730733874" lon="10.078434838875515"><ele>208.0</ele><time>2026-04-23T11:21:49.897Z</time></trkpt><trkpt lat="45.608112470394886" lon="10.078384104638829"><ele>208.0</ele><time>2026-04-23T11:21:50.897Z</time></trkpt><trkpt lat="45.60805446821536" lon="10.078333031028082"><ele>208.0</ele><time>2026-04-23T11:21:51.897Z</time></trkpt><trkpt lat="45.60796260404516" lon="10.078212553103926"><ele>208.0</ele><time>2026-04-23T11:21:53.897Z</time></trkpt><trkpt lat="45.60792058817209" lon="10.078141780631196"><ele>208.0</ele><time>2026-04-23T11:21:54.897Z</time></trkpt><trkpt lat="45.607849733030186" lon="10.078009591803198"><ele>208.0</ele><time>2026-04-23T11:21:56.897Z</time></trkpt><trkpt lat="45.607788441864024" lon="10.077889663535748"><ele>207.60000000000002</ele><time>2026-04-23T11:21:58.897Z</time></trkpt><trkpt lat="45.607723958246936" lon="10.077782536249096"><ele>207.20000000000002</ele><time>2026-04-23T11:22:00.897Z</time></trkpt><trkpt lat="45.6076568636924" lon="10.077674735151719"><ele>206.8</ele><time>2026-04-23T11:22:02.897Z</time></trkpt><trkpt lat="45.60758908808238" lon="10.077577134692689"><ele>206.4</ele><time>2026-04-23T11:22:04.897Z</time></trkpt><trkpt lat="45.607534427577" lon="10.077478970758156"><ele>206.0</ele><time>2026-04-23T11:22:06.897Z</time></trkpt><trkpt lat="45.60747691107422" lon="10.077385115220492"><ele>206.8</ele><time>2026-04-23T11:22:08.897Z</time></trkpt><trkpt lat="45.607422479278114" lon="10.077275983992301"><ele>207.60000000000002</ele><time>2026-04-23T11:22:10.897Z</time></trkpt><trkpt lat="45.607351713192244" lon="10.077157667204071"><ele>208.4</ele><time>2026-04-23T11:22:12.897Z</time></trkpt><trkpt lat="45.60729034851963" lon="10.077055863768395"><ele>209.2</ele><time>2026-04-23T11:22:14.897Z</time></trkpt><trkpt lat="45.60721828107753" lon="10.076985485721845"><ele>210.0</ele><time>2026-04-23T11:22:16.897Z</time></trkpt><trkpt lat="45.60717246913116" lon="10.076903172208278"><ele>210.0</ele><time>2026-04-23T11:22:18.897Z</time></trkpt><trkpt lat="45.6071489153893" lon="10.076779365056169"><ele>210.0</ele><time>2026-04-23T11:22:20.897Z</time></trkpt><trkpt lat="45.607138453585556" lon="10.076655116053677"><ele>210.0</ele><time>2026-04-23T11:22:23.897Z</time></trkpt><trkpt lat="45.60713410936291" lon="10.076562700604564"><ele>210.0</ele><time>2026-04-23T11:22:27.897Z</time></trkpt><trkpt lat="45.60713742613508" lon="10.076438269631609"><ele>210.0</ele><time>2026-04-23T11:22:31.897Z</time></trkpt><trkpt lat="45.60714115071741" lon="10.076322499612436"><ele>210.0</ele><time>2026-04-23T11:22:34.897Z</time></trkpt><trkpt lat="45.607126109751746" lon="10.076224409015554"><ele>209.83333333333334</ele><time>2026-04-23T11:22:37.897Z</time></trkpt><trkpt lat="45.607136247522696" lon="10.076095374797168"><ele>209.66666666666669</ele><time>2026-04-23T11:22:39.897Z</time></trkpt><trkpt lat="45.607153823219164" lon="10.07596362653782"><ele>209.5</ele><time>2026-04-23T11:22:41.897Z</time></trkpt><trkpt lat="45.60715419767782" lon="10.075821229278212"><ele>209.33333333333334</ele><time>2026-04-23T11:22:43.897Z</time></trkpt><trkpt lat="45.607165299939645" lon="10.075687821982259"><ele>209.16666666666669</ele><time>2026-04-23T11:22:45.897Z</time></trkpt><trkpt lat="45.607158924673826" lon="10.075590974030726"><ele>209.0</ele><time>2026-04-23T11:22:46.897Z</time></trkpt><trkpt lat="45.607151384130816" lon="10.075493662835576"><ele>208.6</ele><time>2026-04-23T11:22:47.897Z</time></trkpt><trkpt lat="45.60713586744328" lon="10.075365889974288"><ele>208.2</ele><time>2026-04-23T11:22:49.897Z</time></trkpt><trkpt lat="45.60709630799256" lon="10.075233620206022"><ele>207.79999999999998</ele><time>2026-04-23T11:22:51.897Z</time></trkpt><trkpt lat="45.60708880388986" lon="10.075122666255728"><ele>207.39999999999998</ele><time>2026-04-23T11:22:53.897Z</time></trkpt><trkpt lat="45.607071760665065" lon="10.075020852336667"><ele>207.0</ele><time>2026-04-23T11:22:55.897Z</time></trkpt><trkpt lat="45.607043379604136" lon="10.07486796453717"><ele>208.0</ele><time>2026-04-23T11:22:57.897Z</time></trkpt><trkpt lat="45.60704434759365" lon="10.07471102261227"><ele>209.0</ele><time>2026-04-23T11:22:59.894Z</time></trkpt><trkpt lat="45.60704588982257" lon="10.074545373868254"><ele>210.0</ele><time>2026-04-23T11:23:01.893Z</time></trkpt><trkpt lat="45.607048559990716" lon="10.074421703501711"><ele>211.0</ele><time>2026-04-23T11:23:03.894Z</time></trkpt><trkpt lat="45.60708704564769" lon="10.07429412076284"><ele>212.0</ele><time>2026-04-23T11:23:05.894Z</time></trkpt><trkpt lat="45.60710354632366" lon="10.074175014649917"><ele>212.83333333333334</ele><time>2026-04-23T11:23:07.893Z</time></trkpt><trkpt lat="45.607106819904544" lon="10.074023314586347"><ele>213.66666666666669</ele><time>2026-04-23T11:23:09.893Z</time></trkpt><trkpt lat="45.607109222820014" lon="10.073929078826938"><ele>214.5</ele><time>2026-04-23T11:23:10.893Z</time></trkpt><trkpt lat="45.60713075685375" lon="10.073778671223755"><ele>215.33333333333331</ele><time>2026-04-23T11:23:12.893Z</time></trkpt><trkpt lat="45.607142696548706" lon="10.073688615019465"><ele>216.16666666666666</ele><time>2026-04-23T11:23:13.893Z</time></trkpt><trkpt lat="45.607173231934176" lon="10.073599678917745"><ele>217.0</ele><time>2026-04-23T11:23:14.893Z</time></trkpt><trkpt lat="45.60720508021111" lon="10.073451644702082"><ele>216.99999999999997</ele><time>2026-04-23T11:23:16.893Z</time></trkpt><trkpt lat="45.60723325117459" lon="10.07332479985599"><ele>217.0</ele><time>2026-04-23T11:23:18.893Z</time></trkpt><trkpt lat="45.60727089745224" lon="10.073224450400627"><ele>217.0</ele><time>2026-04-23T11:23:20.893Z</time></trkpt><trkpt lat="45.60730866184814" lon="10.073131672652446"><ele>217.0</ele><time>2026-04-23T11:23:22.893Z</time></trkpt><trkpt lat="45.607341285346486" lon="10.073040650619161"><ele>216.99999999999997</ele><time>2026-04-23T11:23:24.893Z</time></trkpt><trkpt lat="45.607387570681105" lon="10.072905443335666"><ele>217.0</ele><time>2026-04-23T11:23:26.893Z</time></trkpt><trkpt lat="45.607400540252044" lon="10.072766460431074"><ele>216.83333333333331</ele><time>2026-04-23T11:23:31.893Z</time></trkpt><trkpt lat="45.60744968535155" lon="10.072663674351176"><ele>216.66666666666666</ele><time>2026-04-23T11:23:32.893Z</time></trkpt><trkpt lat="45.607473780005385" lon="10.072571148344618"><ele>216.5</ele><time>2026-04-23T11:23:34.893Z</time></trkpt><trkpt lat="45.60744998567606" lon="10.072476800167744"><ele>216.33333333333331</ele><time>2026-04-23T11:23:35.893Z</time></trkpt><trkpt lat="45.607403005842556" lon="10.072404104988928"><ele>216.16666666666666</ele><time>2026-04-23T11:23:37.893Z</time></trkpt><trkpt lat="45.60737593927228" lon="10.072313289985427"><ele>216.0</ele><time>2026-04-23T11:23:39.893Z</time></trkpt><trkpt lat="45.607405898710674" lon="10.072147175280453"><ele>215.83333333333334</ele><time>2026-04-23T11:23:41.893Z</time></trkpt><trkpt lat="45.60744242053961" lon="10.072045391165004"><ele>215.66666666666669</ele><time>2026-04-23T11:23:42.893Z</time></trkpt><trkpt lat="45.60749800003959" lon="10.071965248460439"><ele>215.5</ele><time>2026-04-23T11:23:43.893Z</time></trkpt><trkpt lat="45.6075352032848" lon="10.071882873770575"><ele>215.33333333333334</ele><time>2026-04-23T11:23:44.893Z</time></trkpt><trkpt lat="45.60758692705192" lon="10.07182895467105"><ele>215.16666666666669</ele><time>2026-04-23T11:23:45.893Z</time></trkpt><trkpt lat="45.60762671260741" lon="10.071719154042318"><ele>215.0</ele><time>2026-04-23T11:23:47.893Z</time></trkpt><trkpt lat="45.60769222537782" lon="10.071628215755252"><ele>214.66666666666669</ele><time>2026-04-23T11:23:50.893Z</time></trkpt><trkpt lat="45.60774823789456" lon="10.071526844142344"><ele>214.33333333333334</ele><time>2026-04-23T11:23:53.893Z</time></trkpt><trkpt lat="45.60765726133494" lon="10.071526198096551"><ele>214.0</ele><time>2026-04-23T11:24:06.893Z</time></trkpt><trkpt lat="45.607562539033054" lon="10.071442614320368"><ele>213.66666666666669</ele><time>2026-04-23T11:24:08.893Z</time></trkpt><trkpt lat="45.60750219352113" lon="10.07141450859957"><ele>213.33333333333334</ele><time>2026-04-23T11:24:09.893Z</time></trkpt><trkpt lat="45.60743344102895" lon="10.071382504332698"><ele>213.0</ele><time>2026-04-23T11:24:11.893Z</time></trkpt><trkpt lat="45.607366737232496" lon="10.071369890551882"><ele>213.0</ele><time>2026-04-23T11:24:13.893Z</time></trkpt><trkpt lat="45.607262432663106" lon="10.071347877874109"><ele>213.0</ele><time>2026-04-23T11:24:15.893Z</time></trkpt><trkpt lat="45.60718670642436" lon="10.071319304153976"><ele>213.0</ele><time>2026-04-23T11:24:16.893Z</time></trkpt><trkpt lat="45.60711904062138" lon="10.07129817301356"><ele>213.0</ele><time>2026-04-23T11:24:17.893Z</time></trkpt><trkpt lat="45.60701219828147" lon="10.071260551699549"><ele>213.0</ele><time>2026-04-23T11:24:19.893Z</time></trkpt><trkpt lat="45.606948181423064" lon="10.071241580347348"><ele>213.0</ele><time>2026-04-23T11:24:20.893Z</time></trkpt><trkpt lat="45.60688405175693" lon="10.07122640741029"><ele>212.66666666666666</ele><time>2026-04-23T11:24:21.893Z</time></trkpt><trkpt lat="45.60681653602769" lon="10.071218060607665"><ele>212.33333333333331</ele><time>2026-04-23T11:24:22.893Z</time></trkpt><trkpt lat="45.606753547873225" lon="10.071226828229552"><ele>212.0</ele><time>2026-04-23T11:24:23.893Z</time></trkpt><trkpt lat="45.60668532530851" lon="10.071217621054137"><ele>211.66666666666666</ele><time>2026-04-23T11:24:24.893Z</time></trkpt><trkpt lat="45.606618651339716" lon="10.07121859234058"><ele>211.33333333333331</ele><time>2026-04-23T11:24:25.893Z</time></trkpt><trkpt lat="45.606508226956684" lon="10.07121517497017"><ele>211.0</ele><time>2026-04-23T11:24:27.893Z</time></trkpt><trkpt lat="45.606389171696556" lon="10.071218351627765"><ele>211.0</ele><time>2026-04-23T11:24:29.893Z</time></trkpt><trkpt lat="45.606308640311774" lon="10.071223746581186"><ele>211.0</ele><time>2026-04-23T11:24:31.893Z</time></trkpt><trkpt lat="45.60621214195166" lon="10.071225600171141"><ele>211.0</ele><time>2026-04-23T11:24:33.893Z</time></trkpt><trkpt lat="45.6061246384544" lon="10.071232143124133"><ele>211.0</ele><time>2026-04-23T11:24:35.893Z</time></trkpt><trkpt lat="45.606022149191524" lon="10.07124601212835"><ele>211.0</ele><time>2026-04-23T11:24:37.893Z</time></trkpt><trkpt lat="45.60591066894518" lon="10.071231852451607"><ele>210.8</ele><time>2026-04-23T11:24:39.893Z</time></trkpt><trkpt lat="45.605809978671196" lon="10.071229288121197"><ele>210.60000000000002</ele><time>2026-04-23T11:24:41.893Z</time></trkpt><trkpt lat="45.605702954827876" lon="10.071228615474718"><ele>210.4</ele><time>2026-04-23T11:24:43.893Z</time></trkpt><trkpt lat="45.60559847732324" lon="10.071218026922711"><ele>210.2</ele><time>2026-04-23T11:24:45.893Z</time></trkpt><trkpt lat="45.60550426417808" lon="10.071195263408082"><ele>210.0</ele><time>2026-04-23T11:24:47.893Z</time></trkpt><trkpt lat="45.60541714389819" lon="10.07116537401005"><ele>210.33333333333334</ele><time>2026-04-23T11:24:49.893Z</time></trkpt><trkpt lat="45.60532530363637" lon="10.071144773526603"><ele>210.66666666666669</ele><time>2026-04-23T11:24:51.893Z</time></trkpt><trkpt lat="45.60523500715841" lon="10.071121124988588"><ele>211.0</ele><time>2026-04-23T11:24:53.893Z</time></trkpt><trkpt lat="45.60516070112561" lon="10.071090156540786"><ele>211.33333333333334</ele><time>2026-04-23T11:24:55.893Z</time></trkpt><trkpt lat="45.605073901386405" lon="10.071057676480525"><ele>211.66666666666669</ele><time>2026-04-23T11:24:57.894Z</time></trkpt><trkpt lat="45.60499567538863" lon="10.071023724577893"><ele>212.0</ele><time>2026-04-23T11:24:59.894Z</time></trkpt><trkpt lat="45.604911636513684" lon="10.07099541830942"><ele>212.00000000000003</ele><time>2026-04-23T11:25:01.894Z</time></trkpt><trkpt lat="45.60482085911374" lon="10.07096829959676"><ele>212.0</ele><time>2026-04-23T11:25:04.89Z</time></trkpt><trkpt lat="45.60472057101215" lon="10.070942865671311"><ele>212.0</ele><time>2026-04-23T11:25:07.889Z</time></trkpt><trkpt lat="45.60465612940788" lon="10.070970488938478"><ele>212.0</ele><time>2026-04-23T11:25:09.89Z</time></trkpt><trkpt lat="45.604551077883976" lon="10.070946050465222"><ele>212.00000000000003</ele><time>2026-04-23T11:25:14.889Z</time></trkpt><trkpt lat="45.60449152408311" lon="10.07091509201234"><ele>212.0</ele><time>2026-04-23T11:25:16.889Z</time></trkpt><trkpt lat="45.604424709357936" lon="10.070888703178266"><ele>212.0</ele><time>2026-04-23T11:25:19.889Z</time></trkpt><trkpt lat="45.60449631634791" lon="10.070950240723116"><ele>212.0</ele><time>2026-04-23T11:25:28.889Z</time></trkpt><trkpt lat="45.60451812313523" lon="10.070842682508106"><ele>212.0</ele><time>2026-04-23T11:25:33.889Z</time></trkpt><trkpt lat="45.60455409685567" lon="10.070720488587664"><ele>212.0</ele><time>2026-04-23T11:25:38.889Z</time></trkpt><trkpt lat="45.604560135716824" lon="10.07058721525443"><ele>212.0</ele><time>2026-04-23T11:25:40.889Z</time></trkpt><trkpt lat="45.60458887027469" lon="10.070427017628015"><ele>212.16666666666669</ele><time>2026-04-23T11:25:43.889Z</time></trkpt><trkpt lat="45.604622129926675" lon="10.07029957773325"><ele>212.33333333333334</ele><time>2026-04-23T11:25:45.889Z</time></trkpt><trkpt lat="45.604654627206585" lon="10.070175009680531"><ele>212.5</ele><time>2026-04-23T11:25:47.889Z</time></trkpt><trkpt lat="45.60468922509305" lon="10.070063725979963"><ele>212.66666666666669</ele><time>2026-04-23T11:25:49.889Z</time></trkpt><trkpt lat="45.60473084451524" lon="10.069939302002046"><ele>212.83333333333334</ele><time>2026-04-23T11:25:52.889Z</time></trkpt><trkpt lat="45.60476447357309" lon="10.069836711824978"><ele>213.0</ele><time>2026-04-23T11:25:54.889Z</time></trkpt><trkpt lat="45.604793152319495" lon="10.069752141546243"><ele>213.0</ele><time>2026-04-23T11:25:56.889Z</time></trkpt><trkpt lat="45.604820295562256" lon="10.069659139119603"><ele>213.0</ele><time>2026-04-23T11:25:58.889Z</time></trkpt><trkpt lat="45.604850810187465" lon="10.069561260603248"><ele>213.0</ele><time>2026-04-23T11:26:00.889Z</time></trkpt><trkpt lat="45.60486858480091" lon="10.069466223032885"><ele>213.0</ele><time>2026-04-23T11:26:02.889Z</time></trkpt><trkpt lat="45.60490079645749" lon="10.069334677361288"><ele>213.0</ele><time>2026-04-23T11:26:05.889Z</time></trkpt><trkpt lat="45.604926142712095" lon="10.069237363652372"><ele>213.0</ele><time>2026-04-23T11:26:07.889Z</time></trkpt><trkpt lat="45.60495642471151" lon="10.069124809351303"><ele>213.16666666666666</ele><time>2026-04-23T11:26:09.889Z</time></trkpt><trkpt lat="45.60499073549067" lon="10.069004818755978"><ele>213.33333333333331</ele><time>2026-04-23T11:26:11.889Z</time></trkpt><trkpt lat="45.60502284143982" lon="10.068894921918783"><ele>213.5</ele><time>2026-04-23T11:26:13.889Z</time></trkpt><trkpt lat="45.60505835959169" lon="10.068785881632785"><ele>213.66666666666666</ele><time>2026-04-23T11:26:15.889Z</time></trkpt><trkpt lat="45.60510231259983" lon="10.068681296316434"><ele>213.83333333333331</ele><time>2026-04-23T11:26:17.889Z</time></trkpt><trkpt lat="45.60515447915098" lon="10.068573593256001"><ele>214.0</ele><time>2026-04-23T11:26:19.889Z</time></trkpt><trkpt lat="45.605202544382784" lon="10.06847878747959"><ele>213.99999999999997</ele><time>2026-04-23T11:26:21.889Z</time></trkpt><trkpt lat="45.605253542248256" lon="10.06838930231317"><ele>214.0</ele><time>2026-04-23T11:26:23.889Z</time></trkpt><trkpt lat="45.60531414085968" lon="10.06829686848151"><ele>214.0</ele><time>2026-04-23T11:26:25.889Z</time></trkpt><trkpt lat="45.605373227335136" lon="10.068200180080073"><ele>214.0</ele><time>2026-04-23T11:26:27.889Z</time></trkpt><trkpt lat="45.605433100232624" lon="10.068108292064933"><ele>213.99999999999997</ele><time>2026-04-23T11:26:29.889Z</time></trkpt><trkpt lat="45.605488066630116" lon="10.068009999021577"><ele>214.0</ele><time>2026-04-23T11:26:31.889Z</time></trkpt><trkpt lat="45.60555300567768" lon="10.067906256479684"><ele>213.83333333333331</ele><time>2026-04-23T11:26:33.889Z</time></trkpt><trkpt lat="45.60561485717066" lon="10.067814066902017"><ele>213.66666666666666</ele><time>2026-04-23T11:26:35.889Z</time></trkpt><trkpt lat="45.60566915312481" lon="10.067733847513754"><ele>213.5</ele><time>2026-04-23T11:26:37.889Z</time></trkpt><trkpt lat="45.605722062250294" lon="10.067663208974869"><ele>213.33333333333331</ele><time>2026-04-23T11:26:39.889Z</time></trkpt><trkpt lat="45.60574847885362" lon="10.067539890186945"><ele>213.16666666666666</ele><time>2026-04-23T11:26:41.889Z</time></trkpt><trkpt lat="45.60568914556116" lon="10.067456465285725"><ele>213.0</ele><time>2026-04-23T11:26:43.889Z</time></trkpt><trkpt lat="45.60564144157649" lon="10.067332961924578"><ele>213.0</ele><time>2026-04-23T11:26:45.889Z</time></trkpt><trkpt lat="45.60569976174101" lon="10.067220505550877"><ele>213.0</ele><time>2026-04-23T11:26:48.889Z</time></trkpt><trkpt lat="45.60573677643724" lon="10.067142345310337"><ele>213.0</ele><time>2026-04-23T11:26:49.889Z</time></trkpt><trkpt lat="45.60578848423443" lon="10.067033370571535"><ele>213.0</ele><time>2026-04-23T11:26:51.89Z</time></trkpt><trkpt lat="45.60583672819366" lon="10.066899199137586"><ele>213.0</ele><time>2026-04-23T11:26:54.89Z</time></trkpt><trkpt lat="45.60588267397268" lon="10.066776313412445"><ele>213.0</ele><time>2026-04-23T11:26:56.89Z</time></trkpt><trkpt lat="45.605922972547795" lon="10.066657645098633"><ele>213.0</ele><time>2026-04-23T11:26:58.89Z</time></trkpt><trkpt lat="45.605962763095064" lon="10.066555939402045"><ele>213.0</ele><time>2026-04-23T11:27:00.89Z</time></trkpt><trkpt lat="45.606005826000924" lon="10.066442100670915"><ele>213.0</ele><time>2026-04-23T11:27:02.89Z</time></trkpt><trkpt lat="45.60604405584566" lon="10.066306337515169"><ele>213.0</ele><time>2026-04-23T11:27:04.89Z</time></trkpt><trkpt lat="45.60607814672198" lon="10.066199300276208"><ele>213.0</ele><time>2026-04-23T11:27:06.89Z</time></trkpt><trkpt lat="45.60610957985576" lon="10.066080324452624"><ele>213.0</ele><time>2026-04-23T11:27:09.89Z</time></trkpt><trkpt lat="45.60613823245836" lon="10.065945224524121"><ele>213.0</ele><time>2026-04-23T11:27:11.886Z</time></trkpt><trkpt lat="45.6061711459871" lon="10.06586313960628"><ele>213.0</ele><time>2026-04-23T11:27:13.885Z</time></trkpt><trkpt lat="45.60617780809994" lon="10.065737929812055"><ele>213.0</ele><time>2026-04-23T11:27:16.885Z</time></trkpt><trkpt lat="45.606226563697504" lon="10.065648596773299"><ele>213.0</ele><time>2026-04-23T11:27:19.886Z</time></trkpt><trkpt lat="45.60630668976898" lon="10.065622060432254"><ele>213.0</ele><time>2026-04-23T11:27:21.886Z</time></trkpt><trkpt lat="45.60638959516194" lon="10.065609478504111"><ele>213.0</ele><time>2026-04-23T11:27:23.886Z</time></trkpt><trkpt lat="45.606470252009466" lon="10.065617550637924"><ele>213.0</ele><time>2026-04-23T11:27:25.886Z</time></trkpt><trkpt lat="45.60655869799015" lon="10.065631915457917"><ele>213.0</ele><time>2026-04-23T11:27:27.886Z</time></trkpt><trkpt lat="45.606649644341005" lon="10.065660071930463"><ele>213.0</ele><time>2026-04-23T11:27:29.886Z</time></trkpt><trkpt lat="45.60674664071194" lon="10.065683363043808"><ele>213.0</ele><time>2026-04-23T11:27:31.886Z</time></trkpt><trkpt lat="45.606842617630484" lon="10.065711800487174"><ele>213.0</ele><time>2026-04-23T11:27:33.886Z</time></trkpt><trkpt lat="45.606925118838205" lon="10.065718432648287"><ele>213.0</ele><time>2026-04-23T11:27:35.886Z</time></trkpt><trkpt lat="45.607026149415475" lon="10.065742369340859"><ele>213.0</ele><time>2026-04-23T11:27:37.886Z</time></trkpt><trkpt lat="45.60713203337294" lon="10.065753803765459"><ele>213.0</ele><time>2026-04-23T11:27:39.886Z</time></trkpt><trkpt lat="45.60722338593009" lon="10.065771609833249"><ele>213.0</ele><time>2026-04-23T11:27:41.886Z</time></trkpt><trkpt lat="45.607318664016276" lon="10.065783679657843"><ele>213.0</ele><time>2026-04-23T11:27:43.886Z</time></trkpt><trkpt lat="45.60741747741758" lon="10.06580737990547"><ele>213.0</ele><time>2026-04-23T11:27:45.886Z</time></trkpt><trkpt lat="45.60751135959409" lon="10.065820115808505"><ele>213.0</ele><time>2026-04-23T11:27:47.886Z</time></trkpt><trkpt lat="45.60759992545104" lon="10.065831517667927"><ele>213.0</ele><time>2026-04-23T11:27:49.886Z</time></trkpt><trkpt lat="45.607693302816315" lon="10.065845356196826"><ele>213.0</ele><time>2026-04-23T11:27:51.886Z</time></trkpt><trkpt lat="45.607793941975736" lon="10.065867302547742"><ele>212.60000000000002</ele><time>2026-04-23T11:27:53.886Z</time></trkpt><trkpt lat="45.60789341492675" lon="10.06588561993757"><ele>212.20000000000002</ele><time>2026-04-23T11:27:55.886Z</time></trkpt><trkpt lat="45.6079931905889" lon="10.0659000537278"><ele>211.8</ele><time>2026-04-23T11:27:57.886Z</time></trkpt><trkpt lat="45.608077807326694" lon="10.065906917154173"><ele>211.4</ele><time>2026-04-23T11:27:59.886Z</time></trkpt><trkpt lat="45.60816122934267" lon="10.06591343880904"><ele>211.0</ele><time>2026-04-23T11:28:01.886Z</time></trkpt><trkpt lat="45.608257183513324" lon="10.065936893404917"><ele>211.0</ele><time>2026-04-23T11:28:03.886Z</time></trkpt><trkpt lat="45.60835407216784" lon="10.065952277033619"><ele>211.0</ele><time>2026-04-23T11:28:05.886Z</time></trkpt><trkpt lat="45.608445071700245" lon="10.065964017228858"><ele>211.0</ele><time>2026-04-23T11:28:07.886Z</time></trkpt><trkpt lat="45.608539524067616" lon="10.065980013497745"><ele>211.0</ele><time>2026-04-23T11:28:09.886Z</time></trkpt><trkpt lat="45.608634071711066" lon="10.065999859779762"><ele>211.0</ele><time>2026-04-23T11:28:11.886Z</time></trkpt><trkpt lat="45.60871354328798" lon="10.066003844537624"><ele>211.20000000000002</ele><time>2026-04-23T11:28:13.886Z</time></trkpt><trkpt lat="45.608808513591484" lon="10.066030911866793"><ele>211.4</ele><time>2026-04-23T11:28:15.886Z</time></trkpt><trkpt lat="45.60890221476859" lon="10.066069613621337"><ele>211.6</ele><time>2026-04-23T11:28:17.886Z</time></trkpt><trkpt lat="45.60900297999327" lon="10.06611569192764"><ele>211.8</ele><time>2026-04-23T11:28:19.886Z</time></trkpt><trkpt lat="45.60909272321839" lon="10.066160508430132"><ele>212.0</ele><time>2026-04-23T11:28:21.886Z</time></trkpt><trkpt lat="45.609184328888865" lon="10.06620047795725"><ele>212.0</ele><time>2026-04-23T11:28:23.886Z</time></trkpt><trkpt lat="45.609276472540685" lon="10.066251477303068"><ele>212.0</ele><time>2026-04-23T11:28:25.886Z</time></trkpt><trkpt lat="45.60935872890113" lon="10.066299346319264"><ele>212.0</ele><time>2026-04-23T11:28:27.886Z</time></trkpt><trkpt lat="45.60944581127615" lon="10.066354613667876"><ele>212.0</ele><time>2026-04-23T11:28:29.886Z</time></trkpt><trkpt lat="45.60952242398685" lon="10.066401391633747"><ele>212.0</ele><time>2026-04-23T11:28:31.886Z</time></trkpt><trkpt lat="45.609607884735496" lon="10.066454381510427"><ele>212.66666666666669</ele><time>2026-04-23T11:28:33.886Z</time></trkpt><trkpt lat="45.60968092720809" lon="10.066504218856679"><ele>213.33333333333334</ele><time>2026-04-23T11:28:35.886Z</time></trkpt><trkpt lat="45.60976158251836" lon="10.06655738717417"><ele>214.0</ele><time>2026-04-23T11:28:37.886Z</time></trkpt><trkpt lat="45.60984287915961" lon="10.066614067745911"><ele>214.66666666666669</ele><time>2026-04-23T11:28:39.886Z</time></trkpt><trkpt lat="45.60992124250089" lon="10.066668334121507"><ele>215.33333333333334</ele><time>2026-04-23T11:28:41.886Z</time></trkpt><trkpt lat="45.610005877392965" lon="10.066724695846492"><ele>216.0</ele><time>2026-04-23T11:28:43.886Z</time></trkpt><trkpt lat="45.61008643443707" lon="10.066794484093341"><ele>216.20000000000002</ele><time>2026-04-23T11:28:45.886Z</time></trkpt><trkpt lat="45.61016999541108" lon="10.066845849452552"><ele>216.40000000000003</ele><time>2026-04-23T11:28:47.886Z</time></trkpt><trkpt lat="45.610255662856304" lon="10.066912797540374"><ele>216.6</ele><time>2026-04-23T11:28:49.886Z</time></trkpt><trkpt lat="45.61033867581939" lon="10.066959205836913"><ele>216.8</ele><time>2026-04-23T11:28:51.886Z</time></trkpt><trkpt lat="45.61041928389409" lon="10.067015755849567"><ele>217.0</ele><time>2026-04-23T11:28:53.886Z</time></trkpt><trkpt lat="45.6105026206112" lon="10.067075110470286"><ele>217.49999999999997</ele><time>2026-04-23T11:28:55.886Z</time></trkpt><trkpt lat="45.61058573940355" lon="10.067139912402366"><ele>218.0</ele><time>2026-04-23T11:28:57.886Z</time></trkpt><trkpt lat="45.61066595879402" lon="10.067188034009154"><ele>218.5</ele><time>2026-04-23T11:28:59.886Z</time></trkpt><trkpt lat="45.610742348481175" lon="10.06724263415622"><ele>219.0</ele><time>2026-04-23T11:29:01.886Z</time></trkpt><trkpt lat="45.61081915431883" lon="10.067292566239779"><ele>219.49999999999997</ele><time>2026-04-23T11:29:03.886Z</time></trkpt><trkpt lat="45.610887712506916" lon="10.067328068477694"><ele>220.0</ele><time>2026-04-23T11:29:05.886Z</time></trkpt><trkpt lat="45.61097308486906" lon="10.067354018771423"><ele>219.99999999999997</ele><time>2026-04-23T11:29:07.886Z</time></trkpt><trkpt lat="45.61104983556878" lon="10.067382500840589"><ele>220.0</ele><time>2026-04-23T11:29:09.886Z</time></trkpt><trkpt lat="45.61111688562555" lon="10.067400930604066"><ele>220.0</ele><time>2026-04-23T11:29:11.886Z</time></trkpt><trkpt lat="45.61119035190176" lon="10.067428110172429"><ele>220.0</ele><time>2026-04-23T11:29:13.886Z</time></trkpt><trkpt lat="45.611266982594074" lon="10.067457672683366"><ele>219.99999999999997</ele><time>2026-04-23T11:29:15.886Z</time></trkpt><trkpt lat="45.61133032772514" lon="10.067433824406015"><ele>220.0</ele><time>2026-04-23T11:29:17.881Z</time></trkpt><trkpt lat="45.61133286517011" lon="10.067309002993744"><ele>219.99999999999997</ele><time>2026-04-23T11:29:21.881Z</time></trkpt><trkpt lat="45.61133933661209" lon="10.067176120574238"><ele>220.0</ele><time>2026-04-23T11:29:24.881Z</time></trkpt><trkpt lat="45.611340977818365" lon="10.067053919437695"><ele>220.0</ele><time>2026-04-23T11:29:27.881Z</time></trkpt><trkpt lat="45.61133341049516" lon="10.066926075909743"><ele>220.0</ele><time>2026-04-23T11:29:30.881Z</time></trkpt><trkpt lat="45.61132549251418" lon="10.066817912638655"><ele>219.99999999999997</ele><time>2026-04-23T11:29:32.881Z</time></trkpt><trkpt lat="45.61131828783222" lon="10.066699287973371"><ele>220.0</ele><time>2026-04-23T11:29:34.881Z</time></trkpt><trkpt lat="45.611310262869225" lon="10.066584177182245"><ele>219.8</ele><time>2026-04-23T11:29:36.881Z</time></trkpt><trkpt lat="45.61129096212977" lon="10.066483913219722"><ele>219.6</ele><time>2026-04-23T11:29:38.881Z</time></trkpt><trkpt lat="45.611274919600675" lon="10.066348830629005"><ele>219.39999999999998</ele><time>2026-04-23T11:29:40.881Z</time></trkpt><trkpt lat="45.61125292695327" lon="10.06620761882425"><ele>219.2</ele><time>2026-04-23T11:29:42.881Z</time></trkpt><trkpt lat="45.611232368845016" lon="10.066048694811824"><ele>219.0</ele><time>2026-04-23T11:29:44.881Z</time></trkpt><trkpt lat="45.61121331711767" lon="10.06592186360664"><ele>219.0</ele><time>2026-04-23T11:29:46.881Z</time></trkpt><trkpt lat="45.61119859309682" lon="10.065793779499911"><ele>219.0</ele><time>2026-04-23T11:29:48.881Z</time></trkpt><trkpt lat="45.61118923814434" lon="10.065676184865591"><ele>219.0</ele><time>2026-04-23T11:29:50.881Z</time></trkpt><trkpt lat="45.611172925509365" lon="10.065555017541918"><ele>219.0</ele><time>2026-04-23T11:29:53.881Z</time></trkpt><trkpt lat="45.61111102608808" lon="10.065512234803716"><ele>219.0</ele><time>2026-04-23T11:29:56.881Z</time></trkpt><trkpt lat="45.61108857080098" lon="10.065413463105918"><ele>219.0</ele><time>2026-04-23T11:29:58.881Z</time></trkpt><trkpt lat="45.611087614587554" lon="10.06532235771674"><ele>219.33333333333334</ele><time>2026-04-23T11:30:00.881Z</time></trkpt><trkpt lat="45.611087407804064" lon="10.065223289558293"><ele>219.66666666666669</ele><time>2026-04-23T11:30:02.881Z</time></trkpt><trkpt lat="45.61108766851168" lon="10.06512691387183"><ele>220.0</ele><time>2026-04-23T11:30:04.881Z</time></trkpt><trkpt lat="45.611112943276794" lon="10.064987859418874"><ele>220.33333333333334</ele><time>2026-04-23T11:30:07.881Z</time></trkpt><trkpt lat="45.61113997212925" lon="10.064868494701567"><ele>220.66666666666669</ele><time>2026-04-23T11:30:09.881Z</time></trkpt><trkpt lat="45.61115113337693" lon="10.064776989684892"><ele>221.0</ele><time>2026-04-23T11:30:11.881Z</time></trkpt><trkpt lat="45.61117532130707" lon="10.064661900808638"><ele>221.50000000000003</ele><time>2026-04-23T11:30:14.881Z</time></trkpt><trkpt lat="45.61119277349055" lon="10.064550804725007"><ele>222.0</ele><time>2026-04-23T11:30:17.881Z</time></trkpt><trkpt lat="45.61121946598494" lon="10.064461462753602"><ele>222.5</ele><time>2026-04-23T11:30:19.881Z</time></trkpt><trkpt lat="45.611232954454515" lon="10.064338541742963"><ele>223.0</ele><time>2026-04-23T11:30:22.881Z</time></trkpt><trkpt lat="45.611246984508014" lon="10.064240679489624"><ele>223.50000000000003</ele><time>2026-04-23T11:30:24.881Z</time></trkpt><trkpt lat="45.61126124518691" lon="10.064137129496972"><ele>224.0</ele><time>2026-04-23T11:30:26.881Z</time></trkpt><trkpt lat="45.611277253423566" lon="10.064036305957224"><ele>224.33333333333334</ele><time>2026-04-23T11:30:28.881Z</time></trkpt><trkpt lat="45.61129858240794" lon="10.06392973781652"><ele>224.66666666666669</ele><time>2026-04-23T11:30:31.881Z</time></trkpt><trkpt lat="45.611330517199185" lon="10.06379481600129"><ele>225.0</ele><time>2026-04-23T11:30:34.881Z</time></trkpt><trkpt lat="45.61134341504139" lon="10.06367005224868"><ele>225.33333333333331</ele><time>2026-04-23T11:30:37.881Z</time></trkpt><trkpt lat="45.611368918750614" lon="10.063530909875968"><ele>225.66666666666666</ele><time>2026-04-23T11:30:41.881Z</time></trkpt><trkpt lat="45.611391609592445" lon="10.063434819755575"><ele>226.0</ele><time>2026-04-23T11:30:43.881Z</time></trkpt><trkpt lat="45.61141473760342" lon="10.063326983932342"><ele>226.33333333333331</ele><time>2026-04-23T11:30:46.881Z</time></trkpt><trkpt lat="45.61143486948231" lon="10.063200532870352"><ele>226.66666666666666</ele><time>2026-04-23T11:30:49.881Z</time></trkpt><trkpt lat="45.61144900277658" lon="10.063098885435776"><ele>227.0</ele><time>2026-04-23T11:30:51.881Z</time></trkpt><trkpt lat="45.61146303142682" lon="10.062970010642074"><ele>227.33333333333331</ele><time>2026-04-23T11:30:54.881Z</time></trkpt><trkpt lat="45.611478348770035" lon="10.062877287240195"><ele>227.66666666666666</ele><time>2026-04-23T11:30:56.881Z</time></trkpt><trkpt lat="45.611501977361215" lon="10.062737876473463"><ele>228.0</ele><time>2026-04-23T11:30:59.881Z</time></trkpt><trkpt lat="45.61152382696254" lon="10.062642829318255"><ele>228.0</ele><time>2026-04-23T11:31:01.881Z</time></trkpt><trkpt lat="45.61154961137012" lon="10.062547163276696"><ele>228.0</ele><time>2026-04-23T11:31:03.881Z</time></trkpt><trkpt lat="45.611568900570376" lon="10.062427490480147"><ele>228.0</ele><time>2026-04-23T11:31:06.881Z</time></trkpt><trkpt lat="45.611590725164106" lon="10.062315656468613"><ele>228.0</ele><time>2026-04-23T11:31:08.881Z</time></trkpt><trkpt lat="45.61160210934322" lon="10.062199995524205"><ele>228.0</ele><time>2026-04-23T11:31:11.881Z</time></trkpt><trkpt lat="45.61159101930225" lon="10.062083626695285"><ele>228.0</ele><time>2026-04-23T11:31:14.881Z</time></trkpt><trkpt lat="45.61159626040831" lon="10.06198307362355"><ele>228.83333333333334</ele><time>2026-04-23T11:31:17.881Z</time></trkpt><trkpt lat="45.61159516487929" lon="10.061872017934599"><ele>229.66666666666669</ele><time>2026-04-23T11:31:21.881Z</time></trkpt><trkpt lat="45.611599062436675" lon="10.061747072189345"><ele>230.5</ele><time>2026-04-23T11:31:25.877Z</time></trkpt><trkpt lat="45.61160609284405" lon="10.061638387422162"><ele>231.33333333333334</ele><time>2026-04-23T11:31:28.877Z</time></trkpt><trkpt lat="45.61160677960015" lon="10.061541757258551"><ele>232.16666666666669</ele><time>2026-04-23T11:31:31.878Z</time></trkpt><trkpt lat="45.611624894661034" lon="10.061410054080348"><ele>233.0</ele><time>2026-04-23T11:31:34.877Z</time></trkpt><trkpt lat="45.61163400108699" lon="10.061315395602374"><ele>233.33333333333334</ele><time>2026-04-23T11:31:37.878Z</time></trkpt><trkpt lat="45.6116464470218" lon="10.061207943240552"><ele>233.66666666666669</ele><time>2026-04-23T11:31:40.878Z</time></trkpt><trkpt lat="45.611663259091294" lon="10.061087192330271"><ele>234.0</ele><time>2026-04-23T11:31:43.878Z</time></trkpt><trkpt lat="45.61166841030286" lon="10.060977029491397"><ele>234.33333333333331</ele><time>2026-04-23T11:31:46.878Z</time></trkpt><trkpt lat="45.61164722771695" lon="10.060881050481074"><ele>234.66666666666666</ele><time>2026-04-23T11:31:49.878Z</time></trkpt><trkpt lat="45.61161165658032" lon="10.060793442640284"><ele>235.0</ele><time>2026-04-23T11:31:53.878Z</time></trkpt><trkpt lat="45.61155033598735" lon="10.060733565592335"><ele>235.16666666666666</ele><time>2026-04-23T11:31:57.878Z</time></trkpt><trkpt lat="45.61149433048061" lon="10.060688572090697"><ele>235.33333333333331</ele><time>2026-04-23T11:32:00.878Z</time></trkpt><trkpt lat="45.611414938500175" lon="10.060653965249278"><ele>235.5</ele><time>2026-04-23T11:32:03.878Z</time></trkpt><trkpt lat="45.611344923948415" lon="10.060625210214923"><ele>235.66666666666669</ele><time>2026-04-23T11:32:06.878Z</time></trkpt><trkpt lat="45.61127448097513" lon="10.060570662777938"><ele>235.83333333333334</ele><time>2026-04-23T11:32:09.878Z</time></trkpt><trkpt lat="45.61119004667652" lon="10.060542869778548"><ele>236.0</ele><time>2026-04-23T11:32:13.878Z</time></trkpt><trkpt lat="45.61110855211848" lon="10.06055063440399"><ele>236.16666666666669</ele><time>2026-04-23T11:32:16.878Z</time></trkpt><trkpt lat="45.61102712198711" lon="10.060539508787697"><ele>236.33333333333334</ele><time>2026-04-23T11:32:19.878Z</time></trkpt><trkpt lat="45.61094462688291" lon="10.06051990451995"><ele>236.5</ele><time>2026-04-23T11:32:23.878Z</time></trkpt><trkpt lat="45.61087120370367" lon="10.06049782911798"><ele>236.66666666666669</ele><time>2026-04-23T11:32:26.878Z</time></trkpt><trkpt lat="45.61080763729429" lon="10.060463515414202"><ele>236.83333333333334</ele><time>2026-04-23T11:32:28.878Z</time></trkpt><trkpt lat="45.61072359004202" lon="10.060427109006032"><ele>237.0</ele><time>2026-04-23T11:32:31.878Z</time></trkpt><trkpt lat="45.61066783497611" lon="10.060376232401412"><ele>237.0</ele><time>2026-04-23T11:32:33.878Z</time></trkpt><trkpt lat="45.6105922282672" lon="10.060291850468202"><ele>237.0</ele><time>2026-04-23T11:32:36.878Z</time></trkpt><trkpt lat="45.610529355520576" lon="10.060195759303426"><ele>237.0</ele><time>2026-04-23T11:32:38.878Z</time></trkpt><trkpt lat="45.61050373008986" lon="10.060112725682407"><ele>237.0</ele><time>2026-04-23T11:32:40.878Z</time></trkpt><trkpt lat="45.61047743455934" lon="10.06001243162467"><ele>237.0</ele><time>2026-04-23T11:32:43.878Z</time></trkpt><trkpt lat="45.61045496641487" lon="10.059919205408276"><ele>237.0</ele><time>2026-04-23T11:32:46.878Z</time></trkpt><trkpt lat="45.610375932759716" lon="10.05988140859321"><ele>237.33333333333334</ele><time>2026-04-23T11:32:51.878Z</time></trkpt><trkpt lat="45.61031239373792" lon="10.059800196014573"><ele>237.66666666666669</ele><time>2026-04-23T11:32:56.878Z</time></trkpt><trkpt lat="45.61025255316182" lon="10.059744042775995"><ele>238.0</ele><time>2026-04-23T11:32:59.878Z</time></trkpt><trkpt lat="45.61017012980116" lon="10.059698085785529"><ele>238.33333333333334</ele><time>2026-04-23T11:33:02.878Z</time></trkpt><trkpt lat="45.61009966981" lon="10.059670604431554"><ele>238.66666666666669</ele><time>2026-04-23T11:33:04.878Z</time></trkpt><trkpt lat="45.61000245772144" lon="10.05959809483635"><ele>239.0</ele><time>2026-04-23T11:33:06.878Z</time></trkpt><trkpt lat="45.60992705511042" lon="10.059557620393461"><ele>239.00000000000003</ele><time>2026-04-23T11:33:08.878Z</time></trkpt><trkpt lat="45.60985135262147" lon="10.05951879253197"><ele>239.0</ele><time>2026-04-23T11:33:10.878Z</time></trkpt><trkpt lat="45.60978438464027" lon="10.059479125044152"><ele>239.0</ele><time>2026-04-23T11:33:12.878Z</time></trkpt><trkpt lat="45.609706371613655" lon="10.059414321995574"><ele>239.0</ele><time>2026-04-23T11:33:15.878Z</time></trkpt><trkpt lat="45.60961402827352" lon="10.059352180751311"><ele>239.00000000000003</ele><time>2026-04-23T11:33:18.878Z</time></trkpt><trkpt lat="45.609543225274585" lon="10.059341542593502"><ele>239.0</ele><time>2026-04-23T11:33:20.878Z</time></trkpt><trkpt lat="45.60945556758185" lon="10.059378544078227"><ele>238.00000000000003</ele><time>2026-04-23T11:33:23.878Z</time></trkpt><trkpt lat="45.60938453829726" lon="10.05941457823838"><ele>237.0</ele><time>2026-04-23T11:33:25.878Z</time></trkpt><trkpt lat="45.609314560087554" lon="10.059456054494731"><ele>236.0</ele><time>2026-04-23T11:33:27.878Z</time></trkpt><trkpt lat="45.609218637511404" lon="10.0595057632416"><ele>235.0</ele><time>2026-04-23T11:33:29.874Z</time></trkpt><trkpt lat="45.609131707186705" lon="10.059531730113662"><ele>234.00000000000003</ele><time>2026-04-23T11:33:31.873Z</time></trkpt><trkpt lat="45.60905449537794" lon="10.059566098380488"><ele>233.0</ele><time>2026-04-23T11:33:33.874Z</time></trkpt><trkpt lat="45.60898460993209" lon="10.05958762686939"><ele>233.00000000000003</ele><time>2026-04-23T11:33:35.874Z</time></trkpt><trkpt lat="45.60889434170608" lon="10.059625032262312"><ele>233.0</ele><time>2026-04-23T11:33:37.874Z</time></trkpt><trkpt lat="45.60883102761096" lon="10.059656236960096"><ele>233.0</ele><time>2026-04-23T11:33:39.873Z</time></trkpt><trkpt lat="45.60875392655868" lon="10.059697772212784"><ele>233.0</ele><time>2026-04-23T11:33:41.873Z</time></trkpt><trkpt lat="45.608680188692766" lon="10.059713771427893"><ele>233.00000000000003</ele><time>2026-04-23T11:33:43.873Z</time></trkpt><trkpt lat="45.6085933208545" lon="10.059742107821373"><ele>233.0</ele><time>2026-04-23T11:33:46.873Z</time></trkpt><trkpt lat="45.60853152124682" lon="10.059768653359315"><ele>232.57142857142858</ele><time>2026-04-23T11:33:48.873Z</time></trkpt><trkpt lat="45.6084679358893" lon="10.059807552292385"><ele>232.1428571428571</ele><time>2026-04-23T11:33:53.873Z</time></trkpt><trkpt lat="45.60841973223139" lon="10.059892437470937"><ele>231.7142857142857</ele><time>2026-04-23T11:33:57.873Z</time></trkpt><trkpt lat="45.60839635334329" lon="10.059998314484496"><ele>231.28571428571428</ele><time>2026-04-23T11:34:01.873Z</time></trkpt><trkpt lat="45.608370413669846" lon="10.060096874676175"><ele>230.85714285714283</ele><time>2026-04-23T11:34:04.873Z</time></trkpt><trkpt lat="45.60833237486604" lon="10.060193243799972"><ele>230.4285714285714</ele><time>2026-04-23T11:34:07.873Z</time></trkpt><trkpt lat="45.608307745633645" lon="10.060287750239258"><ele>229.99999999999997</ele><time>2026-04-23T11:34:10.873Z</time></trkpt><trkpt lat="45.608250916932455" lon="10.06036053506314"><ele>229.99999999999997</ele><time>2026-04-23T11:34:13.873Z</time></trkpt><trkpt lat="45.60816627729384" lon="10.060407236815117"><ele>230.0</ele><time>2026-04-23T11:34:30.874Z</time></trkpt><trkpt lat="45.6081156718817" lon="10.060332195513574"><ele>229.99999999999997</ele><time>2026-04-23T11:34:59.874Z</time></trkpt><trkpt lat="45.60813284145899" lon="10.060236607859219"><ele>229.99999999999997</ele><time>2026-04-23T11:35:06.874Z</time></trkpt><trkpt lat="45.60814670186251" lon="10.060141055296775"><ele>230.0</ele><time>2026-04-23T11:35:10.874Z</time></trkpt><trkpt lat="45.60815471028485" lon="10.060050528826444"><ele>229.99999999999997</ele><time>2026-04-23T11:35:14.874Z</time></trkpt><trkpt lat="45.60816505092763" lon="10.059934022477327"><ele>229.99999999999997</ele><time>2026-04-23T11:35:18.874Z</time></trkpt><trkpt lat="45.60816966623339" lon="10.059842858939259"><ele>230.00000000000003</ele><time>2026-04-23T11:35:22.874Z</time></trkpt><trkpt lat="45.60813813800832" lon="10.059752256879504"><ele>230.0</ele><time>2026-04-23T11:35:25.874Z</time></trkpt><trkpt lat="45.60806958390221" lon="10.059690400128302"><ele>230.0</ele><time>2026-04-23T11:35:29.874Z</time></trkpt><trkpt lat="45.607992566008576" lon="10.059660922667165"><ele>230.0</ele><time>2026-04-23T11:35:32.874Z</time></trkpt><trkpt lat="45.60792363750258" lon="10.05965488248181"><ele>230.00000000000003</ele><time>2026-04-23T11:35:34.869Z</time></trkpt><trkpt lat="45.607845438086926" lon="10.059650114242379"><ele>230.0</ele><time>2026-04-23T11:35:37.869Z</time></trkpt><trkpt lat="45.60777103859055" lon="10.05965156766965"><ele>230.00000000000003</ele><time>2026-04-23T11:35:39.87Z</time></trkpt><trkpt lat="45.60768034629404" lon="10.059652346076584"><ele>230.0</ele><time>2026-04-23T11:35:41.869Z</time></trkpt><trkpt lat="45.6075965515394" lon="10.05964745826422"><ele>230.0</ele><time>2026-04-23T11:35:43.87Z</time></trkpt><trkpt lat="45.60751141802484" lon="10.059643604124526"><ele>230.0</ele><time>2026-04-23T11:35:45.869Z</time></trkpt><trkpt lat="45.607428421496635" lon="10.05963957679102"><ele>230.00000000000003</ele><time>2026-04-23T11:35:47.869Z</time></trkpt><trkpt lat="45.6073461788948" lon="10.05963264360483"><ele>230.0</ele><time>2026-04-23T11:35:49.869Z</time></trkpt><trkpt lat="45.60726621066647" lon="10.05965019044332"><ele>230.00000000000003</ele><time>2026-04-23T11:35:51.869Z</time></trkpt><trkpt lat="45.60718850286051" lon="10.059656707842482"><ele>230.0</ele><time>2026-04-23T11:35:53.869Z</time></trkpt><trkpt lat="45.607100523510674" lon="10.059666464002644"><ele>230.0</ele><time>2026-04-23T11:35:55.869Z</time></trkpt><trkpt lat="45.60700652329569" lon="10.059671495390727"><ele>230.0</ele><time>2026-04-23T11:35:57.869Z</time></trkpt><trkpt lat="45.60693444671566" lon="10.059678436620601"><ele>230.00000000000003</ele><time>2026-04-23T11:35:59.869Z</time></trkpt><trkpt lat="45.60686638117268" lon="10.059685664409974"><ele>230.0</ele><time>2026-04-23T11:36:01.869Z</time></trkpt><trkpt lat="45.606775754738074" lon="10.059683807423712"><ele>230.00000000000003</ele><time>2026-04-23T11:36:03.869Z</time></trkpt><trkpt lat="45.60669439870819" lon="10.059689057469436"><ele>230.0</ele><time>2026-04-23T11:36:05.869Z</time></trkpt><trkpt lat="45.60662691210562" lon="10.059694074344351"><ele>230.0</ele><time>2026-04-23T11:36:07.869Z</time></trkpt><trkpt lat="45.60655786380776" lon="10.059695450154022"><ele>230.0</ele><time>2026-04-23T11:36:09.869Z</time></trkpt><trkpt lat="45.60646958877422" lon="10.059705288242002"><ele>230.00000000000003</ele><time>2026-04-23T11:36:12.869Z</time></trkpt><trkpt lat="45.60636336918531" lon="10.059708035327938"><ele>230.0</ele><time>2026-04-23T11:36:15.869Z</time></trkpt><trkpt lat="45.60627893842129" lon="10.059711182138942"><ele>230.00000000000003</ele><time>2026-04-23T11:36:17.869Z</time></trkpt><trkpt lat="45.606192988563485" lon="10.05970826904089"><ele>230.0</ele><time>2026-04-23T11:36:19.869Z</time></trkpt><trkpt lat="45.60611591836536" lon="10.059659117679969"><ele>230.0</ele><time>2026-04-23T11:36:22.869Z</time></trkpt><trkpt lat="45.606031730763945" lon="10.059579965102108"><ele>230.0</ele><time>2026-04-23T11:36:24.869Z</time></trkpt><trkpt lat="45.60595431754271" lon="10.05950856453802"><ele>230.00000000000003</ele><time>2026-04-23T11:36:27.869Z</time></trkpt><trkpt lat="45.60588944451683" lon="10.059447132171641"><ele>230.0</ele><time>2026-04-23T11:36:29.869Z</time></trkpt><trkpt lat="45.60584065098797" lon="10.05937994915215"><ele>229.57142857142856</ele><time>2026-04-23T11:36:31.869Z</time></trkpt><trkpt lat="45.60576894026748" lon="10.059336259333854"><ele>229.14285714285714</ele><time>2026-04-23T11:36:33.869Z</time></trkpt><trkpt lat="45.605715169788475" lon="10.059276600091872"><ele>228.71428571428572</ele><time>2026-04-23T11:36:35.869Z</time></trkpt><trkpt lat="45.60564503877361" lon="10.059223236924192"><ele>228.28571428571428</ele><time>2026-04-23T11:36:38.869Z</time></trkpt><trkpt lat="45.60557871662827" lon="10.059160193642146"><ele>227.8571428571429</ele><time>2026-04-23T11:36:40.869Z</time></trkpt><trkpt lat="45.60554389915532" lon="10.05908280850196"><ele>227.42857142857144</ele><time>2026-04-23T11:36:43.869Z</time></trkpt><trkpt lat="45.60552261363309" lon="10.058993173389238"><ele>227.0</ele><time>2026-04-23T11:36:48.869Z</time></trkpt><trkpt lat="45.60554137528257" lon="10.058880956978584"><ele>227.00000000000003</ele><time>2026-04-23T11:36:52.869Z</time></trkpt><trkpt lat="45.60557076128004" lon="10.058758030431818"><ele>227.0</ele><time>2026-04-23T11:36:55.869Z</time></trkpt><trkpt lat="45.60560000631584" lon="10.058671322285853"><ele>227.0</ele><time>2026-04-23T11:36:57.869Z</time></trkpt><trkpt lat="45.60563853631765" lon="10.058587579969535"><ele>227.0</ele><time>2026-04-23T11:36:59.869Z</time></trkpt><trkpt lat="45.60567437382957" lon="10.058502891584473"><ele>227.00000000000003</ele><time>2026-04-23T11:37:03.869Z</time></trkpt><trkpt lat="45.6056976666234" lon="10.058371594588511"><ele>227.0</ele><time>2026-04-23T11:37:07.869Z</time></trkpt><trkpt lat="45.605733598802445" lon="10.05828884564035"><ele>227.16666666666669</ele><time>2026-04-23T11:37:09.869Z</time></trkpt><trkpt lat="45.60578665813906" lon="10.05821978848397"><ele>227.33333333333334</ele><time>2026-04-23T11:37:11.869Z</time></trkpt><trkpt lat="45.605866885129295" lon="10.058115144303327"><ele>227.5</ele><time>2026-04-23T11:37:13.869Z</time></trkpt><trkpt lat="45.605936405013864" lon="10.058052387938625"><ele>227.66666666666669</ele><time>2026-04-23T11:37:15.869Z</time></trkpt><trkpt lat="45.606008180619334" lon="10.05797709973644"><ele>227.83333333333334</ele><time>2026-04-23T11:37:18.869Z</time></trkpt><trkpt lat="45.606061795433625" lon="10.057921228285311"><ele>228.0</ele><time>2026-04-23T11:37:21.869Z</time></trkpt><trkpt lat="45.60614616997056" lon="10.0578479661154"><ele>228.16666666666666</ele><time>2026-04-23T11:37:24.869Z</time></trkpt><trkpt lat="45.60620448101829" lon="10.057806722571787"><ele>228.33333333333331</ele><time>2026-04-23T11:37:27.869Z</time></trkpt><trkpt lat="45.60628455747654" lon="10.057750654535418"><ele>228.5</ele><time>2026-04-23T11:37:30.869Z</time></trkpt><trkpt lat="45.60635010508435" lon="10.057707211121624"><ele>228.66666666666666</ele><time>2026-04-23T11:37:33.869Z</time></trkpt><trkpt lat="45.60642890677522" lon="10.05761167502887"><ele>228.83333333333331</ele><time>2026-04-23T11:37:36.869Z</time></trkpt><trkpt lat="45.60647918796689" lon="10.057551591211213"><ele>229.0</ele><time>2026-04-23T11:37:39.869Z</time></trkpt><trkpt lat="45.606549632931916" lon="10.057478572296324"><ele>229.16666666666666</ele><time>2026-04-23T11:37:42.865Z</time></trkpt><trkpt lat="45.60661634138726" lon="10.057394589871205"><ele>229.33333333333331</ele><time>2026-04-23T11:37:46.865Z</time></trkpt><trkpt lat="45.60667261268822" lon="10.057338622346137"><ele>229.5</ele><time>2026-04-23T11:37:49.865Z</time></trkpt><trkpt lat="45.606741580926155" lon="10.05723896779962"><ele>229.66666666666669</ele><time>2026-04-23T11:37:52.865Z</time></trkpt><trkpt lat="45.60679003634383" lon="10.057165561089363"><ele>229.83333333333334</ele><time>2026-04-23T11:37:55.866Z</time></trkpt><trkpt lat="45.60684676805907" lon="10.057059511149115"><ele>230.0</ele><time>2026-04-23T11:37:58.866Z</time></trkpt><trkpt lat="45.60690982308189" lon="10.056978914916316"><ele>230.00000000000003</ele><time>2026-04-23T11:38:01.866Z</time></trkpt><trkpt lat="45.606980392676505" lon="10.056865742205444"><ele>230.0</ele><time>2026-04-23T11:38:04.866Z</time></trkpt><trkpt lat="45.60702508604376" lon="10.05679761038893"><ele>230.0</ele><time>2026-04-23T11:38:07.866Z</time></trkpt><trkpt lat="45.60707945747958" lon="10.056711538156225"><ele>230.0</ele><time>2026-04-23T11:38:10.866Z</time></trkpt><trkpt lat="45.60712788358031" lon="10.056646140357978"><ele>230.00000000000003</ele><time>2026-04-23T11:38:13.866Z</time></trkpt><trkpt lat="45.60719852696189" lon="10.05653553011781"><ele>230.0</ele><time>2026-04-23T11:38:16.866Z</time></trkpt><trkpt lat="45.60725178158467" lon="10.056471404851461"><ele>230.99999999999997</ele><time>2026-04-23T11:38:19.866Z</time></trkpt><trkpt lat="45.60731170578182" lon="10.056411255477"><ele>232.0</ele><time>2026-04-23T11:38:21.866Z</time></trkpt><trkpt lat="45.607361345214464" lon="10.056351065785382"><ele>232.99999999999997</ele><time>2026-04-23T11:38:23.866Z</time></trkpt><trkpt lat="45.607411345310716" lon="10.056279174887107"><ele>233.99999999999997</ele><time>2026-04-23T11:38:25.866Z</time></trkpt><trkpt lat="45.607469559164976" lon="10.05617253226043"><ele>235.0</ele><time>2026-04-23T11:38:28.866Z</time></trkpt><trkpt lat="45.607515113755944" lon="10.05610495345489"><ele>235.99999999999997</ele><time>2026-04-23T11:38:30.866Z</time></trkpt><trkpt lat="45.60756335082409" lon="10.056046384334982"><ele>236.99999999999997</ele><time>2026-04-23T11:38:32.866Z</time></trkpt><trkpt lat="45.607625734997576" lon="10.055967275487573"><ele>237.0</ele><time>2026-04-23T11:38:35.866Z</time></trkpt><trkpt lat="45.60770715075944" lon="10.055877051802806"><ele>237.0</ele><time>2026-04-23T11:38:38.866Z</time></trkpt><trkpt lat="45.60776657759495" lon="10.055799920950877"><ele>237.0</ele><time>2026-04-23T11:38:41.866Z</time></trkpt><trkpt lat="45.607820622543784" lon="10.055734118997663"><ele>237.0</ele><time>2026-04-23T11:38:43.866Z</time></trkpt><trkpt lat="45.607890289981036" lon="10.055635439764593"><ele>237.0</ele><time>2026-04-23T11:38:46.866Z</time></trkpt><trkpt lat="45.6079497855693" lon="10.055566231151422"><ele>237.0</ele><time>2026-04-23T11:38:48.866Z</time></trkpt><trkpt lat="45.60799745260701" lon="10.055503434377849"><ele>237.66666666666666</ele><time>2026-04-23T11:38:50.866Z</time></trkpt><trkpt lat="45.6080486817987" lon="10.055438047970743"><ele>238.33333333333331</ele><time>2026-04-23T11:38:52.866Z</time></trkpt><trkpt lat="45.608090606373814" lon="10.055357732150744"><ele>239.0</ele><time>2026-04-23T11:38:54.866Z</time></trkpt><trkpt lat="45.60814419486624" lon="10.05529365916682"><ele>239.66666666666666</ele><time>2026-04-23T11:38:56.866Z</time></trkpt><trkpt lat="45.60820923900115" lon="10.055208712976231"><ele>240.33333333333331</ele><time>2026-04-23T11:38:59.866Z</time></trkpt><trkpt lat="45.60825830811139" lon="10.055136235411132"><ele>241.0</ele><time>2026-04-23T11:39:01.866Z</time></trkpt><trkpt lat="45.60832624219259" lon="10.055041238316083"><ele>240.99999999999997</ele><time>2026-04-23T11:39:04.866Z</time></trkpt><trkpt lat="45.608375767670786" lon="10.054959404851568"><ele>241.0</ele><time>2026-04-23T11:39:07.866Z</time></trkpt><trkpt lat="45.60843693318233" lon="10.05485779901902"><ele>241.0</ele><time>2026-04-23T11:39:10.866Z</time></trkpt><trkpt lat="45.60848457299179" lon="10.054770629119108"><ele>241.0</ele><time>2026-04-23T11:39:13.866Z</time></trkpt><trkpt lat="45.60852106582048" lon="10.054688738108732"><ele>240.99999999999997</ele><time>2026-04-23T11:39:15.866Z</time></trkpt><trkpt lat="45.60858030731105" lon="10.054593662044532"><ele>241.0</ele><time>2026-04-23T11:39:18.866Z</time></trkpt><trkpt lat="45.60863322572215" lon="10.054511548630636"><ele>241.66666666666666</ele><time>2026-04-23T11:39:21.866Z</time></trkpt><trkpt lat="45.60869587943854" lon="10.054408544584112"><ele>242.33333333333331</ele><time>2026-04-23T11:39:24.866Z</time></trkpt><trkpt lat="45.608758345104874" lon="10.054329394772898"><ele>243.0</ele><time>2026-04-23T11:39:28.866Z</time></trkpt><trkpt lat="45.608798894624215" lon="10.054257984700525"><ele>243.66666666666669</ele><time>2026-04-23T11:39:31.866Z</time></trkpt><trkpt lat="45.60885847803755" lon="10.054160059591629"><ele>244.33333333333334</ele><time>2026-04-23T11:39:34.866Z</time></trkpt><trkpt lat="45.60890499546382" lon="10.054094565180204"><ele>245.0</ele><time>2026-04-23T11:39:36.866Z</time></trkpt><trkpt lat="45.60895527311489" lon="10.054034908346116"><ele>245.50000000000003</ele><time>2026-04-23T11:39:39.866Z</time></trkpt><trkpt lat="45.60901621073668" lon="10.053960803569465"><ele>246.0</ele><time>2026-04-23T11:39:42.866Z</time></trkpt><trkpt lat="45.609068402677416" lon="10.053905936341733"><ele>246.5</ele><time>2026-04-23T11:39:45.866Z</time></trkpt><trkpt lat="45.609128424609146" lon="10.053817083235272"><ele>247.0</ele><time>2026-04-23T11:39:48.862Z</time></trkpt><trkpt lat="45.609185226574596" lon="10.053747540331173"><ele>247.50000000000003</ele><time>2026-04-23T11:39:51.862Z</time></trkpt><trkpt lat="45.60924507075373" lon="10.053675938701733"><ele>248.0</ele><time>2026-04-23T11:39:54.862Z</time></trkpt><trkpt lat="45.60930777788237" lon="10.05358358785077"><ele>248.00000000000003</ele><time>2026-04-23T11:39:57.861Z</time></trkpt><trkpt lat="45.609339424018124" lon="10.053496032548349"><ele>248.0</ele><time>2026-04-23T11:40:00.861Z</time></trkpt><trkpt lat="45.60938503625979" lon="10.053406939426905"><ele>248.0</ele><time>2026-04-23T11:40:03.861Z</time></trkpt><trkpt lat="45.609429708202505" lon="10.053333852261309"><ele>248.0</ele><time>2026-04-23T11:40:05.861Z</time></trkpt><trkpt lat="45.60948932936878" lon="10.053225951498032"><ele>248.00000000000003</ele><time>2026-04-23T11:40:08.861Z</time></trkpt><trkpt lat="45.60952429801626" lon="10.053148806446503"><ele>248.0</ele><time>2026-04-23T11:40:10.861Z</time></trkpt><trkpt lat="45.60956027153206" lon="10.053045439349658"><ele>249.42857142857144</ele><time>2026-04-23T11:40:12.861Z</time></trkpt><trkpt lat="45.60959675784916" lon="10.05294845940844"><ele>250.8571428571429</ele><time>2026-04-23T11:40:15.861Z</time></trkpt><trkpt lat="45.609636470687285" lon="10.052868803901978"><ele>252.28571428571428</ele><time>2026-04-23T11:40:17.861Z</time></trkpt><trkpt lat="45.60969155161754" lon="10.052816211150873"><ele>253.71428571428572</ele><time>2026-04-23T11:40:20.861Z</time></trkpt><trkpt lat="45.609737875585516" lon="10.052745377011505"><ele>255.14285714285714</ele><time>2026-04-23T11:40:23.861Z</time></trkpt><trkpt lat="45.60978216306611" lon="10.05265386669421"><ele>256.57142857142856</ele><time>2026-04-23T11:40:28.861Z</time></trkpt><trkpt lat="45.60980351231877" lon="10.052566854132703"><ele>258.0</ele><time>2026-04-23T11:40:31.861Z</time></trkpt><trkpt lat="45.60982069672841" lon="10.052452541731727"><ele>258.71428571428567</ele><time>2026-04-23T11:40:35.862Z</time></trkpt><trkpt lat="45.60984460930074" lon="10.052342956021576"><ele>259.42857142857144</ele><time>2026-04-23T11:40:38.862Z</time></trkpt><trkpt lat="45.609874602293225" lon="10.052260618432374"><ele>260.1428571428571</ele><time>2026-04-23T11:40:41.862Z</time></trkpt><trkpt lat="45.60990513011935" lon="10.0521389798716"><ele>260.85714285714283</ele><time>2026-04-23T11:40:45.862Z</time></trkpt><trkpt lat="45.60993002829025" lon="10.052042486328443"><ele>261.57142857142856</ele><time>2026-04-23T11:40:48.862Z</time></trkpt><trkpt lat="45.60994161583642" lon="10.051946780698543"><ele>262.2857142857143</ele><time>2026-04-23T11:40:51.862Z</time></trkpt><trkpt lat="45.60996796713303" lon="10.05184909941677"><ele>263.0</ele><time>2026-04-23T11:40:54.862Z</time></trkpt><trkpt lat="45.60998536692729" lon="10.051746440074275"><ele>263.0</ele><time>2026-04-23T11:40:57.862Z</time></trkpt><trkpt lat="45.61000697511199" lon="10.051634646490456"><ele>263.0</ele><time>2026-04-23T11:41:00.862Z</time></trkpt><trkpt lat="45.610036259433215" lon="10.051543217481036"><ele>263.0</ele><time>2026-04-23T11:41:03.862Z</time></trkpt><trkpt lat="45.6100601871746" lon="10.05145146189833"><ele>263.0</ele><time>2026-04-23T11:41:06.862Z</time></trkpt><trkpt lat="45.61009155428383" lon="10.05134775023985"><ele>263.0</ele><time>2026-04-23T11:41:09.862Z</time></trkpt><trkpt lat="45.61009601445635" lon="10.051232278629247"><ele>263.0</ele><time>2026-04-23T11:41:12.862Z</time></trkpt><trkpt lat="45.610112966278116" lon="10.051133081397818"><ele>263.57142857142856</ele><time>2026-04-23T11:41:15.862Z</time></trkpt><trkpt lat="45.610128428095436" lon="10.051013470257738"><ele>264.1428571428571</ele><time>2026-04-23T11:41:18.862Z</time></trkpt><trkpt lat="45.610144324438124" lon="10.050922668357906"><ele>264.7142857142857</ele><time>2026-04-23T11:41:21.862Z</time></trkpt><trkpt lat="45.61016869601391" lon="10.05081875144605"><ele>265.2857142857143</ele><time>2026-04-23T11:41:24.862Z</time></trkpt><trkpt lat="45.61017259830242" lon="10.050706117049108"><ele>265.8571428571429</ele><time>2026-04-23T11:41:27.862Z</time></trkpt><trkpt lat="45.61018409483114" lon="10.050598922191869"><ele>266.42857142857144</ele><time>2026-04-23T11:41:30.862Z</time></trkpt><trkpt lat="45.61021296697188" lon="10.050518797406804"><ele>267.0</ele><time>2026-04-23T11:41:33.862Z</time></trkpt><trkpt lat="45.610229188516904" lon="10.050395297388501"><ele>267.5</ele><time>2026-04-23T11:41:37.862Z</time></trkpt><trkpt lat="45.610265134570284" lon="10.050272908186066"><ele>268.0</ele><time>2026-04-23T11:41:40.862Z</time></trkpt><trkpt lat="45.61028787224705" lon="10.050160734608838"><ele>268.5</ele><time>2026-04-23T11:41:43.862Z</time></trkpt><trkpt lat="45.61031047088904" lon="10.050060035883636"><ele>269.0</ele><time>2026-04-23T11:41:46.862Z</time></trkpt><trkpt lat="45.61033142078201" lon="10.049963278274642"><ele>269.5</ele><time>2026-04-23T11:41:49.862Z</time></trkpt><trkpt lat="45.61035298960304" lon="10.049836238541163"><ele>270.0</ele><time>2026-04-23T11:41:52.858Z</time></trkpt><trkpt lat="45.61037129929609" lon="10.049738569585125"><ele>270.3333333333333</ele><time>2026-04-23T11:41:55.858Z</time></trkpt><trkpt lat="45.61042037703746" lon="10.049622252083113"><ele>270.6666666666667</ele><time>2026-04-23T11:42:00.857Z</time></trkpt><trkpt lat="45.61046011362744" lon="10.049525361651444"><ele>271.0</ele><time>2026-04-23T11:42:03.858Z</time></trkpt><trkpt lat="45.61049892950668" lon="10.049426431023555"><ele>271.33333333333337</ele><time>2026-04-23T11:42:07.857Z</time></trkpt><trkpt lat="45.610537972512624" lon="10.049291193818686"><ele>271.6666666666667</ele><time>2026-04-23T11:42:27.857Z</time></trkpt><trkpt lat="45.61054719411294" lon="10.049197655111659"><ele>272.0</ele><time>2026-04-23T11:43:07.858Z</time></trkpt><trkpt lat="45.61057611298782" lon="10.04908730325445"><ele>271.99999999999994</ele><time>2026-04-23T11:43:14.858Z</time></trkpt><trkpt lat="45.61060224653082" lon="10.04897253536833"><ele>272.0</ele><time>2026-04-23T11:43:17.858Z</time></trkpt><trkpt lat="45.610629771855066" lon="10.048877589117598"><ele>272.0</ele><time>2026-04-23T11:43:19.858Z</time></trkpt><trkpt lat="45.61064464188263" lon="10.048779245235636"><ele>272.0</ele><time>2026-04-23T11:43:21.858Z</time></trkpt><trkpt lat="45.610662554064994" lon="10.048677355154734"><ele>272.0</ele><time>2026-04-23T11:43:26.858Z</time></trkpt><trkpt lat="45.61070016062494" lon="10.048577256740758"><ele>271.99999999999994</ele><time>2026-04-23T11:43:29.858Z</time></trkpt><trkpt lat="45.61072749998708" lon="10.048493237045733"><ele>272.0</ele><time>2026-04-23T11:43:32.858Z</time></trkpt><trkpt lat="45.61071011922152" lon="10.048395248627507"><ele>272.0</ele><time>2026-04-23T11:43:35.858Z</time></trkpt><trkpt lat="45.6107054763532" lon="10.048293265648992"><ele>272.0</ele><time>2026-04-23T11:43:37.858Z</time></trkpt><trkpt lat="45.61072298726265" lon="10.04813399504398"><ele>272.0</ele><time>2026-04-23T11:43:40.858Z</time></trkpt><trkpt lat="45.61073621066795" lon="10.048034460878212"><ele>272.0</ele><time>2026-04-23T11:43:42.858Z</time></trkpt><trkpt lat="45.61074091348408" lon="10.047907058361853"><ele>272.0</ele><time>2026-04-23T11:43:45.858Z</time></trkpt><trkpt lat="45.61073251379742" lon="10.0477839154573"><ele>272.0</ele><time>2026-04-23T11:43:47.858Z</time></trkpt><trkpt lat="45.61074768104754" lon="10.047634765035154"><ele>270.83333333333337</ele><time>2026-04-23T11:43:49.858Z</time></trkpt><trkpt lat="45.61075651252407" lon="10.047501346477926"><ele>269.6666666666667</ele><time>2026-04-23T11:43:51.858Z</time></trkpt><trkpt lat="45.610774212838905" lon="10.04737319107804"><ele>268.5</ele><time>2026-04-23T11:43:53.858Z</time></trkpt><trkpt lat="45.61080080663689" lon="10.047244389676326"><ele>267.3333333333333</ele><time>2026-04-23T11:43:55.858Z</time></trkpt><trkpt lat="45.61081874967728" lon="10.047144504650111"><ele>266.16666666666663</ele><time>2026-04-23T11:43:57.858Z</time></trkpt><trkpt lat="45.61083830461867" lon="10.047023397041983"><ele>265.0</ele><time>2026-04-23T11:43:59.855Z</time></trkpt><trkpt lat="45.610870693661965" lon="10.046915111177547"><ele>264.5</ele><time>2026-04-23T11:44:01.855Z</time></trkpt><trkpt lat="45.61088851288407" lon="10.046764455644414"><ele>264.0</ele><time>2026-04-23T11:44:03.855Z</time></trkpt><trkpt lat="45.610914104487556" lon="10.04664249119727"><ele>263.5</ele><time>2026-04-23T11:44:05.855Z</time></trkpt><trkpt lat="45.61094431706662" lon="10.046558640700173"><ele>263.0</ele><time>2026-04-23T11:44:09.855Z</time></trkpt><trkpt lat="45.61095939354686" lon="10.046439427357317"><ele>262.5</ele><time>2026-04-23T11:44:12.855Z</time></trkpt><trkpt lat="45.610980244645226" lon="10.046342323482074"><ele>262.0</ele><time>2026-04-23T11:44:15.855Z</time></trkpt><trkpt lat="45.611007704451126" lon="10.046246404222142"><ele>261.8333333333333</ele><time>2026-04-23T11:44:18.855Z</time></trkpt><trkpt lat="45.6110305200246" lon="10.046132105021051"><ele>261.66666666666663</ele><time>2026-04-23T11:44:22.855Z</time></trkpt><trkpt lat="45.611040968504675" lon="10.046003328218088"><ele>261.5</ele><time>2026-04-23T11:44:24.855Z</time></trkpt><trkpt lat="45.611056947751585" lon="10.045905980711352"><ele>261.3333333333333</ele><time>2026-04-23T11:44:26.855Z</time></trkpt><trkpt lat="45.611098045843704" lon="10.04582399919442"><ele>261.1666666666667</ele><time>2026-04-23T11:44:29.855Z</time></trkpt><trkpt lat="45.6111421751458" lon="10.045712204578848"><ele>261.0</ele><time>2026-04-23T11:44:31.855Z</time></trkpt><trkpt lat="45.611217135939256" lon="10.045607089711362"><ele>261.0</ele><time>2026-04-23T11:44:34.855Z</time></trkpt><trkpt lat="45.61126053752696" lon="10.04549567536854"><ele>261.0</ele><time>2026-04-23T11:44:36.855Z</time></trkpt><trkpt lat="45.61129809112947" lon="10.045403574301526"><ele>261.0</ele><time>2026-04-23T11:44:38.855Z</time></trkpt><trkpt lat="45.611333956912546" lon="10.045319222907686"><ele>261.0</ele><time>2026-04-23T11:44:40.855Z</time></trkpt><trkpt lat="45.611384779341115" lon="10.045196016866017"><ele>261.0</ele><time>2026-04-23T11:44:43.855Z</time></trkpt><trkpt lat="45.61140939054288" lon="10.045105456510987"><ele>261.0</ele><time>2026-04-23T11:44:45.855Z</time></trkpt><trkpt lat="45.61146021432122" lon="10.04495057490694"><ele>261.0</ele><time>2026-04-23T11:44:48.855Z</time></trkpt><trkpt lat="45.611488204023146" lon="10.044798150615085"><ele>261.0</ele><time>2026-04-23T11:44:50.855Z</time></trkpt><trkpt lat="45.61150891261288" lon="10.044690154453367"><ele>261.0</ele><time>2026-04-23T11:44:52.855Z</time></trkpt><trkpt lat="45.61153584577444" lon="10.044525845232965"><ele>261.0</ele><time>2026-04-23T11:44:54.855Z</time></trkpt><trkpt lat="45.61155089244808" lon="10.04443470908548"><ele>261.0</ele><time>2026-04-23T11:44:55.855Z</time></trkpt><trkpt lat="45.611565455191126" lon="10.044322446217992"><ele>261.0</ele><time>2026-04-23T11:44:56.855Z</time></trkpt><trkpt lat="45.61159482601892" lon="10.044213744020922"><ele>261.0</ele><time>2026-04-23T11:44:57.855Z</time></trkpt><trkpt lat="45.61161999164802" lon="10.04409807277732"><ele>261.0</ele><time>2026-04-23T11:44:58.855Z</time></trkpt><trkpt lat="45.6116428773127" lon="10.043987843645098"><ele>261.0</ele><time>2026-04-23T11:44:59.855Z</time></trkpt><trkpt lat="45.61168463755606" lon="10.043891055892313"><ele>261.0</ele><time>2026-04-23T11:45:00.855Z</time></trkpt><trkpt lat="45.61174962588123" lon="10.043801976742248"><ele>261.0</ele><time>2026-04-23T11:45:01.855Z</time></trkpt><trkpt lat="45.61182368688263" lon="10.04368890907158"><ele>259.6</ele><time>2026-04-23T11:45:02.855Z</time></trkpt><trkpt lat="45.61191152376343" lon="10.043571114029696"><ele>258.20000000000005</ele><time>2026-04-23T11:45:03.855Z</time></trkpt><trkpt lat="45.61198537311172" lon="10.043465839535715"><ele>256.79999999999995</ele><time>2026-04-23T11:45:04.855Z</time></trkpt><trkpt lat="45.612064368834424" lon="10.043357705910934"><ele>255.39999999999998</ele><time>2026-04-23T11:45:05.855Z</time></trkpt><trkpt lat="45.61213121932124" lon="10.043240408801037"><ele>254.0</ele><time>2026-04-23T11:45:06.855Z</time></trkpt><trkpt lat="45.61219957357151" lon="10.043113587233686"><ele>252.2</ele><time>2026-04-23T11:45:07.855Z</time></trkpt><trkpt lat="45.61225638330194" lon="10.042993750867323"><ele>250.39999999999998</ele><time>2026-04-23T11:45:08.855Z</time></trkpt><trkpt lat="45.612311451623135" lon="10.042860460547177"><ele>248.6</ele><time>2026-04-23T11:45:09.855Z</time></trkpt><trkpt lat="45.612366973368076" lon="10.042722370078662"><ele>246.8</ele><time>2026-04-23T11:45:10.855Z</time></trkpt><trkpt lat="45.612428736564844" lon="10.04258773891787"><ele>245.0</ele><time>2026-04-23T11:45:11.855Z</time></trkpt><trkpt lat="45.612497084553596" lon="10.042446598411281"><ele>244.25</ele><time>2026-04-23T11:45:12.855Z</time></trkpt><trkpt lat="45.61256729746419" lon="10.042311222785033"><ele>243.5</ele><time>2026-04-23T11:45:13.855Z</time></trkpt><trkpt lat="45.612645041429076" lon="10.042182719123932"><ele>242.75</ele><time>2026-04-23T11:45:14.855Z</time></trkpt><trkpt lat="45.612733551081064" lon="10.042072512281296"><ele>242.0</ele><time>2026-04-23T11:45:15.855Z</time></trkpt><trkpt lat="45.612829461155606" lon="10.042004943140213"><ele>240.75</ele><time>2026-04-23T11:45:16.855Z</time></trkpt><trkpt lat="45.61293713061735" lon="10.041945133080151"><ele>239.5</ele><time>2026-04-23T11:45:17.855Z</time></trkpt><trkpt lat="45.61304668124518" lon="10.04188764918832"><ele>238.25</ele><time>2026-04-23T11:45:18.855Z</time></trkpt><trkpt lat="45.6131495191665" lon="10.041822250880198"><ele>237.0</ele><time>2026-04-23T11:45:19.855Z</time></trkpt><trkpt lat="45.613237367345654" lon="10.04173070100398"><ele>236.2</ele><time>2026-04-23T11:45:20.855Z</time></trkpt><trkpt lat="45.61330860456214" lon="10.041611822788735"><ele>235.39999999999998</ele><time>2026-04-23T11:45:21.855Z</time></trkpt><trkpt lat="45.6133630804513" lon="10.04147476061599"><ele>234.60000000000002</ele><time>2026-04-23T11:45:22.855Z</time></trkpt><trkpt lat="45.61340758630661" lon="10.041333575031123"><ele>233.8</ele><time>2026-04-23T11:45:23.855Z</time></trkpt><trkpt lat="45.613450941271616" lon="10.041206048699971"><ele>233.0</ele><time>2026-04-23T11:45:24.855Z</time></trkpt><trkpt lat="45.61349507730792" lon="10.041075726070769"><ele>233.0</ele><time>2026-04-23T11:45:25.855Z</time></trkpt><trkpt lat="45.61354082553757" lon="10.04094559553762"><ele>233.0</ele><time>2026-04-23T11:45:26.855Z</time></trkpt><trkpt lat="45.61357791135059" lon="10.040821448867318"><ele>233.0</ele><time>2026-04-23T11:45:27.855Z</time></trkpt><trkpt lat="45.61361987937161" lon="10.040703586160205"><ele>233.0</ele><time>2026-04-23T11:45:28.855Z</time></trkpt><trkpt lat="45.61366395223643" lon="10.040599144412296"><ele>233.0</ele><time>2026-04-23T11:45:29.855Z</time></trkpt><trkpt lat="45.61370325865522" lon="10.040495843876519"><ele>232.50000000000003</ele><time>2026-04-23T11:45:30.855Z</time></trkpt><trkpt lat="45.61374433371865" lon="10.040396170757443"><ele>232.0</ele><time>2026-04-23T11:45:31.855Z</time></trkpt><trkpt lat="45.6137832711011" lon="10.040301646429779"><ele>231.5</ele><time>2026-04-23T11:45:32.855Z</time></trkpt><trkpt lat="45.61382136229581" lon="10.040205730309667"><ele>231.0</ele><time>2026-04-23T11:45:33.855Z</time></trkpt><trkpt lat="45.61385333035952" lon="10.040110698054066"><ele>230.50000000000003</ele><time>2026-04-23T11:45:34.855Z</time></trkpt><trkpt lat="45.613888789952725" lon="10.040013774895527"><ele>230.0</ele><time>2026-04-23T11:45:35.855Z</time></trkpt><trkpt lat="45.61392632572007" lon="10.039923560422652"><ele>229.66666666666669</ele><time>2026-04-23T11:45:36.855Z</time></trkpt><trkpt lat="45.613961556754745" lon="10.039826884420748"><ele>229.33333333333334</ele><time>2026-04-23T11:45:37.855Z</time></trkpt><trkpt lat="45.61399307523887" lon="10.039722389545641"><ele>229.0</ele><time>2026-04-23T11:45:38.855Z</time></trkpt><trkpt lat="45.614014096656994" lon="10.039625007533644"><ele>228.66666666666669</ele><time>2026-04-23T11:45:39.855Z</time></trkpt><trkpt lat="45.61405252088482" lon="10.039524680002778"><ele>228.33333333333334</ele><time>2026-04-23T11:45:40.855Z</time></trkpt><trkpt lat="45.614086830424874" lon="10.039419472770412"><ele>228.0</ele><time>2026-04-23T11:45:41.855Z</time></trkpt><trkpt lat="45.61411917759948" lon="10.039325024410347"><ele>228.0</ele><time>2026-04-23T11:45:42.855Z</time></trkpt><trkpt lat="45.61414951151643" lon="10.039219383381178"><ele>228.0</ele><time>2026-04-23T11:45:43.855Z</time></trkpt><trkpt lat="45.614180347261254" lon="10.039121865413135"><ele>228.0</ele><time>2026-04-23T11:45:44.855Z</time></trkpt><trkpt lat="45.614210252640675" lon="10.039018036341458"><ele>228.0</ele><time>2026-04-23T11:45:45.855Z</time></trkpt><trkpt lat="45.614247453115084" lon="10.038918059248875"><ele>228.0</ele><time>2026-04-23T11:45:46.855Z</time></trkpt><trkpt lat="45.61428763741361" lon="10.038816783450681"><ele>228.0</ele><time>2026-04-23T11:45:47.855Z</time></trkpt><trkpt lat="45.61432395626042" lon="10.038715111435096"><ele>227.83333333333334</ele><time>2026-04-23T11:45:48.855Z</time></trkpt><trkpt lat="45.6143665218549" lon="10.038621654358302"><ele>227.66666666666669</ele><time>2026-04-23T11:45:49.855Z</time></trkpt><trkpt lat="45.61440406474941" lon="10.03852514199168"><ele>227.5</ele><time>2026-04-23T11:45:50.855Z</time></trkpt><trkpt lat="45.614439947485145" lon="10.038427692687064"><ele>227.33333333333334</ele><time>2026-04-23T11:45:51.855Z</time></trkpt><trkpt lat="45.6144724210903" lon="10.038327731348515"><ele>227.16666666666669</ele><time>2026-04-23T11:45:52.855Z</time></trkpt><trkpt lat="45.614503443656524" lon="10.038232047526327"><ele>227.0</ele><time>2026-04-23T11:45:53.855Z</time></trkpt><trkpt lat="45.614531526377405" lon="10.038141756932808"><ele>226.83333333333334</ele><time>2026-04-23T11:45:54.855Z</time></trkpt><trkpt lat="45.61455046279117" lon="10.038049001308028"><ele>226.66666666666669</ele><time>2026-04-23T11:45:55.855Z</time></trkpt><trkpt lat="45.61456635811019" lon="10.037956522065718"><ele>226.5</ele><time>2026-04-23T11:45:56.855Z</time></trkpt><trkpt lat="45.61457651923207" lon="10.037867217242992"><ele>226.33333333333331</ele><time>2026-04-23T11:45:57.855Z</time></trkpt><trkpt lat="45.61459656267406" lon="10.03770233301492"><ele>226.16666666666666</ele><time>2026-04-23T11:45:59.855Z</time></trkpt><trkpt lat="45.614612033619025" lon="10.037550037320234"><ele>226.0</ele><time>2026-04-23T11:46:01.855Z</time></trkpt><trkpt lat="45.614629542932704" lon="10.037402900789402"><ele>226.0</ele><time>2026-04-23T11:46:03.855Z</time></trkpt><trkpt lat="45.61464872048312" lon="10.037257210248203"><ele>226.00000000000003</ele><time>2026-04-23T11:46:05.854Z</time></trkpt><trkpt lat="45.61466620291712" lon="10.037110755962148"><ele>226.00000000000003</ele><time>2026-04-23T11:46:07.854Z</time></trkpt><trkpt lat="45.61468834501074" lon="10.036973005983684"><ele>226.0</ele><time>2026-04-23T11:46:09.855Z</time></trkpt><trkpt lat="45.61470811428707" lon="10.036829701919336"><ele>226.0</ele><time>2026-04-23T11:46:11.854Z</time></trkpt><trkpt lat="45.6147197396531" lon="10.036696058504482"><ele>225.8</ele><time>2026-04-23T11:46:13.854Z</time></trkpt><trkpt lat="45.61473251439874" lon="10.03656697438591"><ele>225.60000000000002</ele><time>2026-04-23T11:46:15.855Z</time></trkpt><trkpt lat="45.61474923839423" lon="10.036436289281838"><ele>225.4</ele><time>2026-04-23T11:46:17.854Z</time></trkpt><trkpt lat="45.61476552903828" lon="10.036304641056736"><ele>225.2</ele><time>2026-04-23T11:46:19.854Z</time></trkpt><trkpt lat="45.61478260223057" lon="10.036171662170354"><ele>225.0</ele><time>2026-04-23T11:46:21.854Z</time></trkpt><trkpt lat="45.61479746943467" lon="10.03603904836836"><ele>225.0</ele><time>2026-04-23T11:46:23.854Z</time></trkpt><trkpt lat="45.614819235681" lon="10.035908836002056"><ele>225.0</ele><time>2026-04-23T11:46:25.854Z</time></trkpt><trkpt lat="45.614851523850575" lon="10.035770967391427"><ele>225.0</ele><time>2026-04-23T11:46:27.854Z</time></trkpt><trkpt lat="45.61489642107069" lon="10.035624160951837"><ele>225.0</ele><time>2026-04-23T11:46:29.854Z</time></trkpt><trkpt lat="45.61495394019539" lon="10.03548890046123"><ele>225.0</ele><time>2026-04-23T11:46:31.854Z</time></trkpt><trkpt lat="45.615027316429035" lon="10.035357993993905"><ele>224.83333333333334</ele><time>2026-04-23T11:46:33.854Z</time></trkpt><trkpt lat="45.61511157532099" lon="10.035241894171525"><ele>224.66666666666669</ele><time>2026-04-23T11:46:35.854Z</time></trkpt><trkpt lat="45.61521251091071" lon="10.035142192963518"><ele>224.5</ele><time>2026-04-23T11:46:37.854Z</time></trkpt><trkpt lat="45.61527356181806" lon="10.035096662839104"><ele>224.33333333333334</ele><time>2026-04-23T11:46:38.854Z</time></trkpt><trkpt lat="45.615331638159375" lon="10.035050048051717"><ele>224.16666666666669</ele><time>2026-04-23T11:46:39.854Z</time></trkpt><trkpt lat="45.615389740168325" lon="10.035009158219372"><ele>224.0</ele><time>2026-04-23T11:46:40.854Z</time></trkpt><trkpt lat="45.61545200693381" lon="10.034962477331431"><ele>223.50000000000003</ele><time>2026-04-23T11:46:41.854Z</time></trkpt><trkpt lat="45.6155150633101" lon="10.034916907683263"><ele>223.0</ele><time>2026-04-23T11:46:42.854Z</time></trkpt><trkpt lat="45.61557880162399" lon="10.034855768716524"><ele>222.5</ele><time>2026-04-23T11:46:43.854Z</time></trkpt><trkpt lat="45.61563608921418" lon="10.034787366076383"><ele>222.0</ele><time>2026-04-23T11:46:44.854Z</time></trkpt><trkpt lat="45.61569894958602" lon="10.034693721759787"><ele>221.50000000000003</ele><time>2026-04-23T11:46:45.854Z</time></trkpt><trkpt lat="45.61575144136388" lon="10.034585131201846"><ele>221.0</ele><time>2026-04-23T11:46:46.854Z</time></trkpt><trkpt lat="45.61578892247851" lon="10.034481849226776"><ele>221.00000000000003</ele><time>2026-04-23T11:46:47.854Z</time></trkpt><trkpt lat="45.61582366510427" lon="10.034384980143951"><ele>221.0</ele><time>2026-04-23T11:46:48.854Z</time></trkpt><trkpt lat="45.6158557148405" lon="10.034279610041175"><ele>221.0</ele><time>2026-04-23T11:46:49.854Z</time></trkpt><trkpt lat="45.615879425015265" lon="10.034175264724432"><ele>221.0</ele><time>2026-04-23T11:46:50.854Z</time></trkpt><trkpt lat="45.61589564971316" lon="10.034075561200721"><ele>221.0</ele><time>2026-04-23T11:46:51.854Z</time></trkpt><trkpt lat="45.61590829875808" lon="10.033976453695674"><ele>221.00000000000003</ele><time>2026-04-23T11:46:52.854Z</time></trkpt><trkpt lat="45.61591619349984" lon="10.03388370188497"><ele>221.0</ele><time>2026-04-23T11:46:53.854Z</time></trkpt><trkpt lat="45.6159206982678" lon="10.033789693087979"><ele>220.60000000000002</ele><time>2026-04-23T11:46:54.854Z</time></trkpt><trkpt lat="45.615924145882666" lon="10.03369842903985"><ele>220.20000000000002</ele><time>2026-04-23T11:46:55.854Z</time></trkpt><trkpt lat="45.61593259021748" lon="10.033523495959066"><ele>219.79999999999998</ele><time>2026-04-23T11:46:57.854Z</time></trkpt><trkpt lat="45.61593629337742" lon="10.033360551034896"><ele>219.39999999999998</ele><time>2026-04-23T11:46:59.854Z</time></trkpt><trkpt lat="45.61593977529835" lon="10.033210135963651"><ele>219.0</ele><time>2026-04-23T11:47:01.854Z</time></trkpt><trkpt lat="45.61595368339856" lon="10.033068601963178"><ele>219.0</ele><time>2026-04-23T11:47:03.854Z</time></trkpt><trkpt lat="45.615982778253795" lon="10.032934200870546"><ele>218.99999999999997</ele><time>2026-04-23T11:47:05.854Z</time></trkpt><trkpt lat="45.61601870635334" lon="10.032810615171371"><ele>218.99999999999997</ele><time>2026-04-23T11:47:07.854Z</time></trkpt><trkpt lat="45.6160506985389" lon="10.032676949588156"><ele>219.0</ele><time>2026-04-23T11:47:09.854Z</time></trkpt><trkpt lat="45.616086608327656" lon="10.03255471389278"><ele>219.0</ele><time>2026-04-23T11:47:11.854Z</time></trkpt><trkpt lat="45.61612099082569" lon="10.03243873047681"><ele>219.2</ele><time>2026-04-23T11:47:13.854Z</time></trkpt><trkpt lat="45.616153515822724" lon="10.032322478411176"><ele>219.39999999999998</ele><time>2026-04-23T11:47:15.854Z</time></trkpt><trkpt lat="45.61617927337395" lon="10.032190454188042"><ele>219.6</ele><time>2026-04-23T11:47:17.854Z</time></trkpt><trkpt lat="45.616204221378595" lon="10.032055086818497"><ele>219.8</ele><time>2026-04-23T11:47:19.854Z</time></trkpt><trkpt lat="45.61622476655617" lon="10.031922052208479"><ele>220.0</ele><time>2026-04-23T11:47:21.854Z</time></trkpt><trkpt lat="45.616236120667175" lon="10.031779138023596"><ele>220.0</ele><time>2026-04-23T11:47:23.854Z</time></trkpt><trkpt lat="45.61625141019152" lon="10.031651878090958"><ele>220.0</ele><time>2026-04-23T11:47:25.854Z</time></trkpt><trkpt lat="45.61627181442491" lon="10.031504402216141"><ele>220.0</ele><time>2026-04-23T11:47:27.854Z</time></trkpt><trkpt lat="45.61629862727021" lon="10.031372443903136"><ele>220.0</ele><time>2026-04-23T11:47:29.854Z</time></trkpt><trkpt lat="45.61633593193232" lon="10.031232692798955"><ele>220.0</ele><time>2026-04-23T11:47:31.854Z</time></trkpt><trkpt lat="45.61638170288953" lon="10.03110623768592"><ele>219.8</ele><time>2026-04-23T11:47:33.854Z</time></trkpt><trkpt lat="45.61642852817173" lon="10.030973420310172"><ele>219.6</ele><time>2026-04-23T11:47:35.854Z</time></trkpt><trkpt lat="45.61647915588573" lon="10.030831412240753"><ele>219.39999999999998</ele><time>2026-04-23T11:47:37.854Z</time></trkpt><trkpt lat="45.61652844489907" lon="10.03070263691286"><ele>219.2</ele><time>2026-04-23T11:47:39.854Z</time></trkpt><trkpt lat="45.61657417258986" lon="10.030564947925845"><ele>219.0</ele><time>2026-04-23T11:47:41.854Z</time></trkpt><trkpt lat="45.61661470534603" lon="10.030416568434246"><ele>218.79999999999998</ele><time>2026-04-23T11:47:43.854Z</time></trkpt><trkpt lat="45.6166478493072" lon="10.030277446519479"><ele>218.59999999999997</ele><time>2026-04-23T11:47:45.854Z</time></trkpt><trkpt lat="45.61667308155829" lon="10.03015234883596"><ele>218.4</ele><time>2026-04-23T11:47:47.854Z</time></trkpt><trkpt lat="45.616699673339056" lon="10.030003852867935"><ele>218.2</ele><time>2026-04-23T11:47:49.854Z</time></trkpt><trkpt lat="45.61672439845608" lon="10.029851616633998"><ele>218.0</ele><time>2026-04-23T11:47:51.854Z</time></trkpt><trkpt lat="45.616747304238075" lon="10.029710419254036"><ele>218.0</ele><time>2026-04-23T11:47:53.854Z</time></trkpt><trkpt lat="45.61677146904473" lon="10.02956425745113"><ele>218.0</ele><time>2026-04-23T11:47:55.854Z</time></trkpt><trkpt lat="45.616802596162515" lon="10.029421997715321"><ele>218.0</ele><time>2026-04-23T11:47:57.854Z</time></trkpt><trkpt lat="45.61683042249984" lon="10.029280208786737"><ele>218.0</ele><time>2026-04-23T11:47:59.854Z</time></trkpt><trkpt lat="45.61685825882151" lon="10.029142975597246"><ele>218.0</ele><time>2026-04-23T11:48:01.854Z</time></trkpt><trkpt lat="45.61689058685145" lon="10.028998529553403"><ele>217.8</ele><time>2026-04-23T11:48:03.854Z</time></trkpt><trkpt lat="45.6169207901948" lon="10.028857187027658"><ele>217.60000000000002</ele><time>2026-04-23T11:48:05.854Z</time></trkpt><trkpt lat="45.61694875987183" lon="10.028715761805842"><ele>217.39999999999998</ele><time>2026-04-23T11:48:07.854Z</time></trkpt><trkpt lat="45.61698392046166" lon="10.028593141809715"><ele>217.2</ele><time>2026-04-23T11:48:09.854Z</time></trkpt><trkpt lat="45.61705322621918" lon="10.028498623063639"><ele>217.0</ele><time>2026-04-23T11:48:11.854Z</time></trkpt><trkpt lat="45.617149023216015" lon="10.028502642220813"><ele>216.99999999999997</ele><time>2026-04-23T11:48:13.854Z</time></trkpt><trkpt lat="45.61723938769632" lon="10.028518360707668"><ele>217.0</ele><time>2026-04-23T11:48:15.855Z</time></trkpt><trkpt lat="45.61732184454709" lon="10.028516962224042"><ele>217.0</ele><time>2026-04-23T11:48:17.854Z</time></trkpt><trkpt lat="45.61741900390617" lon="10.02851963708011"><ele>217.0</ele><time>2026-04-23T11:48:19.854Z</time></trkpt><trkpt lat="45.61748273994369" lon="10.028508762845302"><ele>216.99999999999997</ele><time>2026-04-23T11:48:21.854Z</time></trkpt><trkpt lat="45.617518978790066" lon="10.028385186392798"><ele>217.0</ele><time>2026-04-23T11:48:24.854Z</time></trkpt><trkpt lat="45.61754999462826" lon="10.02825235793928"><ele>217.39999999999998</ele><time>2026-04-23T11:48:26.854Z</time></trkpt><trkpt lat="45.61758203652935" lon="10.028123570967205"><ele>217.79999999999998</ele><time>2026-04-23T11:48:28.854Z</time></trkpt><trkpt lat="45.61761600521643" lon="10.027986346640201"><ele>218.2</ele><time>2026-04-23T11:48:30.854Z</time></trkpt><trkpt lat="45.61764510654546" lon="10.02784935405886"><ele>218.6</ele><time>2026-04-23T11:48:32.854Z</time></trkpt><trkpt lat="45.61767448592926" lon="10.027713471075266"><ele>219.0</ele><time>2026-04-23T11:48:34.854Z</time></trkpt><trkpt lat="45.61771074727535" lon="10.027584980133822"><ele>219.0</ele><time>2026-04-23T11:48:36.855Z</time></trkpt><trkpt lat="45.617739858477414" lon="10.02745709674708"><ele>219.0</ele><time>2026-04-23T11:48:38.855Z</time></trkpt><trkpt lat="45.617775146134214" lon="10.027352759074274"><ele>219.0</ele><time>2026-04-23T11:48:40.855Z</time></trkpt><trkpt lat="45.617826995181794" lon="10.027278508442125"><ele>219.0</ele><time>2026-04-23T11:48:42.855Z</time></trkpt><trkpt lat="45.61787137265071" lon="10.027190722367397"><ele>219.0</ele><time>2026-04-23T11:48:44.855Z</time></trkpt><trkpt lat="45.61791306984596" lon="10.027093507526358"><ele>219.0</ele><time>2026-04-23T11:48:46.855Z</time></trkpt><trkpt lat="45.617956710268466" lon="10.027006189396428"><ele>219.0</ele><time>2026-04-23T11:48:48.855Z</time></trkpt><trkpt lat="45.61799765205031" lon="10.026923766331798"><ele>219.0</ele><time>2026-04-23T11:48:50.855Z</time></trkpt><trkpt lat="45.618049208245324" lon="10.02680486984784"><ele>219.0</ele><time>2026-04-23T11:48:53.855Z</time></trkpt><trkpt lat="45.618075465834025" lon="10.026717314775446"><ele>219.0</ele><time>2026-04-23T11:48:55.855Z</time></trkpt><trkpt lat="45.618106718970324" lon="10.026628793332858"><ele>219.0</ele><time>2026-04-23T11:48:57.855Z</time></trkpt><trkpt lat="45.61813260268106" lon="10.02654534136893"><ele>219.0</ele><time>2026-04-23T11:48:59.855Z</time></trkpt><trkpt lat="45.61817459971386" lon="10.026441693945655"><ele>219.14285714285714</ele><time>2026-04-23T11:49:01.855Z</time></trkpt><trkpt lat="45.61821126202156" lon="10.026345509726793"><ele>219.28571428571428</ele><time>2026-04-23T11:49:03.855Z</time></trkpt><trkpt lat="45.61824531704586" lon="10.026260821415413"><ele>219.42857142857142</ele><time>2026-04-23T11:49:05.855Z</time></trkpt><trkpt lat="45.61828389428507" lon="10.026188406732222"><ele>219.57142857142856</ele><time>2026-04-23T11:49:07.855Z</time></trkpt><trkpt lat="45.61835424517711" lon="10.02615671751595"><ele>219.71428571428572</ele><time>2026-04-23T11:49:10.855Z</time></trkpt><trkpt lat="45.618417228094756" lon="10.026184355652775"><ele>219.85714285714283</ele><time>2026-04-23T11:49:13.855Z</time></trkpt><trkpt lat="45.61849681437998" lon="10.026189711627847"><ele>220.0</ele><time>2026-04-23T11:49:16.855Z</time></trkpt><trkpt lat="45.618567233935146" lon="10.02620252143395"><ele>219.83333333333331</ele><time>2026-04-23T11:49:18.855Z</time></trkpt><trkpt lat="45.61865625879736" lon="10.02622567435565"><ele>219.66666666666666</ele><time>2026-04-23T11:49:20.855Z</time></trkpt><trkpt lat="45.61873107272318" lon="10.02619928064773"><ele>219.5</ele><time>2026-04-23T11:49:22.855Z</time></trkpt><trkpt lat="45.618804360381674" lon="10.026206220253187"><ele>219.33333333333331</ele><time>2026-04-23T11:49:24.855Z</time></trkpt><trkpt lat="45.61889528513904" lon="10.026195981581303"><ele>219.16666666666666</ele><time>2026-04-23T11:49:26.855Z</time></trkpt><trkpt lat="45.61899688101795" lon="10.026218638766105"><ele>219.0</ele><time>2026-04-23T11:49:28.855Z</time></trkpt><trkpt lat="45.619093311795" lon="10.026241767856892"><ele>219.0</ele><time>2026-04-23T11:49:30.855Z</time></trkpt><trkpt lat="45.61918334164958" lon="10.026246405779574"><ele>219.0</ele><time>2026-04-23T11:49:32.855Z</time></trkpt><trkpt lat="45.6192836285887" lon="10.026215560581933"><ele>219.0</ele><time>2026-04-23T11:49:34.855Z</time></trkpt><trkpt lat="45.61934311515642" lon="10.026163084912216"><ele>219.0</ele><time>2026-04-23T11:49:36.855Z</time></trkpt><trkpt lat="45.619402177494514" lon="10.02607141892507"><ele>219.0</ele><time>2026-04-23T11:49:38.855Z</time></trkpt><trkpt lat="45.61944771629437" lon="10.025976584416393"><ele>219.0</ele><time>2026-04-23T11:49:40.855Z</time></trkpt><trkpt lat="45.619505341148404" lon="10.025871760160411"><ele>218.33333333333334</ele><time>2026-04-23T11:49:42.855Z</time></trkpt><trkpt lat="45.61956032642147" lon="10.025745392465575"><ele>217.66666666666669</ele><time>2026-04-23T11:49:44.855Z</time></trkpt><trkpt lat="45.61961567164824" lon="10.025641721773725"><ele>217.0</ele><time>2026-04-23T11:49:46.855Z</time></trkpt><trkpt lat="45.61967403929952" lon="10.02553965438064"><ele>216.33333333333334</ele><time>2026-04-23T11:49:48.855Z</time></trkpt><trkpt lat="45.619715739610015" lon="10.025444369133044"><ele>215.66666666666669</ele><time>2026-04-23T11:49:49.855Z</time></trkpt><trkpt lat="45.61975252252884" lon="10.025366249373176"><ele>215.0</ele><time>2026-04-23T11:49:50.855Z</time></trkpt><trkpt lat="45.61979884014012" lon="10.02527947748307"><ele>215.00000000000003</ele><time>2026-04-23T11:49:51.855Z</time></trkpt><trkpt lat="45.61984429008861" lon="10.025190616157674"><ele>215.0</ele><time>2026-04-23T11:49:52.855Z</time></trkpt><trkpt lat="45.61988011016326" lon="10.025113446717494"><ele>215.0</ele><time>2026-04-23T11:49:53.855Z</time></trkpt><trkpt lat="45.61993254405631" lon="10.025010565494979"><ele>215.0</ele><time>2026-04-23T11:49:54.855Z</time></trkpt><trkpt lat="45.619984451401145" lon="10.024909712093551"><ele>215.00000000000003</ele><time>2026-04-23T11:49:55.855Z</time></trkpt><trkpt lat="45.62003701255672" lon="10.024809976389099"><ele>215.0</ele><time>2026-04-23T11:49:56.855Z</time></trkpt><trkpt lat="45.62008991615474" lon="10.024705812506705"><ele>214.4</ele><time>2026-04-23T11:49:57.855Z</time></trkpt><trkpt lat="45.6201459137205" lon="10.024599531933024"><ele>213.8</ele><time>2026-04-23T11:49:58.855Z</time></trkpt><trkpt lat="45.620199899401264" lon="10.024482028574283"><ele>213.2</ele><time>2026-04-23T11:49:59.855Z</time></trkpt><trkpt lat="45.620253906331506" lon="10.02436301846196"><ele>212.6</ele><time>2026-04-23T11:50:00.855Z</time></trkpt><trkpt lat="45.62030566518327" lon="10.024250447663963"><ele>212.0</ele><time>2026-04-23T11:50:01.855Z</time></trkpt><trkpt lat="45.620352796168" lon="10.024127283371861"><ele>211.0</ele><time>2026-04-23T11:50:02.855Z</time></trkpt><trkpt lat="45.620385013452236" lon="10.02400068008225"><ele>210.0</ele><time>2026-04-23T11:50:03.855Z</time></trkpt><trkpt lat="45.62040877766947" lon="10.023859323107406"><ele>209.0</ele><time>2026-04-23T11:50:04.855Z</time></trkpt><trkpt lat="45.620423897485374" lon="10.023714720956495"><ele>208.0</ele><time>2026-04-23T11:50:05.855Z</time></trkpt><trkpt lat="45.62044125940131" lon="10.023568756014663"><ele>207.0</ele><time>2026-04-23T11:50:06.855Z</time></trkpt><trkpt lat="45.62045395676432" lon="10.02342416219924"><ele>207.0</ele><time>2026-04-23T11:50:07.855Z</time></trkpt><trkpt lat="45.62046678942711" lon="10.023297013231764"><ele>207.0</ele><time>2026-04-23T11:50:08.855Z</time></trkpt><trkpt lat="45.62048685952979" lon="10.023156413150897"><ele>207.0</ele><time>2026-04-23T11:50:09.855Z</time></trkpt><trkpt lat="45.620498951251" lon="10.02303190770225"><ele>207.0</ele><time>2026-04-23T11:50:10.855Z</time></trkpt><trkpt lat="45.62051620160205" lon="10.022893338874292"><ele>207.0</ele><time>2026-04-23T11:50:11.855Z</time></trkpt><trkpt lat="45.620534281504554" lon="10.022761685130881"><ele>207.0</ele><time>2026-04-23T11:50:12.855Z</time></trkpt><trkpt lat="45.620548565515485" lon="10.022640023775912"><ele>207.0</ele><time>2026-04-23T11:50:13.855Z</time></trkpt><trkpt lat="45.62056365924732" lon="10.022532783323712"><ele>207.0</ele><time>2026-04-23T11:50:14.855Z</time></trkpt><trkpt lat="45.62057691127077" lon="10.022421852028907"><ele>207.0</ele><time>2026-04-23T11:50:15.855Z</time></trkpt><trkpt lat="45.620585213263276" lon="10.02231578374141"><ele>207.0</ele><time>2026-04-23T11:50:16.854Z</time></trkpt><trkpt lat="45.62059836462918" lon="10.022216516877318"><ele>207.0</ele><time>2026-04-23T11:50:17.854Z</time></trkpt><trkpt lat="45.620612740679945" lon="10.022120133876893"><ele>207.0</ele><time>2026-04-23T11:50:18.854Z</time></trkpt><trkpt lat="45.62062899773016" lon="10.021958339808227"><ele>207.0</ele><time>2026-04-23T11:50:20.854Z</time></trkpt><trkpt lat="45.620653312397785" lon="10.021798764932736"><ele>207.0</ele><time>2026-04-23T11:50:22.854Z</time></trkpt><trkpt lat="45.62066970504966" lon="10.021667492242141"><ele>207.0</ele><time>2026-04-23T11:50:24.854Z</time></trkpt><trkpt lat="45.62068607828467" lon="10.021528765163811"><ele>207.0</ele><time>2026-04-23T11:50:26.853Z</time></trkpt><trkpt lat="45.62069645942705" lon="10.021390190720448"><ele>206.8</ele><time>2026-04-23T11:50:28.854Z</time></trkpt><trkpt lat="45.62071148261686" lon="10.021261987033531"><ele>206.6</ele><time>2026-04-23T11:50:30.854Z</time></trkpt><trkpt lat="45.62072564537081" lon="10.021124271981318"><ele>206.4</ele><time>2026-04-23T11:50:32.854Z</time></trkpt><trkpt lat="45.62073826343973" lon="10.020995613210303"><ele>206.20000000000002</ele><time>2026-04-23T11:50:34.854Z</time></trkpt><trkpt lat="45.62075333081658" lon="10.020864370087255"><ele>206.0</ele><time>2026-04-23T11:50:36.854Z</time></trkpt><trkpt lat="45.620771849534584" lon="10.02074926002449"><ele>206.00000000000003</ele><time>2026-04-23T11:50:38.854Z</time></trkpt><trkpt lat="45.6207794588918" lon="10.0206135687197"><ele>206.0</ele><time>2026-04-23T11:50:40.854Z</time></trkpt><trkpt lat="45.62078483328064" lon="10.020495453569167"><ele>206.0</ele><time>2026-04-23T11:50:42.854Z</time></trkpt><trkpt lat="45.62078867034127" lon="10.020378223744416"><ele>206.0</ele><time>2026-04-23T11:50:44.854Z</time></trkpt><trkpt lat="45.62078944413727" lon="10.02025340680289"><ele>206.00000000000003</ele><time>2026-04-23T11:50:46.854Z</time></trkpt><trkpt lat="45.62078939551579" lon="10.020139119106677"><ele>206.0</ele><time>2026-04-23T11:50:48.854Z</time></trkpt><trkpt lat="45.62078996285429" lon="10.02000293914325"><ele>206.4</ele><time>2026-04-23T11:50:50.854Z</time></trkpt><trkpt lat="45.62079625101761" lon="10.01986619078419"><ele>206.8</ele><time>2026-04-23T11:50:52.854Z</time></trkpt><trkpt lat="45.620813402572274" lon="10.019730296176538"><ele>207.20000000000002</ele><time>2026-04-23T11:50:54.854Z</time></trkpt><trkpt lat="45.62082617475411" lon="10.019591421705785"><ele>207.60000000000002</ele><time>2026-04-23T11:50:56.854Z</time></trkpt><trkpt lat="45.62082357421362" lon="10.019494446875726"><ele>208.0</ele><time>2026-04-23T11:50:58.854Z</time></trkpt><trkpt lat="45.62082265026319" lon="10.019363062864787"><ele>208.0</ele><time>2026-04-23T11:51:00.854Z</time></trkpt><trkpt lat="45.62081585561874" lon="10.019218758747193"><ele>208.0</ele><time>2026-04-23T11:51:02.854Z</time></trkpt><trkpt lat="45.62081756411858" lon="10.019053274567579"><ele>208.0</ele><time>2026-04-23T11:51:04.854Z</time></trkpt><trkpt lat="45.62081903264188" lon="10.018885496580944"><ele>208.0</ele><time>2026-04-23T11:51:06.854Z</time></trkpt><trkpt lat="45.62083144132966" lon="10.018710909568275"><ele>208.0</ele><time>2026-04-23T11:51:08.854Z</time></trkpt><trkpt lat="45.6208491111958" lon="10.018556714788813"><ele>208.0</ele><time>2026-04-23T11:51:10.854Z</time></trkpt><trkpt lat="45.620860950421026" lon="10.018396848540045"><ele>208.0</ele><time>2026-04-23T11:51:12.854Z</time></trkpt><trkpt lat="45.620821190440466" lon="10.018294704829165"><ele>208.0</ele><time>2026-04-23T11:51:14.854Z</time></trkpt><trkpt lat="45.62082411912444" lon="10.018152194755194"><ele>208.0</ele><time>2026-04-23T11:51:16.854Z</time></trkpt><trkpt lat="45.62081661384224" lon="10.018017419379248"><ele>207.99999999999997</ele><time>2026-04-23T11:51:18.854Z</time></trkpt><trkpt lat="45.62080918207372" lon="10.017887363928331"><ele>208.0</ele><time>2026-04-23T11:51:20.854Z</time></trkpt><trkpt lat="45.620806799268415" lon="10.017792653797821"><ele>208.0</ele><time>2026-04-23T11:51:22.854Z</time></trkpt><trkpt lat="45.62080221363058" lon="10.01770286707978"><ele>208.0</ele><time>2026-04-23T11:51:23.854Z</time></trkpt><trkpt lat="45.620793263031636" lon="10.017579704446929"><ele>207.99999999999997</ele><time>2026-04-23T11:51:25.854Z</time></trkpt><trkpt lat="45.62079461213535" lon="10.017464241061235"><ele>208.0</ele><time>2026-04-23T11:51:27.854Z</time></trkpt><trkpt lat="45.620792134407914" lon="10.017319747759919"><ele>207.99999999999997</ele><time>2026-04-23T11:51:29.854Z</time></trkpt><trkpt lat="45.62079135016804" lon="10.017208617472566"><ele>208.0</ele><time>2026-04-23T11:51:31.854Z</time></trkpt><trkpt lat="45.620778408465526" lon="10.01711201404472"><ele>208.0</ele><time>2026-04-23T11:51:33.854Z</time></trkpt><trkpt lat="45.62078047269782" lon="10.016998965944374"><ele>208.0</ele><time>2026-04-23T11:51:35.854Z</time></trkpt><trkpt lat="45.620778827549486" lon="10.016876013962493"><ele>207.99999999999997</ele><time>2026-04-23T11:51:37.854Z</time></trkpt><trkpt lat="45.620770288423735" lon="10.016785789425278"><ele>208.0</ele><time>2026-04-23T11:51:39.854Z</time></trkpt><trkpt lat="45.62076731739774" lon="10.01667300866749"><ele>208.66666666666666</ele><time>2026-04-23T11:51:41.854Z</time></trkpt><trkpt lat="45.62078610729885" lon="10.01656028534701"><ele>209.33333333333331</ele><time>2026-04-23T11:51:43.854Z</time></trkpt><trkpt lat="45.62079409095708" lon="10.01646335849569"><ele>210.0</ele><time>2026-04-23T11:51:45.854Z</time></trkpt><trkpt lat="45.62081423115102" lon="10.016326054312785"><ele>210.66666666666669</ele><time>2026-04-23T11:51:48.854Z</time></trkpt><trkpt lat="45.62082340408687" lon="10.016216870547584"><ele>211.33333333333334</ele><time>2026-04-23T11:51:50.854Z</time></trkpt><trkpt lat="45.620843019218945" lon="10.016070758216268"><ele>212.0</ele><time>2026-04-23T11:51:52.854Z</time></trkpt><trkpt lat="45.62086518202666" lon="10.015970589983045"><ele>212.00000000000003</ele><time>2026-04-23T11:51:54.854Z</time></trkpt><trkpt lat="45.62086320325369" lon="10.015865710032525"><ele>212.0</ele><time>2026-04-23T11:51:57.854Z</time></trkpt><trkpt lat="45.62088280839269" lon="10.015743243494327"><ele>212.0</ele><time>2026-04-23T11:51:59.854Z</time></trkpt><trkpt lat="45.62089690342934" lon="10.01561125200628"><ele>212.0</ele><time>2026-04-23T11:52:01.854Z</time></trkpt><trkpt lat="45.62092972643449" lon="10.01548055178289"><ele>212.00000000000003</ele><time>2026-04-23T11:52:03.854Z</time></trkpt><trkpt lat="45.620959995470045" lon="10.015368637517318"><ele>212.0</ele><time>2026-04-23T11:52:05.855Z</time></trkpt><trkpt lat="45.62100234905863" lon="10.01522763798443"><ele>212.50000000000003</ele><time>2026-04-23T11:52:07.855Z</time></trkpt><trkpt lat="45.62100234045293" lon="10.015074426970031"><ele>213.0</ele><time>2026-04-23T11:52:09.855Z</time></trkpt><trkpt lat="45.6209970992182" lon="10.014951330965905"><ele>213.5</ele><time>2026-04-23T11:52:11.855Z</time></trkpt><trkpt lat="45.62102027005805" lon="10.014844606226868"><ele>214.0</ele><time>2026-04-23T11:52:13.855Z</time></trkpt><trkpt lat="45.62104419282021" lon="10.014738571059828"><ele>214.50000000000003</ele><time>2026-04-23T11:52:15.855Z</time></trkpt><trkpt lat="45.621034116929216" lon="10.014627004628917"><ele>215.0</ele><time>2026-04-23T11:52:18.855Z</time></trkpt><trkpt lat="45.62101585813356" lon="10.014504117247181"><ele>215.00000000000003</ele><time>2026-04-23T11:52:20.855Z</time></trkpt><trkpt lat="45.62101237125401" lon="10.014371247679962"><ele>215.0</ele><time>2026-04-23T11:52:23.854Z</time></trkpt><trkpt lat="45.621007851031955" lon="10.01424728214273"><ele>215.0</ele><time>2026-04-23T11:52:26.854Z</time></trkpt><trkpt lat="45.621011791296" lon="10.014117686635572"><ele>215.0</ele><time>2026-04-23T11:52:29.854Z</time></trkpt><trkpt lat="45.62102774583253" lon="10.014015341414582"><ele>215.00000000000003</ele><time>2026-04-23T11:52:31.854Z</time></trkpt><trkpt lat="45.62104748530237" lon="10.013893016003852"><ele>215.0</ele><time>2026-04-23T11:52:34.854Z</time></trkpt><trkpt lat="45.62106048587178" lon="10.013797456211464"><ele>215.33333333333334</ele><time>2026-04-23T11:52:36.854Z</time></trkpt><trkpt lat="45.621076490310436" lon="10.013699656799751"><ele>215.66666666666669</ele><time>2026-04-23T11:52:38.854Z</time></trkpt><trkpt lat="45.621090566530164" lon="10.013607102581691"><ele>216.0</ele><time>2026-04-23T11:52:40.854Z</time></trkpt><trkpt lat="45.621119200250575" lon="10.013476697008219"><ele>216.33333333333331</ele><time>2026-04-23T11:52:43.854Z</time></trkpt><trkpt lat="45.62113854219235" lon="10.013387379235507"><ele>216.66666666666666</ele><time>2026-04-23T11:52:45.854Z</time></trkpt><trkpt lat="45.62116476501065" lon="10.01328016414752"><ele>217.0</ele><time>2026-04-23T11:52:48.854Z</time></trkpt><trkpt lat="45.6211928587939" lon="10.013162577531453"><ele>216.33333333333331</ele><time>2026-04-23T11:52:51.854Z</time></trkpt><trkpt lat="45.62121456365354" lon="10.013052352768067"><ele>215.66666666666666</ele><time>2026-04-23T11:52:54.854Z</time></trkpt><trkpt lat="45.621262587490435" lon="10.01295065810149"><ele>215.0</ele><time>2026-04-23T11:52:57.854Z</time></trkpt><trkpt lat="45.621321927080544" lon="10.012915177223908"><ele>214.33333333333331</ele><time>2026-04-23T11:53:00.854Z</time></trkpt><trkpt lat="45.62138856864248" lon="10.012879253601978"><ele>213.66666666666666</ele><time>2026-04-23T11:53:03.854Z</time></trkpt><trkpt lat="45.62146486478011" lon="10.012858771401735"><ele>213.0</ele><time>2026-04-23T11:53:07.854Z</time></trkpt><trkpt lat="45.62154649135255" lon="10.012830886970848"><ele>212.99999999999997</ele><time>2026-04-23T11:53:11.854Z</time></trkpt><trkpt lat="45.62161639588516" lon="10.012814705244688"><ele>213.0</ele><time>2026-04-23T11:53:14.854Z</time></trkpt><trkpt lat="45.62169339807695" lon="10.012806179869475"><ele>213.0</ele><time>2026-04-23T11:53:17.854Z</time></trkpt><trkpt lat="45.62175907512376" lon="10.012819441884552"><ele>213.0</ele><time>2026-04-23T11:53:19.854Z</time></trkpt><trkpt lat="45.6218225857579" lon="10.01282841677256"><ele>213.0</ele><time>2026-04-23T11:53:20.854Z</time></trkpt><trkpt lat="45.621891429633195" lon="10.012834614152402"><ele>212.99999999999997</ele><time>2026-04-23T11:53:21.854Z</time></trkpt><trkpt lat="45.62195874178708" lon="10.012829049350092"><ele>213.0</ele><time>2026-04-23T11:53:22.854Z</time></trkpt><trkpt lat="45.62202593048581" lon="10.012824783593897"><ele>211.99999999999997</ele><time>2026-04-23T11:53:23.854Z</time></trkpt><trkpt lat="45.622095245281976" lon="10.012828484560366"><ele>211.0</ele><time>2026-04-23T11:53:24.854Z</time></trkpt><trkpt lat="45.622165113700945" lon="10.012836504670528"><ele>210.0</ele><time>2026-04-23T11:53:25.854Z</time></trkpt><trkpt lat="45.622235817926956" lon="10.012840222186329"><ele>209.0</ele><time>2026-04-23T11:53:26.854Z</time></trkpt><trkpt lat="45.622305612442055" lon="10.012843463329157"><ele>208.0</ele><time>2026-04-23T11:53:27.854Z</time></trkpt><trkpt lat="45.622379923654535" lon="10.012849006654355"><ele>206.99999999999997</ele><time>2026-04-23T11:53:28.854Z</time></trkpt><trkpt lat="45.622474841823006" lon="10.012855038165352"><ele>206.0</ele><time>2026-04-23T11:53:29.854Z</time></trkpt><trkpt lat="45.62256731816821" lon="10.012859722086752"><ele>206.00000000000003</ele><time>2026-04-23T11:53:30.854Z</time></trkpt><trkpt lat="45.62265550742731" lon="10.012857044364672"><ele>206.0</ele><time>2026-04-23T11:53:31.854Z</time></trkpt><trkpt lat="45.62273690648847" lon="10.012844879641325"><ele>206.0</ele><time>2026-04-23T11:53:32.854Z</time></trkpt><trkpt lat="45.622816035573166" lon="10.012824132809117"><ele>206.0</ele><time>2026-04-23T11:53:33.854Z</time></trkpt><trkpt lat="45.622894666426696" lon="10.012813351950369"><ele>206.00000000000003</ele><time>2026-04-23T11:53:34.854Z</time></trkpt><trkpt lat="45.622975925293" lon="10.012800494417865"><ele>206.0</ele><time>2026-04-23T11:53:35.854Z</time></trkpt><trkpt lat="45.62305532473027" lon="10.012789180518695"><ele>205.66666666666669</ele><time>2026-04-23T11:53:36.854Z</time></trkpt><trkpt lat="45.623122756657445" lon="10.012787982512044"><ele>205.33333333333334</ele><time>2026-04-23T11:53:37.854Z</time></trkpt><trkpt lat="45.623193732689174" lon="10.012781498651597"><ele>205.0</ele><time>2026-04-23T11:53:38.854Z</time></trkpt><trkpt lat="45.62326391224728" lon="10.012762616118414"><ele>204.66666666666669</ele><time>2026-04-23T11:53:39.854Z</time></trkpt><trkpt lat="45.62334941035333" lon="10.012653461002516"><ele>204.33333333333334</ele><time>2026-04-23T11:53:41.854Z</time></trkpt><trkpt lat="45.62338736056713" lon="10.01249187659035"><ele>204.0</ele><time>2026-04-23T11:53:43.854Z</time></trkpt><trkpt lat="45.62341642557507" lon="10.012336454861082"><ele>204.0</ele><time>2026-04-23T11:53:45.854Z</time></trkpt><trkpt lat="45.62343991740815" lon="10.012191323385693"><ele>204.0</ele><time>2026-04-23T11:53:47.854Z</time></trkpt><trkpt lat="45.62345471469609" lon="10.012068277505671"><ele>204.0</ele><time>2026-04-23T11:53:49.854Z</time></trkpt><trkpt lat="45.62346440217132" lon="10.01194772456051"><ele>204.0</ele><time>2026-04-23T11:53:51.854Z</time></trkpt><trkpt lat="45.62347272692383" lon="10.01182984973381"><ele>204.0</ele><time>2026-04-23T11:53:53.854Z</time></trkpt><trkpt lat="45.623482685836706" lon="10.011719584279756"><ele>204.0</ele><time>2026-04-23T11:53:55.854Z</time></trkpt><trkpt lat="45.62351310906447" lon="10.011639226141915"><ele>203.83333333333334</ele><time>2026-04-23T11:53:57.854Z</time></trkpt><trkpt lat="45.62359762809065" lon="10.011577483999456"><ele>203.66666666666669</ele><time>2026-04-23T11:54:00.854Z</time></trkpt><trkpt lat="45.62367514265577" lon="10.011566334296234"><ele>203.5</ele><time>2026-04-23T11:54:02.854Z</time></trkpt><trkpt lat="45.62375732843053" lon="10.011565046386222"><ele>203.33333333333334</ele><time>2026-04-23T11:54:04.854Z</time></trkpt><trkpt lat="45.62384249594558" lon="10.011578345860858"><ele>203.16666666666669</ele><time>2026-04-23T11:54:06.854Z</time></trkpt><trkpt lat="45.62393434546664" lon="10.011595040793937"><ele>203.0</ele><time>2026-04-23T11:54:08.854Z</time></trkpt><trkpt lat="45.62402008006691" lon="10.011604237290193"><ele>203.16666666666669</ele><time>2026-04-23T11:54:10.854Z</time></trkpt><trkpt lat="45.62410685962668" lon="10.01160473297365"><ele>203.33333333333334</ele><time>2026-04-23T11:54:12.854Z</time></trkpt><trkpt lat="45.62419046055396" lon="10.011603843878234"><ele>203.5</ele><time>2026-04-23T11:54:14.854Z</time></trkpt><trkpt lat="45.62426999224386" lon="10.011628886308985"><ele>203.66666666666669</ele><time>2026-04-23T11:54:16.854Z</time></trkpt><trkpt lat="45.624339016305235" lon="10.011647204340502"><ele>203.83333333333334</ele><time>2026-04-23T11:54:18.854Z</time></trkpt><trkpt lat="45.62441177217149" lon="10.011669069851804"><ele>204.0</ele><time>2026-04-23T11:54:20.854Z</time></trkpt><trkpt lat="45.62448467808424" lon="10.011693227511334"><ele>204.14285714285714</ele><time>2026-04-23T11:54:22.854Z</time></trkpt><trkpt lat="45.62456065393489" lon="10.011705959885152"><ele>204.28571428571428</ele><time>2026-04-23T11:54:24.854Z</time></trkpt><trkpt lat="45.624625754158025" lon="10.01171476757037"><ele>204.42857142857144</ele><time>2026-04-23T11:54:26.854Z</time></trkpt><trkpt lat="45.62469254568857" lon="10.011695872232915"><ele>204.57142857142856</ele><time>2026-04-23T11:54:32.854Z</time></trkpt><trkpt lat="45.62473948821343" lon="10.011627047614896"><ele>204.7142857142857</ele><time>2026-04-23T11:54:53.854Z</time></trkpt><trkpt lat="45.62474897511676" lon="10.011526274364954"><ele>204.85714285714286</ele><time>2026-04-23T11:54:56.854Z</time></trkpt><trkpt lat="45.62476108709585" lon="10.011392021354203"><ele>205.0</ele><time>2026-04-23T11:54:59.854Z</time></trkpt><trkpt lat="45.624779013656074" lon="10.01127345097717"><ele>205.0</ele><time>2026-04-23T11:55:01.854Z</time></trkpt><trkpt lat="45.62480736434105" lon="10.011168845226534"><ele>205.0</ele><time>2026-04-23T11:55:03.854Z</time></trkpt><trkpt lat="45.624836582318615" lon="10.011018572338308"><ele>205.0</ele><time>2026-04-23T11:55:05.854Z</time></trkpt><trkpt lat="45.624870903151745" lon="10.010886968158673"><ele>205.0</ele><time>2026-04-23T11:55:07.854Z</time></trkpt><trkpt lat="45.62490763722035" lon="10.010759360437339"><ele>205.0</ele><time>2026-04-23T11:55:09.854Z</time></trkpt><trkpt lat="45.624944856224644" lon="10.010630104848683"><ele>205.4</ele><time>2026-04-23T11:55:11.854Z</time></trkpt><trkpt lat="45.62498097382942" lon="10.010499555620237"><ele>205.8</ele><time>2026-04-23T11:55:13.854Z</time></trkpt><trkpt lat="45.625004703928255" lon="10.01037603896439"><ele>206.2</ele><time>2026-04-23T11:55:15.854Z</time></trkpt><trkpt lat="45.62502729871854" lon="10.010249581006123"><ele>206.6</ele><time>2026-04-23T11:55:17.854Z</time></trkpt><trkpt lat="45.625050214845416" lon="10.010129586466542"><ele>207.0</ele><time>2026-04-23T11:55:19.854Z</time></trkpt><trkpt lat="45.62506168145321" lon="10.010002004684125"><ele>207.33333333333334</ele><time>2026-04-23T11:55:21.854Z</time></trkpt><trkpt lat="45.6250717633801" lon="10.009873954068697"><ele>207.66666666666669</ele><time>2026-04-23T11:55:23.854Z</time></trkpt><trkpt lat="45.62508710062083" lon="10.009766990106716"><ele>208.0</ele><time>2026-04-23T11:55:25.854Z</time></trkpt><trkpt lat="45.625114847803225" lon="10.00964504601279"><ele>208.33333333333334</ele><time>2026-04-23T11:55:28.854Z</time></trkpt><trkpt lat="45.625136839477236" lon="10.00952002588053"><ele>208.66666666666669</ele><time>2026-04-23T11:55:30.854Z</time></trkpt><trkpt lat="45.62515834357767" lon="10.009423865067786"><ele>209.0</ele><time>2026-04-23T11:55:32.854Z</time></trkpt><trkpt lat="45.62518224436858" lon="10.00931618160452"><ele>209.00000000000003</ele><time>2026-04-23T11:55:34.854Z</time></trkpt><trkpt lat="45.62520370192653" lon="10.009213186764692"><ele>209.0</ele><time>2026-04-23T11:55:36.854Z</time></trkpt><trkpt lat="45.62521846207104" lon="10.00911375489562"><ele>209.0</ele><time>2026-04-23T11:55:38.854Z</time></trkpt><trkpt lat="45.62522001546185" lon="10.009008012237468"><ele>209.0</ele><time>2026-04-23T11:55:40.854Z</time></trkpt><trkpt lat="45.62518786024864" lon="10.008916176828661"><ele>209.00000000000003</ele><time>2026-04-23T11:55:42.854Z</time></trkpt><trkpt lat="45.6251136964857" lon="10.008850372731507"><ele>209.0</ele><time>2026-04-23T11:55:45.854Z</time></trkpt><trkpt lat="45.625031294636294" lon="10.008776081161471"><ele>209.16666666666669</ele><time>2026-04-23T11:55:48.854Z</time></trkpt><trkpt lat="45.624954165525764" lon="10.008717770989202"><ele>209.33333333333334</ele><time>2026-04-23T11:55:51.854Z</time></trkpt><trkpt lat="45.62489550954111" lon="10.008674996428262"><ele>209.5</ele><time>2026-04-23T11:55:53.854Z</time></trkpt><trkpt lat="45.624835820327725" lon="10.008632329566208"><ele>209.66666666666669</ele><time>2026-04-23T11:55:55.854Z</time></trkpt><trkpt lat="45.62478601158913" lon="10.008555212027314"><ele>209.83333333333334</ele><time>2026-04-23T11:55:58.854Z</time></trkpt><trkpt lat="45.62477079568404" lon="10.008439545302531"><ele>210.0</ele><time>2026-04-23T11:56:02.854Z</time></trkpt><trkpt lat="45.62478885036754" lon="10.008329069038401"><ele>209.66666666666666</ele><time>2026-04-23T11:56:05.854Z</time></trkpt><trkpt lat="45.624818669584286" lon="10.008192781668907"><ele>209.33333333333331</ele><time>2026-04-23T11:56:08.854Z</time></trkpt><trkpt lat="45.624839433742686" lon="10.008097595630694"><ele>209.0</ele><time>2026-04-23T11:56:10.854Z</time></trkpt><trkpt lat="45.624854720987614" lon="10.008003881991831"><ele>208.66666666666666</ele><time>2026-04-23T11:56:12.854Z</time></trkpt><trkpt lat="45.62487735371494" lon="10.007904404821145"><ele>208.33333333333331</ele><time>2026-04-23T11:56:14.854Z</time></trkpt><trkpt lat="45.624903163155025" lon="10.007795484721855"><ele>208.0</ele><time>2026-04-23T11:56:16.854Z</time></trkpt><trkpt lat="45.6249497120453" lon="10.007711662143253"><ele>207.99999999999997</ele><time>2026-04-23T11:56:18.854Z</time></trkpt><trkpt lat="45.62501522071248" lon="10.007654797490483"><ele>208.0</ele><time>2026-04-23T11:56:20.854Z</time></trkpt><trkpt lat="45.62509794420687" lon="10.007610045822332"><ele>208.0</ele><time>2026-04-23T11:56:22.854Z</time></trkpt><trkpt lat="45.6251729290518" lon="10.007594382411662"><ele>208.0</ele><time>2026-04-23T11:56:24.854Z</time></trkpt><trkpt lat="45.6252517584089" lon="10.007563931438424"><ele>207.99999999999997</ele><time>2026-04-23T11:56:26.854Z</time></trkpt><trkpt lat="45.62533452528168" lon="10.007534584585759"><ele>208.0</ele><time>2026-04-23T11:56:28.854Z</time></trkpt><trkpt lat="45.62541567842128" lon="10.007515982326975"><ele>208.16666666666666</ele><time>2026-04-23T11:56:30.854Z</time></trkpt><trkpt lat="45.625484491879064" lon="10.007497998605894"><ele>208.33333333333331</ele><time>2026-04-23T11:56:32.854Z</time></trkpt><trkpt lat="45.62557326506341" lon="10.007479555516479"><ele>208.5</ele><time>2026-04-23T11:56:34.854Z</time></trkpt><trkpt lat="45.625660668688546" lon="10.007457593366926"><ele>208.66666666666669</ele><time>2026-04-23T11:56:36.854Z</time></trkpt><trkpt lat="45.625747100506175" lon="10.007443141514447"><ele>208.83333333333334</ele><time>2026-04-23T11:56:38.854Z</time></trkpt><trkpt lat="45.62583444518019" lon="10.007432027992689"><ele>209.0</ele><time>2026-04-23T11:56:40.854Z</time></trkpt><trkpt lat="45.625916674108" lon="10.007435601586742"><ele>209.00000000000003</ele><time>2026-04-23T11:56:42.854Z</time></trkpt><trkpt lat="45.62599174407102" lon="10.007469084207337"><ele>209.0</ele><time>2026-04-23T11:56:44.854Z</time></trkpt><trkpt lat="45.62604523165777" lon="10.007528422403812"><ele>209.0</ele><time>2026-04-23T11:56:46.854Z</time></trkpt><trkpt lat="45.62610799778" lon="10.007604353522986"><ele>209.0</ele><time>2026-04-23T11:56:48.854Z</time></trkpt><trkpt lat="45.626187334506746" lon="10.007650009884287"><ele>209.00000000000003</ele><time>2026-04-23T11:56:50.854Z</time></trkpt><trkpt lat="45.62626746318348" lon="10.007627036249227"><ele>209.0</ele><time>2026-04-23T11:56:52.854Z</time></trkpt><trkpt lat="45.62634912797924" lon="10.007588529750135"><ele>209.00000000000003</ele><time>2026-04-23T11:56:54.854Z</time></trkpt><trkpt lat="45.626431570594484" lon="10.007574962213665"><ele>209.0</ele><time>2026-04-23T11:56:57.854Z</time></trkpt><trkpt lat="45.626494969332434" lon="10.007520127422458"><ele>209.0</ele><time>2026-04-23T11:56:59.854Z</time></trkpt><trkpt lat="45.626557710765915" lon="10.007435178276094"><ele>209.0</ele><time>2026-04-23T11:57:01.854Z</time></trkpt><trkpt lat="45.62660533694349" lon="10.007310488006503"><ele>209.00000000000003</ele><time>2026-04-23T11:57:03.854Z</time></trkpt><trkpt lat="45.626615292401205" lon="10.007168179226356"><ele>209.0</ele><time>2026-04-23T11:57:05.854Z</time></trkpt><trkpt lat="45.626581547129376" lon="10.007050678765973"><ele>209.33333333333334</ele><time>2026-04-23T11:57:07.854Z</time></trkpt><trkpt lat="45.6265484940248" lon="10.006916267184794"><ele>209.66666666666669</ele><time>2026-04-23T11:57:10.854Z</time></trkpt><trkpt lat="45.62654618041143" lon="10.006813079422646"><ele>210.0</ele><time>2026-04-23T11:57:12.854Z</time></trkpt><trkpt lat="45.62654742013853" lon="10.006689505619033"><ele>210.33333333333331</ele><time>2026-04-23T11:57:14.854Z</time></trkpt><trkpt lat="45.626555287322084" lon="10.00656172576911"><ele>210.66666666666666</ele><time>2026-04-23T11:57:17.854Z</time></trkpt><trkpt lat="45.62655848992514" lon="10.006456560571273"><ele>211.0</ele><time>2026-04-23T11:57:19.854Z</time></trkpt><trkpt lat="45.626568149707516" lon="10.006339994702246"><ele>211.16666666666666</ele><time>2026-04-23T11:57:21.854Z</time></trkpt><trkpt lat="45.62657636550257" lon="10.006176802507424"><ele>211.33333333333331</ele><time>2026-04-23T11:57:24.854Z</time></trkpt><trkpt lat="45.62658112825127" lon="10.006056092378095"><ele>211.5</ele><time>2026-04-23T11:57:26.854Z</time></trkpt><trkpt lat="45.626589642728725" lon="10.005941502911648"><ele>211.66666666666669</ele><time>2026-04-23T11:57:28.854Z</time></trkpt><trkpt lat="45.626586901027416" lon="10.005835632358128"><ele>211.83333333333334</ele><time>2026-04-23T11:57:30.854Z</time></trkpt><trkpt lat="45.62660185953009" lon="10.005707525791536"><ele>212.0</ele><time>2026-04-23T11:57:32.854Z</time></trkpt><trkpt lat="45.626613355495834" lon="10.00558110271702"><ele>212.0</ele><time>2026-04-23T11:57:34.854Z</time></trkpt><trkpt lat="45.62662094355079" lon="10.005459736570705"><ele>212.0</ele><time>2026-04-23T11:57:36.854Z</time></trkpt><trkpt lat="45.626618067135325" lon="10.005308873533615"><ele>212.0</ele><time>2026-04-23T11:57:38.854Z</time></trkpt><trkpt lat="45.6266143843751" lon="10.005184956502367"><ele>212.0</ele><time>2026-04-23T11:57:40.854Z</time></trkpt><trkpt lat="45.62662305222491" lon="10.005028185794421"><ele>212.0</ele><time>2026-04-23T11:57:42.854Z</time></trkpt><trkpt lat="45.62663430850953" lon="10.004890827297979"><ele>212.0</ele><time>2026-04-23T11:57:44.854Z</time></trkpt><trkpt lat="45.62663733345946" lon="10.004765639555124"><ele>212.0</ele><time>2026-04-23T11:57:46.854Z</time></trkpt><trkpt lat="45.626643515084176" lon="10.004623868224801"><ele>212.0</ele><time>2026-04-23T11:57:48.854Z</time></trkpt><trkpt lat="45.62665458668026" lon="10.004478509523802"><ele>212.0</ele><time>2026-04-23T11:57:50.854Z</time></trkpt><trkpt lat="45.626675305527414" lon="10.004336216090755"><ele>212.0</ele><time>2026-04-23T11:57:52.854Z</time></trkpt><trkpt lat="45.62670157988394" lon="10.004181593304569"><ele>211.6</ele><time>2026-04-23T11:57:54.854Z</time></trkpt><trkpt lat="45.626711620822434" lon="10.004065599103706"><ele>211.2</ele><time>2026-04-23T11:57:56.854Z</time></trkpt><trkpt lat="45.62671683927567" lon="10.003916460773446"><ele>210.8</ele><time>2026-04-23T11:57:58.854Z</time></trkpt><trkpt lat="45.6267453925069" lon="10.003776131604013"><ele>210.4</ele><time>2026-04-23T11:58:00.854Z</time></trkpt><trkpt lat="45.62676392036405" lon="10.003619839557873"><ele>210.0</ele><time>2026-04-23T11:58:02.854Z</time></trkpt><trkpt lat="45.626769925554704" lon="10.00348690955665"><ele>210.0</ele><time>2026-04-23T11:58:04.854Z</time></trkpt><trkpt lat="45.6267833672243" lon="10.003371683762788"><ele>210.0</ele><time>2026-04-23T11:58:06.854Z</time></trkpt><trkpt lat="45.626802089393536" lon="10.00324332226516"><ele>210.0</ele><time>2026-04-23T11:58:08.854Z</time></trkpt><trkpt lat="45.62680959187458" lon="10.00311070819234"><ele>210.0</ele><time>2026-04-23T11:58:10.854Z</time></trkpt><trkpt lat="45.62684390100701" lon="10.002990163125313"><ele>210.0</ele><time>2026-04-23T11:58:12.854Z</time></trkpt><trkpt lat="45.62685895130694" lon="10.002875807253476"><ele>210.0</ele><time>2026-04-23T11:58:14.854Z</time></trkpt><trkpt lat="45.62687665579333" lon="10.00274385954847"><ele>210.2</ele><time>2026-04-23T11:58:16.854Z</time></trkpt><trkpt lat="45.62690774025221" lon="10.002609421147051"><ele>210.4</ele><time>2026-04-23T11:58:18.854Z</time></trkpt><trkpt lat="45.62692777187133" lon="10.002522214537478"><ele>210.60000000000002</ele><time>2026-04-23T11:58:19.854Z</time></trkpt><trkpt lat="45.626955874158405" lon="10.00239025532067"><ele>210.8</ele><time>2026-04-23T11:58:21.854Z</time></trkpt><trkpt lat="45.626987607292264" lon="10.00225554459316"><ele>211.0</ele><time>2026-04-23T11:58:23.854Z</time></trkpt><trkpt lat="45.6270179573097" lon="10.002120537620646"><ele>211.0</ele><time>2026-04-23T11:58:25.854Z</time></trkpt><trkpt lat="45.62704729640422" lon="10.001987366920192"><ele>211.0</ele><time>2026-04-23T11:58:27.854Z</time></trkpt><trkpt lat="45.62708339508137" lon="10.001846880892202"><ele>211.0</ele><time>2026-04-23T11:58:29.854Z</time></trkpt><trkpt lat="45.62711115360857" lon="10.001703244584064"><ele>211.0</ele><time>2026-04-23T11:58:31.855Z</time></trkpt><trkpt lat="45.627141553612525" lon="10.001582250240387"><ele>211.0</ele><time>2026-04-23T11:58:33.855Z</time></trkpt><trkpt lat="45.627174860337234" lon="10.001460043965878"><ele>210.75</ele><time>2026-04-23T11:58:35.855Z</time></trkpt><trkpt lat="45.627213319951416" lon="10.001310979772741"><ele>210.5</ele><time>2026-04-23T11:58:37.855Z</time></trkpt><trkpt lat="45.62726322618255" lon="10.00117100324044"><ele>210.25</ele><time>2026-04-23T11:58:39.855Z</time></trkpt><trkpt lat="45.62730422106474" lon="10.00102704320128"><ele>210.0</ele><time>2026-04-23T11:58:41.854Z</time></trkpt><trkpt lat="45.62734325216463" lon="10.000863961587969"><ele>210.0</ele><time>2026-04-23T11:58:43.854Z</time></trkpt><trkpt lat="45.62738594299976" lon="10.000698949680661"><ele>210.0</ele><time>2026-04-23T11:58:45.854Z</time></trkpt><trkpt lat="45.627430126387196" lon="10.000553331168504"><ele>210.0</ele><time>2026-04-23T11:58:47.855Z</time></trkpt><trkpt lat="45.6274716119242" lon="10.000383097967182"><ele>210.0</ele><time>2026-04-23T11:58:49.854Z</time></trkpt><trkpt lat="45.62750215896735" lon="10.000252488286934"><ele>210.0</ele><time>2026-04-23T11:58:51.854Z</time></trkpt><trkpt lat="45.6275111652384" lon="10.000154614656896"><ele>210.0</ele><time>2026-04-23T11:58:53.854Z</time></trkpt><trkpt lat="45.62756301842209" lon="10.00001482712463"><ele>210.0</ele><time>2026-04-23T11:58:55.854Z</time></trkpt><trkpt lat="45.62761012154438" lon="9.999870605105357"><ele>210.0</ele><time>2026-04-23T11:58:57.854Z</time></trkpt><trkpt lat="45.62764623431856" lon="9.999732876607593"><ele>210.0</ele><time>2026-04-23T11:58:59.854Z</time></trkpt><trkpt lat="45.627686661015844" lon="9.999591823027218"><ele>210.0</ele><time>2026-04-23T11:59:01.854Z</time></trkpt><trkpt lat="45.627733897332824" lon="9.999451203769942"><ele>210.0</ele><time>2026-04-23T11:59:03.854Z</time></trkpt><trkpt lat="45.62777178799547" lon="9.999324830229714"><ele>210.0</ele><time>2026-04-23T11:59:05.854Z</time></trkpt><trkpt lat="45.62780354630384" lon="9.999200029270666"><ele>210.0</ele><time>2026-04-23T11:59:07.855Z</time></trkpt><trkpt lat="45.62784347466393" lon="9.999081926130312"><ele>210.0</ele><time>2026-04-23T11:59:09.855Z</time></trkpt><trkpt lat="45.627895359658744" lon="9.998928815061372"><ele>210.0</ele><time>2026-04-23T11:59:11.855Z</time></trkpt><trkpt lat="45.627913515405425" lon="9.998789544035604"><ele>210.0</ele><time>2026-04-23T11:59:13.855Z</time></trkpt><trkpt lat="45.62793019178753" lon="9.998661160552006"><ele>210.0</ele><time>2026-04-23T11:59:15.855Z</time></trkpt><trkpt lat="45.62795329130373" lon="9.998529440540441"><ele>210.0</ele><time>2026-04-23T11:59:17.855Z</time></trkpt><trkpt lat="45.62797381934482" lon="9.998419118159909"><ele>210.0</ele><time>2026-04-23T11:59:19.855Z</time></trkpt><trkpt lat="45.62799349056652" lon="9.99829089239906"><ele>210.2</ele><time>2026-04-23T11:59:21.855Z</time></trkpt><trkpt lat="45.628020292820345" lon="9.998132644224398"><ele>210.4</ele><time>2026-04-23T11:59:23.855Z</time></trkpt><trkpt lat="45.62804251897505" lon="9.997984956639215"><ele>210.60000000000002</ele><time>2026-04-23T11:59:25.855Z</time></trkpt><trkpt lat="45.62806180360901" lon="9.997858912232308"><ele>210.8</ele><time>2026-04-23T11:59:27.855Z</time></trkpt><trkpt lat="45.62808342419903" lon="9.997726685466674"><ele>211.0</ele><time>2026-04-23T11:59:29.855Z</time></trkpt><trkpt lat="45.62811404740293" lon="9.99757008428222"><ele>211.0</ele><time>2026-04-23T11:59:31.855Z</time></trkpt><trkpt lat="45.628137296968355" lon="9.997432215917287"><ele>211.0</ele><time>2026-04-23T11:59:33.855Z</time></trkpt><trkpt lat="45.62816444894299" lon="9.99731367639824"><ele>211.0</ele><time>2026-04-23T11:59:35.855Z</time></trkpt><trkpt lat="45.628193665054006" lon="9.99717025975335"><ele>211.0</ele><time>2026-04-23T11:59:37.855Z</time></trkpt><trkpt lat="45.62821456465214" lon="9.997041556765911"><ele>211.0</ele><time>2026-04-23T11:59:39.855Z</time></trkpt><trkpt lat="45.62823658435209" lon="9.996917424721367"><ele>211.0</ele><time>2026-04-23T11:59:41.855Z</time></trkpt><trkpt lat="45.628261492485876" lon="9.996786797236343"><ele>211.0</ele><time>2026-04-23T11:59:43.855Z</time></trkpt><trkpt lat="45.62828770447374" lon="9.996655277002919"><ele>211.0</ele><time>2026-04-23T11:59:45.855Z</time></trkpt><trkpt lat="45.62831037356337" lon="9.996517701814883"><ele>211.0</ele><time>2026-04-23T11:59:47.855Z</time></trkpt><trkpt lat="45.628340823817084" lon="9.996394856590642"><ele>211.0</ele><time>2026-04-23T11:59:49.855Z</time></trkpt><trkpt lat="45.62836233842465" lon="9.996282664639104"><ele>210.8</ele><time>2026-04-23T11:59:51.855Z</time></trkpt><trkpt lat="45.6283861085379" lon="9.996147750617686"><ele>210.60000000000002</ele><time>2026-04-23T11:59:53.855Z</time></trkpt><trkpt lat="45.628410872074745" lon="9.995999628648851"><ele>210.4</ele><time>2026-04-23T11:59:55.855Z</time></trkpt><trkpt lat="45.62843049969417" lon="9.995885831029947"><ele>210.2</ele><time>2026-04-23T11:59:57.855Z</time></trkpt><trkpt lat="45.62846050119797" lon="9.99576639029371"><ele>210.0</ele><time>2026-04-23T11:59:59.855Z</time></trkpt><trkpt lat="45.62848785195497" lon="9.995631961031208"><ele>210.0</ele><time>2026-04-23T12:00:01.855Z</time></trkpt><trkpt lat="45.62851088930386" lon="9.995492828042904"><ele>210.0</ele><time>2026-04-23T12:00:03.855Z</time></trkpt><trkpt lat="45.62853065488276" lon="9.995367820912643"><ele>210.0</ele><time>2026-04-23T12:00:05.855Z</time></trkpt><trkpt lat="45.62855248093691" lon="9.995243222983383"><ele>210.0</ele><time>2026-04-23T12:00:07.855Z</time></trkpt><trkpt lat="45.62857736154717" lon="9.995127250755043"><ele>210.0</ele><time>2026-04-23T12:00:09.855Z</time></trkpt><trkpt lat="45.628610249736255" lon="9.995007111128206"><ele>210.0</ele><time>2026-04-23T12:00:11.855Z</time></trkpt><trkpt lat="45.62862716528124" lon="9.994886138461547"><ele>210.0</ele><time>2026-04-23T12:00:13.855Z</time></trkpt><trkpt lat="45.62863812774284" lon="9.99475574450603"><ele>210.0</ele><time>2026-04-23T12:00:15.855Z</time></trkpt><trkpt lat="45.62866493858803" lon="9.9946434665619"><ele>210.0</ele><time>2026-04-23T12:00:17.855Z</time></trkpt><trkpt lat="45.62868625439059" lon="9.994516058728816"><ele>210.0</ele><time>2026-04-23T12:00:19.855Z</time></trkpt><trkpt lat="45.62869869313155" lon="9.994419484678073"><ele>210.0</ele><time>2026-04-23T12:00:21.855Z</time></trkpt><trkpt lat="45.628722498145464" lon="9.994288612829259"><ele>210.0</ele><time>2026-04-23T12:00:23.855Z</time></trkpt><trkpt lat="45.628740602975135" lon="9.994172059371408"><ele>210.0</ele><time>2026-04-23T12:00:25.855Z</time></trkpt><trkpt lat="45.628756462768166" lon="9.994068465292994"><ele>210.0</ele><time>2026-04-23T12:00:27.855Z</time></trkpt><trkpt lat="45.62878288022604" lon="9.993942885829822"><ele>210.0</ele><time>2026-04-23T12:00:29.855Z</time></trkpt><trkpt lat="45.62880833767267" lon="9.993828214162471"><ele>210.0</ele><time>2026-04-23T12:00:31.855Z</time></trkpt><trkpt lat="45.628831727509784" lon="9.993704975431214"><ele>210.0</ele><time>2026-04-23T12:00:33.855Z</time></trkpt><trkpt lat="45.62884380755145" lon="9.99359148143318"><ele>209.83333333333334</ele><time>2026-04-23T12:00:35.855Z</time></trkpt><trkpt lat="45.6288711097496" lon="9.99347464602842"><ele>209.66666666666669</ele><time>2026-04-23T12:00:37.855Z</time></trkpt><trkpt lat="45.628894386024626" lon="9.99336203732187"><ele>209.5</ele><time>2026-04-23T12:00:39.855Z</time></trkpt><trkpt lat="45.628917651375524" lon="9.993262315188685"><ele>209.33333333333334</ele><time>2026-04-23T12:00:41.855Z</time></trkpt><trkpt lat="45.6289380607616" lon="9.993154840431925"><ele>209.16666666666669</ele><time>2026-04-23T12:00:43.855Z</time></trkpt><trkpt lat="45.62896244679019" lon="9.993035260162738"><ele>209.0</ele><time>2026-04-23T12:00:45.855Z</time></trkpt><trkpt lat="45.62899004975665" lon="9.992940115652505"><ele>209.33333333333334</ele><time>2026-04-23T12:00:47.855Z</time></trkpt><trkpt lat="45.62901318970366" lon="9.992831932271784"><ele>209.66666666666669</ele><time>2026-04-23T12:00:49.855Z</time></trkpt><trkpt lat="45.629040388836586" lon="9.992720239827271"><ele>210.0</ele><time>2026-04-23T12:00:51.854Z</time></trkpt><trkpt lat="45.62906445967269" lon="9.992624990000943"><ele>210.33333333333331</ele><time>2026-04-23T12:00:53.855Z</time></trkpt><trkpt lat="45.629085447494305" lon="9.99253771342564"><ele>210.66666666666666</ele><time>2026-04-23T12:00:55.854Z</time></trkpt><trkpt lat="45.62910691017574" lon="9.992428604946829"><ele>211.0</ele><time>2026-04-23T12:00:57.855Z</time></trkpt><trkpt lat="45.62913342386462" lon="9.992317057696486"><ele>211.16666666666666</ele><time>2026-04-23T12:00:59.854Z</time></trkpt><trkpt lat="45.629153268702254" lon="9.992230559906512"><ele>211.33333333333331</ele><time>2026-04-23T12:01:01.854Z</time></trkpt><trkpt lat="45.62917610293177" lon="9.992128118779188"><ele>211.5</ele><time>2026-04-23T12:01:03.854Z</time></trkpt><trkpt lat="45.629198243422906" lon="9.992038278379908"><ele>211.66666666666669</ele><time>2026-04-23T12:01:05.854Z</time></trkpt><trkpt lat="45.629227708586974" lon="9.991930775937018"><ele>211.83333333333334</ele><time>2026-04-23T12:01:08.854Z</time></trkpt><trkpt lat="45.629246185166906" lon="9.99184116375333"><ele>212.0</ele><time>2026-04-23T12:01:10.854Z</time></trkpt><trkpt lat="45.62927377570433" lon="9.991701853947005"><ele>212.66666666666669</ele><time>2026-04-23T12:01:13.854Z</time></trkpt><trkpt lat="45.629303496036414" lon="9.991592646262513"><ele>213.33333333333334</ele><time>2026-04-23T12:01:15.854Z</time></trkpt><trkpt lat="45.629328007844414" lon="9.991468680341656"><ele>214.0</ele><time>2026-04-23T12:01:17.854Z</time></trkpt><trkpt lat="45.62934466718543" lon="9.991360955725433"><ele>214.66666666666669</ele><time>2026-04-23T12:01:19.854Z</time></trkpt><trkpt lat="45.62936454916724" lon="9.991265311424948"><ele>215.33333333333334</ele><time>2026-04-23T12:01:21.854Z</time></trkpt><trkpt lat="45.62938588283466" lon="9.991177483282247"><ele>216.0</ele><time>2026-04-23T12:01:23.854Z</time></trkpt><trkpt lat="45.62936500468001" lon="9.991056224444085"><ele>216.0</ele><time>2026-04-23T12:01:26.854Z</time></trkpt><trkpt lat="45.6292911812859" lon="9.99098478182535"><ele>216.0</ele><time>2026-04-23T12:01:29.854Z</time></trkpt><trkpt lat="45.629233891434744" lon="9.990896126381715"><ele>216.0</ele><time>2026-04-23T12:01:31.854Z</time></trkpt><trkpt lat="45.629166415728264" lon="9.990830848010184"><ele>216.0</ele><time>2026-04-23T12:01:33.854Z</time></trkpt><trkpt lat="45.629128949980746" lon="9.990757591502078"><ele>216.0</ele><time>2026-04-23T12:01:35.854Z</time></trkpt><trkpt lat="45.62907276597563" lon="9.990697892975534"><ele>216.0</ele><time>2026-04-23T12:01:37.854Z</time></trkpt><trkpt lat="45.62900371151477" lon="9.990611252098615"><ele>216.66666666666666</ele><time>2026-04-23T12:01:39.854Z</time></trkpt><trkpt lat="45.62896031513828" lon="9.9905079422051"><ele>217.33333333333331</ele><time>2026-04-23T12:01:41.854Z</time></trkpt><trkpt lat="45.628943336041644" lon="9.990414625898625"><ele>218.0</ele><time>2026-04-23T12:01:43.854Z</time></trkpt><trkpt lat="45.628916529597916" lon="9.99030923937073"><ele>218.66666666666666</ele><time>2026-04-23T12:01:46.854Z</time></trkpt><trkpt lat="45.628903810974315" lon="9.990217526106797"><ele>219.33333333333331</ele><time>2026-04-23T12:01:48.854Z</time></trkpt><trkpt lat="45.62887590423202" lon="9.990116544211274"><ele>220.0</ele><time>2026-04-23T12:01:50.854Z</time></trkpt><trkpt lat="45.628865636814616" lon="9.990002730662399"><ele>219.99999999999997</ele><time>2026-04-23T12:01:52.854Z</time></trkpt><trkpt lat="45.62886187133692" lon="9.989910409458448"><ele>220.0</ele><time>2026-04-23T12:01:54.854Z</time></trkpt><trkpt lat="45.62885373036676" lon="9.989796939620538"><ele>220.0</ele><time>2026-04-23T12:01:56.854Z</time></trkpt><trkpt lat="45.628840927150655" lon="9.98967795468293"><ele>220.0</ele><time>2026-04-23T12:01:58.854Z</time></trkpt><trkpt lat="45.62883256819893" lon="9.989575646658453"><ele>219.99999999999997</ele><time>2026-04-23T12:02:00.854Z</time></trkpt><trkpt lat="45.62881977540335" lon="9.989482074049759"><ele>220.0</ele><time>2026-04-23T12:02:02.854Z</time></trkpt><trkpt lat="45.628811197145566" lon="9.98935387104274"><ele>219.99999999999997</ele><time>2026-04-23T12:02:04.854Z</time></trkpt><trkpt lat="45.62880845825071" lon="9.989238419356113"><ele>220.0</ele><time>2026-04-23T12:02:06.854Z</time></trkpt><trkpt lat="45.62880910176384" lon="9.989123600962474"><ele>220.0</ele><time>2026-04-23T12:02:08.854Z</time></trkpt><trkpt lat="45.62881123073808" lon="9.98898354770131"><ele>220.0</ele><time>2026-04-23T12:02:10.854Z</time></trkpt><trkpt lat="45.62881727782018" lon="9.988859981185078"><ele>219.99999999999997</ele><time>2026-04-23T12:02:12.854Z</time></trkpt><trkpt lat="45.628819326953135" lon="9.988762844937753"><ele>220.0</ele><time>2026-04-23T12:02:14.854Z</time></trkpt><trkpt lat="45.62882317998462" lon="9.988647993141907"><ele>219.99999999999997</ele><time>2026-04-23T12:02:16.854Z</time></trkpt><trkpt lat="45.62882191983615" lon="9.98855654217614"><ele>220.0</ele><time>2026-04-23T12:02:18.854Z</time></trkpt><trkpt lat="45.62883041698335" lon="9.988462985215545"><ele>220.0</ele><time>2026-04-23T12:02:20.855Z</time></trkpt><trkpt lat="45.62883960450623" lon="9.988355468272763"><ele>220.0</ele><time>2026-04-23T12:02:22.855Z</time></trkpt><trkpt lat="45.628837429049184" lon="9.988242712638495"><ele>220.0</ele><time>2026-04-23T12:02:25.855Z</time></trkpt><trkpt lat="45.62885802368089" lon="9.988132505778324"><ele>219.99999999999997</ele><time>2026-04-23T12:02:28.855Z</time></trkpt><trkpt lat="45.62885874420062" lon="9.988031280396529"><ele>220.0</ele><time>2026-04-23T12:02:30.855Z</time></trkpt><trkpt lat="45.6288609075778" lon="9.987899760612045"><ele>220.42857142857142</ele><time>2026-04-23T12:02:33.855Z</time></trkpt><trkpt lat="45.62886066833077" lon="9.987803993680235"><ele>220.85714285714286</ele><time>2026-04-23T12:02:35.855Z</time></trkpt><trkpt lat="45.62885726130694" lon="9.987686246933716"><ele>221.28571428571428</ele><time>2026-04-23T12:02:38.855Z</time></trkpt><trkpt lat="45.62883940984376" lon="9.987579958205007"><ele>221.71428571428572</ele><time>2026-04-23T12:02:40.855Z</time></trkpt><trkpt lat="45.628831202932204" lon="9.98748972625601"><ele>222.14285714285714</ele><time>2026-04-23T12:02:42.855Z</time></trkpt><trkpt lat="45.628833851028986" lon="9.987398452159526"><ele>222.57142857142856</ele><time>2026-04-23T12:02:45.855Z</time></trkpt><trkpt lat="45.62882073623844" lon="9.98728533452"><ele>223.0</ele><time>2026-04-23T12:02:47.855Z</time></trkpt><trkpt lat="45.628816317892124" lon="9.987188405392166"><ele>223.99999999999997</ele><time>2026-04-23T12:02:49.855Z</time></trkpt><trkpt lat="45.62882237376777" lon="9.98708980392283"><ele>225.0</ele><time>2026-04-23T12:02:52.855Z</time></trkpt><trkpt lat="45.62882740543524" lon="9.986973162718382"><ele>226.0</ele><time>2026-04-23T12:02:55.855Z</time></trkpt><trkpt lat="45.62882135836549" lon="9.986869158119964"><ele>227.0</ele><time>2026-04-23T12:02:57.855Z</time></trkpt><trkpt lat="45.62883464937601" lon="9.98675742731526"><ele>227.99999999999997</ele><time>2026-04-23T12:03:00.855Z</time></trkpt><trkpt lat="45.628873254545994" lon="9.986638561454269"><ele>229.0</ele><time>2026-04-23T12:03:05.855Z</time></trkpt><trkpt lat="45.62888883749616" lon="9.98652772345674"><ele>229.49999999999997</ele><time>2026-04-23T12:03:08.855Z</time></trkpt><trkpt lat="45.628910879455724" lon="9.986418356192603"><ele>230.0</ele><time>2026-04-23T12:03:10.855Z</time></trkpt><trkpt lat="45.62894320089795" lon="9.986332035018897"><ele>230.5</ele><time>2026-04-23T12:03:12.855Z</time></trkpt><trkpt lat="45.628963018696496" lon="9.98623441434939"><ele>231.0</ele><time>2026-04-23T12:03:14.855Z</time></trkpt><trkpt lat="45.628990173495936" lon="9.986126704830738"><ele>231.49999999999997</ele><time>2026-04-23T12:03:16.855Z</time></trkpt><trkpt lat="45.62901365531897" lon="9.986007566695713"><ele>232.0</ele><time>2026-04-23T12:03:18.855Z</time></trkpt><trkpt lat="45.62903811323982" lon="9.985880034670267"><ele>232.16666666666666</ele><time>2026-04-23T12:03:20.855Z</time></trkpt><trkpt lat="45.62907025300211" lon="9.985758740005817"><ele>232.33333333333331</ele><time>2026-04-23T12:03:22.855Z</time></trkpt><trkpt lat="45.6291145056225" lon="9.985655602331622"><ele>232.5</ele><time>2026-04-23T12:03:24.855Z</time></trkpt><trkpt lat="45.62915691215101" lon="9.985548770241207"><ele>232.66666666666669</ele><time>2026-04-23T12:03:26.855Z</time></trkpt><trkpt lat="45.62917032992177" lon="9.985453463030272"><ele>232.83333333333334</ele><time>2026-04-23T12:03:28.855Z</time></trkpt><trkpt lat="45.62918255902762" lon="9.985360994818677"><ele>233.0</ele><time>2026-04-23T12:03:30.855Z</time></trkpt><trkpt lat="45.62920963521683" lon="9.98526950454708"><ele>233.00000000000003</ele><time>2026-04-23T12:03:32.855Z</time></trkpt><trkpt lat="45.629247467440486" lon="9.985189838872072"><ele>233.0</ele><time>2026-04-23T12:03:34.855Z</time></trkpt><trkpt lat="45.62929403765518" lon="9.985093775210062"><ele>233.0</ele><time>2026-04-23T12:03:36.855Z</time></trkpt><trkpt lat="45.62930858252133" lon="9.984976599414573"><ele>233.0</ele><time>2026-04-23T12:03:38.855Z</time></trkpt><trkpt lat="45.6292915932958" lon="9.984885315741966"><ele>233.00000000000003</ele><time>2026-04-23T12:03:41.855Z</time></trkpt><trkpt lat="45.62925705589757" lon="9.984792166727031"><ele>233.0</ele><time>2026-04-23T12:03:44.855Z</time></trkpt><trkpt lat="45.62922901932268" lon="9.984684460739851"><ele>233.16666666666669</ele><time>2026-04-23T12:03:49.855Z</time></trkpt><trkpt lat="45.62918223165824" lon="9.98459494385345"><ele>233.33333333333334</ele><time>2026-04-23T12:03:51.855Z</time></trkpt><trkpt lat="45.62911274104409" lon="9.98454026784779"><ele>233.5</ele><time>2026-04-23T12:03:53.855Z</time></trkpt><trkpt lat="45.62902991756898" lon="9.984469288758902"><ele>233.66666666666669</ele><time>2026-04-23T12:03:56.855Z</time></trkpt><trkpt lat="45.628932602143095" lon="9.984418815092605"><ele>233.83333333333334</ele><time>2026-04-23T12:03:58.855Z</time></trkpt><trkpt lat="45.628866492521354" lon="9.984394384471388"><ele>234.0</ele><time>2026-04-23T12:04:00.855Z</time></trkpt><trkpt lat="45.628789556106" lon="9.9843707471411"><ele>234.0</ele><time>2026-04-23T12:04:02.855Z</time></trkpt><trkpt lat="45.62870689542861" lon="9.984329745757924"><ele>234.0</ele><time>2026-04-23T12:04:04.855Z</time></trkpt><trkpt lat="45.62862545606897" lon="9.984287064352579"><ele>234.0</ele><time>2026-04-23T12:04:06.855Z</time></trkpt><trkpt lat="45.62855364360336" lon="9.984230326058311"><ele>234.0</ele><time>2026-04-23T12:04:08.855Z</time></trkpt><trkpt lat="45.62847359846714" lon="9.984192838088342"><ele>234.0</ele><time>2026-04-23T12:04:10.855Z</time></trkpt><trkpt lat="45.62841192524839" lon="9.984164435930522"><ele>234.0</ele><time>2026-04-23T12:04:12.855Z</time></trkpt><trkpt lat="45.62830623218422" lon="9.984189280594096"><ele>233.79999999999998</ele><time>2026-04-23T12:04:15.855Z</time></trkpt><trkpt lat="45.62820783167769" lon="9.9842159740068"><ele>233.59999999999997</ele><time>2026-04-23T12:04:17.855Z</time></trkpt><trkpt lat="45.628125809246356" lon="9.984246046158235"><ele>233.4</ele><time>2026-04-23T12:04:20.855Z</time></trkpt><trkpt lat="45.62803549492579" lon="9.984197718634501"><ele>233.2</ele><time>2026-04-23T12:04:22.855Z</time></trkpt><trkpt lat="45.627928114745714" lon="9.98414992450826"><ele>233.0</ele><time>2026-04-23T12:04:24.855Z</time></trkpt><trkpt lat="45.62785722841002" lon="9.984098394963782"><ele>233.4</ele><time>2026-04-23T12:04:27.855Z</time></trkpt><trkpt lat="45.62776668349566" lon="9.984025394591995"><ele>233.8</ele><time>2026-04-23T12:04:30.855Z</time></trkpt><trkpt lat="45.62769227645991" lon="9.983952737240566"><ele>234.2</ele><time>2026-04-23T12:04:32.855Z</time></trkpt><trkpt lat="45.627634107467024" lon="9.983917586812803"><ele>234.6</ele><time>2026-04-23T12:04:33.855Z</time></trkpt><trkpt lat="45.62752993416282" lon="9.983859288101073"><ele>235.0</ele><time>2026-04-23T12:04:35.855Z</time></trkpt><trkpt lat="45.62742110433448" lon="9.983790390857273"><ele>234.99999999999997</ele><time>2026-04-23T12:04:37.855Z</time></trkpt><trkpt lat="45.627347394549375" lon="9.983729148546177"><ele>235.0</ele><time>2026-04-23T12:04:39.855Z</time></trkpt><trkpt lat="45.62724927330395" lon="9.983688932193523"><ele>235.0</ele><time>2026-04-23T12:04:41.855Z</time></trkpt><trkpt lat="45.627164271704125" lon="9.983630780223182"><ele>235.0</ele><time>2026-04-23T12:04:43.855Z</time></trkpt><trkpt lat="45.627090139781984" lon="9.98359093317538"><ele>234.99999999999997</ele><time>2026-04-23T12:04:45.855Z</time></trkpt><trkpt lat="45.627003198579374" lon="9.983573132095586"><ele>235.0</ele><time>2026-04-23T12:04:47.855Z</time></trkpt><trkpt lat="45.626885709543394" lon="9.983531599623118"><ele>234.99999999999997</ele><time>2026-04-23T12:04:49.855Z</time></trkpt><trkpt lat="45.62681019916173" lon="9.983507706823845"><ele>235.0</ele><time>2026-04-23T12:04:51.855Z</time></trkpt><trkpt lat="45.62674679595831" lon="9.983461989136988"><ele>235.0</ele><time>2026-04-23T12:04:53.855Z</time></trkpt><trkpt lat="45.626685762359436" lon="9.983408728914752"><ele>235.0</ele><time>2026-04-23T12:04:55.855Z</time></trkpt><trkpt lat="45.62659854728488" lon="9.98337805000174"><ele>234.99999999999997</ele><time>2026-04-23T12:04:57.855Z</time></trkpt><trkpt lat="45.626500468645844" lon="9.983315043652077"><ele>235.0</ele><time>2026-04-23T12:05:00.855Z</time></trkpt><trkpt lat="45.62640630672032" lon="9.983287056961546"><ele>235.66666666666666</ele><time>2026-04-23T12:05:02.855Z</time></trkpt><trkpt lat="45.626338478119834" lon="9.983234997948742"><ele>236.33333333333331</ele><time>2026-04-23T12:05:04.855Z</time></trkpt><trkpt lat="45.62628169926754" lon="9.983146984117429"><ele>237.0</ele><time>2026-04-23T12:05:07.855Z</time></trkpt><trkpt lat="45.62621568405502" lon="9.983098980141257"><ele>237.66666666666669</ele><time>2026-04-23T12:05:09.855Z</time></trkpt><trkpt lat="45.62616059478798" lon="9.983030623028007"><ele>238.33333333333334</ele><time>2026-04-23T12:05:11.855Z</time></trkpt><trkpt lat="45.62606946327729" lon="9.98298424442707"><ele>239.0</ele><time>2026-04-23T12:05:13.855Z</time></trkpt><trkpt lat="45.62599640848105" lon="9.982953214512193"><ele>239.00000000000003</ele><time>2026-04-23T12:05:16.855Z</time></trkpt><trkpt lat="45.62593172302785" lon="9.982922910981545"><ele>239.0</ele><time>2026-04-23T12:05:18.855Z</time></trkpt><trkpt lat="45.62586187735859" lon="9.982870948236833"><ele>239.0</ele><time>2026-04-23T12:05:20.855Z</time></trkpt><trkpt lat="45.62579802766029" lon="9.982798410675194"><ele>239.0</ele><time>2026-04-23T12:05:22.855Z</time></trkpt><trkpt lat="45.62574445078649" lon="9.982722879963884"><ele>239.00000000000003</ele><time>2026-04-23T12:05:26.855Z</time></trkpt><trkpt lat="45.62569555818804" lon="9.982655953338025"><ele>239.0</ele><time>2026-04-23T12:05:29.855Z</time></trkpt><trkpt lat="45.62565264010058" lon="9.982555535928624"><ele>239.83333333333334</ele><time>2026-04-23T12:05:32.855Z</time></trkpt><trkpt lat="45.625597317845056" lon="9.9824410476853"><ele>240.66666666666669</ele><time>2026-04-23T12:05:36.855Z</time></trkpt><trkpt lat="45.62555013352253" lon="9.982339678024067"><ele>241.5</ele><time>2026-04-23T12:05:39.855Z</time></trkpt><trkpt lat="45.62550181895313" lon="9.982246785794796"><ele>242.33333333333331</ele><time>2026-04-23T12:05:42.855Z</time></trkpt><trkpt lat="45.62544369067804" lon="9.982156907704752"><ele>243.16666666666666</ele><time>2026-04-23T12:05:45.855Z</time></trkpt><trkpt lat="45.62538524510721" lon="9.982087376743054"><ele>244.0</ele><time>2026-04-23T12:05:48.855Z</time></trkpt><trkpt lat="45.62531627500366" lon="9.981986642854485"><ele>243.83333333333331</ele><time>2026-04-23T12:05:51.855Z</time></trkpt><trkpt lat="45.62525518671654" lon="9.981918103962537"><ele>243.66666666666666</ele><time>2026-04-23T12:05:54.855Z</time></trkpt><trkpt lat="45.62520540276135" lon="9.981858400439135"><ele>243.5</ele><time>2026-04-23T12:05:56.855Z</time></trkpt><trkpt lat="45.625152805249975" lon="9.981807737003203"><ele>243.33333333333331</ele><time>2026-04-23T12:05:58.855Z</time></trkpt><trkpt lat="45.62510925717118" lon="9.981738279943997"><ele>243.16666666666666</ele><time>2026-04-23T12:06:00.855Z</time></trkpt><trkpt lat="45.62502680013263" lon="9.981626764213678"><ele>243.0</ele><time>2026-04-23T12:06:03.855Z</time></trkpt><trkpt lat="45.62497040864456" lon="9.981565656049296"><ele>243.5</ele><time>2026-04-23T12:06:05.855Z</time></trkpt><trkpt lat="45.62490126152439" lon="9.98150233282727"><ele>244.0</ele><time>2026-04-23T12:06:07.855Z</time></trkpt><trkpt lat="45.624852735572354" lon="9.98140506595201"><ele>244.5</ele><time>2026-04-23T12:06:09.855Z</time></trkpt><trkpt lat="45.624789492424426" lon="9.981351430388395"><ele>245.0</ele><time>2026-04-23T12:06:11.855Z</time></trkpt><trkpt lat="45.624730668189606" lon="9.981281033955776"><ele>245.5</ele><time>2026-04-23T12:06:13.855Z</time></trkpt><trkpt lat="45.62467690063132" lon="9.98122877828007"><ele>246.0</ele><time>2026-04-23T12:06:15.855Z</time></trkpt><trkpt lat="45.62461714997245" lon="9.981165535210415"><ele>246.0</ele><time>2026-04-23T12:06:18.855Z</time></trkpt><trkpt lat="45.62454018939398" lon="9.981089992664337"><ele>246.0</ele><time>2026-04-23T12:06:21.855Z</time></trkpt><trkpt lat="45.62448083327058" lon="9.981009307360384"><ele>246.0</ele><time>2026-04-23T12:06:24.855Z</time></trkpt><trkpt lat="45.62439452729895" lon="9.980977202434149"><ele>246.0</ele><time>2026-04-23T12:06:27.855Z</time></trkpt><trkpt lat="45.62431573113344" lon="9.980927746172688"><ele>246.0</ele><time>2026-04-23T12:06:30.855Z</time></trkpt><trkpt lat="45.624235307288465" lon="9.980893383443066"><ele>246.0</ele><time>2026-04-23T12:06:32.855Z</time></trkpt><trkpt lat="45.624177362578266" lon="9.980817658778612"><ele>246.83333333333334</ele><time>2026-04-23T12:06:34.855Z</time></trkpt><trkpt lat="45.62409325320135" lon="9.980784454939405"><ele>247.66666666666669</ele><time>2026-04-23T12:06:36.855Z</time></trkpt><trkpt lat="45.62401778761879" lon="9.980762444001927"><ele>248.5</ele><time>2026-04-23T12:06:37.855Z</time></trkpt><trkpt lat="45.62393122789379" lon="9.980729509777241"><ele>249.33333333333334</ele><time>2026-04-23T12:06:38.855Z</time></trkpt><trkpt lat="45.623862068331285" lon="9.98071058990644"><ele>250.16666666666669</ele><time>2026-04-23T12:06:39.855Z</time></trkpt><trkpt lat="45.62378672002609" lon="9.980692182612774"><ele>251.0</ele><time>2026-04-23T12:06:40.855Z</time></trkpt><trkpt lat="45.62372031174703" lon="9.980665729466354"><ele>251.00000000000003</ele><time>2026-04-23T12:06:41.855Z</time></trkpt><trkpt lat="45.62365275266013" lon="9.980641156062415"><ele>251.0</ele><time>2026-04-23T12:06:42.855Z</time></trkpt><trkpt lat="45.62357772858392" lon="9.980613822670113"><ele>251.0</ele><time>2026-04-23T12:06:43.855Z</time></trkpt><trkpt lat="45.623508590414005" lon="9.98058336154338"><ele>251.0</ele><time>2026-04-23T12:06:44.855Z</time></trkpt><trkpt lat="45.62343415092797" lon="9.980556696024124"><ele>251.00000000000003</ele><time>2026-04-23T12:06:45.855Z</time></trkpt><trkpt lat="45.623366239108975" lon="9.980518278128415"><ele>251.0</ele><time>2026-04-23T12:06:46.855Z</time></trkpt><trkpt lat="45.623228222963775" lon="9.980450157546596"><ele>250.16666666666669</ele><time>2026-04-23T12:06:48.855Z</time></trkpt><trkpt lat="45.62313477384177" lon="9.980439823233018"><ele>249.33333333333334</ele><time>2026-04-23T12:06:49.855Z</time></trkpt><trkpt lat="45.62305652957828" lon="9.980410183942116"><ele>248.5</ele><time>2026-04-23T12:06:50.855Z</time></trkpt><trkpt lat="45.622987411438196" lon="9.980377205794342"><ele>247.66666666666669</ele><time>2026-04-23T12:06:51.855Z</time></trkpt><trkpt lat="45.62290563353621" lon="9.980343236425508"><ele>246.83333333333334</ele><time>2026-04-23T12:06:52.855Z</time></trkpt><trkpt lat="45.62283058825217" lon="9.980311007887492"><ele>246.0</ele><time>2026-04-23T12:06:53.855Z</time></trkpt><trkpt lat="45.62273397206188" lon="9.980247454865449"><ele>245.8</ele><time>2026-04-23T12:06:55.855Z</time></trkpt><trkpt lat="45.62263104327315" lon="9.98019278692748"><ele>245.60000000000002</ele><time>2026-04-23T12:06:57.855Z</time></trkpt><trkpt lat="45.622537258377605" lon="9.980124468083755"><ele>245.4</ele><time>2026-04-23T12:06:59.855Z</time></trkpt><trkpt lat="45.62243611812528" lon="9.980062492532456"><ele>245.2</ele><time>2026-04-23T12:07:01.855Z</time></trkpt><trkpt lat="45.622358817940246" lon="9.980009938828639"><ele>245.0</ele><time>2026-04-23T12:07:03.855Z</time></trkpt><trkpt lat="45.622288982826326" lon="9.97994888053608"><ele>245.4</ele><time>2026-04-23T12:07:05.856Z</time></trkpt><trkpt lat="45.6221916786964" lon="9.97989199435118"><ele>245.8</ele><time>2026-04-23T12:07:07.855Z</time></trkpt><trkpt lat="45.62210700270524" lon="9.979828269206461"><ele>246.2</ele><time>2026-04-23T12:07:09.856Z</time></trkpt><trkpt lat="45.622030888575544" lon="9.979777113467462"><ele>246.6</ele><time>2026-04-23T12:07:11.856Z</time></trkpt><trkpt lat="45.62194528465978" lon="9.979726661468383"><ele>247.0</ele><time>2026-04-23T12:07:13.855Z</time></trkpt><trkpt lat="45.62187455528148" lon="9.979685783145346"><ele>246.99999999999997</ele><time>2026-04-23T12:07:15.856Z</time></trkpt><trkpt lat="45.62179880250018" lon="9.979640653435226"><ele>247.0</ele><time>2026-04-23T12:07:17.856Z</time></trkpt><trkpt lat="45.62172126800809" lon="9.979612268107827"><ele>247.0</ele><time>2026-04-23T12:07:19.856Z</time></trkpt><trkpt lat="45.62163314252687" lon="9.979578229356083"><ele>247.0</ele><time>2026-04-23T12:07:21.856Z</time></trkpt><trkpt lat="45.6215475444324" lon="9.979549431729469"><ele>246.99999999999997</ele><time>2026-04-23T12:07:23.856Z</time></trkpt><trkpt lat="45.62146134996339" lon="9.979528279451834"><ele>247.0</ele><time>2026-04-23T12:07:25.856Z</time></trkpt><trkpt lat="45.62137808888103" lon="9.979509456173432"><ele>246.99999999999997</ele><time>2026-04-23T12:07:27.856Z</time></trkpt><trkpt lat="45.6212931287763" lon="9.979483723359191"><ele>247.0</ele><time>2026-04-23T12:07:29.856Z</time></trkpt><trkpt lat="45.62120488331841" lon="9.979457073736638"><ele>247.0</ele><time>2026-04-23T12:07:31.856Z</time></trkpt><trkpt lat="45.62111063444971" lon="9.9794352206951"><ele>247.0</ele><time>2026-04-23T12:07:33.856Z</time></trkpt><trkpt lat="45.62102566101779" lon="9.979410167060273"><ele>246.99999999999997</ele><time>2026-04-23T12:07:35.856Z</time></trkpt><trkpt lat="45.62093771193572" lon="9.979387662845225"><ele>247.0</ele><time>2026-04-23T12:07:37.856Z</time></trkpt><trkpt lat="45.620853487459165" lon="9.979363249536123"><ele>247.16666666666666</ele><time>2026-04-23T12:07:39.856Z</time></trkpt><trkpt lat="45.62076079650707" lon="9.979341879528114"><ele>247.33333333333331</ele><time>2026-04-23T12:07:41.856Z</time></trkpt><trkpt lat="45.62068705789907" lon="9.979324763400898"><ele>247.5</ele><time>2026-04-23T12:07:43.856Z</time></trkpt><trkpt lat="45.62059107433121" lon="9.979290333356216"><ele>247.66666666666669</ele><time>2026-04-23T12:07:46.856Z</time></trkpt><trkpt lat="45.62050275797139" lon="9.97924902334756"><ele>247.83333333333334</ele><time>2026-04-23T12:07:49.856Z</time></trkpt><trkpt lat="45.62043024227898" lon="9.979212388797782"><ele>248.0</ele><time>2026-04-23T12:07:51.856Z</time></trkpt><trkpt lat="45.62035729616356" lon="9.979195839165373"><ele>249.50000000000003</ele><time>2026-04-23T12:07:53.856Z</time></trkpt><trkpt lat="45.620278678111234" lon="9.979170740448938"><ele>251.0</ele><time>2026-04-23T12:07:55.856Z</time></trkpt><trkpt lat="45.620175436013646" lon="9.979151337453793"><ele>252.5</ele><time>2026-04-23T12:07:57.856Z</time></trkpt><trkpt lat="45.62010563612694" lon="9.979128879834683"><ele>254.0</ele><time>2026-04-23T12:07:59.856Z</time></trkpt><trkpt lat="45.62001694189503" lon="9.979111382370839"><ele>255.50000000000003</ele><time>2026-04-23T12:08:01.856Z</time></trkpt><trkpt lat="45.61993115564727" lon="9.979097768920525"><ele>257.0</ele><time>2026-04-23T12:08:03.856Z</time></trkpt><trkpt lat="45.61983305287182" lon="9.97907086794515"><ele>257.0</ele><time>2026-04-23T12:08:06.856Z</time></trkpt><trkpt lat="45.619759335147705" lon="9.979043701929871"><ele>257.0</ele><time>2026-04-23T12:08:08.856Z</time></trkpt><trkpt lat="45.619675583405474" lon="9.979002663478033"><ele>257.0</ele><time>2026-04-23T12:08:10.856Z</time></trkpt><trkpt lat="45.61958251397777" lon="9.978944476294876"><ele>257.0</ele><time>2026-04-23T12:08:12.856Z</time></trkpt><trkpt lat="45.619495412943344" lon="9.978881084960184"><ele>257.0</ele><time>2026-04-23T12:08:14.856Z</time></trkpt><trkpt lat="45.61941370698823" lon="9.978823345493765"><ele>256.6</ele><time>2026-04-23T12:08:16.856Z</time></trkpt><trkpt lat="45.619339728629654" lon="9.978737431907346"><ele>256.2</ele><time>2026-04-23T12:08:18.856Z</time></trkpt><trkpt lat="45.61927144286087" lon="9.978658870997911"><ele>255.8</ele><time>2026-04-23T12:08:20.856Z</time></trkpt><trkpt lat="45.619201261481955" lon="9.97855030782944"><ele>255.4</ele><time>2026-04-23T12:08:22.856Z</time></trkpt><trkpt lat="45.619146504669814" lon="9.978455914625824"><ele>255.0</ele><time>2026-04-23T12:08:24.856Z</time></trkpt><trkpt lat="45.619090470788436" lon="9.978365588470464"><ele>255.6</ele><time>2026-04-23T12:08:26.856Z</time></trkpt><trkpt lat="45.61904509542446" lon="9.978241395445373"><ele>256.2</ele><time>2026-04-23T12:08:28.856Z</time></trkpt><trkpt lat="45.618997440825254" lon="9.978127419925704"><ele>256.8</ele><time>2026-04-23T12:08:30.856Z</time></trkpt><trkpt lat="45.61895515180504" lon="9.977993912712918"><ele>257.4</ele><time>2026-04-23T12:08:32.856Z</time></trkpt><trkpt lat="45.61892345758125" lon="9.977870762204862"><ele>258.0</ele><time>2026-04-23T12:08:34.856Z</time></trkpt><trkpt lat="45.61889648378482" lon="9.977744130729542"><ele>258.0</ele><time>2026-04-23T12:08:36.856Z</time></trkpt><trkpt lat="45.618870689045565" lon="9.977618509735787"><ele>258.0</ele><time>2026-04-23T12:08:38.856Z</time></trkpt><trkpt lat="45.61885141929024" lon="9.97749384816774"><ele>258.0</ele><time>2026-04-23T12:08:40.856Z</time></trkpt><trkpt lat="45.61883382867452" lon="9.977359125710656"><ele>258.0</ele><time>2026-04-23T12:08:42.856Z</time></trkpt><trkpt lat="45.61883557042894" lon="9.977229946997175"><ele>258.0</ele><time>2026-04-23T12:08:44.856Z</time></trkpt><trkpt lat="45.61883374633688" lon="9.977096290841807"><ele>258.0</ele><time>2026-04-23T12:08:46.856Z</time></trkpt><trkpt lat="45.618830601444046" lon="9.976986762209789"><ele>258.0</ele><time>2026-04-23T12:08:48.856Z</time></trkpt><trkpt lat="45.61883343053928" lon="9.97685788786563"><ele>258.0</ele><time>2026-04-23T12:08:50.856Z</time></trkpt><trkpt lat="45.61883650999791" lon="9.976756850353476"><ele>258.0</ele><time>2026-04-23T12:08:52.856Z</time></trkpt><trkpt lat="45.61885940136425" lon="9.976614487353727"><ele>258.0</ele><time>2026-04-23T12:08:54.856Z</time></trkpt><trkpt lat="45.61886319792763" lon="9.97646431622701"><ele>258.0</ele><time>2026-04-23T12:08:56.856Z</time></trkpt><trkpt lat="45.61887485882371" lon="9.976326984350207"><ele>258.2</ele><time>2026-04-23T12:08:58.856Z</time></trkpt><trkpt lat="45.61888854701947" lon="9.976167626047689"><ele>258.4</ele><time>2026-04-23T12:09:00.856Z</time></trkpt><trkpt lat="45.61889467219319" lon="9.976033401650815"><ele>258.59999999999997</ele><time>2026-04-23T12:09:02.856Z</time></trkpt><trkpt lat="45.618892702648445" lon="9.975890470570068"><ele>258.8</ele><time>2026-04-23T12:09:04.856Z</time></trkpt><trkpt lat="45.61889978620366" lon="9.9757287880664"><ele>259.0</ele><time>2026-04-23T12:09:06.856Z</time></trkpt><trkpt lat="45.6188919941393" lon="9.975566525468912"><ele>259.75</ele><time>2026-04-23T12:09:08.856Z</time></trkpt><trkpt lat="45.618891501010296" lon="9.975399194161849"><ele>260.5</ele><time>2026-04-23T12:09:10.855Z</time></trkpt><trkpt lat="45.61889061292271" lon="9.975249377485309"><ele>261.25</ele><time>2026-04-23T12:09:12.856Z</time></trkpt><trkpt lat="45.61890414705285" lon="9.975084289172575"><ele>262.0</ele><time>2026-04-23T12:09:14.855Z</time></trkpt><trkpt lat="45.6189311134163" lon="9.974918870318422"><ele>262.0</ele><time>2026-04-23T12:09:16.856Z</time></trkpt><trkpt lat="45.61894964996759" lon="9.974749153013168"><ele>262.0</ele><time>2026-04-23T12:09:18.856Z</time></trkpt><trkpt lat="45.61897641249008" lon="9.974597075303063"><ele>262.0</ele><time>2026-04-23T12:09:20.856Z</time></trkpt><trkpt lat="45.619009492944215" lon="9.97443103293222"><ele>262.0</ele><time>2026-04-23T12:09:22.856Z</time></trkpt><trkpt lat="45.61901836992424" lon="9.974341625982385"><ele>262.0</ele><time>2026-04-23T12:09:23.856Z</time></trkpt><trkpt lat="45.619035691999535" lon="9.974173346213496"><ele>261.4</ele><time>2026-04-23T12:09:25.856Z</time></trkpt><trkpt lat="45.61905490163963" lon="9.974007742835488"><ele>260.79999999999995</ele><time>2026-04-23T12:09:27.856Z</time></trkpt><trkpt lat="45.61906608092123" lon="9.973845166450847"><ele>260.2</ele><time>2026-04-23T12:09:29.856Z</time></trkpt><trkpt lat="45.619078172419826" lon="9.973686830180869"><ele>259.59999999999997</ele><time>2026-04-23T12:09:31.856Z</time></trkpt><trkpt lat="45.61908213153472" lon="9.97354941031711"><ele>259.0</ele><time>2026-04-23T12:09:33.856Z</time></trkpt><trkpt lat="45.619085646171015" lon="9.97342789633515"><ele>259.4</ele><time>2026-04-23T12:09:35.856Z</time></trkpt><trkpt lat="45.61909803855742" lon="9.973306908187741"><ele>259.79999999999995</ele><time>2026-04-23T12:09:37.856Z</time></trkpt><trkpt lat="45.619102052520866" lon="9.973163441688891"><ele>260.20000000000005</ele><time>2026-04-23T12:09:39.856Z</time></trkpt><trkpt lat="45.61910944583515" lon="9.973009276000184"><ele>260.6</ele><time>2026-04-23T12:09:41.856Z</time></trkpt><trkpt lat="45.619113742806775" lon="9.97284994931335"><ele>261.0</ele><time>2026-04-23T12:09:43.856Z</time></trkpt><trkpt lat="45.619121809673516" lon="9.972710011386743"><ele>261.0</ele><time>2026-04-23T12:09:45.856Z</time></trkpt><trkpt lat="45.61911757609278" lon="9.972550383508299"><ele>261.0</ele><time>2026-04-23T12:09:47.856Z</time></trkpt><trkpt lat="45.61909365050031" lon="9.972400871973411"><ele>261.0</ele><time>2026-04-23T12:09:49.856Z</time></trkpt><trkpt lat="45.619054062156096" lon="9.972291245897761"><ele>261.0</ele><time>2026-04-23T12:09:51.856Z</time></trkpt><trkpt lat="45.619003333081395" lon="9.972189625130804"><ele>261.0</ele><time>2026-04-23T12:09:53.856Z</time></trkpt><trkpt lat="45.61893777811364" lon="9.972085542341754"><ele>260.6666666666667</ele><time>2026-04-23T12:09:55.856Z</time></trkpt><trkpt lat="45.61888153546229" lon="9.971986629245228"><ele>260.3333333333333</ele><time>2026-04-23T12:09:57.856Z</time></trkpt><trkpt lat="45.61884036191053" lon="9.971867186922386"><ele>260.0</ele><time>2026-04-23T12:09:59.856Z</time></trkpt><trkpt lat="45.61882127648165" lon="9.971753570142944"><ele>259.66666666666663</ele><time>2026-04-23T12:10:01.856Z</time></trkpt><trkpt lat="45.6188218728957" lon="9.97163795493328"><ele>259.3333333333333</ele><time>2026-04-23T12:10:03.856Z</time></trkpt><trkpt lat="45.61881999111572" lon="9.971503428358284"><ele>259.0</ele><time>2026-04-23T12:10:05.856Z</time></trkpt><trkpt lat="45.61881623817524" lon="9.971358137636003"><ele>259.0</ele><time>2026-04-23T12:10:07.856Z</time></trkpt><trkpt lat="45.618818230570874" lon="9.971195334135242"><ele>259.0</ele><time>2026-04-23T12:10:09.856Z</time></trkpt><trkpt lat="45.618809615632806" lon="9.971062467698612"><ele>259.0</ele><time>2026-04-23T12:10:11.856Z</time></trkpt><trkpt lat="45.61880353687016" lon="9.970904011720954"><ele>259.0</ele><time>2026-04-23T12:10:13.856Z</time></trkpt><trkpt lat="45.618798101598685" lon="9.970770131872339"><ele>259.0</ele><time>2026-04-23T12:10:15.856Z</time></trkpt><trkpt lat="45.618793481449046" lon="9.970636600112863"><ele>259.16666666666663</ele><time>2026-04-23T12:10:17.856Z</time></trkpt><trkpt lat="45.61878636782197" lon="9.970509626233545"><ele>259.3333333333333</ele><time>2026-04-23T12:10:19.856Z</time></trkpt><trkpt lat="45.61876466725517" lon="9.970397068629778"><ele>259.5</ele><time>2026-04-23T12:10:21.856Z</time></trkpt><trkpt lat="45.61878696710731" lon="9.9702806836735"><ele>259.6666666666667</ele><time>2026-04-23T12:10:23.856Z</time></trkpt><trkpt lat="45.618815490789274" lon="9.970186437370806"><ele>259.83333333333337</ele><time>2026-04-23T12:10:25.856Z</time></trkpt><trkpt lat="45.61882514093852" lon="9.970025987987754"><ele>260.0</ele><time>2026-04-23T12:10:27.856Z</time></trkpt><trkpt lat="45.61884243142586" lon="9.96987750869557"><ele>259.5</ele><time>2026-04-23T12:10:29.856Z</time></trkpt><trkpt lat="45.61887946244215" lon="9.969744412338398"><ele>259.0</ele><time>2026-04-23T12:10:31.856Z</time></trkpt><trkpt lat="45.6189087103326" lon="9.969644154866838"><ele>258.5</ele><time>2026-04-23T12:10:33.856Z</time></trkpt><trkpt lat="45.618920296348804" lon="9.969553906747823"><ele>258.0</ele><time>2026-04-23T12:10:34.856Z</time></trkpt><trkpt lat="45.61892429617913" lon="9.969444961708929"><ele>257.5</ele><time>2026-04-23T12:10:36.856Z</time></trkpt><trkpt lat="45.6189599722837" lon="9.969278972221618"><ele>257.0</ele><time>2026-04-23T12:10:38.856Z</time></trkpt><trkpt lat="45.61897739635758" lon="9.969182883016229"><ele>256.6</ele><time>2026-04-23T12:10:39.856Z</time></trkpt><trkpt lat="45.61900815962954" lon="9.969020842682237"><ele>256.2</ele><time>2026-04-23T12:10:41.856Z</time></trkpt><trkpt lat="45.61901460071735" lon="9.968921885156416"><ele>255.8</ele><time>2026-04-23T12:10:42.856Z</time></trkpt><trkpt lat="45.61905436472686" lon="9.96876530861031"><ele>255.4</ele><time>2026-04-23T12:10:44.856Z</time></trkpt><trkpt lat="45.6191078215295" lon="9.968604822354186"><ele>255.0</ele><time>2026-04-23T12:10:46.856Z</time></trkpt><trkpt lat="45.619121325888806" lon="9.968502991199893"><ele>255.0</ele><time>2026-04-23T12:10:47.856Z</time></trkpt><trkpt lat="45.619132167929536" lon="9.968403812461323"><ele>255.00000000000003</ele><time>2026-04-23T12:10:48.856Z</time></trkpt><trkpt lat="45.619152290705344" lon="9.968304569532032"><ele>255.0</ele><time>2026-04-23T12:10:49.856Z</time></trkpt><trkpt lat="45.61917688049213" lon="9.96821925123281"><ele>255.0</ele><time>2026-04-23T12:10:50.856Z</time></trkpt><trkpt lat="45.61920526958337" lon="9.968124313038329"><ele>255.00000000000003</ele><time>2026-04-23T12:10:51.856Z</time></trkpt><trkpt lat="45.61923427469906" lon="9.968026554131757"><ele>255.0</ele><time>2026-04-23T12:10:52.856Z</time></trkpt><trkpt lat="45.619262440370214" lon="9.96792560508858"><ele>255.0</ele><time>2026-04-23T12:10:53.856Z</time></trkpt><trkpt lat="45.6193168475724" lon="9.967760212566667"><ele>254.4</ele><time>2026-04-23T12:10:55.856Z</time></trkpt><trkpt lat="45.61934183111544" lon="9.967669251730767"><ele>253.8</ele><time>2026-04-23T12:10:56.856Z</time></trkpt><trkpt lat="45.61939291950627" lon="9.967509483223237"><ele>253.2</ele><time>2026-04-23T12:10:58.856Z</time></trkpt><trkpt lat="45.61945646662776" lon="9.967370115069716"><ele>252.6</ele><time>2026-04-23T12:11:00.856Z</time></trkpt><trkpt lat="45.61950955619019" lon="9.967223815018523"><ele>252.0</ele><time>2026-04-23T12:11:02.856Z</time></trkpt><trkpt lat="45.61955606306832" lon="9.967084771559904"><ele>251.8</ele><time>2026-04-23T12:11:04.856Z</time></trkpt><trkpt lat="45.61960041088129" lon="9.966955681963675"><ele>251.6</ele><time>2026-04-23T12:11:06.856Z</time></trkpt><trkpt lat="45.61964930510044" lon="9.966839322060764"><ele>251.40000000000003</ele><time>2026-04-23T12:11:08.856Z</time></trkpt><trkpt lat="45.619696985077496" lon="9.966720408023312"><ele>251.20000000000002</ele><time>2026-04-23T12:11:10.856Z</time></trkpt><trkpt lat="45.61973253104961" lon="9.966618084201516"><ele>251.0</ele><time>2026-04-23T12:11:12.856Z</time></trkpt><trkpt lat="45.6197780703722" lon="9.966509519422397"><ele>250.8</ele><time>2026-04-23T12:11:14.856Z</time></trkpt><trkpt lat="45.61982362787398" lon="9.966383550083789"><ele>250.60000000000002</ele><time>2026-04-23T12:11:16.856Z</time></trkpt><trkpt lat="45.61987496717064" lon="9.966252167648758"><ele>250.4</ele><time>2026-04-23T12:11:18.856Z</time></trkpt><trkpt lat="45.61992030202144" lon="9.966121494596928"><ele>250.2</ele><time>2026-04-23T12:11:20.856Z</time></trkpt><trkpt lat="45.61996551404638" lon="9.965983407636132"><ele>250.0</ele><time>2026-04-23T12:11:22.856Z</time></trkpt><trkpt lat="45.62001145494339" lon="9.965868378880518"><ele>250.0</ele><time>2026-04-23T12:11:24.856Z</time></trkpt><trkpt lat="45.62006263907617" lon="9.965726624856787"><ele>250.0</ele><time>2026-04-23T12:11:26.856Z</time></trkpt><trkpt lat="45.620113078774445" lon="9.965594502027699"><ele>250.0</ele><time>2026-04-23T12:11:28.856Z</time></trkpt><trkpt lat="45.6201650240978" lon="9.965489205507684"><ele>250.0</ele><time>2026-04-23T12:11:30.856Z</time></trkpt><trkpt lat="45.620226139333624" lon="9.965391164943735"><ele>250.0</ele><time>2026-04-23T12:11:32.856Z</time></trkpt><trkpt lat="45.620277147170114" lon="9.965263336829853"><ele>250.6</ele><time>2026-04-23T12:11:34.856Z</time></trkpt><trkpt lat="45.620329596510594" lon="9.965135924539394"><ele>251.2</ele><time>2026-04-23T12:11:36.856Z</time></trkpt><trkpt lat="45.620383207223604" lon="9.965024142054679"><ele>251.8</ele><time>2026-04-23T12:11:38.856Z</time></trkpt><trkpt lat="45.62041488613648" lon="9.964910964097143"><ele>252.4</ele><time>2026-04-23T12:11:40.856Z</time></trkpt><trkpt lat="45.620481526961356" lon="9.964799906055068"><ele>253.0</ele><time>2026-04-23T12:11:42.856Z</time></trkpt><trkpt lat="45.62054392584739" lon="9.964699543684942"><ele>253.0</ele><time>2026-04-23T12:11:44.856Z</time></trkpt><trkpt lat="45.6206080449305" lon="9.964592453012335"><ele>253.0</ele><time>2026-04-23T12:11:46.856Z</time></trkpt><trkpt lat="45.62062066392146" lon="9.964485309308888"><ele>253.0</ele><time>2026-04-23T12:11:48.856Z</time></trkpt><trkpt lat="45.620681626725386" lon="9.964394308832492"><ele>253.0</ele><time>2026-04-23T12:11:50.856Z</time></trkpt><trkpt lat="45.62074576515708" lon="9.96429482835662"><ele>253.0</ele><time>2026-04-23T12:11:52.856Z</time></trkpt><trkpt lat="45.62082127400179" lon="9.964177871110396"><ele>252.2</ele><time>2026-04-23T12:11:54.856Z</time></trkpt><trkpt lat="45.620895880981806" lon="9.964072959670697"><ele>251.4</ele><time>2026-04-23T12:11:56.856Z</time></trkpt><trkpt lat="45.62097480040748" lon="9.963959507294305"><ele>250.59999999999997</ele><time>2026-04-23T12:11:58.856Z</time></trkpt><trkpt lat="45.62104245515741" lon="9.963864206075685"><ele>249.79999999999998</ele><time>2026-04-23T12:12:00.856Z</time></trkpt><trkpt lat="45.62109805519327" lon="9.963804543342304"><ele>249.0</ele><time>2026-04-23T12:12:02.856Z</time></trkpt><trkpt lat="45.62116597261709" lon="9.963726748518264"><ele>249.0</ele><time>2026-04-23T12:12:04.856Z</time></trkpt><trkpt lat="45.62121904161287" lon="9.963660125489616"><ele>249.0</ele><time>2026-04-23T12:12:05.856Z</time></trkpt><trkpt lat="45.62126422281723" lon="9.963596990637717"><ele>249.0</ele><time>2026-04-23T12:12:06.856Z</time></trkpt><trkpt lat="45.62133667096595" lon="9.96346366120182"><ele>249.0</ele><time>2026-04-23T12:12:08.856Z</time></trkpt><trkpt lat="45.6214147429093" lon="9.963356041027811"><ele>249.0</ele><time>2026-04-23T12:12:10.856Z</time></trkpt><trkpt lat="45.621465339207134" lon="9.963285233396975"><ele>249.0</ele><time>2026-04-23T12:12:13.856Z</time></trkpt><trkpt lat="45.62152017589598" lon="9.963231679133445"><ele>249.16666666666666</ele><time>2026-04-23T12:12:15.856Z</time></trkpt><trkpt lat="45.62158525929712" lon="9.963189488575656"><ele>249.33333333333331</ele><time>2026-04-23T12:12:17.856Z</time></trkpt><trkpt lat="45.62164857634742" lon="9.963138221643415"><ele>249.5</ele><time>2026-04-23T12:12:19.856Z</time></trkpt><trkpt lat="45.62171815633478" lon="9.963101449869157"><ele>249.66666666666666</ele><time>2026-04-23T12:12:21.856Z</time></trkpt><trkpt lat="45.62176599649086" lon="9.962974519295129"><ele>249.83333333333331</ele><time>2026-04-23T12:12:24.856Z</time></trkpt><trkpt lat="45.62179999945758" lon="9.962843622048473"><ele>250.0</ele><time>2026-04-23T12:12:26.856Z</time></trkpt><trkpt lat="45.621832771294955" lon="9.962757932795792"><ele>250.0</ele><time>2026-04-23T12:12:27.856Z</time></trkpt><trkpt lat="45.62183832629104" lon="9.962586284425742"><ele>250.0</ele><time>2026-04-23T12:12:29.856Z</time></trkpt><trkpt lat="45.621803436821594" lon="9.962491529105202"><ele>250.0</ele><time>2026-04-23T12:12:31.856Z</time></trkpt><trkpt lat="45.62174651149428" lon="9.96237775850167"><ele>250.0</ele><time>2026-04-23T12:12:33.856Z</time></trkpt><trkpt lat="45.62170963298129" lon="9.962302223356051"><ele>250.0</ele><time>2026-04-23T12:12:34.856Z</time></trkpt><trkpt lat="45.62171878633106" lon="9.962127750115247"><ele>249.99999999999997</ele><time>2026-04-23T12:12:36.856Z</time></trkpt><trkpt lat="45.62172321878062" lon="9.962035920054179"><ele>250.0</ele><time>2026-04-23T12:12:37.856Z</time></trkpt><trkpt lat="45.621736256770795" lon="9.961864308294906"><ele>250.0</ele><time>2026-04-23T12:12:39.856Z</time></trkpt><trkpt lat="45.62177284625203" lon="9.961704253590904"><ele>250.0</ele><time>2026-04-23T12:12:41.856Z</time></trkpt><trkpt lat="45.6218168808481" lon="9.961609269810731"><ele>249.99999999999997</ele><time>2026-04-23T12:12:43.856Z</time></trkpt><trkpt lat="45.621815600586565" lon="9.961518591449416"><ele>250.0</ele><time>2026-04-23T12:12:44.856Z</time></trkpt><trkpt lat="45.621834158246365" lon="9.961431500880021"><ele>250.0</ele><time>2026-04-23T12:12:45.856Z</time></trkpt><trkpt lat="45.62187748810744" lon="9.961365806545052"><ele>250.0</ele><time>2026-04-23T12:12:46.856Z</time></trkpt><trkpt lat="45.62195671653604" lon="9.961241752277814"><ele>250.0</ele><time>2026-04-23T12:12:48.857Z</time></trkpt><trkpt lat="45.622032121906976" lon="9.961135726557524"><ele>250.0</ele><time>2026-04-23T12:12:50.857Z</time></trkpt><trkpt lat="45.62210949563356" lon="9.961046655035398"><ele>250.0</ele><time>2026-04-23T12:12:52.857Z</time></trkpt><trkpt lat="45.62214235179046" lon="9.960931315036465"><ele>251.0</ele><time>2026-04-23T12:12:54.857Z</time></trkpt><trkpt lat="45.6221989196576" lon="9.960820577868185"><ele>252.0</ele><time>2026-04-23T12:12:56.857Z</time></trkpt><trkpt lat="45.622283545605775" lon="9.960739154496325"><ele>253.0</ele><time>2026-04-23T12:12:58.857Z</time></trkpt><trkpt lat="45.622337228301745" lon="9.960645774530965"><ele>254.0</ele><time>2026-04-23T12:13:00.857Z</time></trkpt><trkpt lat="45.62236997341185" lon="9.960527212025355"><ele>255.0</ele><time>2026-04-23T12:13:02.857Z</time></trkpt><trkpt lat="45.62239300187112" lon="9.960392412886279"><ele>255.0</ele><time>2026-04-23T12:13:04.857Z</time></trkpt><trkpt lat="45.62241847737822" lon="9.960261475246588"><ele>255.0</ele><time>2026-04-23T12:13:06.857Z</time></trkpt><trkpt lat="45.6224605510585" lon="9.960125859887903"><ele>255.0</ele><time>2026-04-23T12:13:08.857Z</time></trkpt><trkpt lat="45.62248891256286" lon="9.959991695835368"><ele>255.0</ele><time>2026-04-23T12:13:10.857Z</time></trkpt><trkpt lat="45.62250291016818" lon="9.959850496888128"><ele>255.0</ele><time>2026-04-23T12:13:12.857Z</time></trkpt><trkpt lat="45.622568529895005" lon="9.95969713667083"><ele>255.14285714285717</ele><time>2026-04-23T12:13:14.857Z</time></trkpt><trkpt lat="45.622608275289714" lon="9.95961132937853"><ele>255.2857142857143</ele><time>2026-04-23T12:13:15.857Z</time></trkpt><trkpt lat="45.62264999323171" lon="9.959535984005907"><ele>255.42857142857144</ele><time>2026-04-23T12:13:16.857Z</time></trkpt><trkpt lat="45.62268022988125" lon="9.959440873556018"><ele>255.57142857142856</ele><time>2026-04-23T12:13:17.857Z</time></trkpt><trkpt lat="45.622704431169524" lon="9.959351256938689"><ele>255.7142857142857</ele><time>2026-04-23T12:13:18.857Z</time></trkpt><trkpt lat="45.622737489321764" lon="9.959264865408437"><ele>255.85714285714283</ele><time>2026-04-23T12:13:19.857Z</time></trkpt><trkpt lat="45.62275191652217" lon="9.959162705190408"><ele>256.0</ele><time>2026-04-23T12:13:20.857Z</time></trkpt><trkpt lat="45.622774728825014" lon="9.959062626919648"><ele>254.99999999999997</ele><time>2026-04-23T12:13:21.857Z</time></trkpt><trkpt lat="45.62278413393435" lon="9.95894148274346"><ele>254.0</ele><time>2026-04-23T12:13:22.856Z</time></trkpt><trkpt lat="45.62284741261275" lon="9.958865875304026"><ele>253.0</ele><time>2026-04-23T12:13:23.857Z</time></trkpt><trkpt lat="45.62289784881971" lon="9.958774580797362"><ele>252.0</ele><time>2026-04-23T12:13:24.857Z</time></trkpt><trkpt lat="45.62294633972306" lon="9.958701212499431"><ele>250.99999999999997</ele><time>2026-04-23T12:13:25.856Z</time></trkpt><trkpt lat="45.62297423834445" lon="9.958597130187153"><ele>250.0</ele><time>2026-04-23T12:13:26.856Z</time></trkpt><trkpt lat="45.62301161351752" lon="9.958495154932086"><ele>250.16666666666666</ele><time>2026-04-23T12:13:27.856Z</time></trkpt><trkpt lat="45.62304154276832" lon="9.958388695570314"><ele>250.33333333333331</ele><time>2026-04-23T12:13:28.856Z</time></trkpt><trkpt lat="45.62306202343515" lon="9.958275709633748"><ele>250.5</ele><time>2026-04-23T12:13:29.857Z</time></trkpt><trkpt lat="45.62310246107428" lon="9.958166284503347"><ele>250.66666666666669</ele><time>2026-04-23T12:13:30.857Z</time></trkpt><trkpt lat="45.62312855326344" lon="9.958055718719006"><ele>250.83333333333334</ele><time>2026-04-23T12:13:31.857Z</time></trkpt><trkpt lat="45.62315438886429" lon="9.957945442702249"><ele>251.0</ele><time>2026-04-23T12:13:32.856Z</time></trkpt><trkpt lat="45.62317814292672" lon="9.957846563309289"><ele>251.00000000000003</ele><time>2026-04-23T12:13:33.856Z</time></trkpt><trkpt lat="45.623225377717475" lon="9.957718705173235"><ele>251.0</ele><time>2026-04-23T12:13:34.857Z</time></trkpt><trkpt lat="45.62327056836606" lon="9.957621884237653"><ele>251.0</ele><time>2026-04-23T12:13:35.857Z</time></trkpt><trkpt lat="45.6233411410992" lon="9.957564630915892"><ele>251.0</ele><time>2026-04-23T12:13:36.857Z</time></trkpt><trkpt lat="45.62339448730856" lon="9.957492883874721"><ele>251.00000000000003</ele><time>2026-04-23T12:13:37.857Z</time></trkpt><trkpt lat="45.62343493592531" lon="9.957410310138433"><ele>251.0</ele><time>2026-04-23T12:13:38.857Z</time></trkpt><trkpt lat="45.62348509399125" lon="9.957351736220012"><ele>250.83333333333334</ele><time>2026-04-23T12:13:39.857Z</time></trkpt><trkpt lat="45.62352954153344" lon="9.957253577680483"><ele>250.66666666666669</ele><time>2026-04-23T12:13:40.857Z</time></trkpt><trkpt lat="45.62359464876722" lon="9.957215922769874"><ele>250.5</ele><time>2026-04-23T12:13:41.857Z</time></trkpt><trkpt lat="45.623651795842164" lon="9.957172809124895"><ele>250.33333333333331</ele><time>2026-04-23T12:13:42.857Z</time></trkpt><trkpt lat="45.62370251192051" lon="9.957102250809495"><ele>250.16666666666666</ele><time>2026-04-23T12:13:43.857Z</time></trkpt><trkpt lat="45.62378528146623" lon="9.956973418924978"><ele>250.0</ele><time>2026-04-23T12:13:45.857Z</time></trkpt><trkpt lat="45.62384805246953" lon="9.956905387267593"><ele>249.99999999999997</ele><time>2026-04-23T12:13:47.857Z</time></trkpt><trkpt lat="45.62391908292616" lon="9.956868235406327"><ele>250.0</ele><time>2026-04-23T12:13:48.857Z</time></trkpt><trkpt lat="45.62398601058258" lon="9.956814305114488"><ele>250.0</ele><time>2026-04-23T12:13:49.857Z</time></trkpt><trkpt lat="45.62404579910819" lon="9.956721515787551"><ele>250.0</ele><time>2026-04-23T12:13:50.857Z</time></trkpt><trkpt lat="45.62409907010913" lon="9.956660724918192"><ele>249.99999999999997</ele><time>2026-04-23T12:13:51.857Z</time></trkpt><trkpt lat="45.62414031103189" lon="9.956566801342987"><ele>250.0</ele><time>2026-04-23T12:13:52.857Z</time></trkpt><trkpt lat="45.6241820295877" lon="9.956472866943455"><ele>248.16666666666666</ele><time>2026-04-23T12:13:53.857Z</time></trkpt><trkpt lat="45.62423296868351" lon="9.956387031593847"><ele>246.33333333333331</ele><time>2026-04-23T12:13:54.857Z</time></trkpt><trkpt lat="45.62428584664995" lon="9.95628439174974"><ele>244.5</ele><time>2026-04-23T12:13:55.857Z</time></trkpt><trkpt lat="45.62431931978852" lon="9.95618744461745"><ele>242.66666666666669</ele><time>2026-04-23T12:13:56.857Z</time></trkpt><trkpt lat="45.62435837157925" lon="9.956099811099136"><ele>240.83333333333334</ele><time>2026-04-23T12:13:57.857Z</time></trkpt><trkpt lat="45.62439668317201" lon="9.956015066366739"><ele>239.0</ele><time>2026-04-23T12:13:58.857Z</time></trkpt><trkpt lat="45.62443482211386" lon="9.955942054440053"><ele>238.16666666666669</ele><time>2026-04-23T12:13:59.857Z</time></trkpt><trkpt lat="45.624485416624346" lon="9.955856138614912"><ele>237.33333333333334</ele><time>2026-04-23T12:14:00.857Z</time></trkpt><trkpt lat="45.62453040405342" lon="9.955767428974358"><ele>236.5</ele><time>2026-04-23T12:14:01.857Z</time></trkpt><trkpt lat="45.624577867898225" lon="9.955683011234383"><ele>235.66666666666669</ele><time>2026-04-23T12:14:02.857Z</time></trkpt><trkpt lat="45.62463147072706" lon="9.955596370940908"><ele>234.83333333333334</ele><time>2026-04-23T12:14:03.857Z</time></trkpt><trkpt lat="45.624684435053126" lon="9.955505993009544"><ele>234.0</ele><time>2026-04-23T12:14:04.857Z</time></trkpt><trkpt lat="45.62473535734065" lon="9.955428624086641"><ele>234.0</ele><time>2026-04-23T12:14:05.857Z</time></trkpt><trkpt lat="45.62478364119968" lon="9.955344001765987"><ele>234.00000000000003</ele><time>2026-04-23T12:14:06.857Z</time></trkpt><trkpt lat="45.62482421562741" lon="9.95525919789052"><ele>234.0</ele><time>2026-04-23T12:14:07.857Z</time></trkpt><trkpt lat="45.624874504954015" lon="9.955189170245497"><ele>234.0</ele><time>2026-04-23T12:14:08.857Z</time></trkpt><trkpt lat="45.6249049373929" lon="9.955096467068035"><ele>234.00000000000003</ele><time>2026-04-23T12:14:09.857Z</time></trkpt><trkpt lat="45.62495336171146" lon="9.955028440954306"><ele>234.0</ele><time>2026-04-23T12:14:10.857Z</time></trkpt><trkpt lat="45.625006598191874" lon="9.95497373338875"><ele>234.0</ele><time>2026-04-23T12:14:11.857Z</time></trkpt><trkpt lat="45.62507201170398" lon="9.954936213851335"><ele>233.79999999999998</ele><time>2026-04-23T12:14:12.857Z</time></trkpt><trkpt lat="45.625132035046065" lon="9.954870216124698"><ele>233.59999999999997</ele><time>2026-04-23T12:14:13.857Z</time></trkpt><trkpt lat="45.62522287173632" lon="9.954761399843923"><ele>233.4</ele><time>2026-04-23T12:14:15.857Z</time></trkpt><trkpt lat="45.6253141735568" lon="9.954660254234936"><ele>233.2</ele><time>2026-04-23T12:14:17.857Z</time></trkpt><trkpt lat="45.625374371924806" lon="9.954624514130977"><ele>233.0</ele><time>2026-04-23T12:14:18.857Z</time></trkpt><trkpt lat="45.62548209765966" lon="9.954527877855766"><ele>233.00000000000003</ele><time>2026-04-23T12:14:20.857Z</time></trkpt><trkpt lat="45.62555623791397" lon="9.954476945717945"><ele>233.0</ele><time>2026-04-23T12:14:21.857Z</time></trkpt><trkpt lat="45.625614460032445" lon="9.954420778910276"><ele>233.0</ele><time>2026-04-23T12:14:22.857Z</time></trkpt><trkpt lat="45.62566784612146" lon="9.954366240614176"><ele>233.0</ele><time>2026-04-23T12:14:23.857Z</time></trkpt><trkpt lat="45.62578017764421" lon="9.95426138623544"><ele>233.00000000000003</ele><time>2026-04-23T12:14:25.857Z</time></trkpt><trkpt lat="45.62583557225283" lon="9.954192669850055"><ele>233.0</ele><time>2026-04-23T12:14:26.857Z</time></trkpt><trkpt lat="45.62588305834274" lon="9.954121163530974"><ele>232.50000000000003</ele><time>2026-04-23T12:14:27.857Z</time></trkpt><trkpt lat="45.6259448589362" lon="9.953974305925858"><ele>232.0</ele><time>2026-04-23T12:14:29.857Z</time></trkpt><trkpt lat="45.625969463190835" lon="9.95388576080434"><ele>231.5</ele><time>2026-04-23T12:14:30.857Z</time></trkpt><trkpt lat="45.62599479331138" lon="9.953791064929323"><ele>231.0</ele><time>2026-04-23T12:14:31.857Z</time></trkpt><trkpt lat="45.62602415388151" lon="9.95369787818679"><ele>230.50000000000003</ele><time>2026-04-23T12:14:32.857Z</time></trkpt><trkpt lat="45.62605296827986" lon="9.953609399594969"><ele>230.0</ele><time>2026-04-23T12:14:33.857Z</time></trkpt><trkpt lat="45.62607893310751" lon="9.953521298935001"><ele>230.0</ele><time>2026-04-23T12:14:34.857Z</time></trkpt><trkpt lat="45.62611552233876" lon="9.953375629048791"><ele>230.0</ele><time>2026-04-23T12:14:36.857Z</time></trkpt><trkpt lat="45.62613886346259" lon="9.95328772917238"><ele>230.0</ele><time>2026-04-23T12:14:37.857Z</time></trkpt><trkpt lat="45.626193429622354" lon="9.953121119158647"><ele>230.0</ele><time>2026-04-23T12:14:39.857Z</time></trkpt><trkpt lat="45.6262210212025" lon="9.953027940689903"><ele>230.0</ele><time>2026-04-23T12:14:40.857Z</time></trkpt><trkpt lat="45.6262772540339" lon="9.952872896513156"><ele>229.25</ele><time>2026-04-23T12:14:42.857Z</time></trkpt><trkpt lat="45.62634078751319" lon="9.952724924271706"><ele>228.5</ele><time>2026-04-23T12:14:44.857Z</time></trkpt><trkpt lat="45.62639986059432" lon="9.95258734939257"><ele>227.75</ele><time>2026-04-23T12:14:46.857Z</time></trkpt><trkpt lat="45.626451290361565" lon="9.952440788673194"><ele>227.0</ele><time>2026-04-23T12:14:48.857Z</time></trkpt><trkpt lat="45.62649962500558" lon="9.952297834628233"><ele>226.8</ele><time>2026-04-23T12:14:50.857Z</time></trkpt><trkpt lat="45.62655669664207" lon="9.952178935767353"><ele>226.6</ele><time>2026-04-23T12:14:52.857Z</time></trkpt><trkpt lat="45.62660297065019" lon="9.95206215582604"><ele>226.40000000000003</ele><time>2026-04-23T12:14:54.857Z</time></trkpt><trkpt lat="45.6266587597182" lon="9.95194951581278"><ele>226.20000000000002</ele><time>2026-04-23T12:14:56.857Z</time></trkpt><trkpt lat="45.62671199853068" lon="9.95183406589408"><ele>226.0</ele><time>2026-04-23T12:14:58.857Z</time></trkpt><trkpt lat="45.62674558613687" lon="9.95175266807027"><ele>226.0</ele><time>2026-04-23T12:15:00.857Z</time></trkpt><trkpt lat="45.62679506772492" lon="9.951635101757828"><ele>226.00000000000003</ele><time>2026-04-23T12:15:02.857Z</time></trkpt><trkpt lat="45.62685482101372" lon="9.951499978194883"><ele>226.00000000000003</ele><time>2026-04-23T12:15:04.857Z</time></trkpt><trkpt lat="45.62691361380254" lon="9.951371257924075"><ele>226.0</ele><time>2026-04-23T12:15:06.857Z</time></trkpt><trkpt lat="45.62697898925012" lon="9.95124427637001"><ele>226.0</ele><time>2026-04-23T12:15:08.857Z</time></trkpt><trkpt lat="45.627045069863215" lon="9.95111028175002"><ele>225.4</ele><time>2026-04-23T12:15:10.857Z</time></trkpt><trkpt lat="45.62711368841145" lon="9.950971680036774"><ele>224.8</ele><time>2026-04-23T12:15:12.857Z</time></trkpt><trkpt lat="45.62718369697916" lon="9.950845996218902"><ele>224.20000000000002</ele><time>2026-04-23T12:15:14.857Z</time></trkpt><trkpt lat="45.627255953558894" lon="9.950715298102741"><ele>223.60000000000002</ele><time>2026-04-23T12:15:16.857Z</time></trkpt><trkpt lat="45.62729506621106" lon="9.950625740205808"><ele>223.0</ele><time>2026-04-23T12:15:17.857Z</time></trkpt><trkpt lat="45.62733287029801" lon="9.950545935280163"><ele>222.71428571428572</ele><time>2026-04-23T12:15:18.857Z</time></trkpt><trkpt lat="45.62737228343907" lon="9.950470552076178"><ele>222.42857142857142</ele><time>2026-04-23T12:15:19.857Z</time></trkpt><trkpt lat="45.627414425824924" lon="9.950386373621203"><ele>222.14285714285717</ele><time>2026-04-23T12:15:20.857Z</time></trkpt><trkpt lat="45.627451200260815" lon="9.950304019292986"><ele>221.85714285714286</ele><time>2026-04-23T12:15:21.857Z</time></trkpt><trkpt lat="45.62749212678367" lon="9.95021392183291"><ele>221.57142857142858</ele><time>2026-04-23T12:15:22.857Z</time></trkpt><trkpt lat="45.62753308059222" lon="9.950131556999011"><ele>221.2857142857143</ele><time>2026-04-23T12:15:23.857Z</time></trkpt><trkpt lat="45.62757296672674" lon="9.950048522519648"><ele>221.0</ele><time>2026-04-23T12:15:24.857Z</time></trkpt><trkpt lat="45.62761120731038" lon="9.949966260253941"><ele>220.71428571428572</ele><time>2026-04-23T12:15:25.857Z</time></trkpt><trkpt lat="45.62765070057397" lon="9.94988011748488"><ele>220.42857142857144</ele><time>2026-04-23T12:15:26.857Z</time></trkpt><trkpt lat="45.62768974229921" lon="9.94979387615747"><ele>220.14285714285717</ele><time>2026-04-23T12:15:27.857Z</time></trkpt><trkpt lat="45.62772779915653" lon="9.949699569547626"><ele>219.85714285714286</ele><time>2026-04-23T12:15:28.857Z</time></trkpt><trkpt lat="45.627769672123996" lon="9.949617759129278"><ele>219.57142857142856</ele><time>2026-04-23T12:15:29.858Z</time></trkpt><trkpt lat="45.627814615119235" lon="9.949530329171797"><ele>219.2857142857143</ele><time>2026-04-23T12:15:30.858Z</time></trkpt><trkpt lat="45.627852632371145" lon="9.949444955975318"><ele>219.0</ele><time>2026-04-23T12:15:31.857Z</time></trkpt><trkpt lat="45.627896854986275" lon="9.949350253191271"><ele>219.0</ele><time>2026-04-23T12:15:32.857Z</time></trkpt><trkpt lat="45.62793751494256" lon="9.949270942198726"><ele>219.0</ele><time>2026-04-23T12:15:33.857Z</time></trkpt><trkpt lat="45.62797535071676" lon="9.949173521511138"><ele>219.0</ele><time>2026-04-23T12:15:34.857Z</time></trkpt><trkpt lat="45.62801883933677" lon="9.949073251907084"><ele>219.0</ele><time>2026-04-23T12:15:35.857Z</time></trkpt><trkpt lat="45.628063334671054" lon="9.948983457997816"><ele>219.0</ele><time>2026-04-23T12:15:36.857Z</time></trkpt><trkpt lat="45.62810270940568" lon="9.948887362267826"><ele>219.0</ele><time>2026-04-23T12:15:37.858Z</time></trkpt><trkpt lat="45.628144373540934" lon="9.948787771728933"><ele>219.0</ele><time>2026-04-23T12:15:38.858Z</time></trkpt><trkpt lat="45.62818512471097" lon="9.948691026183191"><ele>219.0</ele><time>2026-04-23T12:15:39.858Z</time></trkpt><trkpt lat="45.628226944998666" lon="9.948597056437112"><ele>219.0</ele><time>2026-04-23T12:15:40.858Z</time></trkpt><trkpt lat="45.62827016767428" lon="9.948505137012775"><ele>219.0</ele><time>2026-04-23T12:15:41.857Z</time></trkpt><trkpt lat="45.628314121781145" lon="9.94840805989871"><ele>219.0</ele><time>2026-04-23T12:15:42.857Z</time></trkpt><trkpt lat="45.628358596388026" lon="9.948309274321856"><ele>219.0</ele><time>2026-04-23T12:15:43.857Z</time></trkpt><trkpt lat="45.628400541256596" lon="9.948213930259413"><ele>218.83333333333334</ele><time>2026-04-23T12:15:44.857Z</time></trkpt><trkpt lat="45.628440376412364" lon="9.948116017496561"><ele>218.66666666666669</ele><time>2026-04-23T12:15:45.857Z</time></trkpt><trkpt lat="45.62848549436474" lon="9.948025678263173"><ele>218.5</ele><time>2026-04-23T12:15:46.857Z</time></trkpt><trkpt lat="45.628530997930206" lon="9.947929437327188"><ele>218.33333333333334</ele><time>2026-04-23T12:15:47.857Z</time></trkpt><trkpt lat="45.62857331363922" lon="9.94783582053054"><ele>218.16666666666669</ele><time>2026-04-23T12:15:48.857Z</time></trkpt><trkpt lat="45.62861502938104" lon="9.94774082397549"><ele>218.0</ele><time>2026-04-23T12:15:49.857Z</time></trkpt><trkpt lat="45.628654476460504" lon="9.947654277370335"><ele>218.00000000000003</ele><time>2026-04-23T12:15:50.857Z</time></trkpt><trkpt lat="45.628698370900466" lon="9.94756257161934"><ele>218.0</ele><time>2026-04-23T12:15:51.857Z</time></trkpt><trkpt lat="45.628737267013555" lon="9.947473546588133"><ele>218.0</ele><time>2026-04-23T12:15:52.857Z</time></trkpt><trkpt lat="45.62877530850269" lon="9.947389536492608"><ele>218.0</ele><time>2026-04-23T12:15:53.857Z</time></trkpt><trkpt lat="45.62881802308304" lon="9.947295294171612"><ele>218.00000000000003</ele><time>2026-04-23T12:15:54.857Z</time></trkpt><trkpt lat="45.62885870039974" lon="9.947207036467207"><ele>218.0</ele><time>2026-04-23T12:15:55.857Z</time></trkpt><trkpt lat="45.62890180814772" lon="9.947114474096251"><ele>217.85714285714286</ele><time>2026-04-23T12:15:56.857Z</time></trkpt><trkpt lat="45.62894294006741" lon="9.947038962140551"><ele>217.71428571428572</ele><time>2026-04-23T12:15:57.857Z</time></trkpt><trkpt lat="45.62898141725012" lon="9.94694490697786"><ele>217.57142857142856</ele><time>2026-04-23T12:15:58.857Z</time></trkpt><trkpt lat="45.62901961681767" lon="9.946851965422717"><ele>217.42857142857144</ele><time>2026-04-23T12:15:59.857Z</time></trkpt><trkpt lat="45.629060385610344" lon="9.946772272562614"><ele>217.28571428571428</ele><time>2026-04-23T12:16:00.857Z</time></trkpt><trkpt lat="45.62909936483075" lon="9.946693822180608"><ele>217.14285714285714</ele><time>2026-04-23T12:16:01.857Z</time></trkpt><trkpt lat="45.62913832835361" lon="9.94661320523349"><ele>217.0</ele><time>2026-04-23T12:16:02.857Z</time></trkpt><trkpt lat="45.629174600049794" lon="9.946533700513925"><ele>216.83333333333331</ele><time>2026-04-23T12:16:03.857Z</time></trkpt><trkpt lat="45.629247748240104" lon="9.946394941761929"><ele>216.66666666666666</ele><time>2026-04-23T12:16:05.857Z</time></trkpt><trkpt lat="45.62929066351941" lon="9.946321263841762"><ele>216.5</ele><time>2026-04-23T12:16:06.857Z</time></trkpt><trkpt lat="45.629349792732214" lon="9.946276142638924"><ele>216.33333333333331</ele><time>2026-04-23T12:16:07.857Z</time></trkpt><trkpt lat="45.629410086088676" lon="9.946241866575514"><ele>216.16666666666666</ele><time>2026-04-23T12:16:08.857Z</time></trkpt><trkpt lat="45.629505543408456" lon="9.946174295791616"><ele>216.0</ele><time>2026-04-23T12:16:10.857Z</time></trkpt><trkpt lat="45.62954526967936" lon="9.946012011403646"><ele>216.20000000000002</ele><time>2026-04-23T12:16:12.857Z</time></trkpt><trkpt lat="45.62953772918669" lon="9.94587760275678"><ele>216.40000000000003</ele><time>2026-04-23T12:16:14.857Z</time></trkpt><trkpt lat="45.62954047385198" lon="9.945781703798264"><ele>216.6</ele><time>2026-04-23T12:16:15.857Z</time></trkpt><trkpt lat="45.62956238351544" lon="9.94569443186388"><ele>216.8</ele><time>2026-04-23T12:16:16.857Z</time></trkpt><trkpt lat="45.629617947985395" lon="9.945552770894759"><ele>217.0</ele><time>2026-04-23T12:16:18.857Z</time></trkpt><trkpt lat="45.629683818726484" lon="9.945409371502112"><ele>217.0</ele><time>2026-04-23T12:16:20.857Z</time></trkpt><trkpt lat="45.62974771097174" lon="9.945269962275344"><ele>217.0</ele><time>2026-04-23T12:16:22.857Z</time></trkpt><trkpt lat="45.62980952546957" lon="9.945118689039917"><ele>217.0</ele><time>2026-04-23T12:16:24.857Z</time></trkpt><trkpt lat="45.62986936420937" lon="9.944986511198428"><ele>217.0</ele><time>2026-04-23T12:16:26.857Z</time></trkpt><trkpt lat="45.629933285549704" lon="9.944856363907231"><ele>217.75</ele><time>2026-04-23T12:16:28.857Z</time></trkpt><trkpt lat="45.629995958791284" lon="9.944715467159146"><ele>218.5</ele><time>2026-04-23T12:16:30.857Z</time></trkpt><trkpt lat="45.63006276610587" lon="9.944579550637156"><ele>219.25</ele><time>2026-04-23T12:16:32.857Z</time></trkpt><trkpt lat="45.63012697561823" lon="9.944441164488472"><ele>220.0</ele><time>2026-04-23T12:16:34.857Z</time></trkpt><trkpt lat="45.630194588344025" lon="9.944292327964746"><ele>219.75</ele><time>2026-04-23T12:16:36.857Z</time></trkpt><trkpt lat="45.63026520287607" lon="9.944145040145452"><ele>219.5</ele><time>2026-04-23T12:16:38.857Z</time></trkpt><trkpt lat="45.63033270372406" lon="9.943997477663993"><ele>219.25</ele><time>2026-04-23T12:16:40.857Z</time></trkpt><trkpt lat="45.630400430452326" lon="9.943847512965641"><ele>219.0</ele><time>2026-04-23T12:16:42.857Z</time></trkpt><trkpt lat="45.63046368305431" lon="9.943705395724466"><ele>219.16666666666666</ele><time>2026-04-23T12:16:44.857Z</time></trkpt><trkpt lat="45.63049673107765" lon="9.943623197317235"><ele>219.33333333333331</ele><time>2026-04-23T12:16:45.857Z</time></trkpt><trkpt lat="45.63053301806665" lon="9.943548887623017"><ele>219.5</ele><time>2026-04-23T12:16:46.857Z</time></trkpt><trkpt lat="45.63060008517358" lon="9.943406552809172"><ele>219.66666666666666</ele><time>2026-04-23T12:16:48.857Z</time></trkpt><trkpt lat="45.630672822718175" lon="9.94325951629031"><ele>219.83333333333331</ele><time>2026-04-23T12:16:50.857Z</time></trkpt><trkpt lat="45.63070793155543" lon="9.943177704710333"><ele>220.0</ele><time>2026-04-23T12:16:51.857Z</time></trkpt><trkpt lat="45.63077824250598" lon="9.943019341393187"><ele>219.99999999999997</ele><time>2026-04-23T12:16:53.857Z</time></trkpt><trkpt lat="45.63081630381756" lon="9.942945451123165"><ele>220.0</ele><time>2026-04-23T12:16:54.857Z</time></trkpt><trkpt lat="45.63084621480306" lon="9.942863285739087"><ele>220.0</ele><time>2026-04-23T12:16:55.857Z</time></trkpt><trkpt lat="45.63091943966126" lon="9.94270584607442"><ele>220.0</ele><time>2026-04-23T12:16:57.857Z</time></trkpt><trkpt lat="45.63095786787052" lon="9.94262050423422"><ele>219.99999999999997</ele><time>2026-04-23T12:16:58.857Z</time></trkpt><trkpt lat="45.630991048000844" lon="9.942536907096544"><ele>220.0</ele><time>2026-04-23T12:16:59.857Z</time></trkpt><trkpt lat="45.63103675572605" lon="9.942460719130846"><ele>219.5</ele><time>2026-04-23T12:17:00.857Z</time></trkpt><trkpt lat="45.631116168344555" lon="9.942309811382321"><ele>219.0</ele><time>2026-04-23T12:17:02.857Z</time></trkpt><trkpt lat="45.63118994799096" lon="9.942154122194692"><ele>218.5</ele><time>2026-04-23T12:17:04.857Z</time></trkpt><trkpt lat="45.63126156954162" lon="9.942012859282846"><ele>218.0</ele><time>2026-04-23T12:17:06.857Z</time></trkpt><trkpt lat="45.63133494695473" lon="9.941877686311162"><ele>218.33333333333334</ele><time>2026-04-23T12:17:08.857Z</time></trkpt><trkpt lat="45.63140913058377" lon="9.941733221077437"><ele>218.66666666666669</ele><time>2026-04-23T12:17:10.857Z</time></trkpt><trkpt lat="45.63144560425962" lon="9.941658819384593"><ele>219.0</ele><time>2026-04-23T12:17:11.857Z</time></trkpt><trkpt lat="45.63148902009016" lon="9.94157866038006"><ele>219.33333333333331</ele><time>2026-04-23T12:17:12.857Z</time></trkpt><trkpt lat="45.63152845230753" lon="9.94150388765839"><ele>219.66666666666666</ele><time>2026-04-23T12:17:13.857Z</time></trkpt><trkpt lat="45.63159780779066" lon="9.941361485223936"><ele>220.0</ele><time>2026-04-23T12:17:15.857Z</time></trkpt><trkpt lat="45.63163845819108" lon="9.941289691855976"><ele>220.0</ele><time>2026-04-23T12:17:16.857Z</time></trkpt><trkpt lat="45.63171624206898" lon="9.941151999589207"><ele>220.0</ele><time>2026-04-23T12:17:18.857Z</time></trkpt><trkpt lat="45.63175557593544" lon="9.941071266520945"><ele>220.0</ele><time>2026-04-23T12:17:19.857Z</time></trkpt><trkpt lat="45.63183220614956" lon="9.9409470437958"><ele>220.0</ele><time>2026-04-23T12:17:21.857Z</time></trkpt><trkpt lat="45.63187316021039" lon="9.940871085536461"><ele>220.0</ele><time>2026-04-23T12:17:22.857Z</time></trkpt><trkpt lat="45.63195026692528" lon="9.940739226445134"><ele>221.0</ele><time>2026-04-23T12:17:24.857Z</time></trkpt><trkpt lat="45.631991562491564" lon="9.940654303121757"><ele>222.0</ele><time>2026-04-23T12:17:25.857Z</time></trkpt><trkpt lat="45.63206305055763" lon="9.940511957431271"><ele>223.0</ele><time>2026-04-23T12:17:27.857Z</time></trkpt><trkpt lat="45.63213769336064" lon="9.940371200033182"><ele>224.0</ele><time>2026-04-23T12:17:29.857Z</time></trkpt><trkpt lat="45.63216892030362" lon="9.940287127148396"><ele>225.0</ele><time>2026-04-23T12:17:30.857Z</time></trkpt><trkpt lat="45.63222543635656" lon="9.940146024647861"><ele>224.4</ele><time>2026-04-23T12:17:32.857Z</time></trkpt><trkpt lat="45.63226656364946" lon="9.940004251478012"><ele>223.8</ele><time>2026-04-23T12:17:34.857Z</time></trkpt><trkpt lat="45.63229183191713" lon="9.939917933668967"><ele>223.2</ele><time>2026-04-23T12:17:35.858Z</time></trkpt><trkpt lat="45.63231574196792" lon="9.93982301378207"><ele>222.6</ele><time>2026-04-23T12:17:36.858Z</time></trkpt><trkpt lat="45.63235100891077" lon="9.939668885131677"><ele>222.0</ele><time>2026-04-23T12:17:38.858Z</time></trkpt><trkpt lat="45.63240110950964" lon="9.939511391532982"><ele>222.0</ele><time>2026-04-23T12:17:40.858Z</time></trkpt><trkpt lat="45.63244057193435" lon="9.939355107534709"><ele>222.0</ele><time>2026-04-23T12:17:42.858Z</time></trkpt><trkpt lat="45.63246044464187" lon="9.939266767865094"><ele>222.0</ele><time>2026-04-23T12:17:43.858Z</time></trkpt><trkpt lat="45.63250116021449" lon="9.939133749553575"><ele>222.0</ele><time>2026-04-23T12:17:45.858Z</time></trkpt><trkpt lat="45.632512913990574" lon="9.939005382212034"><ele>222.0</ele><time>2026-04-23T12:17:47.857Z</time></trkpt><trkpt lat="45.632573378902755" lon="9.938832137268115"><ele>221.39999999999998</ele><time>2026-04-23T12:17:49.857Z</time></trkpt><trkpt lat="45.63262554351773" lon="9.93866434639781"><ele>220.79999999999998</ele><time>2026-04-23T12:17:51.857Z</time></trkpt><trkpt lat="45.63265121548577" lon="9.938555413144837"><ele>220.2</ele><time>2026-04-23T12:17:53.857Z</time></trkpt><trkpt lat="45.63269624827612" lon="9.938407923237003"><ele>219.6</ele><time>2026-04-23T12:17:55.857Z</time></trkpt><trkpt lat="45.63271813575753" lon="9.938302873593875"><ele>219.0</ele><time>2026-04-23T12:17:56.857Z</time></trkpt><trkpt lat="45.63275201940815" lon="9.938180285001886"><ele>218.5</ele><time>2026-04-23T12:17:57.857Z</time></trkpt><trkpt lat="45.63278727379468" lon="9.938095618471035"><ele>218.0</ele><time>2026-04-23T12:17:58.857Z</time></trkpt><trkpt lat="45.63282988223633" lon="9.938023696820228"><ele>217.5</ele><time>2026-04-23T12:17:59.857Z</time></trkpt><trkpt lat="45.63287090508655" lon="9.937935371277668"><ele>217.0</ele><time>2026-04-23T12:18:00.857Z</time></trkpt><trkpt lat="45.6328980307822" lon="9.937850737351466"><ele>216.5</ele><time>2026-04-23T12:18:01.857Z</time></trkpt><trkpt lat="45.63295307938607" lon="9.937664397351847"><ele>216.0</ele><time>2026-04-23T12:18:03.857Z</time></trkpt><trkpt lat="45.632995505761116" lon="9.937558484562103"><ele>216.16666666666666</ele><time>2026-04-23T12:18:04.857Z</time></trkpt><trkpt lat="45.633032502416995" lon="9.93744811311113"><ele>216.33333333333331</ele><time>2026-04-23T12:18:05.857Z</time></trkpt><trkpt lat="45.63306861412428" lon="9.937355793308805"><ele>216.5</ele><time>2026-04-23T12:18:06.857Z</time></trkpt><trkpt lat="45.63310298627312" lon="9.937255656084139"><ele>216.66666666666666</ele><time>2026-04-23T12:18:07.857Z</time></trkpt><trkpt lat="45.63313529210433" lon="9.937162444498766"><ele>216.83333333333331</ele><time>2026-04-23T12:18:08.857Z</time></trkpt><trkpt lat="45.633168739423695" lon="9.937076589068418"><ele>217.0</ele><time>2026-04-23T12:18:09.857Z</time></trkpt><trkpt lat="45.63320541417896" lon="9.936988148903824"><ele>217.0</ele><time>2026-04-23T12:18:10.857Z</time></trkpt><trkpt lat="45.63323978700049" lon="9.93689917338087"><ele>217.0</ele><time>2026-04-23T12:18:11.857Z</time></trkpt><trkpt lat="45.63327420148529" lon="9.936809194373192"><ele>217.0</ele><time>2026-04-23T12:18:12.857Z</time></trkpt><trkpt lat="45.63330922802013" lon="9.936716871594134"><ele>217.0</ele><time>2026-04-23T12:18:13.857Z</time></trkpt><trkpt lat="45.633345461815544" lon="9.936624707966315"><ele>217.0</ele><time>2026-04-23T12:18:14.857Z</time></trkpt><trkpt lat="45.63338018876036" lon="9.936532585769758"><ele>217.0</ele><time>2026-04-23T12:18:15.857Z</time></trkpt><trkpt lat="45.63341629450039" lon="9.936444426664355"><ele>217.0</ele><time>2026-04-23T12:18:16.857Z</time></trkpt><trkpt lat="45.63344993607324" lon="9.936361109869464"><ele>216.83333333333331</ele><time>2026-04-23T12:18:17.857Z</time></trkpt><trkpt lat="45.633483130088784" lon="9.936274237841527"><ele>216.66666666666666</ele><time>2026-04-23T12:18:18.857Z</time></trkpt><trkpt lat="45.633516428060595" lon="9.936190915785453"><ele>216.5</ele><time>2026-04-23T12:18:19.857Z</time></trkpt><trkpt lat="45.633547766692324" lon="9.93609888613633"><ele>216.33333333333331</ele><time>2026-04-23T12:18:20.857Z</time></trkpt><trkpt lat="45.63358860982336" lon="9.936014486914765"><ele>216.16666666666666</ele><time>2026-04-23T12:18:21.857Z</time></trkpt><trkpt lat="45.63364566598385" lon="9.935859445904729"><ele>216.0</ele><time>2026-04-23T12:18:23.857Z</time></trkpt><trkpt lat="45.633681029191706" lon="9.935782583738659"><ele>216.0</ele><time>2026-04-23T12:18:24.857Z</time></trkpt><trkpt lat="45.63374733207909" lon="9.935631170970778"><ele>216.00000000000003</ele><time>2026-04-23T12:18:26.857Z</time></trkpt><trkpt lat="45.6337782679676" lon="9.935539097144861"><ele>216.00000000000003</ele><time>2026-04-23T12:18:27.857Z</time></trkpt><trkpt lat="45.63381070816236" lon="9.935455538687522"><ele>216.0</ele><time>2026-04-23T12:18:28.857Z</time></trkpt><trkpt lat="45.63384651596757" lon="9.935378191881195"><ele>216.0</ele><time>2026-04-23T12:18:29.857Z</time></trkpt><trkpt lat="45.63391292676362" lon="9.935225638219768"><ele>216.0</ele><time>2026-04-23T12:18:31.857Z</time></trkpt><trkpt lat="45.63397518630166" lon="9.93507660266606"><ele>216.00000000000003</ele><time>2026-04-23T12:18:33.857Z</time></trkpt><trkpt lat="45.63403315313789" lon="9.934924894013673"><ele>216.00000000000003</ele><time>2026-04-23T12:18:35.857Z</time></trkpt><trkpt lat="45.63407055301354" lon="9.934846752765072"><ele>216.0</ele><time>2026-04-23T12:18:36.857Z</time></trkpt><trkpt lat="45.63412629284033" lon="9.934685433668477"><ele>216.0</ele><time>2026-04-23T12:18:38.857Z</time></trkpt><trkpt lat="45.63418244119056" lon="9.934536266696501"><ele>215.60000000000002</ele><time>2026-04-23T12:18:40.857Z</time></trkpt><trkpt lat="45.63421465953529" lon="9.934452644025761"><ele>215.20000000000002</ele><time>2026-04-23T12:18:41.857Z</time></trkpt><trkpt lat="45.634271282228184" lon="9.934305725948777"><ele>214.79999999999998</ele><time>2026-04-23T12:18:43.857Z</time></trkpt><trkpt lat="45.63432332354343" lon="9.934173045797653"><ele>214.39999999999998</ele><time>2026-04-23T12:18:45.857Z</time></trkpt><trkpt lat="45.63440103529728" lon="9.934032886883376"><ele>214.0</ele><time>2026-04-23T12:18:47.857Z</time></trkpt><trkpt lat="45.63443671957128" lon="9.93395635994555"><ele>213.79999999999998</ele><time>2026-04-23T12:18:48.857Z</time></trkpt><trkpt lat="45.63450416554954" lon="9.93381458400137"><ele>213.59999999999997</ele><time>2026-04-23T12:18:50.857Z</time></trkpt><trkpt lat="45.63454545013151" lon="9.933736190152405"><ele>213.4</ele><time>2026-04-23T12:18:51.857Z</time></trkpt><trkpt lat="45.63462444895453" lon="9.933602812106905"><ele>213.2</ele><time>2026-04-23T12:18:53.857Z</time></trkpt><trkpt lat="45.63470681381929" lon="9.933486154309044"><ele>213.0</ele><time>2026-04-23T12:18:55.858Z</time></trkpt><trkpt lat="45.63475054442368" lon="9.933418591031982"><ele>213.0</ele><time>2026-04-23T12:18:56.858Z</time></trkpt><trkpt lat="45.63483925125018" lon="9.933318554544657"><ele>213.0</ele><time>2026-04-23T12:18:58.858Z</time></trkpt><trkpt lat="45.634927025323414" lon="9.933243143489022"><ele>213.0</ele><time>2026-04-23T12:19:00.858Z</time></trkpt><trkpt lat="45.63501788317573" lon="9.933228351815938"><ele>213.0</ele><time>2026-04-23T12:19:02.858Z</time></trkpt><trkpt lat="45.63511149543682" lon="9.933236265974216"><ele>213.0</ele><time>2026-04-23T12:19:04.858Z</time></trkpt><trkpt lat="45.635206764976964" lon="9.933284769556577"><ele>213.0</ele><time>2026-04-23T12:19:06.858Z</time></trkpt><trkpt lat="45.63529349530679" lon="9.933330817798577"><ele>213.0</ele><time>2026-04-23T12:19:08.858Z</time></trkpt><trkpt lat="45.635381799540376" lon="9.933346436965314"><ele>213.0</ele><time>2026-04-23T12:19:10.858Z</time></trkpt><trkpt lat="45.63545376775909" lon="9.933380537485093"><ele>213.0</ele><time>2026-04-23T12:19:12.858Z</time></trkpt><trkpt lat="45.63552189873067" lon="9.933401336688943"><ele>213.0</ele><time>2026-04-23T12:19:13.858Z</time></trkpt><trkpt lat="45.63554822601235" lon="9.933518118240059"><ele>213.0</ele><time>2026-04-23T12:19:15.858Z</time></trkpt><trkpt lat="45.63555246532812" lon="9.93368130310085"><ele>213.2</ele><time>2026-04-23T12:19:17.858Z</time></trkpt><trkpt lat="45.6355914692894" lon="9.933790608466195"><ele>213.4</ele><time>2026-04-23T12:19:19.858Z</time></trkpt><trkpt lat="45.63566530806634" lon="9.933827563210407"><ele>213.59999999999997</ele><time>2026-04-23T12:19:21.858Z</time></trkpt><trkpt lat="45.635744946364454" lon="9.933874774275145"><ele>213.79999999999998</ele><time>2026-04-23T12:19:23.858Z</time></trkpt><trkpt lat="45.63585219633317" lon="9.933903484909376"><ele>214.0</ele><time>2026-04-23T12:19:25.858Z</time></trkpt><trkpt lat="45.63594949191629" lon="9.933912046785524"><ele>214.0</ele><time>2026-04-23T12:19:27.858Z</time></trkpt><trkpt lat="45.63603778429318" lon="9.933955454589528"><ele>213.99999999999997</ele><time>2026-04-23T12:19:29.858Z</time></trkpt><trkpt lat="45.636120007004344" lon="9.934023185610512"><ele>213.99999999999997</ele><time>2026-04-23T12:19:32.858Z</time></trkpt><trkpt lat="45.63621486282811" lon="9.934062610556657"><ele>214.0</ele><time>2026-04-23T12:19:34.858Z</time></trkpt><trkpt lat="45.63629734587269" lon="9.934091209876554"><ele>214.0</ele><time>2026-04-23T12:19:36.858Z</time></trkpt><trkpt lat="45.63637465704027" lon="9.934106351995984"><ele>214.16666666666666</ele><time>2026-04-23T12:19:38.858Z</time></trkpt><trkpt lat="45.63645119241663" lon="9.93415462189533"><ele>214.33333333333331</ele><time>2026-04-23T12:19:40.859Z</time></trkpt><trkpt lat="45.63652785781526" lon="9.934202916855547"><ele>214.5</ele><time>2026-04-23T12:19:43.859Z</time></trkpt><trkpt lat="45.63661101998572" lon="9.93422914109895"><ele>214.66666666666669</ele><time>2026-04-23T12:19:47.858Z</time></trkpt><trkpt lat="45.636677537616436" lon="9.934281382154168"><ele>214.83333333333334</ele><time>2026-04-23T12:19:49.858Z</time></trkpt><trkpt lat="45.636735195618215" lon="9.934325024475468"><ele>215.0</ele><time>2026-04-23T12:19:51.859Z</time></trkpt><trkpt lat="45.63678602705584" lon="9.934399275849419"><ele>215.66666666666669</ele><time>2026-04-23T12:19:53.858Z</time></trkpt><trkpt lat="45.63684587376998" lon="9.934461377675598"><ele>216.33333333333334</ele><time>2026-04-23T12:19:55.858Z</time></trkpt><trkpt lat="45.636902071423016" lon="9.93453306102269"><ele>217.0</ele><time>2026-04-23T12:19:57.858Z</time></trkpt><trkpt lat="45.636987249507726" lon="9.934641081578086"><ele>217.66666666666669</ele><time>2026-04-23T12:20:00.858Z</time></trkpt><trkpt lat="45.63704886799394" lon="9.934739258316577"><ele>218.33333333333334</ele><time>2026-04-23T12:20:03.858Z</time></trkpt><trkpt lat="45.63711640541831" lon="9.934802624942286"><ele>219.0</ele><time>2026-04-23T12:20:06.858Z</time></trkpt><trkpt lat="45.63718893915763" lon="9.934864899056107"><ele>219.2</ele><time>2026-04-23T12:20:08.858Z</time></trkpt><trkpt lat="45.63726194917799" lon="9.934930588624082"><ele>219.39999999999998</ele><time>2026-04-23T12:20:10.858Z</time></trkpt><trkpt lat="45.63735242950274" lon="9.935007101026347"><ele>219.6</ele><time>2026-04-23T12:20:12.858Z</time></trkpt><trkpt lat="45.637431942076425" lon="9.935084220234039"><ele>219.8</ele><time>2026-04-23T12:20:14.858Z</time></trkpt><trkpt lat="45.63750441162437" lon="9.935145877372719"><ele>220.0</ele><time>2026-04-23T12:20:16.858Z</time></trkpt><trkpt lat="45.637613312531606" lon="9.935149965803257"><ele>220.0</ele><time>2026-04-23T12:20:18.858Z</time></trkpt><trkpt lat="45.63770783311609" lon="9.935223711035393"><ele>220.0</ele><time>2026-04-23T12:20:20.858Z</time></trkpt><trkpt lat="45.63780907968759" lon="9.935285259648143"><ele>220.0</ele><time>2026-04-23T12:20:22.858Z</time></trkpt><trkpt lat="45.63789046020775" lon="9.935320041894627"><ele>220.0</ele><time>2026-04-23T12:20:24.858Z</time></trkpt><trkpt lat="45.63798771024043" lon="9.93539142224703"><ele>220.0</ele><time>2026-04-23T12:20:26.858Z</time></trkpt><trkpt lat="45.63806597043296" lon="9.935443941376104"><ele>219.99999999999997</ele><time>2026-04-23T12:20:29.858Z</time></trkpt><trkpt lat="45.6381237402463" lon="9.935495784606765"><ele>220.0</ele><time>2026-04-23T12:20:31.858Z</time></trkpt><trkpt lat="45.63818045313917" lon="9.935580307950067"><ele>220.0</ele><time>2026-04-23T12:20:34.858Z</time></trkpt><trkpt lat="45.638259471330926" lon="9.93565006042157"><ele>220.0</ele><time>2026-04-23T12:20:37.858Z</time></trkpt><trkpt lat="45.63833055433682" lon="9.93569593654568"><ele>219.99999999999997</ele><time>2026-04-23T12:20:40.858Z</time></trkpt><trkpt lat="45.63838672012139" lon="9.93573740773024"><ele>220.0</ele><time>2026-04-23T12:20:42.858Z</time></trkpt><trkpt lat="45.63845656534084" lon="9.935742765107744"><ele>219.99999999999997</ele><time>2026-04-23T12:20:44.858Z</time></trkpt><trkpt lat="45.63855784797362" lon="9.935780696462182"><ele>220.0</ele><time>2026-04-23T12:20:46.858Z</time></trkpt><trkpt lat="45.63860914989995" lon="9.935854623453428"><ele>220.0</ele><time>2026-04-23T12:20:47.858Z</time></trkpt><trkpt lat="45.63865149174976" lon="9.935926539422077"><ele>220.0</ele><time>2026-04-23T12:20:48.858Z</time></trkpt><trkpt lat="45.6386981965809" lon="9.935987913501556"><ele>219.99999999999997</ele><time>2026-04-23T12:20:50.858Z</time></trkpt><trkpt lat="45.6387325608842" lon="9.936065725871043"><ele>220.0</ele><time>2026-04-23T12:20:52.858Z</time></trkpt><trkpt lat="45.63880730319703" lon="9.936132343634206"><ele>222.25</ele><time>2026-04-23T12:20:55.858Z</time></trkpt><trkpt lat="45.63890185749363" lon="9.93616755243049"><ele>224.5</ele><time>2026-04-23T12:20:58.858Z</time></trkpt><trkpt lat="45.63898407925474" lon="9.936279040101846"><ele>226.75</ele><time>2026-04-23T12:21:00.858Z</time></trkpt><trkpt lat="45.6391034608398" lon="9.936287136598617"><ele>229.0</ele><time>2026-04-23T12:21:02.858Z</time></trkpt><trkpt lat="45.63922575383603" lon="9.936316281236033"><ele>228.99999999999997</ele><time>2026-04-23T12:21:04.858Z</time></trkpt><trkpt lat="45.63929553792451" lon="9.936327042354604"><ele>229.0</ele><time>2026-04-23T12:21:05.858Z</time></trkpt><trkpt lat="45.639363628437486" lon="9.936336405343818"><ele>229.0</ele><time>2026-04-23T12:21:06.858Z</time></trkpt><trkpt lat="45.639488272873656" lon="9.936272978018078"><ele>229.0</ele><time>2026-04-23T12:21:08.858Z</time></trkpt><trkpt lat="45.63955188092283" lon="9.93628725703549"><ele>228.99999999999997</ele><time>2026-04-23T12:21:09.858Z</time></trkpt><trkpt lat="45.63960523204293" lon="9.936403695407137"><ele>229.0</ele><time>2026-04-23T12:21:11.858Z</time></trkpt><trkpt lat="45.63965274830605" lon="9.936575083067162"><ele>228.83333333333331</ele><time>2026-04-23T12:21:13.858Z</time></trkpt><trkpt lat="45.63966787607549" lon="9.936667096841049"><ele>228.66666666666666</ele><time>2026-04-23T12:21:14.858Z</time></trkpt><trkpt lat="45.639727645782635" lon="9.93673346946157"><ele>228.5</ele><time>2026-04-23T12:21:16.858Z</time></trkpt><trkpt lat="45.63980217360894" lon="9.936804809984412"><ele>228.33333333333331</ele><time>2026-04-23T12:21:18.858Z</time></trkpt><trkpt lat="45.639867577229076" lon="9.936903882252889"><ele>228.16666666666666</ele><time>2026-04-23T12:21:20.858Z</time></trkpt><trkpt lat="45.63996001114835" lon="9.93699228647015"><ele>228.0</ele><time>2026-04-23T12:21:22.858Z</time></trkpt><trkpt lat="45.640022841666806" lon="9.937008664471445"><ele>228.0</ele><time>2026-04-23T12:21:23.858Z</time></trkpt><trkpt lat="45.64010415951818" lon="9.937071021697932"><ele>228.0</ele><time>2026-04-23T12:21:26.858Z</time></trkpt><trkpt lat="45.640165572022084" lon="9.93715462668073"><ele>228.0</ele><time>2026-04-23T12:21:29.858Z</time></trkpt><trkpt lat="45.640210435162984" lon="9.937225440341427"><ele>228.0</ele><time>2026-04-23T12:21:30.858Z</time></trkpt><trkpt lat="45.64029774160276" lon="9.937352751131808"><ele>228.0</ele><time>2026-04-23T12:21:32.858Z</time></trkpt><trkpt lat="45.64039542268045" lon="9.937455446690894"><ele>226.8</ele><time>2026-04-23T12:21:34.858Z</time></trkpt><trkpt lat="45.64050868479893" lon="9.937532085775635"><ele>225.60000000000002</ele><time>2026-04-23T12:21:36.858Z</time></trkpt><trkpt lat="45.64059298837976" lon="9.937577194571734"><ele>224.39999999999998</ele><time>2026-04-23T12:21:38.859Z</time></trkpt><trkpt lat="45.64066915420016" lon="9.9376442079065"><ele>223.2</ele><time>2026-04-23T12:21:40.859Z</time></trkpt><trkpt lat="45.640757323645225" lon="9.93772359329326"><ele>222.0</ele><time>2026-04-23T12:21:42.859Z</time></trkpt><trkpt lat="45.64082527338183" lon="9.937783501540851"><ele>222.8</ele><time>2026-04-23T12:21:43.859Z</time></trkpt><trkpt lat="45.64093008260053" lon="9.937860250029992"><ele>223.6</ele><time>2026-04-23T12:21:45.859Z</time></trkpt><trkpt lat="45.64101447716253" lon="9.93788328118478"><ele>224.40000000000003</ele><time>2026-04-23T12:21:47.858Z</time></trkpt><trkpt lat="45.6410646978965" lon="9.937950286281332"><ele>225.20000000000002</ele><time>2026-04-23T12:21:48.858Z</time></trkpt><trkpt lat="45.64115206603955" lon="9.938004304414704"><ele>226.0</ele><time>2026-04-23T12:21:50.858Z</time></trkpt><trkpt lat="45.64123836070123" lon="9.938051543148712"><ele>225.99999999999997</ele><time>2026-04-23T12:21:52.859Z</time></trkpt><trkpt lat="45.64130108952293" lon="9.938143587630455"><ele>226.0</ele><time>2026-04-23T12:21:54.858Z</time></trkpt><trkpt lat="45.641367027310125" lon="9.938166959284496"><ele>226.0</ele><time>2026-04-23T12:21:56.859Z</time></trkpt><trkpt lat="45.64144296053544" lon="9.938187275644562"><ele>226.0</ele><time>2026-04-23T12:21:58.859Z</time></trkpt><trkpt lat="45.641496059348114" lon="9.938286026490893"><ele>225.99999999999997</ele><time>2026-04-23T12:22:00.859Z</time></trkpt><trkpt lat="45.64158872016245" lon="9.938316297567871"><ele>226.0</ele><time>2026-04-23T12:22:02.859Z</time></trkpt><trkpt lat="45.64166080243572" lon="9.938387127869502"><ele>227.66666666666666</ele><time>2026-04-23T12:22:04.859Z</time></trkpt><trkpt lat="45.64174616590395" lon="9.938444013632513"><ele>229.33333333333331</ele><time>2026-04-23T12:22:06.859Z</time></trkpt><trkpt lat="45.64180851233481" lon="9.938483522608724"><ele>231.0</ele><time>2026-04-23T12:22:08.859Z</time></trkpt><trkpt lat="45.64189726520113" lon="9.9384881786133"><ele>232.66666666666669</ele><time>2026-04-23T12:22:10.859Z</time></trkpt><trkpt lat="45.64196901547949" lon="9.938495009917329"><ele>234.33333333333334</ele><time>2026-04-23T12:22:12.859Z</time></trkpt><trkpt lat="45.64203632145301" lon="9.938499403439137"><ele>236.0</ele><time>2026-04-23T12:22:14.859Z</time></trkpt><trkpt lat="45.64210572720669" lon="9.938526770951666"><ele>236.00000000000003</ele><time>2026-04-23T12:22:16.859Z</time></trkpt><trkpt lat="45.642172128366255" lon="9.938592783848732"><ele>236.0</ele><time>2026-04-23T12:22:18.859Z</time></trkpt><trkpt lat="45.64228123062307" lon="9.938570118075106"><ele>236.0</ele><time>2026-04-23T12:22:20.859Z</time></trkpt><trkpt lat="45.64237322995544" lon="9.938585155278306"><ele>236.0</ele><time>2026-04-23T12:22:22.859Z</time></trkpt><trkpt lat="45.64245091295566" lon="9.938594403793205"><ele>236.00000000000003</ele><time>2026-04-23T12:22:24.859Z</time></trkpt><trkpt lat="45.642519915583456" lon="9.938630344396248"><ele>236.0</ele><time>2026-04-23T12:22:26.859Z</time></trkpt><trkpt lat="45.642624842866425" lon="9.938672425165551"><ele>236.00000000000003</ele><time>2026-04-23T12:22:28.859Z</time></trkpt><trkpt lat="45.642688785506834" lon="9.938692743441658"><ele>236.0</ele><time>2026-04-23T12:22:29.859Z</time></trkpt><trkpt lat="45.642766427763725" lon="9.938700634864853"><ele>236.0</ele><time>2026-04-23T12:22:31.859Z</time></trkpt><trkpt lat="45.642857297561505" lon="9.938712359908603"><ele>236.0</ele><time>2026-04-23T12:22:33.859Z</time></trkpt><trkpt lat="45.64294649400162" lon="9.93872853868193"><ele>236.00000000000003</ele><time>2026-04-23T12:22:35.859Z</time></trkpt><trkpt lat="45.64303707767922" lon="9.938750288943654"><ele>236.0</ele><time>2026-04-23T12:22:37.859Z</time></trkpt><trkpt lat="45.64312774001948" lon="9.938770948455149"><ele>233.60000000000002</ele><time>2026-04-23T12:22:39.859Z</time></trkpt><trkpt lat="45.64321578207602" lon="9.938802088965886"><ele>231.20000000000002</ele><time>2026-04-23T12:22:41.859Z</time></trkpt><trkpt lat="45.64330778546905" lon="9.93886801609031"><ele>228.79999999999998</ele><time>2026-04-23T12:22:43.859Z</time></trkpt><trkpt lat="45.64339394585513" lon="9.938896221849792"><ele>226.39999999999998</ele><time>2026-04-23T12:22:45.859Z</time></trkpt><trkpt lat="45.64349017219201" lon="9.93892058222004"><ele>224.0</ele><time>2026-04-23T12:22:47.859Z</time></trkpt><trkpt lat="45.64358782971023" lon="9.938955169769443"><ele>224.00000000000003</ele><time>2026-04-23T12:22:49.859Z</time></trkpt><trkpt lat="45.64369217076049" lon="9.938955688709187"><ele>224.0</ele><time>2026-04-23T12:22:51.859Z</time></trkpt><trkpt lat="45.64376871271679" lon="9.938999048289327"><ele>224.0</ele><time>2026-04-23T12:22:53.859Z</time></trkpt><trkpt lat="45.64385359565027" lon="9.93902265213921"><ele>224.0</ele><time>2026-04-23T12:22:55.859Z</time></trkpt><trkpt lat="45.64394143911497" lon="9.939061549122243"><ele>224.00000000000003</ele><time>2026-04-23T12:22:57.859Z</time></trkpt><trkpt lat="45.64401687301584" lon="9.939103528551163"><ele>224.0</ele><time>2026-04-23T12:22:59.859Z</time></trkpt><trkpt lat="45.64409719181369" lon="9.939139728053911"><ele>224.00000000000003</ele><time>2026-04-23T12:23:01.859Z</time></trkpt><trkpt lat="45.64417254559964" lon="9.939172116445095"><ele>224.0</ele><time>2026-04-23T12:23:03.859Z</time></trkpt><trkpt lat="45.64422429240113" lon="9.939237646082116"><ele>224.0</ele><time>2026-04-23T12:23:05.859Z</time></trkpt><trkpt lat="45.64428413406968" lon="9.939286988020218"><ele>224.0</ele><time>2026-04-23T12:23:07.859Z</time></trkpt><trkpt lat="45.644352627972616" lon="9.939375770689175"><ele>224.00000000000003</ele><time>2026-04-23T12:23:09.859Z</time></trkpt><trkpt lat="45.644411904286024" lon="9.939478519446583"><ele>224.0</ele><time>2026-04-23T12:23:11.859Z</time></trkpt><trkpt lat="45.6444673674023" lon="9.939548980322193"><ele>224.2</ele><time>2026-04-23T12:23:13.859Z</time></trkpt><trkpt lat="45.64453671282781" lon="9.93963256897449"><ele>224.39999999999998</ele><time>2026-04-23T12:23:15.859Z</time></trkpt><trkpt lat="45.64460041500532" lon="9.939741805232337"><ele>224.6</ele><time>2026-04-23T12:23:17.859Z</time></trkpt><trkpt lat="45.64466307817152" lon="9.939824572043822"><ele>224.8</ele><time>2026-04-23T12:23:19.859Z</time></trkpt><trkpt lat="45.64473460217916" lon="9.939931175366869"><ele>225.0</ele><time>2026-04-23T12:23:21.859Z</time></trkpt><trkpt lat="45.644819763063616" lon="9.94000731027094"><ele>225.6</ele><time>2026-04-23T12:23:23.859Z</time></trkpt><trkpt lat="45.644896444635" lon="9.94011270340457"><ele>226.2</ele><time>2026-04-23T12:23:25.859Z</time></trkpt><trkpt lat="45.644972399647294" lon="9.940192555114873"><ele>226.8</ele><time>2026-04-23T12:23:27.86Z</time></trkpt><trkpt lat="45.64504729276225" lon="9.940257472312014"><ele>227.4</ele><time>2026-04-23T12:23:29.86Z</time></trkpt><trkpt lat="45.64512154564156" lon="9.940371191252355"><ele>228.0</ele><time>2026-04-23T12:23:31.86Z</time></trkpt><trkpt lat="45.645213272488625" lon="9.940459418136788"><ele>228.0</ele><time>2026-04-23T12:23:33.86Z</time></trkpt><trkpt lat="45.64528966199295" lon="9.940551090197753"><ele>228.0</ele><time>2026-04-23T12:23:35.86Z</time></trkpt><trkpt lat="45.645352525307395" lon="9.94063457738311"><ele>228.0</ele><time>2026-04-23T12:23:37.86Z</time></trkpt><trkpt lat="45.645414173316176" lon="9.94070881882574"><ele>228.0</ele><time>2026-04-23T12:23:39.86Z</time></trkpt><trkpt lat="45.64548187152471" lon="9.940790016837271"><ele>228.0</ele><time>2026-04-23T12:23:41.86Z</time></trkpt><trkpt lat="45.64555079816735" lon="9.94087965582322"><ele>228.0</ele><time>2026-04-23T12:23:43.86Z</time></trkpt><trkpt lat="45.64559771758013" lon="9.94094216431629"><ele>228.5</ele><time>2026-04-23T12:23:45.86Z</time></trkpt><trkpt lat="45.645659348892494" lon="9.94104318413281"><ele>229.0</ele><time>2026-04-23T12:23:47.86Z</time></trkpt><trkpt lat="45.64572543830125" lon="9.941112053086057"><ele>229.5</ele><time>2026-04-23T12:23:49.86Z</time></trkpt><trkpt lat="45.645791721202286" lon="9.941208961668735"><ele>230.0</ele><time>2026-04-23T12:23:51.86Z</time></trkpt><trkpt lat="45.645859402601225" lon="9.941290381457833"><ele>230.5</ele><time>2026-04-23T12:23:53.859Z</time></trkpt><trkpt lat="45.645923622199035" lon="9.941374881374921"><ele>231.0</ele><time>2026-04-23T12:23:56.859Z</time></trkpt><trkpt lat="45.645984320553964" lon="9.941457810858124"><ele>231.0</ele><time>2026-04-23T12:23:58.859Z</time></trkpt><trkpt lat="45.64605362927299" lon="9.941546966379963"><ele>231.0</ele><time>2026-04-23T12:24:00.859Z</time></trkpt><trkpt lat="45.646106282750964" lon="9.941620971790709"><ele>231.0</ele><time>2026-04-23T12:24:02.859Z</time></trkpt><trkpt lat="45.64616255106411" lon="9.941699076281338"><ele>231.0</ele><time>2026-04-23T12:24:04.859Z</time></trkpt><trkpt lat="45.64622431666699" lon="9.941763569225053"><ele>231.0</ele><time>2026-04-23T12:24:06.86Z</time></trkpt><trkpt lat="45.64627393394731" lon="9.941825974152263"><ele>231.0</ele><time>2026-04-23T12:24:08.86Z</time></trkpt><trkpt lat="45.646348268929884" lon="9.941891506457633"><ele>231.0</ele><time>2026-04-23T12:24:11.86Z</time></trkpt><trkpt lat="45.646431981330274" lon="9.941958888362079"><ele>231.0</ele><time>2026-04-23T12:24:14.86Z</time></trkpt><trkpt lat="45.646496806606415" lon="9.942040918765317"><ele>231.0</ele><time>2026-04-23T12:24:17.86Z</time></trkpt><trkpt lat="45.64654877916655" lon="9.942093121881053"><ele>231.0</ele><time>2026-04-23T12:24:19.86Z</time></trkpt><trkpt lat="45.646624267610214" lon="9.942140377411484"><ele>231.0</ele><time>2026-04-23T12:24:21.86Z</time></trkpt><trkpt lat="45.64670117283248" lon="9.942197250879692"><ele>231.0</ele><time>2026-04-23T12:24:23.86Z</time></trkpt><trkpt lat="45.64678941060422" lon="9.942277893843674"><ele>231.0</ele><time>2026-04-23T12:24:25.86Z</time></trkpt><trkpt lat="45.646874101085075" lon="9.94235593809449"><ele>231.00000000000003</ele><time>2026-04-23T12:24:27.86Z</time></trkpt><trkpt lat="45.64695746433284" lon="9.942416223669788"><ele>231.00000000000003</ele><time>2026-04-23T12:24:29.86Z</time></trkpt><trkpt lat="45.647043987339664" lon="9.942464199602366"><ele>231.0</ele><time>2026-04-23T12:24:31.86Z</time></trkpt><trkpt lat="45.647119975268545" lon="9.942528859023765"><ele>231.0</ele><time>2026-04-23T12:24:33.86Z</time></trkpt><trkpt lat="45.64719926973198" lon="9.942570254336886"><ele>231.20000000000002</ele><time>2026-04-23T12:24:35.86Z</time></trkpt><trkpt lat="45.64728400407945" lon="9.94264612005253"><ele>231.40000000000003</ele><time>2026-04-23T12:24:37.86Z</time></trkpt><trkpt lat="45.64735387830939" lon="9.942732089841469"><ele>231.6</ele><time>2026-04-23T12:24:39.86Z</time></trkpt><trkpt lat="45.647435648121274" lon="9.942835557418784"><ele>231.8</ele><time>2026-04-23T12:24:41.86Z</time></trkpt><trkpt lat="45.6475004186308" lon="9.942914116285227"><ele>232.0</ele><time>2026-04-23T12:24:43.86Z</time></trkpt><trkpt lat="45.64756542458576" lon="9.94298999319235"><ele>231.99999999999997</ele><time>2026-04-23T12:24:45.86Z</time></trkpt><trkpt lat="45.64762216439937" lon="9.943037321106866"><ele>232.0</ele><time>2026-04-23T12:24:47.86Z</time></trkpt><trkpt lat="45.64769541704276" lon="9.943142479541283"><ele>232.0</ele><time>2026-04-23T12:24:49.86Z</time></trkpt><trkpt lat="45.64776093212079" lon="9.94322969772826"><ele>232.0</ele><time>2026-04-23T12:24:51.86Z</time></trkpt><trkpt lat="45.64782673871507" lon="9.943287125758708"><ele>231.99999999999997</ele><time>2026-04-23T12:24:53.86Z</time></trkpt><trkpt lat="45.647896872453224" lon="9.943386756825658"><ele>232.0</ele><time>2026-04-23T12:24:55.86Z</time></trkpt><trkpt lat="45.64798738829851" lon="9.943487632177979"><ele>233.2</ele><time>2026-04-23T12:24:57.86Z</time></trkpt><trkpt lat="45.648064002298945" lon="9.943575643862939"><ele>234.39999999999998</ele><time>2026-04-23T12:24:59.86Z</time></trkpt><trkpt lat="45.64811747956168" lon="9.943630204077088"><ele>235.60000000000002</ele><time>2026-04-23T12:25:00.86Z</time></trkpt><trkpt lat="45.64820467155111" lon="9.943718972109696"><ele>236.8</ele><time>2026-04-23T12:25:02.86Z</time></trkpt><trkpt lat="45.648293593661734" lon="9.943787294185325"><ele>238.0</ele><time>2026-04-23T12:25:04.86Z</time></trkpt><trkpt lat="45.64837264299042" lon="9.943857346609217"><ele>237.99999999999997</ele><time>2026-04-23T12:25:06.86Z</time></trkpt><trkpt lat="45.64844979774768" lon="9.943921672866058"><ele>238.0</ele><time>2026-04-23T12:25:08.86Z</time></trkpt><trkpt lat="45.64852761541881" lon="9.943992268346323"><ele>238.0</ele><time>2026-04-23T12:25:10.86Z</time></trkpt><trkpt lat="45.64860023269336" lon="9.944077239816403"><ele>238.0</ele><time>2026-04-23T12:25:12.86Z</time></trkpt><trkpt lat="45.648666988498576" lon="9.944142378274494"><ele>237.99999999999997</ele><time>2026-04-23T12:25:14.86Z</time></trkpt><trkpt lat="45.64873728069335" lon="9.94420848251745"><ele>238.0</ele><time>2026-04-23T12:25:16.86Z</time></trkpt><trkpt lat="45.648796434591844" lon="9.944255105629479"><ele>238.16666666666666</ele><time>2026-04-23T12:25:18.86Z</time></trkpt><trkpt lat="45.648866297450354" lon="9.944312972254902"><ele>238.33333333333331</ele><time>2026-04-23T12:25:20.86Z</time></trkpt><trkpt lat="45.64894209207456" lon="9.944381768347766"><ele>238.5</ele><time>2026-04-23T12:25:22.86Z</time></trkpt><trkpt lat="45.6490052534453" lon="9.944477078043965"><ele>238.66666666666669</ele><time>2026-04-23T12:25:24.86Z</time></trkpt><trkpt lat="45.64906953093573" lon="9.944569660066977"><ele>238.83333333333334</ele><time>2026-04-23T12:25:26.86Z</time></trkpt><trkpt lat="45.64912162181069" lon="9.944646366836919"><ele>239.0</ele><time>2026-04-23T12:25:28.86Z</time></trkpt><trkpt lat="45.64919170798378" lon="9.944733380697267"><ele>239.00000000000003</ele><time>2026-04-23T12:25:30.86Z</time></trkpt><trkpt lat="45.649250836637705" lon="9.944815950754098"><ele>239.0</ele><time>2026-04-23T12:25:32.86Z</time></trkpt><trkpt lat="45.64931113033515" lon="9.944904525655604"><ele>239.0</ele><time>2026-04-23T12:25:34.86Z</time></trkpt><trkpt lat="45.64937402517432" lon="9.944973651319277"><ele>239.0</ele><time>2026-04-23T12:25:36.86Z</time></trkpt><trkpt lat="45.64943647450556" lon="9.945047008234697"><ele>239.00000000000003</ele><time>2026-04-23T12:25:38.86Z</time></trkpt><trkpt lat="45.649494813826145" lon="9.945116516382237"><ele>239.0</ele><time>2026-04-23T12:25:40.86Z</time></trkpt><trkpt lat="45.64956914406551" lon="9.945191385766888"><ele>239.28571428571433</ele><time>2026-04-23T12:25:42.86Z</time></trkpt><trkpt lat="45.649619046890834" lon="9.945248265065418"><ele>239.57142857142858</ele><time>2026-04-23T12:25:44.86Z</time></trkpt><trkpt lat="45.64967950002938" lon="9.945309153467301"><ele>239.8571428571429</ele><time>2026-04-23T12:25:46.86Z</time></trkpt><trkpt lat="45.64972663139441" lon="9.945374105025762"><ele>240.14285714285717</ele><time>2026-04-23T12:25:48.86Z</time></trkpt><trkpt lat="45.64979391675274" lon="9.945426665288743"><ele>240.42857142857144</ele><time>2026-04-23T12:25:50.86Z</time></trkpt><trkpt lat="45.64986843613416" lon="9.94549035708151"><ele>240.71428571428572</ele><time>2026-04-23T12:25:53.86Z</time></trkpt><trkpt lat="45.64992818554349" lon="9.945540379588085"><ele>241.0</ele><time>2026-04-23T12:25:55.86Z</time></trkpt><trkpt lat="45.64998431216392" lon="9.945585467111433"><ele>241.0</ele><time>2026-04-23T12:25:57.86Z</time></trkpt><trkpt lat="45.65004720278092" lon="9.94564071621947"><ele>241.00000000000003</ele><time>2026-04-23T12:25:59.86Z</time></trkpt><trkpt lat="45.650108437137256" lon="9.945694413272182"><ele>241.0</ele><time>2026-04-23T12:26:01.86Z</time></trkpt><trkpt lat="45.65016019025311" lon="9.945749897125731"><ele>241.0</ele><time>2026-04-23T12:26:03.86Z</time></trkpt><trkpt lat="45.65021805929771" lon="9.945806351789175"><ele>241.00000000000003</ele><time>2026-04-23T12:26:05.86Z</time></trkpt><trkpt lat="45.65027596010178" lon="9.945853199000476"><ele>241.0</ele><time>2026-04-23T12:26:07.86Z</time></trkpt><trkpt lat="45.65033195660953" lon="9.945917587529415"><ele>241.0</ele><time>2026-04-23T12:26:09.86Z</time></trkpt><trkpt lat="45.65039284698354" lon="9.945947087405036"><ele>240.99999999999997</ele><time>2026-04-23T12:26:13.86Z</time></trkpt><trkpt lat="45.65045598629606" lon="9.945929534660731"><ele>241.0</ele><time>2026-04-23T12:26:16.86Z</time></trkpt><trkpt lat="45.65053713192872" lon="9.945881134250374"><ele>241.0</ele><time>2026-04-23T12:26:19.86Z</time></trkpt><trkpt lat="45.65059044602456" lon="9.945813443296625"><ele>241.0</ele><time>2026-04-23T12:26:21.86Z</time></trkpt><trkpt lat="45.65065283733492" lon="9.945712800244248"><ele>240.99999999999997</ele><time>2026-04-23T12:26:24.86Z</time></trkpt><trkpt lat="45.65070366209584" lon="9.945631278392389"><ele>241.0</ele><time>2026-04-23T12:26:26.86Z</time></trkpt><trkpt lat="45.65076298042295" lon="9.94554922168099"><ele>240.20000000000002</ele><time>2026-04-23T12:26:28.86Z</time></trkpt><trkpt lat="45.65082534359581" lon="9.945440949963553"><ele>239.40000000000003</ele><time>2026-04-23T12:26:30.86Z</time></trkpt><trkpt lat="45.65088238564372" lon="9.945348506398854"><ele>238.6</ele><time>2026-04-23T12:26:32.86Z</time></trkpt><trkpt lat="45.65094413362295" lon="9.945237533606157"><ele>237.8</ele><time>2026-04-23T12:26:34.86Z</time></trkpt><trkpt lat="45.6510180196502" lon="9.945135784547483"><ele>237.0</ele><time>2026-04-23T12:26:36.86Z</time></trkpt><trkpt lat="45.651110944420296" lon="9.94507640239421"><ele>236.99999999999997</ele><time>2026-04-23T12:26:38.86Z</time></trkpt><trkpt lat="45.651167114567805" lon="9.945030078652005"><ele>237.0</ele><time>2026-04-23T12:26:40.86Z</time></trkpt><trkpt lat="45.65124322179139" lon="9.945014229532598"><ele>236.99999999999997</ele><time>2026-04-23T12:26:43.86Z</time></trkpt><trkpt lat="45.65131420855282" lon="9.944999870870767"><ele>236.99999999999997</ele><time>2026-04-23T12:26:47.86Z</time></trkpt><trkpt lat="45.6513773082246" lon="9.94498707998516"><ele>237.0</ele><time>2026-04-23T12:26:50.86Z</time></trkpt><trkpt lat="45.65145800623333" lon="9.945014567587343"><ele>236.99999999999997</ele><time>2026-04-23T12:26:54.86Z</time></trkpt><trkpt lat="45.65152194083617" lon="9.945037231445866"><ele>236.99999999999997</ele><time>2026-04-23T12:26:56.86Z</time></trkpt><trkpt lat="45.65159152106795" lon="9.945072717186658"><ele>237.0</ele><time>2026-04-23T12:26:58.86Z</time></trkpt><trkpt lat="45.65165153086722" lon="9.945100412921473"><ele>237.0</ele><time>2026-04-23T12:27:00.86Z</time></trkpt><trkpt lat="45.65171633696609" lon="9.945093306532387"><ele>237.0</ele><time>2026-04-23T12:27:02.86Z</time></trkpt><trkpt lat="45.651778294288455" lon="9.945070034752206"><ele>237.0</ele><time>2026-04-23T12:27:04.86Z</time></trkpt><trkpt lat="45.65184590293586" lon="9.945049429988961"><ele>237.0</ele><time>2026-04-23T12:27:07.86Z</time></trkpt></trkseg></trk></gpx>